<?xml version="1.0" encoding="UTF-8" standalone="no" ?>
<gpx xmlns="http://www.topografix.com/GPX/1/1" xmlns:xsi="http://www.w3.org/2001/XMLSchema-instance" xsi:schemaLocation="http://www.topografix.com/GPX/1/1 http://www.topografix.com/GPX/1/1/gpx.xsd" version="1.1" creator="VisuGPX - https://www.visugpx.com">
  <metadata>
    <name>sortie Marhles Via pont salomon crouzet dunière</name>
  </metadata>
  <trk>
    <name><![CDATA[sortie Marhles Via pont salomon crouzet dunière_1]]></name>
    <trkseg>
      <trkpt lat="45.35388" lon="4.29842">
        <ele>810.6</ele>
        <time>2023-03-29T11:48:24Z</time>
      </trkpt>
      <trkpt lat="45.35388" lon="4.29842">
        <ele>809.8</ele>
        <time>2023-03-29T11:48:25Z</time>
      </trkpt>
      <trkpt lat="45.35391" lon="4.29839">
        <ele>810.4</ele>
        <time>2023-03-29T11:48:40Z</time>
      </trkpt>
      <trkpt lat="45.35395" lon="4.29829">
        <ele>810.4</ele>
        <time>2023-03-29T11:48:43Z</time>
      </trkpt>
      <trkpt lat="45.35396" lon="4.29825">
        <ele>810.4</ele>
        <time>2023-03-29T11:48:44Z</time>
      </trkpt>
      <trkpt lat="45.35398" lon="4.29808">
        <ele>810.2</ele>
        <time>2023-03-29T11:48:48Z</time>
      </trkpt>
      <trkpt lat="45.35397" lon="4.29788">
        <ele>810.6</ele>
        <time>2023-03-29T11:48:56Z</time>
      </trkpt>
      <trkpt lat="45.35394" lon="4.29785">
        <ele>810.8</ele>
        <time>2023-03-29T11:48:58Z</time>
      </trkpt>
      <trkpt lat="45.35388" lon="4.29787">
        <ele>811.4</ele>
        <time>2023-03-29T11:49:01Z</time>
      </trkpt>
      <trkpt lat="45.35385" lon="4.29791">
        <ele>812</ele>
        <time>2023-03-29T11:49:03Z</time>
      </trkpt>
      <trkpt lat="45.35374" lon="4.29802">
        <ele>813</ele>
        <time>2023-03-29T11:49:09Z</time>
      </trkpt>
      <trkpt lat="45.35369" lon="4.29808">
        <ele>813.8</ele>
        <time>2023-03-29T11:49:12Z</time>
      </trkpt>
      <trkpt lat="45.35366" lon="4.29811">
        <ele>814.2</ele>
        <time>2023-03-29T11:49:14Z</time>
      </trkpt>
      <trkpt lat="45.35364" lon="4.29813">
        <ele>814.6</ele>
        <time>2023-03-29T11:49:16Z</time>
      </trkpt>
      <trkpt lat="45.35357" lon="4.2982">
        <ele>815.4</ele>
        <time>2023-03-29T11:49:19Z</time>
      </trkpt>
      <trkpt lat="45.35347" lon="4.29831">
        <ele>816.6</ele>
        <time>2023-03-29T11:49:25Z</time>
      </trkpt>
      <trkpt lat="45.35345" lon="4.29833">
        <ele>816.8</ele>
        <time>2023-03-29T11:49:26Z</time>
      </trkpt>
      <trkpt lat="45.35339" lon="4.2984">
        <ele>817.8</ele>
        <time>2023-03-29T11:49:30Z</time>
      </trkpt>
      <trkpt lat="45.35331" lon="4.2985">
        <ele>819</ele>
        <time>2023-03-29T11:49:35Z</time>
      </trkpt>
      <trkpt lat="45.35326" lon="4.29856">
        <ele>819.4</ele>
        <time>2023-03-29T11:49:38Z</time>
      </trkpt>
      <trkpt lat="45.35322" lon="4.2986">
        <ele>820</ele>
        <time>2023-03-29T11:49:40Z</time>
      </trkpt>
      <trkpt lat="45.35311" lon="4.29872">
        <ele>821</ele>
        <time>2023-03-29T11:49:46Z</time>
      </trkpt>
      <trkpt lat="45.35309" lon="4.29874">
        <ele>821.2</ele>
        <time>2023-03-29T11:49:47Z</time>
      </trkpt>
      <trkpt lat="45.35296" lon="4.29891">
        <ele>822.2</ele>
        <time>2023-03-29T11:49:54Z</time>
      </trkpt>
      <trkpt lat="45.35294" lon="4.29893">
        <ele>822.4</ele>
        <time>2023-03-29T11:49:55Z</time>
      </trkpt>
      <trkpt lat="45.35286" lon="4.29902">
        <ele>823.4</ele>
        <time>2023-03-29T11:49:59Z</time>
      </trkpt>
      <trkpt lat="45.35274" lon="4.29916">
        <ele>824.4</ele>
        <time>2023-03-29T11:50:05Z</time>
      </trkpt>
      <trkpt lat="45.35272" lon="4.29918">
        <ele>824.8</ele>
        <time>2023-03-29T11:50:06Z</time>
      </trkpt>
      <trkpt lat="45.3526" lon="4.29933">
        <ele>826</ele>
        <time>2023-03-29T11:50:12Z</time>
      </trkpt>
      <trkpt lat="45.35254" lon="4.2994">
        <ele>826.4</ele>
        <time>2023-03-29T11:50:15Z</time>
      </trkpt>
      <trkpt lat="45.35244" lon="4.29952">
        <ele>827</ele>
        <time>2023-03-29T11:50:20Z</time>
      </trkpt>
      <trkpt lat="45.3524" lon="4.29957">
        <ele>827.2</ele>
        <time>2023-03-29T11:50:22Z</time>
      </trkpt>
      <trkpt lat="45.3523" lon="4.29969">
        <ele>828</ele>
        <time>2023-03-29T11:50:27Z</time>
      </trkpt>
      <trkpt lat="45.35228" lon="4.29971">
        <ele>828.2</ele>
        <time>2023-03-29T11:50:28Z</time>
      </trkpt>
      <trkpt lat="45.35225" lon="4.29976">
        <ele>828.4</ele>
        <time>2023-03-29T11:50:30Z</time>
      </trkpt>
      <trkpt lat="45.35219" lon="4.29983">
        <ele>829.2</ele>
        <time>2023-03-29T11:50:33Z</time>
      </trkpt>
      <trkpt lat="45.35205" lon="4.3">
        <ele>830.2</ele>
        <time>2023-03-29T11:50:40Z</time>
      </trkpt>
      <trkpt lat="45.35203" lon="4.30002">
        <ele>830.6</ele>
        <time>2023-03-29T11:50:41Z</time>
      </trkpt>
      <trkpt lat="45.35195" lon="4.30012">
        <ele>831.2</ele>
        <time>2023-03-29T11:50:45Z</time>
      </trkpt>
      <trkpt lat="45.35183" lon="4.30026">
        <ele>832.4</ele>
        <time>2023-03-29T11:50:51Z</time>
      </trkpt>
      <trkpt lat="45.35177" lon="4.30034">
        <ele>832.6</ele>
        <time>2023-03-29T11:50:54Z</time>
      </trkpt>
      <trkpt lat="45.35169" lon="4.30044">
        <ele>833.4</ele>
        <time>2023-03-29T11:50:58Z</time>
      </trkpt>
      <trkpt lat="45.35157" lon="4.30059">
        <ele>834.6</ele>
        <time>2023-03-29T11:51:04Z</time>
      </trkpt>
      <trkpt lat="45.3515" lon="4.30069">
        <ele>835</ele>
        <time>2023-03-29T11:51:08Z</time>
      </trkpt>
      <trkpt lat="45.35144" lon="4.30076">
        <ele>835.8</ele>
        <time>2023-03-29T11:51:11Z</time>
      </trkpt>
      <trkpt lat="45.35138" lon="4.30084">
        <ele>836</ele>
        <time>2023-03-29T11:51:14Z</time>
      </trkpt>
      <trkpt lat="45.35125" lon="4.30102">
        <ele>836.8</ele>
        <time>2023-03-29T11:51:20Z</time>
      </trkpt>
      <trkpt lat="45.35118" lon="4.30111">
        <ele>837.2</ele>
        <time>2023-03-29T11:51:23Z</time>
      </trkpt>
      <trkpt lat="45.35102" lon="4.30131">
        <ele>837.8</ele>
        <time>2023-03-29T11:51:30Z</time>
      </trkpt>
      <trkpt lat="45.35099" lon="4.30134">
        <ele>838</ele>
        <time>2023-03-29T11:51:31Z</time>
      </trkpt>
      <trkpt lat="45.35076" lon="4.30165">
        <ele>839</ele>
        <time>2023-03-29T11:51:41Z</time>
      </trkpt>
      <trkpt lat="45.35058" lon="4.30188">
        <ele>840</ele>
        <time>2023-03-29T11:51:49Z</time>
      </trkpt>
      <trkpt lat="45.35056" lon="4.30191">
        <ele>840.2</ele>
        <time>2023-03-29T11:51:50Z</time>
      </trkpt>
      <trkpt lat="45.35049" lon="4.30198">
        <ele>840.8</ele>
        <time>2023-03-29T11:51:53Z</time>
      </trkpt>
      <trkpt lat="45.35045" lon="4.30204">
        <ele>841.2</ele>
        <time>2023-03-29T11:51:55Z</time>
      </trkpt>
      <trkpt lat="45.35037" lon="4.30215">
        <ele>841.8</ele>
        <time>2023-03-29T11:51:59Z</time>
      </trkpt>
      <trkpt lat="45.35033" lon="4.30221">
        <ele>842.2</ele>
        <time>2023-03-29T11:52:01Z</time>
      </trkpt>
      <trkpt lat="45.35023" lon="4.30234">
        <ele>843.2</ele>
        <time>2023-03-29T11:52:06Z</time>
      </trkpt>
      <trkpt lat="45.35022" lon="4.30237">
        <ele>843.6</ele>
        <time>2023-03-29T11:52:07Z</time>
      </trkpt>
      <trkpt lat="45.35014" lon="4.30246">
        <ele>844.4</ele>
        <time>2023-03-29T11:52:11Z</time>
      </trkpt>
      <trkpt lat="45.35006" lon="4.30256">
        <ele>845.2</ele>
        <time>2023-03-29T11:52:15Z</time>
      </trkpt>
      <trkpt lat="45.35004" lon="4.30258">
        <ele>845.4</ele>
        <time>2023-03-29T11:52:16Z</time>
      </trkpt>
      <trkpt lat="45.34996" lon="4.3027">
        <ele>846.6</ele>
        <time>2023-03-29T11:52:21Z</time>
      </trkpt>
      <trkpt lat="45.34992" lon="4.30275">
        <ele>847.2</ele>
        <time>2023-03-29T11:52:23Z</time>
      </trkpt>
      <trkpt lat="45.34986" lon="4.30285">
        <ele>848</ele>
        <time>2023-03-29T11:52:27Z</time>
      </trkpt>
      <trkpt lat="45.34977" lon="4.30296">
        <ele>849.4</ele>
        <time>2023-03-29T11:52:32Z</time>
      </trkpt>
      <trkpt lat="45.3497" lon="4.30306">
        <ele>850.2</ele>
        <time>2023-03-29T11:52:36Z</time>
      </trkpt>
      <trkpt lat="45.34968" lon="4.30309">
        <ele>850.4</ele>
        <time>2023-03-29T11:52:37Z</time>
      </trkpt>
      <trkpt lat="45.34957" lon="4.30322">
        <ele>851.6</ele>
        <time>2023-03-29T11:52:43Z</time>
      </trkpt>
      <trkpt lat="45.34953" lon="4.30327">
        <ele>852</ele>
        <time>2023-03-29T11:52:45Z</time>
      </trkpt>
      <trkpt lat="45.34948" lon="4.30335">
        <ele>852.6</ele>
        <time>2023-03-29T11:52:48Z</time>
      </trkpt>
      <trkpt lat="45.3494" lon="4.3035">
        <ele>853.4</ele>
        <time>2023-03-29T11:52:53Z</time>
      </trkpt>
      <trkpt lat="45.34937" lon="4.30355">
        <ele>853.8</ele>
        <time>2023-03-29T11:52:55Z</time>
      </trkpt>
      <trkpt lat="45.3493" lon="4.30376">
        <ele>854.6</ele>
        <time>2023-03-29T11:53:01Z</time>
      </trkpt>
      <trkpt lat="45.34927" lon="4.30382">
        <ele>855</ele>
        <time>2023-03-29T11:53:03Z</time>
      </trkpt>
      <trkpt lat="45.34915" lon="4.30412">
        <ele>855.8</ele>
        <time>2023-03-29T11:53:11Z</time>
      </trkpt>
      <trkpt lat="45.34904" lon="4.30426">
        <ele>856</ele>
        <time>2023-03-29T11:53:15Z</time>
      </trkpt>
      <trkpt lat="45.34902" lon="4.30431">
        <ele>856</ele>
        <time>2023-03-29T11:53:16Z</time>
      </trkpt>
      <trkpt lat="45.34896" lon="4.30438">
        <ele>855.8</ele>
        <time>2023-03-29T11:53:18Z</time>
      </trkpt>
      <trkpt lat="45.34882" lon="4.30455">
        <ele>855.6</ele>
        <time>2023-03-29T11:53:22Z</time>
      </trkpt>
      <trkpt lat="45.34878" lon="4.30459">
        <ele>855.6</ele>
        <time>2023-03-29T11:53:23Z</time>
      </trkpt>
      <trkpt lat="45.34865" lon="4.30469">
        <ele>855.2</ele>
        <time>2023-03-29T11:53:26Z</time>
      </trkpt>
      <trkpt lat="45.34857" lon="4.30473">
        <ele>854.8</ele>
        <time>2023-03-29T11:53:28Z</time>
      </trkpt>
      <trkpt lat="45.34853" lon="4.30475">
        <ele>854.6</ele>
        <time>2023-03-29T11:53:29Z</time>
      </trkpt>
      <trkpt lat="45.34849" lon="4.30478">
        <ele>854.2</ele>
        <time>2023-03-29T11:53:30Z</time>
      </trkpt>
      <trkpt lat="45.34841" lon="4.30488">
        <ele>853.8</ele>
        <time>2023-03-29T11:53:32Z</time>
      </trkpt>
      <trkpt lat="45.34838" lon="4.30495">
        <ele>853.4</ele>
        <time>2023-03-29T11:53:33Z</time>
      </trkpt>
      <trkpt lat="45.34837" lon="4.30503">
        <ele>853.2</ele>
        <time>2023-03-29T11:53:34Z</time>
      </trkpt>
      <trkpt lat="45.34835" lon="4.30524">
        <ele>852.4</ele>
        <time>2023-03-29T11:53:36Z</time>
      </trkpt>
      <trkpt lat="45.34834" lon="4.30535">
        <ele>852</ele>
        <time>2023-03-29T11:53:37Z</time>
      </trkpt>
      <trkpt lat="45.34825" lon="4.30571">
        <ele>850.8</ele>
        <time>2023-03-29T11:53:40Z</time>
      </trkpt>
      <trkpt lat="45.34818" lon="4.306">
        <ele>849.6</ele>
        <time>2023-03-29T11:53:42Z</time>
      </trkpt>
      <trkpt lat="45.3481" lon="4.30628">
        <ele>848.2</ele>
        <time>2023-03-29T11:53:44Z</time>
      </trkpt>
      <trkpt lat="45.34802" lon="4.30657">
        <ele>846.6</ele>
        <time>2023-03-29T11:53:46Z</time>
      </trkpt>
      <trkpt lat="45.34793" lon="4.30687">
        <ele>845</ele>
        <time>2023-03-29T11:53:48Z</time>
      </trkpt>
      <trkpt lat="45.34784" lon="4.30718">
        <ele>843.6</ele>
        <time>2023-03-29T11:53:50Z</time>
      </trkpt>
      <trkpt lat="45.34776" lon="4.30747">
        <ele>842.2</ele>
        <time>2023-03-29T11:53:52Z</time>
      </trkpt>
      <trkpt lat="45.34772" lon="4.30763">
        <ele>841.2</ele>
        <time>2023-03-29T11:53:53Z</time>
      </trkpt>
      <trkpt lat="45.34766" lon="4.30791">
        <ele>840</ele>
        <time>2023-03-29T11:53:55Z</time>
      </trkpt>
      <trkpt lat="45.34764" lon="4.30805">
        <ele>838.6</ele>
        <time>2023-03-29T11:53:56Z</time>
      </trkpt>
      <trkpt lat="45.34761" lon="4.3082">
        <ele>838</ele>
        <time>2023-03-29T11:53:57Z</time>
      </trkpt>
      <trkpt lat="45.34759" lon="4.30833">
        <ele>837.4</ele>
        <time>2023-03-29T11:53:58Z</time>
      </trkpt>
      <trkpt lat="45.3475" lon="4.30881">
        <ele>836.8</ele>
        <time>2023-03-29T11:54:02Z</time>
      </trkpt>
      <trkpt lat="45.34741" lon="4.3093">
        <ele>837.4</ele>
        <time>2023-03-29T11:54:07Z</time>
      </trkpt>
      <trkpt lat="45.34724" lon="4.31003">
        <ele>837.8</ele>
        <time>2023-03-29T11:54:15Z</time>
      </trkpt>
      <trkpt lat="45.34721" lon="4.3101">
        <ele>837.6</ele>
        <time>2023-03-29T11:54:16Z</time>
      </trkpt>
      <trkpt lat="45.34712" lon="4.31022">
        <ele>837.6</ele>
        <time>2023-03-29T11:54:18Z</time>
      </trkpt>
      <trkpt lat="45.34701" lon="4.31031">
        <ele>837.4</ele>
        <time>2023-03-29T11:54:20Z</time>
      </trkpt>
      <trkpt lat="45.34685" lon="4.31039">
        <ele>837.4</ele>
        <time>2023-03-29T11:54:23Z</time>
      </trkpt>
      <trkpt lat="45.3465" lon="4.31058">
        <ele>838</ele>
        <time>2023-03-29T11:54:30Z</time>
      </trkpt>
      <trkpt lat="45.3464" lon="4.31063">
        <ele>838.2</ele>
        <time>2023-03-29T11:54:32Z</time>
      </trkpt>
      <trkpt lat="45.34635" lon="4.31066">
        <ele>838.4</ele>
        <time>2023-03-29T11:54:33Z</time>
      </trkpt>
      <trkpt lat="45.34598" lon="4.31086">
        <ele>838.8</ele>
        <time>2023-03-29T11:54:40Z</time>
      </trkpt>
      <trkpt lat="45.34549" lon="4.31111">
        <ele>838.2</ele>
        <time>2023-03-29T11:54:49Z</time>
      </trkpt>
      <trkpt lat="45.345" lon="4.31129">
        <ele>837.6</ele>
        <time>2023-03-29T11:54:58Z</time>
      </trkpt>
      <trkpt lat="45.34484" lon="4.31132">
        <ele>837.6</ele>
        <time>2023-03-29T11:55:01Z</time>
      </trkpt>
      <trkpt lat="45.34468" lon="4.31133">
        <ele>837.6</ele>
        <time>2023-03-29T11:55:04Z</time>
      </trkpt>
      <trkpt lat="45.34416" lon="4.31142">
        <ele>838.2</ele>
        <time>2023-03-29T11:55:14Z</time>
      </trkpt>
      <trkpt lat="45.34405" lon="4.31145">
        <ele>838.2</ele>
        <time>2023-03-29T11:55:16Z</time>
      </trkpt>
      <trkpt lat="45.34394" lon="4.31147">
        <ele>838</ele>
        <time>2023-03-29T11:55:18Z</time>
      </trkpt>
      <trkpt lat="45.34367" lon="4.31151">
        <ele>837.8</ele>
        <time>2023-03-29T11:55:23Z</time>
      </trkpt>
      <trkpt lat="45.34355" lon="4.31152">
        <ele>837.6</ele>
        <time>2023-03-29T11:55:25Z</time>
      </trkpt>
      <trkpt lat="45.34344" lon="4.31155">
        <ele>837.4</ele>
        <time>2023-03-29T11:55:27Z</time>
      </trkpt>
      <trkpt lat="45.34331" lon="4.31156">
        <ele>837.2</ele>
        <time>2023-03-29T11:55:29Z</time>
      </trkpt>
      <trkpt lat="45.34304" lon="4.3116">
        <ele>836.4</ele>
        <time>2023-03-29T11:55:33Z</time>
      </trkpt>
      <trkpt lat="45.34257" lon="4.31171">
        <ele>835.2</ele>
        <time>2023-03-29T11:55:41Z</time>
      </trkpt>
      <trkpt lat="45.34228" lon="4.31182">
        <ele>835</ele>
        <time>2023-03-29T11:55:47Z</time>
      </trkpt>
      <trkpt lat="45.34216" lon="4.31189">
        <ele>834.8</ele>
        <time>2023-03-29T11:55:50Z</time>
      </trkpt>
      <trkpt lat="45.34205" lon="4.31197">
        <ele>835</ele>
        <time>2023-03-29T11:55:53Z</time>
      </trkpt>
      <trkpt lat="45.3419" lon="4.31197">
        <ele>835.2</ele>
        <time>2023-03-29T11:55:57Z</time>
      </trkpt>
      <trkpt lat="45.34166" lon="4.3119">
        <ele>836.4</ele>
        <time>2023-03-29T11:56:03Z</time>
      </trkpt>
      <trkpt lat="45.34162" lon="4.31189">
        <ele>836.4</ele>
        <time>2023-03-29T11:56:04Z</time>
      </trkpt>
      <trkpt lat="45.34123" lon="4.31179">
        <ele>837.2</ele>
        <time>2023-03-29T11:56:13Z</time>
      </trkpt>
      <trkpt lat="45.34119" lon="4.31179">
        <ele>837.4</ele>
        <time>2023-03-29T11:56:14Z</time>
      </trkpt>
      <trkpt lat="45.34109" lon="4.31176">
        <ele>837.6</ele>
        <time>2023-03-29T11:56:16Z</time>
      </trkpt>
      <trkpt lat="45.34095" lon="4.31173">
        <ele>837.6</ele>
        <time>2023-03-29T11:56:19Z</time>
      </trkpt>
      <trkpt lat="45.3409" lon="4.31172">
        <ele>837.8</ele>
        <time>2023-03-29T11:56:20Z</time>
      </trkpt>
      <trkpt lat="45.34053" lon="4.31158">
        <ele>837.6</ele>
        <time>2023-03-29T11:56:27Z</time>
      </trkpt>
      <trkpt lat="45.34029" lon="4.31153">
        <ele>837.2</ele>
        <time>2023-03-29T11:56:31Z</time>
      </trkpt>
      <trkpt lat="45.34023" lon="4.31154">
        <ele>837</ele>
        <time>2023-03-29T11:56:32Z</time>
      </trkpt>
      <trkpt lat="45.34017" lon="4.31156">
        <ele>836.8</ele>
        <time>2023-03-29T11:56:33Z</time>
      </trkpt>
      <trkpt lat="45.34004" lon="4.31163">
        <ele>836.2</ele>
        <time>2023-03-29T11:56:35Z</time>
      </trkpt>
      <trkpt lat="45.33992" lon="4.3117">
        <ele>836</ele>
        <time>2023-03-29T11:56:37Z</time>
      </trkpt>
      <trkpt lat="45.33961" lon="4.31195">
        <ele>835.4</ele>
        <time>2023-03-29T11:56:42Z</time>
      </trkpt>
      <trkpt lat="45.33955" lon="4.31201">
        <ele>835</ele>
        <time>2023-03-29T11:56:43Z</time>
      </trkpt>
      <trkpt lat="45.33925" lon="4.31237">
        <ele>834.4</ele>
        <time>2023-03-29T11:56:48Z</time>
      </trkpt>
      <trkpt lat="45.33906" lon="4.31258">
        <ele>833.8</ele>
        <time>2023-03-29T11:56:51Z</time>
      </trkpt>
      <trkpt lat="45.33892" lon="4.31273">
        <ele>833.6</ele>
        <time>2023-03-29T11:56:53Z</time>
      </trkpt>
      <trkpt lat="45.3388" lon="4.31289">
        <ele>832.8</ele>
        <time>2023-03-29T11:56:55Z</time>
      </trkpt>
      <trkpt lat="45.33861" lon="4.31313">
        <ele>831.6</ele>
        <time>2023-03-29T11:56:58Z</time>
      </trkpt>
      <trkpt lat="45.33854" lon="4.31321">
        <ele>831</ele>
        <time>2023-03-29T11:56:59Z</time>
      </trkpt>
      <trkpt lat="45.33841" lon="4.31336">
        <ele>830.2</ele>
        <time>2023-03-29T11:57:01Z</time>
      </trkpt>
      <trkpt lat="45.33821" lon="4.31359">
        <ele>829.2</ele>
        <time>2023-03-29T11:57:04Z</time>
      </trkpt>
      <trkpt lat="45.33807" lon="4.31374">
        <ele>828.4</ele>
        <time>2023-03-29T11:57:06Z</time>
      </trkpt>
      <trkpt lat="45.33801" lon="4.31381">
        <ele>827.6</ele>
        <time>2023-03-29T11:57:07Z</time>
      </trkpt>
      <trkpt lat="45.33791" lon="4.31395">
        <ele>826.6</ele>
        <time>2023-03-29T11:57:09Z</time>
      </trkpt>
      <trkpt lat="45.33786" lon="4.31401">
        <ele>826.2</ele>
        <time>2023-03-29T11:57:10Z</time>
      </trkpt>
      <trkpt lat="45.33778" lon="4.3141">
        <ele>825.6</ele>
        <time>2023-03-29T11:57:12Z</time>
      </trkpt>
      <trkpt lat="45.33774" lon="4.31413">
        <ele>825</ele>
        <time>2023-03-29T11:57:13Z</time>
      </trkpt>
      <trkpt lat="45.33771" lon="4.31415">
        <ele>824.6</ele>
        <time>2023-03-29T11:57:14Z</time>
      </trkpt>
      <trkpt lat="45.33768" lon="4.31417">
        <ele>824.4</ele>
        <time>2023-03-29T11:57:15Z</time>
      </trkpt>
      <trkpt lat="45.33766" lon="4.31418">
        <ele>824.2</ele>
        <time>2023-03-29T11:57:16Z</time>
      </trkpt>
      <trkpt lat="45.33765" lon="4.31419">
        <ele>824</ele>
        <time>2023-03-29T11:57:18Z</time>
      </trkpt>
      <trkpt lat="45.33765" lon="4.31419">
        <ele>823.4</ele>
        <time>2023-03-29T11:57:22Z</time>
      </trkpt>
      <trkpt lat="45.33765" lon="4.31419">
        <ele>822.8</ele>
        <time>2023-03-29T11:57:28Z</time>
      </trkpt>
      <trkpt lat="45.33757" lon="4.31426">
        <ele>822.4</ele>
        <time>2023-03-29T11:57:34Z</time>
      </trkpt>
      <trkpt lat="45.33753" lon="4.31427">
        <ele>822.4</ele>
        <time>2023-03-29T11:57:35Z</time>
      </trkpt>
      <trkpt lat="45.33739" lon="4.31433">
        <ele>821.8</ele>
        <time>2023-03-29T11:57:38Z</time>
      </trkpt>
      <trkpt lat="45.33727" lon="4.31436">
        <ele>821.6</ele>
        <time>2023-03-29T11:57:40Z</time>
      </trkpt>
      <trkpt lat="45.33721" lon="4.31436">
        <ele>821</ele>
        <time>2023-03-29T11:57:41Z</time>
      </trkpt>
      <trkpt lat="45.33714" lon="4.31435">
        <ele>820.8</ele>
        <time>2023-03-29T11:57:42Z</time>
      </trkpt>
      <trkpt lat="45.33684" lon="4.31433">
        <ele>819.6</ele>
        <time>2023-03-29T11:57:46Z</time>
      </trkpt>
      <trkpt lat="45.33676" lon="4.31433">
        <ele>819.4</ele>
        <time>2023-03-29T11:57:47Z</time>
      </trkpt>
      <trkpt lat="45.33649" lon="4.3143">
        <ele>817.8</ele>
        <time>2023-03-29T11:57:50Z</time>
      </trkpt>
      <trkpt lat="45.3363" lon="4.31429">
        <ele>817.2</ele>
        <time>2023-03-29T11:57:52Z</time>
      </trkpt>
      <trkpt lat="45.3361" lon="4.31425">
        <ele>816.2</ele>
        <time>2023-03-29T11:57:54Z</time>
      </trkpt>
      <trkpt lat="45.33591" lon="4.31417">
        <ele>815.4</ele>
        <time>2023-03-29T11:57:56Z</time>
      </trkpt>
      <trkpt lat="45.33581" lon="4.31412">
        <ele>814.8</ele>
        <time>2023-03-29T11:57:57Z</time>
      </trkpt>
      <trkpt lat="45.33571" lon="4.31405">
        <ele>814.6</ele>
        <time>2023-03-29T11:57:58Z</time>
      </trkpt>
      <trkpt lat="45.33562" lon="4.31397">
        <ele>813.6</ele>
        <time>2023-03-29T11:57:59Z</time>
      </trkpt>
      <trkpt lat="45.33554" lon="4.31388">
        <ele>813.2</ele>
        <time>2023-03-29T11:58:00Z</time>
      </trkpt>
      <trkpt lat="45.33546" lon="4.31379">
        <ele>812</ele>
        <time>2023-03-29T11:58:01Z</time>
      </trkpt>
      <trkpt lat="45.33529" lon="4.31362">
        <ele>810.8</ele>
        <time>2023-03-29T11:58:03Z</time>
      </trkpt>
      <trkpt lat="45.33521" lon="4.31354">
        <ele>809.8</ele>
        <time>2023-03-29T11:58:04Z</time>
      </trkpt>
      <trkpt lat="45.33499" lon="4.31331">
        <ele>809</ele>
        <time>2023-03-29T11:58:07Z</time>
      </trkpt>
      <trkpt lat="45.33475" lon="4.31307">
        <ele>808.8</ele>
        <time>2023-03-29T11:58:11Z</time>
      </trkpt>
      <trkpt lat="45.33469" lon="4.31304">
        <ele>808.8</ele>
        <time>2023-03-29T11:58:12Z</time>
      </trkpt>
      <trkpt lat="45.33463" lon="4.31303">
        <ele>809</ele>
        <time>2023-03-29T11:58:13Z</time>
      </trkpt>
      <trkpt lat="45.33452" lon="4.31302">
        <ele>809</ele>
        <time>2023-03-29T11:58:15Z</time>
      </trkpt>
      <trkpt lat="45.33447" lon="4.31303">
        <ele>809.2</ele>
        <time>2023-03-29T11:58:16Z</time>
      </trkpt>
      <trkpt lat="45.33437" lon="4.31308">
        <ele>810</ele>
        <time>2023-03-29T11:58:18Z</time>
      </trkpt>
      <trkpt lat="45.33424" lon="4.31317">
        <ele>811</ele>
        <time>2023-03-29T11:58:21Z</time>
      </trkpt>
      <trkpt lat="45.33409" lon="4.31328">
        <ele>812.4</ele>
        <time>2023-03-29T11:58:25Z</time>
      </trkpt>
      <trkpt lat="45.33401" lon="4.31334">
        <ele>813</ele>
        <time>2023-03-29T11:58:27Z</time>
      </trkpt>
      <trkpt lat="45.3339" lon="4.31342">
        <ele>813.4</ele>
        <time>2023-03-29T11:58:30Z</time>
      </trkpt>
      <trkpt lat="45.33375" lon="4.31353">
        <ele>814.4</ele>
        <time>2023-03-29T11:58:34Z</time>
      </trkpt>
      <trkpt lat="45.33371" lon="4.31356">
        <ele>814.6</ele>
        <time>2023-03-29T11:58:35Z</time>
      </trkpt>
      <trkpt lat="45.33358" lon="4.31366">
        <ele>815.6</ele>
        <time>2023-03-29T11:58:39Z</time>
      </trkpt>
      <trkpt lat="45.33344" lon="4.31377">
        <ele>816.4</ele>
        <time>2023-03-29T11:58:43Z</time>
      </trkpt>
      <trkpt lat="45.3334" lon="4.3138">
        <ele>816.6</ele>
        <time>2023-03-29T11:58:44Z</time>
      </trkpt>
      <trkpt lat="45.33327" lon="4.31396">
        <ele>817.4</ele>
        <time>2023-03-29T11:58:48Z</time>
      </trkpt>
      <trkpt lat="45.33324" lon="4.314">
        <ele>817.8</ele>
        <time>2023-03-29T11:58:49Z</time>
      </trkpt>
      <trkpt lat="45.33318" lon="4.31409">
        <ele>818</ele>
        <time>2023-03-29T11:58:51Z</time>
      </trkpt>
      <trkpt lat="45.33308" lon="4.31427">
        <ele>818.6</ele>
        <time>2023-03-29T11:58:55Z</time>
      </trkpt>
      <trkpt lat="45.33304" lon="4.31436">
        <ele>818.8</ele>
        <time>2023-03-29T11:58:57Z</time>
      </trkpt>
      <trkpt lat="45.33295" lon="4.31453">
        <ele>820</ele>
        <time>2023-03-29T11:59:01Z</time>
      </trkpt>
      <trkpt lat="45.33287" lon="4.31464">
        <ele>820.4</ele>
        <time>2023-03-29T11:59:04Z</time>
      </trkpt>
      <trkpt lat="45.33275" lon="4.31477">
        <ele>821.4</ele>
        <time>2023-03-29T11:59:08Z</time>
      </trkpt>
      <trkpt lat="45.33262" lon="4.31486">
        <ele>822.2</ele>
        <time>2023-03-29T11:59:12Z</time>
      </trkpt>
      <trkpt lat="45.33258" lon="4.31487">
        <ele>822.6</ele>
        <time>2023-03-29T11:59:13Z</time>
      </trkpt>
      <trkpt lat="45.33243" lon="4.31492">
        <ele>823.6</ele>
        <time>2023-03-29T11:59:17Z</time>
      </trkpt>
      <trkpt lat="45.33229" lon="4.31496">
        <ele>825</ele>
        <time>2023-03-29T11:59:21Z</time>
      </trkpt>
      <trkpt lat="45.33207" lon="4.31504">
        <ele>826</ele>
        <time>2023-03-29T11:59:27Z</time>
      </trkpt>
      <trkpt lat="45.33203" lon="4.31506">
        <ele>826</ele>
        <time>2023-03-29T11:59:28Z</time>
      </trkpt>
      <trkpt lat="45.33186" lon="4.31517">
        <ele>827.2</ele>
        <time>2023-03-29T11:59:33Z</time>
      </trkpt>
      <trkpt lat="45.33172" lon="4.31526">
        <ele>828.2</ele>
        <time>2023-03-29T11:59:37Z</time>
      </trkpt>
      <trkpt lat="45.33169" lon="4.31529">
        <ele>828.6</ele>
        <time>2023-03-29T11:59:38Z</time>
      </trkpt>
      <trkpt lat="45.33148" lon="4.31542">
        <ele>829.6</ele>
        <time>2023-03-29T11:59:44Z</time>
      </trkpt>
      <trkpt lat="45.3314" lon="4.31545">
        <ele>830</ele>
        <time>2023-03-29T11:59:46Z</time>
      </trkpt>
      <trkpt lat="45.33125" lon="4.31547">
        <ele>830.6</ele>
        <time>2023-03-29T11:59:50Z</time>
      </trkpt>
      <trkpt lat="45.33114" lon="4.31546">
        <ele>831.2</ele>
        <time>2023-03-29T11:59:53Z</time>
      </trkpt>
      <trkpt lat="45.33107" lon="4.31544">
        <ele>831.6</ele>
        <time>2023-03-29T11:59:55Z</time>
      </trkpt>
      <trkpt lat="45.33093" lon="4.31537">
        <ele>832.2</ele>
        <time>2023-03-29T11:59:59Z</time>
      </trkpt>
      <trkpt lat="45.33085" lon="4.31529">
        <ele>832.6</ele>
        <time>2023-03-29T12:00:02Z</time>
      </trkpt>
      <trkpt lat="45.33077" lon="4.31518">
        <ele>833.2</ele>
        <time>2023-03-29T12:00:05Z</time>
      </trkpt>
      <trkpt lat="45.33069" lon="4.31508">
        <ele>834.2</ele>
        <time>2023-03-29T12:00:08Z</time>
      </trkpt>
      <trkpt lat="45.33058" lon="4.31487">
        <ele>835</ele>
        <time>2023-03-29T12:00:13Z</time>
      </trkpt>
      <trkpt lat="45.33057" lon="4.31483">
        <ele>835.4</ele>
        <time>2023-03-29T12:00:14Z</time>
      </trkpt>
      <trkpt lat="45.33048" lon="4.31468">
        <ele>836.4</ele>
        <time>2023-03-29T12:00:18Z</time>
      </trkpt>
      <trkpt lat="45.33043" lon="4.31461">
        <ele>837</ele>
        <time>2023-03-29T12:00:20Z</time>
      </trkpt>
      <trkpt lat="45.33037" lon="4.31456">
        <ele>837.6</ele>
        <time>2023-03-29T12:00:22Z</time>
      </trkpt>
      <trkpt lat="45.33027" lon="4.31451">
        <ele>838.2</ele>
        <time>2023-03-29T12:00:25Z</time>
      </trkpt>
      <trkpt lat="45.33019" lon="4.3145">
        <ele>838.6</ele>
        <time>2023-03-29T12:00:27Z</time>
      </trkpt>
      <trkpt lat="45.32996" lon="4.3144">
        <ele>839</ele>
        <time>2023-03-29T12:00:33Z</time>
      </trkpt>
      <trkpt lat="45.32993" lon="4.31435">
        <ele>839</ele>
        <time>2023-03-29T12:00:34Z</time>
      </trkpt>
      <trkpt lat="45.32987" lon="4.31426">
        <ele>839</ele>
        <time>2023-03-29T12:00:36Z</time>
      </trkpt>
      <trkpt lat="45.3298" lon="4.31419">
        <ele>839.2</ele>
        <time>2023-03-29T12:00:38Z</time>
      </trkpt>
      <trkpt lat="45.32971" lon="4.31415">
        <ele>839.2</ele>
        <time>2023-03-29T12:00:40Z</time>
      </trkpt>
      <trkpt lat="45.32957" lon="4.31399">
        <ele>839.2</ele>
        <time>2023-03-29T12:00:44Z</time>
      </trkpt>
      <trkpt lat="45.32927" lon="4.3135">
        <ele>839.4</ele>
        <time>2023-03-29T12:00:53Z</time>
      </trkpt>
      <trkpt lat="45.32896" lon="4.31304">
        <ele>839</ele>
        <time>2023-03-29T12:01:01Z</time>
      </trkpt>
      <trkpt lat="45.32862" lon="4.31247">
        <ele>838.2</ele>
        <time>2023-03-29T12:01:10Z</time>
      </trkpt>
      <trkpt lat="45.32833" lon="4.31197">
        <ele>837.6</ele>
        <time>2023-03-29T12:01:17Z</time>
      </trkpt>
      <trkpt lat="45.32825" lon="4.31181">
        <ele>837.2</ele>
        <time>2023-03-29T12:01:19Z</time>
      </trkpt>
      <trkpt lat="45.32814" lon="4.31156">
        <ele>836.4</ele>
        <time>2023-03-29T12:01:22Z</time>
      </trkpt>
      <trkpt lat="45.32809" lon="4.31137">
        <ele>836.2</ele>
        <time>2023-03-29T12:01:24Z</time>
      </trkpt>
      <trkpt lat="45.32805" lon="4.31118">
        <ele>835.6</ele>
        <time>2023-03-29T12:01:26Z</time>
      </trkpt>
      <trkpt lat="45.32802" lon="4.31087">
        <ele>835.4</ele>
        <time>2023-03-29T12:01:29Z</time>
      </trkpt>
      <trkpt lat="45.32804" lon="4.31005">
        <ele>834.8</ele>
        <time>2023-03-29T12:01:37Z</time>
      </trkpt>
      <trkpt lat="45.32807" lon="4.30919">
        <ele>834.4</ele>
        <time>2023-03-29T12:01:45Z</time>
      </trkpt>
      <trkpt lat="45.32808" lon="4.30908">
        <ele>834.2</ele>
        <time>2023-03-29T12:01:46Z</time>
      </trkpt>
      <trkpt lat="45.32808" lon="4.30886">
        <ele>834</ele>
        <time>2023-03-29T12:01:48Z</time>
      </trkpt>
      <trkpt lat="45.32808" lon="4.30852">
        <ele>833.2</ele>
        <time>2023-03-29T12:01:51Z</time>
      </trkpt>
      <trkpt lat="45.32805" lon="4.30817">
        <ele>832.8</ele>
        <time>2023-03-29T12:01:54Z</time>
      </trkpt>
      <trkpt lat="45.32802" lon="4.30806">
        <ele>832.8</ele>
        <time>2023-03-29T12:01:55Z</time>
      </trkpt>
      <trkpt lat="45.32792" lon="4.30772">
        <ele>832</ele>
        <time>2023-03-29T12:01:58Z</time>
      </trkpt>
      <trkpt lat="45.32788" lon="4.30761">
        <ele>831.8</ele>
        <time>2023-03-29T12:01:59Z</time>
      </trkpt>
      <trkpt lat="45.32772" lon="4.30731">
        <ele>830.6</ele>
        <time>2023-03-29T12:02:02Z</time>
      </trkpt>
      <trkpt lat="45.32767" lon="4.30722">
        <ele>830.6</ele>
        <time>2023-03-29T12:02:03Z</time>
      </trkpt>
      <trkpt lat="45.32745" lon="4.30699">
        <ele>829.4</ele>
        <time>2023-03-29T12:02:06Z</time>
      </trkpt>
      <trkpt lat="45.32736" lon="4.30693">
        <ele>828.8</ele>
        <time>2023-03-29T12:02:07Z</time>
      </trkpt>
      <trkpt lat="45.32719" lon="4.3068">
        <ele>828.4</ele>
        <time>2023-03-29T12:02:09Z</time>
      </trkpt>
      <trkpt lat="45.32701" lon="4.30669">
        <ele>827.8</ele>
        <time>2023-03-29T12:02:11Z</time>
      </trkpt>
      <trkpt lat="45.32682" lon="4.30657">
        <ele>826.8</ele>
        <time>2023-03-29T12:02:13Z</time>
      </trkpt>
      <trkpt lat="45.32654" lon="4.30639">
        <ele>825.6</ele>
        <time>2023-03-29T12:02:16Z</time>
      </trkpt>
      <trkpt lat="45.32635" lon="4.30627">
        <ele>824.6</ele>
        <time>2023-03-29T12:02:18Z</time>
      </trkpt>
      <trkpt lat="45.32616" lon="4.30614">
        <ele>823.4</ele>
        <time>2023-03-29T12:02:20Z</time>
      </trkpt>
      <trkpt lat="45.32598" lon="4.306">
        <ele>822.4</ele>
        <time>2023-03-29T12:02:22Z</time>
      </trkpt>
      <trkpt lat="45.3258" lon="4.30584">
        <ele>821.4</ele>
        <time>2023-03-29T12:02:24Z</time>
      </trkpt>
      <trkpt lat="45.32563" lon="4.30567">
        <ele>820.2</ele>
        <time>2023-03-29T12:02:26Z</time>
      </trkpt>
      <trkpt lat="45.32546" lon="4.30549">
        <ele>819.2</ele>
        <time>2023-03-29T12:02:28Z</time>
      </trkpt>
      <trkpt lat="45.3253" lon="4.3053">
        <ele>818</ele>
        <time>2023-03-29T12:02:30Z</time>
      </trkpt>
      <trkpt lat="45.32516" lon="4.3051">
        <ele>817.2</ele>
        <time>2023-03-29T12:02:32Z</time>
      </trkpt>
      <trkpt lat="45.32509" lon="4.30499">
        <ele>817</ele>
        <time>2023-03-29T12:02:33Z</time>
      </trkpt>
      <trkpt lat="45.32478" lon="4.30448">
        <ele>816.4</ele>
        <time>2023-03-29T12:02:38Z</time>
      </trkpt>
      <trkpt lat="45.32451" lon="4.30392">
        <ele>816.2</ele>
        <time>2023-03-29T12:02:44Z</time>
      </trkpt>
      <trkpt lat="45.32432" lon="4.30344">
        <ele>817.8</ele>
        <time>2023-03-29T12:02:50Z</time>
      </trkpt>
      <trkpt lat="45.3243" lon="4.30337">
        <ele>818.2</ele>
        <time>2023-03-29T12:02:51Z</time>
      </trkpt>
      <trkpt lat="45.32427" lon="4.30329">
        <ele>819</ele>
        <time>2023-03-29T12:02:52Z</time>
      </trkpt>
      <trkpt lat="45.32425" lon="4.30322">
        <ele>819.6</ele>
        <time>2023-03-29T12:02:53Z</time>
      </trkpt>
      <trkpt lat="45.32419" lon="4.303">
        <ele>820.6</ele>
        <time>2023-03-29T12:02:56Z</time>
      </trkpt>
      <trkpt lat="45.32418" lon="4.30293">
        <ele>820.8</ele>
        <time>2023-03-29T12:02:57Z</time>
      </trkpt>
      <trkpt lat="45.32411" lon="4.30266">
        <ele>822</ele>
        <time>2023-03-29T12:03:01Z</time>
      </trkpt>
      <trkpt lat="45.32407" lon="4.30246">
        <ele>822.6</ele>
        <time>2023-03-29T12:03:04Z</time>
      </trkpt>
      <trkpt lat="45.32404" lon="4.30234">
        <ele>823</ele>
        <time>2023-03-29T12:03:06Z</time>
      </trkpt>
      <trkpt lat="45.32402" lon="4.30227">
        <ele>823.2</ele>
        <time>2023-03-29T12:03:07Z</time>
      </trkpt>
      <trkpt lat="45.32398" lon="4.30209">
        <ele>824</ele>
        <time>2023-03-29T12:03:10Z</time>
      </trkpt>
      <trkpt lat="45.32395" lon="4.30197">
        <ele>824.6</ele>
        <time>2023-03-29T12:03:12Z</time>
      </trkpt>
      <trkpt lat="45.32391" lon="4.30178">
        <ele>825.4</ele>
        <time>2023-03-29T12:03:15Z</time>
      </trkpt>
      <trkpt lat="45.32383" lon="4.3015">
        <ele>826.4</ele>
        <time>2023-03-29T12:03:20Z</time>
      </trkpt>
      <trkpt lat="45.3238" lon="4.30139">
        <ele>826.8</ele>
        <time>2023-03-29T12:03:22Z</time>
      </trkpt>
      <trkpt lat="45.32375" lon="4.30124">
        <ele>827.2</ele>
        <time>2023-03-29T12:03:25Z</time>
      </trkpt>
      <trkpt lat="45.32373" lon="4.30119">
        <ele>827.6</ele>
        <time>2023-03-29T12:03:26Z</time>
      </trkpt>
      <trkpt lat="45.32366" lon="4.30105">
        <ele>828.2</ele>
        <time>2023-03-29T12:03:29Z</time>
      </trkpt>
      <trkpt lat="45.32355" lon="4.30087">
        <ele>828.8</ele>
        <time>2023-03-29T12:03:33Z</time>
      </trkpt>
      <trkpt lat="45.32341" lon="4.30067">
        <ele>829.2</ele>
        <time>2023-03-29T12:03:38Z</time>
      </trkpt>
      <trkpt lat="45.32335" lon="4.30059">
        <ele>829.6</ele>
        <time>2023-03-29T12:03:40Z</time>
      </trkpt>
      <trkpt lat="45.32332" lon="4.30056">
        <ele>829.6</ele>
        <time>2023-03-29T12:03:41Z</time>
      </trkpt>
      <trkpt lat="45.32319" lon="4.30042">
        <ele>830</ele>
        <time>2023-03-29T12:03:45Z</time>
      </trkpt>
      <trkpt lat="45.32296" lon="4.30024">
        <ele>830.6</ele>
        <time>2023-03-29T12:03:51Z</time>
      </trkpt>
      <trkpt lat="45.32284" lon="4.30018">
        <ele>831</ele>
        <time>2023-03-29T12:03:54Z</time>
      </trkpt>
      <trkpt lat="45.32255" lon="4.30009">
        <ele>831.8</ele>
        <time>2023-03-29T12:04:01Z</time>
      </trkpt>
      <trkpt lat="45.32245" lon="4.30008">
        <ele>832.2</ele>
        <time>2023-03-29T12:04:03Z</time>
      </trkpt>
      <trkpt lat="45.32214" lon="4.30008">
        <ele>832.6</ele>
        <time>2023-03-29T12:04:10Z</time>
      </trkpt>
      <trkpt lat="45.32206" lon="4.3001">
        <ele>832.8</ele>
        <time>2023-03-29T12:04:12Z</time>
      </trkpt>
      <trkpt lat="45.32199" lon="4.30011">
        <ele>833</ele>
        <time>2023-03-29T12:04:14Z</time>
      </trkpt>
      <trkpt lat="45.32174" lon="4.30018">
        <ele>833.4</ele>
        <time>2023-03-29T12:04:20Z</time>
      </trkpt>
      <trkpt lat="45.3217" lon="4.30019">
        <ele>833.6</ele>
        <time>2023-03-29T12:04:21Z</time>
      </trkpt>
      <trkpt lat="45.32137" lon="4.30029">
        <ele>834.6</ele>
        <time>2023-03-29T12:04:29Z</time>
      </trkpt>
      <trkpt lat="45.32096" lon="4.3004">
        <ele>835.8</ele>
        <time>2023-03-29T12:04:38Z</time>
      </trkpt>
      <trkpt lat="45.32092" lon="4.3004">
        <ele>835.8</ele>
        <time>2023-03-29T12:04:39Z</time>
      </trkpt>
      <trkpt lat="45.32059" lon="4.30038">
        <ele>836.8</ele>
        <time>2023-03-29T12:04:46Z</time>
      </trkpt>
      <trkpt lat="45.32055" lon="4.30037">
        <ele>837</ele>
        <time>2023-03-29T12:04:47Z</time>
      </trkpt>
      <trkpt lat="45.32022" lon="4.30019">
        <ele>838</ele>
        <time>2023-03-29T12:04:55Z</time>
      </trkpt>
      <trkpt lat="45.32018" lon="4.30016">
        <ele>838.2</ele>
        <time>2023-03-29T12:04:56Z</time>
      </trkpt>
      <trkpt lat="45.31995" lon="4.29994">
        <ele>839</ele>
        <time>2023-03-29T12:05:02Z</time>
      </trkpt>
      <trkpt lat="45.31992" lon="4.29989">
        <ele>839</ele>
        <time>2023-03-29T12:05:03Z</time>
      </trkpt>
      <trkpt lat="45.31975" lon="4.29959">
        <ele>840</ele>
        <time>2023-03-29T12:05:09Z</time>
      </trkpt>
      <trkpt lat="45.31972" lon="4.29954">
        <ele>840.2</ele>
        <time>2023-03-29T12:05:10Z</time>
      </trkpt>
      <trkpt lat="45.3197" lon="4.29948">
        <ele>840.4</ele>
        <time>2023-03-29T12:05:11Z</time>
      </trkpt>
      <trkpt lat="45.31963" lon="4.2993">
        <ele>841.2</ele>
        <time>2023-03-29T12:05:14Z</time>
      </trkpt>
      <trkpt lat="45.31943" lon="4.29874">
        <ele>842</ele>
        <time>2023-03-29T12:05:23Z</time>
      </trkpt>
      <trkpt lat="45.31936" lon="4.29851">
        <ele>842.2</ele>
        <time>2023-03-29T12:05:27Z</time>
      </trkpt>
      <trkpt lat="45.31923" lon="4.29814">
        <ele>842.2</ele>
        <time>2023-03-29T12:05:33Z</time>
      </trkpt>
      <trkpt lat="45.319" lon="4.29765">
        <ele>843</ele>
        <time>2023-03-29T12:05:41Z</time>
      </trkpt>
      <trkpt lat="45.31873" lon="4.29726">
        <ele>843.8</ele>
        <time>2023-03-29T12:05:49Z</time>
      </trkpt>
      <trkpt lat="45.31865" lon="4.29718">
        <ele>844</ele>
        <time>2023-03-29T12:05:51Z</time>
      </trkpt>
      <trkpt lat="45.3184" lon="4.29698">
        <ele>844.6</ele>
        <time>2023-03-29T12:05:57Z</time>
      </trkpt>
      <trkpt lat="45.31808" lon="4.2968">
        <ele>845.2</ele>
        <time>2023-03-29T12:06:04Z</time>
      </trkpt>
      <trkpt lat="45.31798" lon="4.29676">
        <ele>845.4</ele>
        <time>2023-03-29T12:06:06Z</time>
      </trkpt>
      <trkpt lat="45.31751" lon="4.29652">
        <ele>846</ele>
        <time>2023-03-29T12:06:16Z</time>
      </trkpt>
      <trkpt lat="45.31741" lon="4.29646">
        <ele>846.2</ele>
        <time>2023-03-29T12:06:18Z</time>
      </trkpt>
      <trkpt lat="45.31705" lon="4.29612">
        <ele>847</ele>
        <time>2023-03-29T12:06:27Z</time>
      </trkpt>
      <trkpt lat="45.31697" lon="4.29603">
        <ele>847</ele>
        <time>2023-03-29T12:06:29Z</time>
      </trkpt>
      <trkpt lat="45.31678" lon="4.29572">
        <ele>847.8</ele>
        <time>2023-03-29T12:06:35Z</time>
      </trkpt>
      <trkpt lat="45.31667" lon="4.29548">
        <ele>848.2</ele>
        <time>2023-03-29T12:06:39Z</time>
      </trkpt>
      <trkpt lat="45.31665" lon="4.29535">
        <ele>848.6</ele>
        <time>2023-03-29T12:06:41Z</time>
      </trkpt>
      <trkpt lat="45.31669" lon="4.29523">
        <ele>848.6</ele>
        <time>2023-03-29T12:06:43Z</time>
      </trkpt>
      <trkpt lat="45.31673" lon="4.29519">
        <ele>848.8</ele>
        <time>2023-03-29T12:06:44Z</time>
      </trkpt>
      <trkpt lat="45.31678" lon="4.29517">
        <ele>848.8</ele>
        <time>2023-03-29T12:06:45Z</time>
      </trkpt>
      <trkpt lat="45.31688" lon="4.29518">
        <ele>849</ele>
        <time>2023-03-29T12:06:47Z</time>
      </trkpt>
      <trkpt lat="45.31704" lon="4.29522">
        <ele>849.2</ele>
        <time>2023-03-29T12:06:50Z</time>
      </trkpt>
      <trkpt lat="45.31709" lon="4.29524">
        <ele>849.2</ele>
        <time>2023-03-29T12:06:51Z</time>
      </trkpt>
      <trkpt lat="45.31726" lon="4.29531">
        <ele>849.4</ele>
        <time>2023-03-29T12:06:54Z</time>
      </trkpt>
      <trkpt lat="45.31767" lon="4.29549">
        <ele>849.6</ele>
        <time>2023-03-29T12:07:01Z</time>
      </trkpt>
      <trkpt lat="45.31824" lon="4.29572">
        <ele>850.2</ele>
        <time>2023-03-29T12:07:11Z</time>
      </trkpt>
      <trkpt lat="45.31829" lon="4.29575">
        <ele>850.4</ele>
        <time>2023-03-29T12:07:12Z</time>
      </trkpt>
      <trkpt lat="45.31868" lon="4.29591">
        <ele>851.2</ele>
        <time>2023-03-29T12:07:19Z</time>
      </trkpt>
      <trkpt lat="45.31875" lon="4.29593">
        <ele>851.4</ele>
        <time>2023-03-29T12:07:20Z</time>
      </trkpt>
      <trkpt lat="45.31911" lon="4.29607">
        <ele>851.4</ele>
        <time>2023-03-29T12:07:25Z</time>
      </trkpt>
      <trkpt lat="45.31957" lon="4.29625">
        <ele>850.2</ele>
        <time>2023-03-29T12:07:31Z</time>
      </trkpt>
      <trkpt lat="45.31972" lon="4.29632">
        <ele>849.8</ele>
        <time>2023-03-29T12:07:33Z</time>
      </trkpt>
      <trkpt lat="45.31995" lon="4.29641">
        <ele>849.2</ele>
        <time>2023-03-29T12:07:36Z</time>
      </trkpt>
      <trkpt lat="45.32023" lon="4.29652">
        <ele>848.8</ele>
        <time>2023-03-29T12:07:40Z</time>
      </trkpt>
      <trkpt lat="45.32067" lon="4.29668">
        <ele>849.8</ele>
        <time>2023-03-29T12:07:47Z</time>
      </trkpt>
      <trkpt lat="45.32079" lon="4.29673">
        <ele>850.2</ele>
        <time>2023-03-29T12:07:49Z</time>
      </trkpt>
      <trkpt lat="45.32102" lon="4.29682">
        <ele>851.2</ele>
        <time>2023-03-29T12:07:53Z</time>
      </trkpt>
      <trkpt lat="45.32114" lon="4.29687">
        <ele>851.6</ele>
        <time>2023-03-29T12:07:55Z</time>
      </trkpt>
      <trkpt lat="45.32139" lon="4.29697">
        <ele>852.4</ele>
        <time>2023-03-29T12:07:59Z</time>
      </trkpt>
      <trkpt lat="45.32172" lon="4.2971">
        <ele>852.4</ele>
        <time>2023-03-29T12:08:04Z</time>
      </trkpt>
      <trkpt lat="45.32231" lon="4.29733">
        <ele>852</ele>
        <time>2023-03-29T12:08:12Z</time>
      </trkpt>
      <trkpt lat="45.3229" lon="4.29756">
        <ele>851.6</ele>
        <time>2023-03-29T12:08:20Z</time>
      </trkpt>
      <trkpt lat="45.32304" lon="4.29762">
        <ele>851.4</ele>
        <time>2023-03-29T12:08:22Z</time>
      </trkpt>
      <trkpt lat="45.32361" lon="4.29784">
        <ele>850.8</ele>
        <time>2023-03-29T12:08:29Z</time>
      </trkpt>
      <trkpt lat="45.32419" lon="4.29807">
        <ele>850.4</ele>
        <time>2023-03-29T12:08:36Z</time>
      </trkpt>
      <trkpt lat="45.32427" lon="4.29811">
        <ele>850.4</ele>
        <time>2023-03-29T12:08:37Z</time>
      </trkpt>
      <trkpt lat="45.32435" lon="4.29814">
        <ele>850.4</ele>
        <time>2023-03-29T12:08:38Z</time>
      </trkpt>
      <trkpt lat="45.32467" lon="4.29827">
        <ele>849.6</ele>
        <time>2023-03-29T12:08:42Z</time>
      </trkpt>
      <trkpt lat="45.3249" lon="4.29836">
        <ele>849.2</ele>
        <time>2023-03-29T12:08:45Z</time>
      </trkpt>
      <trkpt lat="45.32498" lon="4.29839">
        <ele>849</ele>
        <time>2023-03-29T12:08:46Z</time>
      </trkpt>
      <trkpt lat="45.32554" lon="4.29861">
        <ele>848.4</ele>
        <time>2023-03-29T12:08:54Z</time>
      </trkpt>
      <trkpt lat="45.32568" lon="4.29867">
        <ele>848.2</ele>
        <time>2023-03-29T12:08:56Z</time>
      </trkpt>
      <trkpt lat="45.32625" lon="4.29889">
        <ele>848</ele>
        <time>2023-03-29T12:09:04Z</time>
      </trkpt>
      <trkpt lat="45.32672" lon="4.29906">
        <ele>847.8</ele>
        <time>2023-03-29T12:09:10Z</time>
      </trkpt>
      <trkpt lat="45.32705" lon="4.29919">
        <ele>847.2</ele>
        <time>2023-03-29T12:09:14Z</time>
      </trkpt>
      <trkpt lat="45.32723" lon="4.29926">
        <ele>846.8</ele>
        <time>2023-03-29T12:09:16Z</time>
      </trkpt>
      <trkpt lat="45.32759" lon="4.2994">
        <ele>846</ele>
        <time>2023-03-29T12:09:20Z</time>
      </trkpt>
      <trkpt lat="45.32779" lon="4.29944">
        <ele>845.4</ele>
        <time>2023-03-29T12:09:22Z</time>
      </trkpt>
      <trkpt lat="45.32788" lon="4.29945">
        <ele>844.8</ele>
        <time>2023-03-29T12:09:23Z</time>
      </trkpt>
      <trkpt lat="45.32798" lon="4.29944">
        <ele>844.6</ele>
        <time>2023-03-29T12:09:24Z</time>
      </trkpt>
      <trkpt lat="45.32818" lon="4.29938">
        <ele>843.6</ele>
        <time>2023-03-29T12:09:26Z</time>
      </trkpt>
      <trkpt lat="45.32855" lon="4.29911">
        <ele>842.2</ele>
        <time>2023-03-29T12:09:30Z</time>
      </trkpt>
      <trkpt lat="45.32891" lon="4.29881">
        <ele>841</ele>
        <time>2023-03-29T12:09:34Z</time>
      </trkpt>
      <trkpt lat="45.32917" lon="4.29858">
        <ele>839.6</ele>
        <time>2023-03-29T12:09:37Z</time>
      </trkpt>
      <trkpt lat="45.32934" lon="4.29844">
        <ele>838.6</ele>
        <time>2023-03-29T12:09:39Z</time>
      </trkpt>
      <trkpt lat="45.32943" lon="4.29837">
        <ele>838.4</ele>
        <time>2023-03-29T12:09:40Z</time>
      </trkpt>
      <trkpt lat="45.32968" lon="4.29815">
        <ele>837</ele>
        <time>2023-03-29T12:09:43Z</time>
      </trkpt>
      <trkpt lat="45.32994" lon="4.29793">
        <ele>835.6</ele>
        <time>2023-03-29T12:09:46Z</time>
      </trkpt>
      <trkpt lat="45.33019" lon="4.29772">
        <ele>834.4</ele>
        <time>2023-03-29T12:09:49Z</time>
      </trkpt>
      <trkpt lat="45.33042" lon="4.29752">
        <ele>833.6</ele>
        <time>2023-03-29T12:09:52Z</time>
      </trkpt>
      <trkpt lat="45.33056" lon="4.2974">
        <ele>833.4</ele>
        <time>2023-03-29T12:09:54Z</time>
      </trkpt>
      <trkpt lat="45.33076" lon="4.29723">
        <ele>832.6</ele>
        <time>2023-03-29T12:09:57Z</time>
      </trkpt>
      <trkpt lat="45.33095" lon="4.29708">
        <ele>832.2</ele>
        <time>2023-03-29T12:10:00Z</time>
      </trkpt>
      <trkpt lat="45.33139" lon="4.29674">
        <ele>831.8</ele>
        <time>2023-03-29T12:10:06Z</time>
      </trkpt>
      <trkpt lat="45.33155" lon="4.29663">
        <ele>831.4</ele>
        <time>2023-03-29T12:10:08Z</time>
      </trkpt>
      <trkpt lat="45.33181" lon="4.29644">
        <ele>830.2</ele>
        <time>2023-03-29T12:10:11Z</time>
      </trkpt>
      <trkpt lat="45.33226" lon="4.29613">
        <ele>829.2</ele>
        <time>2023-03-29T12:10:16Z</time>
      </trkpt>
      <trkpt lat="45.33236" lon="4.29606">
        <ele>828.8</ele>
        <time>2023-03-29T12:10:17Z</time>
      </trkpt>
      <trkpt lat="45.33265" lon="4.29586">
        <ele>827.6</ele>
        <time>2023-03-29T12:10:20Z</time>
      </trkpt>
      <trkpt lat="45.33284" lon="4.29571">
        <ele>826.4</ele>
        <time>2023-03-29T12:10:22Z</time>
      </trkpt>
      <trkpt lat="45.33294" lon="4.29562">
        <ele>826</ele>
        <time>2023-03-29T12:10:23Z</time>
      </trkpt>
      <trkpt lat="45.33302" lon="4.29553">
        <ele>825.4</ele>
        <time>2023-03-29T12:10:24Z</time>
      </trkpt>
      <trkpt lat="45.3331" lon="4.29542">
        <ele>825</ele>
        <time>2023-03-29T12:10:25Z</time>
      </trkpt>
      <trkpt lat="45.33317" lon="4.2953">
        <ele>824</ele>
        <time>2023-03-29T12:10:26Z</time>
      </trkpt>
      <trkpt lat="45.33324" lon="4.29518">
        <ele>823.2</ele>
        <time>2023-03-29T12:10:27Z</time>
      </trkpt>
      <trkpt lat="45.33329" lon="4.29504">
        <ele>822.8</ele>
        <time>2023-03-29T12:10:28Z</time>
      </trkpt>
      <trkpt lat="45.33343" lon="4.29464">
        <ele>821.8</ele>
        <time>2023-03-29T12:10:31Z</time>
      </trkpt>
      <trkpt lat="45.33348" lon="4.29451">
        <ele>821.8</ele>
        <time>2023-03-29T12:10:32Z</time>
      </trkpt>
      <trkpt lat="45.33373" lon="4.2938">
        <ele>821.4</ele>
        <time>2023-03-29T12:10:38Z</time>
      </trkpt>
      <trkpt lat="45.33377" lon="4.29369">
        <ele>821.4</ele>
        <time>2023-03-29T12:10:39Z</time>
      </trkpt>
      <trkpt lat="45.33405" lon="4.29291">
        <ele>821.4</ele>
        <time>2023-03-29T12:10:46Z</time>
      </trkpt>
      <trkpt lat="45.3343" lon="4.29219">
        <ele>821.6</ele>
        <time>2023-03-29T12:10:53Z</time>
      </trkpt>
      <trkpt lat="45.33437" lon="4.292">
        <ele>821.8</ele>
        <time>2023-03-29T12:10:55Z</time>
      </trkpt>
      <trkpt lat="45.33461" lon="4.29134">
        <ele>822.2</ele>
        <time>2023-03-29T12:11:02Z</time>
      </trkpt>
      <trkpt lat="45.33485" lon="4.29063">
        <ele>822.4</ele>
        <time>2023-03-29T12:11:10Z</time>
      </trkpt>
      <trkpt lat="45.33488" lon="4.29055">
        <ele>822.4</ele>
        <time>2023-03-29T12:11:11Z</time>
      </trkpt>
      <trkpt lat="45.33512" lon="4.28983">
        <ele>822.6</ele>
        <time>2023-03-29T12:11:20Z</time>
      </trkpt>
      <trkpt lat="45.33519" lon="4.2895">
        <ele>822.8</ele>
        <time>2023-03-29T12:11:24Z</time>
      </trkpt>
      <trkpt lat="45.3352" lon="4.28933">
        <ele>823</ele>
        <time>2023-03-29T12:11:26Z</time>
      </trkpt>
      <trkpt lat="45.33516" lon="4.28881">
        <ele>823.2</ele>
        <time>2023-03-29T12:11:32Z</time>
      </trkpt>
      <trkpt lat="45.33506" lon="4.28798">
        <ele>823.8</ele>
        <time>2023-03-29T12:11:42Z</time>
      </trkpt>
      <trkpt lat="45.33506" lon="4.2879">
        <ele>823.8</ele>
        <time>2023-03-29T12:11:43Z</time>
      </trkpt>
      <trkpt lat="45.33496" lon="4.28708">
        <ele>823.2</ele>
        <time>2023-03-29T12:11:53Z</time>
      </trkpt>
      <trkpt lat="45.33495" lon="4.28699">
        <ele>823.2</ele>
        <time>2023-03-29T12:11:54Z</time>
      </trkpt>
      <trkpt lat="45.33492" lon="4.28665">
        <ele>823</ele>
        <time>2023-03-29T12:11:58Z</time>
      </trkpt>
      <trkpt lat="45.33489" lon="4.28647">
        <ele>822.8</ele>
        <time>2023-03-29T12:12:00Z</time>
      </trkpt>
      <trkpt lat="45.33485" lon="4.28611">
        <ele>822.8</ele>
        <time>2023-03-29T12:12:04Z</time>
      </trkpt>
      <trkpt lat="45.33477" lon="4.28534">
        <ele>821.8</ele>
        <time>2023-03-29T12:12:12Z</time>
      </trkpt>
      <trkpt lat="45.33476" lon="4.28524">
        <ele>821.4</ele>
        <time>2023-03-29T12:12:13Z</time>
      </trkpt>
      <trkpt lat="45.33475" lon="4.28448">
        <ele>820.6</ele>
        <time>2023-03-29T12:12:20Z</time>
      </trkpt>
      <trkpt lat="45.33486" lon="4.28385">
        <ele>820.4</ele>
        <time>2023-03-29T12:12:26Z</time>
      </trkpt>
      <trkpt lat="45.33505" lon="4.28308">
        <ele>820.8</ele>
        <time>2023-03-29T12:12:34Z</time>
      </trkpt>
      <trkpt lat="45.33522" lon="4.28235">
        <ele>820.8</ele>
        <time>2023-03-29T12:12:42Z</time>
      </trkpt>
      <trkpt lat="45.33539" lon="4.28161">
        <ele>820.2</ele>
        <time>2023-03-29T12:12:50Z</time>
      </trkpt>
      <trkpt lat="45.33544" lon="4.28142">
        <ele>819.8</ele>
        <time>2023-03-29T12:12:52Z</time>
      </trkpt>
      <trkpt lat="45.3356" lon="4.28069">
        <ele>819.4</ele>
        <time>2023-03-29T12:12:59Z</time>
      </trkpt>
      <trkpt lat="45.33573" lon="4.28018">
        <ele>818.8</ele>
        <time>2023-03-29T12:13:04Z</time>
      </trkpt>
      <trkpt lat="45.33582" lon="4.2799">
        <ele>818.4</ele>
        <time>2023-03-29T12:13:07Z</time>
      </trkpt>
      <trkpt lat="45.33605" lon="4.27946">
        <ele>817.8</ele>
        <time>2023-03-29T12:13:12Z</time>
      </trkpt>
      <trkpt lat="45.33624" lon="4.27925">
        <ele>817.6</ele>
        <time>2023-03-29T12:13:15Z</time>
      </trkpt>
      <trkpt lat="45.33638" lon="4.27913">
        <ele>817.2</ele>
        <time>2023-03-29T12:13:17Z</time>
      </trkpt>
      <trkpt lat="45.33652" lon="4.27901">
        <ele>817</ele>
        <time>2023-03-29T12:13:19Z</time>
      </trkpt>
      <trkpt lat="45.3368" lon="4.27876">
        <ele>816.6</ele>
        <time>2023-03-29T12:13:23Z</time>
      </trkpt>
      <trkpt lat="45.33701" lon="4.27857">
        <ele>816.4</ele>
        <time>2023-03-29T12:13:26Z</time>
      </trkpt>
      <trkpt lat="45.33749" lon="4.27815">
        <ele>816.2</ele>
        <time>2023-03-29T12:13:33Z</time>
      </trkpt>
      <trkpt lat="45.33762" lon="4.27805">
        <ele>816.2</ele>
        <time>2023-03-29T12:13:35Z</time>
      </trkpt>
      <trkpt lat="45.33808" lon="4.27776">
        <ele>815.8</ele>
        <time>2023-03-29T12:13:42Z</time>
      </trkpt>
      <trkpt lat="45.3383" lon="4.27763">
        <ele>815.6</ele>
        <time>2023-03-29T12:13:45Z</time>
      </trkpt>
      <trkpt lat="45.33862" lon="4.27745">
        <ele>814.8</ele>
        <time>2023-03-29T12:13:49Z</time>
      </trkpt>
      <trkpt lat="45.3387" lon="4.27741">
        <ele>814.4</ele>
        <time>2023-03-29T12:13:50Z</time>
      </trkpt>
      <trkpt lat="45.33907" lon="4.2772">
        <ele>813</ele>
        <time>2023-03-29T12:13:54Z</time>
      </trkpt>
      <trkpt lat="45.33926" lon="4.27709">
        <ele>812</ele>
        <time>2023-03-29T12:13:56Z</time>
      </trkpt>
      <trkpt lat="45.33956" lon="4.27693">
        <ele>810.6</ele>
        <time>2023-03-29T12:13:59Z</time>
      </trkpt>
      <trkpt lat="45.33975" lon="4.27682">
        <ele>809.2</ele>
        <time>2023-03-29T12:14:01Z</time>
      </trkpt>
      <trkpt lat="45.33995" lon="4.27671">
        <ele>808.2</ele>
        <time>2023-03-29T12:14:03Z</time>
      </trkpt>
      <trkpt lat="45.34004" lon="4.27665">
        <ele>807.4</ele>
        <time>2023-03-29T12:14:04Z</time>
      </trkpt>
      <trkpt lat="45.34013" lon="4.2766">
        <ele>807</ele>
        <time>2023-03-29T12:14:05Z</time>
      </trkpt>
      <trkpt lat="45.34032" lon="4.27649">
        <ele>806</ele>
        <time>2023-03-29T12:14:07Z</time>
      </trkpt>
      <trkpt lat="45.34059" lon="4.27631">
        <ele>804.6</ele>
        <time>2023-03-29T12:14:10Z</time>
      </trkpt>
      <trkpt lat="45.34066" lon="4.27623">
        <ele>804.6</ele>
        <time>2023-03-29T12:14:11Z</time>
      </trkpt>
      <trkpt lat="45.34093" lon="4.27587">
        <ele>803.4</ele>
        <time>2023-03-29T12:14:15Z</time>
      </trkpt>
      <trkpt lat="45.34099" lon="4.27577">
        <ele>803.2</ele>
        <time>2023-03-29T12:14:16Z</time>
      </trkpt>
      <trkpt lat="45.34122" lon="4.27524">
        <ele>802.6</ele>
        <time>2023-03-29T12:14:21Z</time>
      </trkpt>
      <trkpt lat="45.34125" lon="4.27513">
        <ele>802.4</ele>
        <time>2023-03-29T12:14:22Z</time>
      </trkpt>
      <trkpt lat="45.34142" lon="4.27449">
        <ele>801.6</ele>
        <time>2023-03-29T12:14:28Z</time>
      </trkpt>
      <trkpt lat="45.34145" lon="4.27438">
        <ele>801.2</ele>
        <time>2023-03-29T12:14:29Z</time>
      </trkpt>
      <trkpt lat="45.34155" lon="4.27397">
        <ele>799.8</ele>
        <time>2023-03-29T12:14:33Z</time>
      </trkpt>
      <trkpt lat="45.34159" lon="4.27377">
        <ele>799.6</ele>
        <time>2023-03-29T12:14:35Z</time>
      </trkpt>
      <trkpt lat="45.34176" lon="4.27308">
        <ele>799</ele>
        <time>2023-03-29T12:14:42Z</time>
      </trkpt>
      <trkpt lat="45.34184" lon="4.27278">
        <ele>798.8</ele>
        <time>2023-03-29T12:14:45Z</time>
      </trkpt>
      <trkpt lat="45.34194" lon="4.27237">
        <ele>798.2</ele>
        <time>2023-03-29T12:14:49Z</time>
      </trkpt>
      <trkpt lat="45.34196" lon="4.27227">
        <ele>798.2</ele>
        <time>2023-03-29T12:14:50Z</time>
      </trkpt>
      <trkpt lat="45.34206" lon="4.27185">
        <ele>797.8</ele>
        <time>2023-03-29T12:14:54Z</time>
      </trkpt>
      <trkpt lat="45.34208" lon="4.27174">
        <ele>797.6</ele>
        <time>2023-03-29T12:14:55Z</time>
      </trkpt>
      <trkpt lat="45.34218" lon="4.27131">
        <ele>796.4</ele>
        <time>2023-03-29T12:14:59Z</time>
      </trkpt>
      <trkpt lat="45.34232" lon="4.27077">
        <ele>795.2</ele>
        <time>2023-03-29T12:15:04Z</time>
      </trkpt>
      <trkpt lat="45.34235" lon="4.27066">
        <ele>795.2</ele>
        <time>2023-03-29T12:15:05Z</time>
      </trkpt>
      <trkpt lat="45.34255" lon="4.26989">
        <ele>794.2</ele>
        <time>2023-03-29T12:15:12Z</time>
      </trkpt>
      <trkpt lat="45.34258" lon="4.26977">
        <ele>794.2</ele>
        <time>2023-03-29T12:15:13Z</time>
      </trkpt>
      <trkpt lat="45.34274" lon="4.26933">
        <ele>793.2</ele>
        <time>2023-03-29T12:15:17Z</time>
      </trkpt>
      <trkpt lat="45.34278" lon="4.26922">
        <ele>793</ele>
        <time>2023-03-29T12:15:18Z</time>
      </trkpt>
      <trkpt lat="45.34282" lon="4.26911">
        <ele>792.8</ele>
        <time>2023-03-29T12:15:19Z</time>
      </trkpt>
      <trkpt lat="45.34292" lon="4.2689">
        <ele>792.4</ele>
        <time>2023-03-29T12:15:21Z</time>
      </trkpt>
      <trkpt lat="45.34305" lon="4.26872">
        <ele>792.2</ele>
        <time>2023-03-29T12:15:23Z</time>
      </trkpt>
      <trkpt lat="45.34312" lon="4.26863">
        <ele>792</ele>
        <time>2023-03-29T12:15:24Z</time>
      </trkpt>
      <trkpt lat="45.34347" lon="4.26822">
        <ele>791.2</ele>
        <time>2023-03-29T12:15:29Z</time>
      </trkpt>
      <trkpt lat="45.34354" lon="4.26816">
        <ele>791</ele>
        <time>2023-03-29T12:15:30Z</time>
      </trkpt>
      <trkpt lat="45.3439" lon="4.26786">
        <ele>789.8</ele>
        <time>2023-03-29T12:15:35Z</time>
      </trkpt>
      <trkpt lat="45.34397" lon="4.26781">
        <ele>789.8</ele>
        <time>2023-03-29T12:15:36Z</time>
      </trkpt>
      <trkpt lat="45.34426" lon="4.26765">
        <ele>789.2</ele>
        <time>2023-03-29T12:15:40Z</time>
      </trkpt>
      <trkpt lat="45.34434" lon="4.26764">
        <ele>789</ele>
        <time>2023-03-29T12:15:41Z</time>
      </trkpt>
      <trkpt lat="45.34466" lon="4.26763">
        <ele>789</ele>
        <time>2023-03-29T12:15:45Z</time>
      </trkpt>
      <trkpt lat="45.34506" lon="4.26763">
        <ele>788.2</ele>
        <time>2023-03-29T12:15:50Z</time>
      </trkpt>
      <trkpt lat="45.34514" lon="4.26763">
        <ele>788</ele>
        <time>2023-03-29T12:15:51Z</time>
      </trkpt>
      <trkpt lat="45.34563" lon="4.2676">
        <ele>786.8</ele>
        <time>2023-03-29T12:15:57Z</time>
      </trkpt>
      <trkpt lat="45.34572" lon="4.26758">
        <ele>786.6</ele>
        <time>2023-03-29T12:15:58Z</time>
      </trkpt>
      <trkpt lat="45.34596" lon="4.26748">
        <ele>785.8</ele>
        <time>2023-03-29T12:16:01Z</time>
      </trkpt>
      <trkpt lat="45.34613" lon="4.2674">
        <ele>785.4</ele>
        <time>2023-03-29T12:16:03Z</time>
      </trkpt>
      <trkpt lat="45.34643" lon="4.26721">
        <ele>784.4</ele>
        <time>2023-03-29T12:16:08Z</time>
      </trkpt>
      <trkpt lat="45.34652" lon="4.26716">
        <ele>783.2</ele>
        <time>2023-03-29T12:16:12Z</time>
      </trkpt>
      <trkpt lat="45.34672" lon="4.26701">
        <ele>782.8</ele>
        <time>2023-03-29T12:16:20Z</time>
      </trkpt>
      <trkpt lat="45.34684" lon="4.2669">
        <ele>782.4</ele>
        <time>2023-03-29T12:16:23Z</time>
      </trkpt>
      <trkpt lat="45.34688" lon="4.26685">
        <ele>782.4</ele>
        <time>2023-03-29T12:16:24Z</time>
      </trkpt>
      <trkpt lat="45.34692" lon="4.26678">
        <ele>782.2</ele>
        <time>2023-03-29T12:16:25Z</time>
      </trkpt>
      <trkpt lat="45.34704" lon="4.26654">
        <ele>781.4</ele>
        <time>2023-03-29T12:16:28Z</time>
      </trkpt>
      <trkpt lat="45.3471" lon="4.26626">
        <ele>781</ele>
        <time>2023-03-29T12:16:31Z</time>
      </trkpt>
      <trkpt lat="45.34712" lon="4.26616">
        <ele>780.8</ele>
        <time>2023-03-29T12:16:32Z</time>
      </trkpt>
      <trkpt lat="45.34713" lon="4.26605">
        <ele>780.6</ele>
        <time>2023-03-29T12:16:33Z</time>
      </trkpt>
      <trkpt lat="45.34714" lon="4.26582">
        <ele>779.8</ele>
        <time>2023-03-29T12:16:35Z</time>
      </trkpt>
      <trkpt lat="45.34714" lon="4.2656">
        <ele>779</ele>
        <time>2023-03-29T12:16:37Z</time>
      </trkpt>
      <trkpt lat="45.34715" lon="4.26548">
        <ele>778.8</ele>
        <time>2023-03-29T12:16:38Z</time>
      </trkpt>
      <trkpt lat="45.34722" lon="4.26515">
        <ele>778</ele>
        <time>2023-03-29T12:16:41Z</time>
      </trkpt>
      <trkpt lat="45.34726" lon="4.26505">
        <ele>777.8</ele>
        <time>2023-03-29T12:16:42Z</time>
      </trkpt>
      <trkpt lat="45.34732" lon="4.26496">
        <ele>777.8</ele>
        <time>2023-03-29T12:16:43Z</time>
      </trkpt>
      <trkpt lat="45.34742" lon="4.26477">
        <ele>777</ele>
        <time>2023-03-29T12:16:45Z</time>
      </trkpt>
      <trkpt lat="45.34748" lon="4.26469">
        <ele>776.6</ele>
        <time>2023-03-29T12:16:46Z</time>
      </trkpt>
      <trkpt lat="45.34773" lon="4.26436">
        <ele>775.2</ele>
        <time>2023-03-29T12:16:50Z</time>
      </trkpt>
      <trkpt lat="45.34785" lon="4.26419">
        <ele>774.4</ele>
        <time>2023-03-29T12:16:52Z</time>
      </trkpt>
      <trkpt lat="45.34791" lon="4.2641">
        <ele>774</ele>
        <time>2023-03-29T12:16:53Z</time>
      </trkpt>
      <trkpt lat="45.34809" lon="4.26383">
        <ele>772.8</ele>
        <time>2023-03-29T12:16:56Z</time>
      </trkpt>
      <trkpt lat="45.34822" lon="4.26366">
        <ele>771.8</ele>
        <time>2023-03-29T12:16:58Z</time>
      </trkpt>
      <trkpt lat="45.34841" lon="4.26339">
        <ele>770.6</ele>
        <time>2023-03-29T12:17:01Z</time>
      </trkpt>
      <trkpt lat="45.3486" lon="4.26312">
        <ele>768.8</ele>
        <time>2023-03-29T12:17:04Z</time>
      </trkpt>
      <trkpt lat="45.34879" lon="4.26286">
        <ele>767.8</ele>
        <time>2023-03-29T12:17:07Z</time>
      </trkpt>
      <trkpt lat="45.34897" lon="4.2626">
        <ele>767</ele>
        <time>2023-03-29T12:17:10Z</time>
      </trkpt>
      <trkpt lat="45.34903" lon="4.26251">
        <ele>766.6</ele>
        <time>2023-03-29T12:17:11Z</time>
      </trkpt>
      <trkpt lat="45.34914" lon="4.26232">
        <ele>766.2</ele>
        <time>2023-03-29T12:17:13Z</time>
      </trkpt>
      <trkpt lat="45.34922" lon="4.2621">
        <ele>765.6</ele>
        <time>2023-03-29T12:17:15Z</time>
      </trkpt>
      <trkpt lat="45.34925" lon="4.26199">
        <ele>765</ele>
        <time>2023-03-29T12:17:16Z</time>
      </trkpt>
      <trkpt lat="45.34929" lon="4.26175">
        <ele>764.2</ele>
        <time>2023-03-29T12:17:18Z</time>
      </trkpt>
      <trkpt lat="45.34928" lon="4.26151">
        <ele>763.8</ele>
        <time>2023-03-29T12:17:20Z</time>
      </trkpt>
      <trkpt lat="45.34925" lon="4.26127">
        <ele>763.4</ele>
        <time>2023-03-29T12:17:22Z</time>
      </trkpt>
      <trkpt lat="45.3492" lon="4.26104">
        <ele>762.6</ele>
        <time>2023-03-29T12:17:24Z</time>
      </trkpt>
      <trkpt lat="45.34911" lon="4.2607">
        <ele>761.4</ele>
        <time>2023-03-29T12:17:27Z</time>
      </trkpt>
      <trkpt lat="45.34908" lon="4.26058">
        <ele>761.2</ele>
        <time>2023-03-29T12:17:28Z</time>
      </trkpt>
      <trkpt lat="45.34908" lon="4.26033">
        <ele>760.6</ele>
        <time>2023-03-29T12:17:30Z</time>
      </trkpt>
      <trkpt lat="45.34912" lon="4.26009">
        <ele>760</ele>
        <time>2023-03-29T12:17:32Z</time>
      </trkpt>
      <trkpt lat="45.34915" lon="4.25997">
        <ele>759.8</ele>
        <time>2023-03-29T12:17:33Z</time>
      </trkpt>
      <trkpt lat="45.34919" lon="4.25988">
        <ele>759.4</ele>
        <time>2023-03-29T12:17:34Z</time>
      </trkpt>
      <trkpt lat="45.3494" lon="4.25944">
        <ele>758.4</ele>
        <time>2023-03-29T12:17:38Z</time>
      </trkpt>
      <trkpt lat="45.34945" lon="4.25934">
        <ele>758.2</ele>
        <time>2023-03-29T12:17:39Z</time>
      </trkpt>
      <trkpt lat="45.34957" lon="4.25914">
        <ele>757.4</ele>
        <time>2023-03-29T12:17:41Z</time>
      </trkpt>
      <trkpt lat="45.34974" lon="4.25886">
        <ele>756.2</ele>
        <time>2023-03-29T12:17:44Z</time>
      </trkpt>
      <trkpt lat="45.34991" lon="4.25857">
        <ele>755.2</ele>
        <time>2023-03-29T12:17:47Z</time>
      </trkpt>
      <trkpt lat="45.35012" lon="4.25825">
        <ele>754</ele>
        <time>2023-03-29T12:17:51Z</time>
      </trkpt>
      <trkpt lat="45.35016" lon="4.25816">
        <ele>753.8</ele>
        <time>2023-03-29T12:17:52Z</time>
      </trkpt>
      <trkpt lat="45.35031" lon="4.25789">
        <ele>752.8</ele>
        <time>2023-03-29T12:17:55Z</time>
      </trkpt>
      <trkpt lat="45.35047" lon="4.25762">
        <ele>752.2</ele>
        <time>2023-03-29T12:17:58Z</time>
      </trkpt>
      <trkpt lat="45.35054" lon="4.25755">
        <ele>751.8</ele>
        <time>2023-03-29T12:17:59Z</time>
      </trkpt>
      <trkpt lat="45.35069" lon="4.25744">
        <ele>751</ele>
        <time>2023-03-29T12:18:01Z</time>
      </trkpt>
      <trkpt lat="45.35078" lon="4.25739">
        <ele>750.6</ele>
        <time>2023-03-29T12:18:02Z</time>
      </trkpt>
      <trkpt lat="45.35114" lon="4.25725">
        <ele>749</ele>
        <time>2023-03-29T12:18:06Z</time>
      </trkpt>
      <trkpt lat="45.35141" lon="4.25714">
        <ele>747.6</ele>
        <time>2023-03-29T12:18:09Z</time>
      </trkpt>
      <trkpt lat="45.35174" lon="4.25695">
        <ele>746.2</ele>
        <time>2023-03-29T12:18:13Z</time>
      </trkpt>
      <trkpt lat="45.35196" lon="4.25673">
        <ele>744.8</ele>
        <time>2023-03-29T12:18:16Z</time>
      </trkpt>
      <trkpt lat="45.35202" lon="4.25663">
        <ele>744.6</ele>
        <time>2023-03-29T12:18:17Z</time>
      </trkpt>
      <trkpt lat="45.35205" lon="4.25652">
        <ele>744.2</ele>
        <time>2023-03-29T12:18:18Z</time>
      </trkpt>
      <trkpt lat="45.35207" lon="4.25641">
        <ele>744</ele>
        <time>2023-03-29T12:18:19Z</time>
      </trkpt>
      <trkpt lat="45.35206" lon="4.25629">
        <ele>743.6</ele>
        <time>2023-03-29T12:18:20Z</time>
      </trkpt>
      <trkpt lat="45.352" lon="4.25606">
        <ele>743</ele>
        <time>2023-03-29T12:18:22Z</time>
      </trkpt>
      <trkpt lat="45.35194" lon="4.25586">
        <ele>742.4</ele>
        <time>2023-03-29T12:18:24Z</time>
      </trkpt>
      <trkpt lat="45.35192" lon="4.25575">
        <ele>742.2</ele>
        <time>2023-03-29T12:18:25Z</time>
      </trkpt>
      <trkpt lat="45.35191" lon="4.25565">
        <ele>742.2</ele>
        <time>2023-03-29T12:18:26Z</time>
      </trkpt>
      <trkpt lat="45.35192" lon="4.25546">
        <ele>741.8</ele>
        <time>2023-03-29T12:18:28Z</time>
      </trkpt>
      <trkpt lat="45.35196" lon="4.25537">
        <ele>741.6</ele>
        <time>2023-03-29T12:18:29Z</time>
      </trkpt>
      <trkpt lat="45.352" lon="4.2553">
        <ele>741.6</ele>
        <time>2023-03-29T12:18:30Z</time>
      </trkpt>
      <trkpt lat="45.35206" lon="4.25525">
        <ele>741.4</ele>
        <time>2023-03-29T12:18:31Z</time>
      </trkpt>
      <trkpt lat="45.35213" lon="4.25521">
        <ele>741.2</ele>
        <time>2023-03-29T12:18:32Z</time>
      </trkpt>
      <trkpt lat="45.35229" lon="4.25517">
        <ele>741</ele>
        <time>2023-03-29T12:18:34Z</time>
      </trkpt>
      <trkpt lat="45.35246" lon="4.25516">
        <ele>740.6</ele>
        <time>2023-03-29T12:18:36Z</time>
      </trkpt>
      <trkpt lat="45.35263" lon="4.25516">
        <ele>740.2</ele>
        <time>2023-03-29T12:18:38Z</time>
      </trkpt>
      <trkpt lat="45.35296" lon="4.25518">
        <ele>739</ele>
        <time>2023-03-29T12:18:42Z</time>
      </trkpt>
      <trkpt lat="45.35322" lon="4.2552">
        <ele>738</ele>
        <time>2023-03-29T12:18:45Z</time>
      </trkpt>
      <trkpt lat="45.35348" lon="4.25521">
        <ele>736.6</ele>
        <time>2023-03-29T12:18:48Z</time>
      </trkpt>
      <trkpt lat="45.35366" lon="4.25522">
        <ele>736</ele>
        <time>2023-03-29T12:18:50Z</time>
      </trkpt>
      <trkpt lat="45.35384" lon="4.25523">
        <ele>735.2</ele>
        <time>2023-03-29T12:18:52Z</time>
      </trkpt>
      <trkpt lat="45.35416" lon="4.25525">
        <ele>733.8</ele>
        <time>2023-03-29T12:18:56Z</time>
      </trkpt>
      <trkpt lat="45.35424" lon="4.25525">
        <ele>733.4</ele>
        <time>2023-03-29T12:18:57Z</time>
      </trkpt>
      <trkpt lat="45.35451" lon="4.25524">
        <ele>732.8</ele>
        <time>2023-03-29T12:19:01Z</time>
      </trkpt>
      <trkpt lat="45.35457" lon="4.25524">
        <ele>732.8</ele>
        <time>2023-03-29T12:19:02Z</time>
      </trkpt>
      <trkpt lat="45.3547" lon="4.25523">
        <ele>732.4</ele>
        <time>2023-03-29T12:19:06Z</time>
      </trkpt>
      <trkpt lat="45.35472" lon="4.25521">
        <ele>732.4</ele>
        <time>2023-03-29T12:19:07Z</time>
      </trkpt>
      <trkpt lat="45.35475" lon="4.25514">
        <ele>732.2</ele>
        <time>2023-03-29T12:19:09Z</time>
      </trkpt>
      <trkpt lat="45.35475" lon="4.25509">
        <ele>732.2</ele>
        <time>2023-03-29T12:19:10Z</time>
      </trkpt>
      <trkpt lat="45.35474" lon="4.25484">
        <ele>732</ele>
        <time>2023-03-29T12:19:14Z</time>
      </trkpt>
      <trkpt lat="45.35473" lon="4.25477">
        <ele>731.8</ele>
        <time>2023-03-29T12:19:15Z</time>
      </trkpt>
      <trkpt lat="45.35469" lon="4.25432">
        <ele>731.4</ele>
        <time>2023-03-29T12:19:21Z</time>
      </trkpt>
      <trkpt lat="45.35468" lon="4.25395">
        <ele>731</ele>
        <time>2023-03-29T12:19:26Z</time>
      </trkpt>
      <trkpt lat="45.35468" lon="4.25381">
        <ele>731</ele>
        <time>2023-03-29T12:19:28Z</time>
      </trkpt>
      <trkpt lat="45.35466" lon="4.25325">
        <ele>730.8</ele>
        <time>2023-03-29T12:19:35Z</time>
      </trkpt>
      <trkpt lat="45.35466" lon="4.25316">
        <ele>730.8</ele>
        <time>2023-03-29T12:19:36Z</time>
      </trkpt>
      <trkpt lat="45.35466" lon="4.25308">
        <ele>730.8</ele>
        <time>2023-03-29T12:19:37Z</time>
      </trkpt>
      <trkpt lat="45.35466" lon="4.25291">
        <ele>730.6</ele>
        <time>2023-03-29T12:19:39Z</time>
      </trkpt>
      <trkpt lat="45.35465" lon="4.25275">
        <ele>730.4</ele>
        <time>2023-03-29T12:19:41Z</time>
      </trkpt>
      <trkpt lat="45.35461" lon="4.2525">
        <ele>730.2</ele>
        <time>2023-03-29T12:19:44Z</time>
      </trkpt>
      <trkpt lat="45.35461" lon="4.25233">
        <ele>730</ele>
        <time>2023-03-29T12:19:46Z</time>
      </trkpt>
      <trkpt lat="45.35457" lon="4.25165">
        <ele>729.2</ele>
        <time>2023-03-29T12:19:54Z</time>
      </trkpt>
      <trkpt lat="45.35446" lon="4.25128">
        <ele>729</ele>
        <time>2023-03-29T12:19:59Z</time>
      </trkpt>
      <trkpt lat="45.35442" lon="4.25121">
        <ele>729</ele>
        <time>2023-03-29T12:20:00Z</time>
      </trkpt>
      <trkpt lat="45.35432" lon="4.25107">
        <ele>729</ele>
        <time>2023-03-29T12:20:02Z</time>
      </trkpt>
      <trkpt lat="45.35427" lon="4.25102">
        <ele>728.8</ele>
        <time>2023-03-29T12:20:03Z</time>
      </trkpt>
      <trkpt lat="45.35396" lon="4.2508">
        <ele>727.6</ele>
        <time>2023-03-29T12:20:08Z</time>
      </trkpt>
      <trkpt lat="45.3539" lon="4.25077">
        <ele>727.4</ele>
        <time>2023-03-29T12:20:09Z</time>
      </trkpt>
      <trkpt lat="45.35371" lon="4.25066">
        <ele>726.6</ele>
        <time>2023-03-29T12:20:12Z</time>
      </trkpt>
      <trkpt lat="45.35334" lon="4.25045">
        <ele>725.8</ele>
        <time>2023-03-29T12:20:18Z</time>
      </trkpt>
      <trkpt lat="45.35314" lon="4.25034">
        <ele>725.4</ele>
        <time>2023-03-29T12:20:21Z</time>
      </trkpt>
      <trkpt lat="45.35282" lon="4.25017">
        <ele>724.4</ele>
        <time>2023-03-29T12:20:26Z</time>
      </trkpt>
      <trkpt lat="45.35268" lon="4.25011">
        <ele>723.8</ele>
        <time>2023-03-29T12:20:28Z</time>
      </trkpt>
      <trkpt lat="45.35247" lon="4.25006">
        <ele>723.2</ele>
        <time>2023-03-29T12:20:31Z</time>
      </trkpt>
      <trkpt lat="45.35225" lon="4.25005">
        <ele>723</ele>
        <time>2023-03-29T12:20:34Z</time>
      </trkpt>
      <trkpt lat="45.35209" lon="4.25009">
        <ele>722.8</ele>
        <time>2023-03-29T12:20:36Z</time>
      </trkpt>
      <trkpt lat="45.35195" lon="4.25017">
        <ele>722.6</ele>
        <time>2023-03-29T12:20:38Z</time>
      </trkpt>
      <trkpt lat="45.35182" lon="4.25026">
        <ele>722.2</ele>
        <time>2023-03-29T12:20:40Z</time>
      </trkpt>
      <trkpt lat="45.35168" lon="4.25037">
        <ele>722</ele>
        <time>2023-03-29T12:20:42Z</time>
      </trkpt>
      <trkpt lat="45.35155" lon="4.25047">
        <ele>721.4</ele>
        <time>2023-03-29T12:20:44Z</time>
      </trkpt>
      <trkpt lat="45.35142" lon="4.25057">
        <ele>721</ele>
        <time>2023-03-29T12:20:46Z</time>
      </trkpt>
      <trkpt lat="45.35121" lon="4.25069">
        <ele>720.4</ele>
        <time>2023-03-29T12:20:49Z</time>
      </trkpt>
      <trkpt lat="45.3509" lon="4.25074">
        <ele>719.8</ele>
        <time>2023-03-29T12:20:53Z</time>
      </trkpt>
      <trkpt lat="45.35082" lon="4.25072">
        <ele>719.8</ele>
        <time>2023-03-29T12:20:54Z</time>
      </trkpt>
      <trkpt lat="45.35037" lon="4.25056">
        <ele>719</ele>
        <time>2023-03-29T12:21:00Z</time>
      </trkpt>
      <trkpt lat="45.35023" lon="4.25051">
        <ele>718.6</ele>
        <time>2023-03-29T12:21:02Z</time>
      </trkpt>
      <trkpt lat="45.34988" lon="4.25041">
        <ele>717.8</ele>
        <time>2023-03-29T12:21:07Z</time>
      </trkpt>
      <trkpt lat="45.34974" lon="4.2504">
        <ele>717.6</ele>
        <time>2023-03-29T12:21:09Z</time>
      </trkpt>
      <trkpt lat="45.34939" lon="4.25044">
        <ele>716.8</ele>
        <time>2023-03-29T12:21:14Z</time>
      </trkpt>
      <trkpt lat="45.34925" lon="4.25046">
        <ele>716.6</ele>
        <time>2023-03-29T12:21:16Z</time>
      </trkpt>
      <trkpt lat="45.3488" lon="4.2505">
        <ele>715.6</ele>
        <time>2023-03-29T12:21:22Z</time>
      </trkpt>
      <trkpt lat="45.34849" lon="4.25058">
        <ele>715.2</ele>
        <time>2023-03-29T12:21:26Z</time>
      </trkpt>
      <trkpt lat="45.34842" lon="4.25063">
        <ele>715</ele>
        <time>2023-03-29T12:21:27Z</time>
      </trkpt>
      <trkpt lat="45.34835" lon="4.25069">
        <ele>714.8</ele>
        <time>2023-03-29T12:21:28Z</time>
      </trkpt>
      <trkpt lat="45.34822" lon="4.25083">
        <ele>714.6</ele>
        <time>2023-03-29T12:21:30Z</time>
      </trkpt>
      <trkpt lat="45.34816" lon="4.25091">
        <ele>714.4</ele>
        <time>2023-03-29T12:21:31Z</time>
      </trkpt>
      <trkpt lat="45.34798" lon="4.25118">
        <ele>713.4</ele>
        <time>2023-03-29T12:21:34Z</time>
      </trkpt>
      <trkpt lat="45.34788" lon="4.25139">
        <ele>712.6</ele>
        <time>2023-03-29T12:21:36Z</time>
      </trkpt>
      <trkpt lat="45.34784" lon="4.25149">
        <ele>712.4</ele>
        <time>2023-03-29T12:21:37Z</time>
      </trkpt>
      <trkpt lat="45.34775" lon="4.25171">
        <ele>711</ele>
        <time>2023-03-29T12:21:39Z</time>
      </trkpt>
      <trkpt lat="45.34771" lon="4.25181">
        <ele>710.8</ele>
        <time>2023-03-29T12:21:40Z</time>
      </trkpt>
      <trkpt lat="45.34764" lon="4.2519">
        <ele>710.4</ele>
        <time>2023-03-29T12:21:41Z</time>
      </trkpt>
      <trkpt lat="45.34756" lon="4.25197">
        <ele>710</ele>
        <time>2023-03-29T12:21:42Z</time>
      </trkpt>
      <trkpt lat="45.34737" lon="4.252">
        <ele>709</ele>
        <time>2023-03-29T12:21:44Z</time>
      </trkpt>
      <trkpt lat="45.34727" lon="4.25198">
        <ele>708.8</ele>
        <time>2023-03-29T12:21:45Z</time>
      </trkpt>
      <trkpt lat="45.34718" lon="4.25191">
        <ele>708.6</ele>
        <time>2023-03-29T12:21:46Z</time>
      </trkpt>
      <trkpt lat="45.34711" lon="4.25182">
        <ele>708.4</ele>
        <time>2023-03-29T12:21:47Z</time>
      </trkpt>
      <trkpt lat="45.34704" lon="4.2517">
        <ele>708.2</ele>
        <time>2023-03-29T12:21:48Z</time>
      </trkpt>
      <trkpt lat="45.34693" lon="4.25148">
        <ele>707</ele>
        <time>2023-03-29T12:21:50Z</time>
      </trkpt>
      <trkpt lat="45.34687" lon="4.25136">
        <ele>706.8</ele>
        <time>2023-03-29T12:21:51Z</time>
      </trkpt>
      <trkpt lat="45.34683" lon="4.25123">
        <ele>705.8</ele>
        <time>2023-03-29T12:21:52Z</time>
      </trkpt>
      <trkpt lat="45.34677" lon="4.25096">
        <ele>704.4</ele>
        <time>2023-03-29T12:21:54Z</time>
      </trkpt>
      <trkpt lat="45.34675" lon="4.25078">
        <ele>703.8</ele>
        <time>2023-03-29T12:21:55Z</time>
      </trkpt>
      <trkpt lat="45.34675" lon="4.25062">
        <ele>703.2</ele>
        <time>2023-03-29T12:21:56Z</time>
      </trkpt>
      <trkpt lat="45.34678" lon="4.25046">
        <ele>702</ele>
        <time>2023-03-29T12:21:57Z</time>
      </trkpt>
      <trkpt lat="45.34683" lon="4.25032">
        <ele>701.6</ele>
        <time>2023-03-29T12:21:58Z</time>
      </trkpt>
      <trkpt lat="45.3469" lon="4.25019">
        <ele>700.4</ele>
        <time>2023-03-29T12:21:59Z</time>
      </trkpt>
      <trkpt lat="45.34704" lon="4.24995">
        <ele>699.2</ele>
        <time>2023-03-29T12:22:01Z</time>
      </trkpt>
      <trkpt lat="45.34712" lon="4.24984">
        <ele>698.2</ele>
        <time>2023-03-29T12:22:02Z</time>
      </trkpt>
      <trkpt lat="45.34733" lon="4.2495">
        <ele>697</ele>
        <time>2023-03-29T12:22:05Z</time>
      </trkpt>
      <trkpt lat="45.3476" lon="4.24908">
        <ele>696</ele>
        <time>2023-03-29T12:22:09Z</time>
      </trkpt>
      <trkpt lat="45.3477" lon="4.24883">
        <ele>695.4</ele>
        <time>2023-03-29T12:22:11Z</time>
      </trkpt>
      <trkpt lat="45.34778" lon="4.24859">
        <ele>694.8</ele>
        <time>2023-03-29T12:22:13Z</time>
      </trkpt>
      <trkpt lat="45.34782" lon="4.24835">
        <ele>694.4</ele>
        <time>2023-03-29T12:22:15Z</time>
      </trkpt>
      <trkpt lat="45.34785" lon="4.24809">
        <ele>693.8</ele>
        <time>2023-03-29T12:22:17Z</time>
      </trkpt>
      <trkpt lat="45.34784" lon="4.24796">
        <ele>693.6</ele>
        <time>2023-03-29T12:22:18Z</time>
      </trkpt>
      <trkpt lat="45.34781" lon="4.24768">
        <ele>693.2</ele>
        <time>2023-03-29T12:22:20Z</time>
      </trkpt>
      <trkpt lat="45.34775" lon="4.2474">
        <ele>692.2</ele>
        <time>2023-03-29T12:22:22Z</time>
      </trkpt>
      <trkpt lat="45.34766" lon="4.24713">
        <ele>691.4</ele>
        <time>2023-03-29T12:22:24Z</time>
      </trkpt>
      <trkpt lat="45.3476" lon="4.247">
        <ele>690.6</ele>
        <time>2023-03-29T12:22:25Z</time>
      </trkpt>
      <trkpt lat="45.34754" lon="4.24688">
        <ele>690.2</ele>
        <time>2023-03-29T12:22:26Z</time>
      </trkpt>
      <trkpt lat="45.34746" lon="4.24678">
        <ele>689.6</ele>
        <time>2023-03-29T12:22:27Z</time>
      </trkpt>
      <trkpt lat="45.34738" lon="4.24668">
        <ele>689.4</ele>
        <time>2023-03-29T12:22:28Z</time>
      </trkpt>
      <trkpt lat="45.34729" lon="4.24658">
        <ele>688.4</ele>
        <time>2023-03-29T12:22:29Z</time>
      </trkpt>
      <trkpt lat="45.34702" lon="4.2463">
        <ele>686.8</ele>
        <time>2023-03-29T12:22:32Z</time>
      </trkpt>
      <trkpt lat="45.34692" lon="4.24622">
        <ele>686.6</ele>
        <time>2023-03-29T12:22:33Z</time>
      </trkpt>
      <trkpt lat="45.34682" lon="4.24615">
        <ele>685.8</ele>
        <time>2023-03-29T12:22:34Z</time>
      </trkpt>
      <trkpt lat="45.34661" lon="4.24601">
        <ele>684.6</ele>
        <time>2023-03-29T12:22:36Z</time>
      </trkpt>
      <trkpt lat="45.34638" lon="4.24588">
        <ele>683.2</ele>
        <time>2023-03-29T12:22:38Z</time>
      </trkpt>
      <trkpt lat="45.34627" lon="4.24583">
        <ele>682.6</ele>
        <time>2023-03-29T12:22:39Z</time>
      </trkpt>
      <trkpt lat="45.34616" lon="4.24578">
        <ele>682</ele>
        <time>2023-03-29T12:22:40Z</time>
      </trkpt>
      <trkpt lat="45.34604" lon="4.24574">
        <ele>681</ele>
        <time>2023-03-29T12:22:41Z</time>
      </trkpt>
      <trkpt lat="45.34573" lon="4.24564">
        <ele>679.8</ele>
        <time>2023-03-29T12:22:44Z</time>
      </trkpt>
      <trkpt lat="45.34539" lon="4.24556">
        <ele>678.4</ele>
        <time>2023-03-29T12:22:47Z</time>
      </trkpt>
      <trkpt lat="45.34516" lon="4.24551">
        <ele>677.2</ele>
        <time>2023-03-29T12:22:49Z</time>
      </trkpt>
      <trkpt lat="45.34494" lon="4.24548">
        <ele>676</ele>
        <time>2023-03-29T12:22:51Z</time>
      </trkpt>
      <trkpt lat="45.3447" lon="4.24559">
        <ele>675</ele>
        <time>2023-03-29T12:22:53Z</time>
      </trkpt>
      <trkpt lat="45.3446" lon="4.24567">
        <ele>674.2</ele>
        <time>2023-03-29T12:22:54Z</time>
      </trkpt>
      <trkpt lat="45.34451" lon="4.24577">
        <ele>674</ele>
        <time>2023-03-29T12:22:55Z</time>
      </trkpt>
      <trkpt lat="45.34433" lon="4.24597">
        <ele>672.8</ele>
        <time>2023-03-29T12:22:57Z</time>
      </trkpt>
      <trkpt lat="45.34414" lon="4.24617">
        <ele>671.8</ele>
        <time>2023-03-29T12:22:59Z</time>
      </trkpt>
      <trkpt lat="45.34385" lon="4.24644">
        <ele>670.6</ele>
        <time>2023-03-29T12:23:02Z</time>
      </trkpt>
      <trkpt lat="45.34374" lon="4.2465">
        <ele>670</ele>
        <time>2023-03-29T12:23:03Z</time>
      </trkpt>
      <trkpt lat="45.34364" lon="4.24656">
        <ele>669.2</ele>
        <time>2023-03-29T12:23:04Z</time>
      </trkpt>
      <trkpt lat="45.34344" lon="4.24667">
        <ele>668.4</ele>
        <time>2023-03-29T12:23:06Z</time>
      </trkpt>
      <trkpt lat="45.34324" lon="4.24679">
        <ele>667.2</ele>
        <time>2023-03-29T12:23:08Z</time>
      </trkpt>
      <trkpt lat="45.34295" lon="4.24696">
        <ele>666.2</ele>
        <time>2023-03-29T12:23:11Z</time>
      </trkpt>
      <trkpt lat="45.34285" lon="4.24701">
        <ele>665.8</ele>
        <time>2023-03-29T12:23:12Z</time>
      </trkpt>
      <trkpt lat="45.34273" lon="4.24706">
        <ele>665.2</ele>
        <time>2023-03-29T12:23:13Z</time>
      </trkpt>
      <trkpt lat="45.34262" lon="4.24707">
        <ele>665</ele>
        <time>2023-03-29T12:23:14Z</time>
      </trkpt>
      <trkpt lat="45.34251" lon="4.24705">
        <ele>664.4</ele>
        <time>2023-03-29T12:23:15Z</time>
      </trkpt>
      <trkpt lat="45.34232" lon="4.24691">
        <ele>663.2</ele>
        <time>2023-03-29T12:23:17Z</time>
      </trkpt>
      <trkpt lat="45.34218" lon="4.24668">
        <ele>662</ele>
        <time>2023-03-29T12:23:19Z</time>
      </trkpt>
      <trkpt lat="45.3421" lon="4.24657">
        <ele>661.6</ele>
        <time>2023-03-29T12:23:20Z</time>
      </trkpt>
      <trkpt lat="45.34203" lon="4.24651">
        <ele>661.2</ele>
        <time>2023-03-29T12:23:21Z</time>
      </trkpt>
      <trkpt lat="45.34194" lon="4.24645">
        <ele>660.6</ele>
        <time>2023-03-29T12:23:22Z</time>
      </trkpt>
      <trkpt lat="45.34181" lon="4.24643">
        <ele>660.4</ele>
        <time>2023-03-29T12:23:23Z</time>
      </trkpt>
      <trkpt lat="45.34162" lon="4.24645">
        <ele>659.4</ele>
        <time>2023-03-29T12:23:25Z</time>
      </trkpt>
      <trkpt lat="45.34152" lon="4.24649">
        <ele>658.8</ele>
        <time>2023-03-29T12:23:26Z</time>
      </trkpt>
      <trkpt lat="45.34141" lon="4.24657">
        <ele>658.4</ele>
        <time>2023-03-29T12:23:27Z</time>
      </trkpt>
      <trkpt lat="45.34135" lon="4.24664">
        <ele>657.6</ele>
        <time>2023-03-29T12:23:28Z</time>
      </trkpt>
      <trkpt lat="45.34122" lon="4.24686">
        <ele>656.8</ele>
        <time>2023-03-29T12:23:30Z</time>
      </trkpt>
      <trkpt lat="45.34118" lon="4.24696">
        <ele>656</ele>
        <time>2023-03-29T12:23:31Z</time>
      </trkpt>
      <trkpt lat="45.34114" lon="4.24706">
        <ele>655.8</ele>
        <time>2023-03-29T12:23:32Z</time>
      </trkpt>
      <trkpt lat="45.34109" lon="4.24726">
        <ele>655</ele>
        <time>2023-03-29T12:23:34Z</time>
      </trkpt>
      <trkpt lat="45.34106" lon="4.24746">
        <ele>654.2</ele>
        <time>2023-03-29T12:23:36Z</time>
      </trkpt>
      <trkpt lat="45.34104" lon="4.24753">
        <ele>653.6</ele>
        <time>2023-03-29T12:23:37Z</time>
      </trkpt>
      <trkpt lat="45.34101" lon="4.2476">
        <ele>652.8</ele>
        <time>2023-03-29T12:23:38Z</time>
      </trkpt>
      <trkpt lat="45.34096" lon="4.24766">
        <ele>652.4</ele>
        <time>2023-03-29T12:23:39Z</time>
      </trkpt>
      <trkpt lat="45.34087" lon="4.24769">
        <ele>652</ele>
        <time>2023-03-29T12:23:40Z</time>
      </trkpt>
      <trkpt lat="45.34068" lon="4.24767">
        <ele>651.4</ele>
        <time>2023-03-29T12:23:43Z</time>
      </trkpt>
      <trkpt lat="45.34061" lon="4.24766">
        <ele>651.2</ele>
        <time>2023-03-29T12:23:44Z</time>
      </trkpt>
      <trkpt lat="45.34039" lon="4.24763">
        <ele>650.2</ele>
        <time>2023-03-29T12:23:47Z</time>
      </trkpt>
      <trkpt lat="45.34033" lon="4.24763">
        <ele>650</ele>
        <time>2023-03-29T12:23:48Z</time>
      </trkpt>
      <trkpt lat="45.34025" lon="4.24762">
        <ele>649.6</ele>
        <time>2023-03-29T12:23:49Z</time>
      </trkpt>
      <trkpt lat="45.34019" lon="4.24758">
        <ele>649.4</ele>
        <time>2023-03-29T12:23:50Z</time>
      </trkpt>
      <trkpt lat="45.34007" lon="4.24749">
        <ele>649</ele>
        <time>2023-03-29T12:23:52Z</time>
      </trkpt>
      <trkpt lat="45.33994" lon="4.24748">
        <ele>648.4</ele>
        <time>2023-03-29T12:23:54Z</time>
      </trkpt>
      <trkpt lat="45.33988" lon="4.2475">
        <ele>648.4</ele>
        <time>2023-03-29T12:23:55Z</time>
      </trkpt>
      <trkpt lat="45.33982" lon="4.24752">
        <ele>647.8</ele>
        <time>2023-03-29T12:23:56Z</time>
      </trkpt>
      <trkpt lat="45.33956" lon="4.24764">
        <ele>646.4</ele>
        <time>2023-03-29T12:24:00Z</time>
      </trkpt>
      <trkpt lat="45.33951" lon="4.24767">
        <ele>646</ele>
        <time>2023-03-29T12:24:01Z</time>
      </trkpt>
      <trkpt lat="45.33929" lon="4.24781">
        <ele>645.2</ele>
        <time>2023-03-29T12:24:05Z</time>
      </trkpt>
      <trkpt lat="45.33919" lon="4.24788">
        <ele>645</ele>
        <time>2023-03-29T12:24:07Z</time>
      </trkpt>
      <trkpt lat="45.33902" lon="4.24799">
        <ele>644.4</ele>
        <time>2023-03-29T12:24:10Z</time>
      </trkpt>
      <trkpt lat="45.33897" lon="4.24803">
        <ele>644.2</ele>
        <time>2023-03-29T12:24:11Z</time>
      </trkpt>
      <trkpt lat="45.33879" lon="4.24819">
        <ele>643</ele>
        <time>2023-03-29T12:24:14Z</time>
      </trkpt>
      <trkpt lat="45.33853" lon="4.24844">
        <ele>642</ele>
        <time>2023-03-29T12:24:19Z</time>
      </trkpt>
      <trkpt lat="45.33834" lon="4.24857">
        <ele>641.6</ele>
        <time>2023-03-29T12:24:22Z</time>
      </trkpt>
      <trkpt lat="45.33828" lon="4.2486">
        <ele>641.4</ele>
        <time>2023-03-29T12:24:23Z</time>
      </trkpt>
      <trkpt lat="45.33821" lon="4.24863">
        <ele>641</ele>
        <time>2023-03-29T12:24:24Z</time>
      </trkpt>
      <trkpt lat="45.33793" lon="4.2487">
        <ele>639.6</ele>
        <time>2023-03-29T12:24:28Z</time>
      </trkpt>
      <trkpt lat="45.33784" lon="4.24872">
        <ele>639.4</ele>
        <time>2023-03-29T12:24:29Z</time>
      </trkpt>
      <trkpt lat="45.3377" lon="4.24875">
        <ele>638.6</ele>
        <time>2023-03-29T12:24:31Z</time>
      </trkpt>
      <trkpt lat="45.3375" lon="4.24879">
        <ele>637.2</ele>
        <time>2023-03-29T12:24:34Z</time>
      </trkpt>
      <trkpt lat="45.33736" lon="4.24881">
        <ele>636.8</ele>
        <time>2023-03-29T12:24:36Z</time>
      </trkpt>
      <trkpt lat="45.33723" lon="4.24876">
        <ele>636.2</ele>
        <time>2023-03-29T12:24:38Z</time>
      </trkpt>
      <trkpt lat="45.33716" lon="4.24872">
        <ele>636</ele>
        <time>2023-03-29T12:24:39Z</time>
      </trkpt>
      <trkpt lat="45.33709" lon="4.24867">
        <ele>635.8</ele>
        <time>2023-03-29T12:24:40Z</time>
      </trkpt>
      <trkpt lat="45.33698" lon="4.24854">
        <ele>634.8</ele>
        <time>2023-03-29T12:24:42Z</time>
      </trkpt>
      <trkpt lat="45.33689" lon="4.2484">
        <ele>634.4</ele>
        <time>2023-03-29T12:24:44Z</time>
      </trkpt>
      <trkpt lat="45.33674" lon="4.24818">
        <ele>633.8</ele>
        <time>2023-03-29T12:24:47Z</time>
      </trkpt>
      <trkpt lat="45.33658" lon="4.24793">
        <ele>632.8</ele>
        <time>2023-03-29T12:24:50Z</time>
      </trkpt>
      <trkpt lat="45.33651" lon="4.24783">
        <ele>632.2</ele>
        <time>2023-03-29T12:24:51Z</time>
      </trkpt>
      <trkpt lat="45.33641" lon="4.24768">
        <ele>631.4</ele>
        <time>2023-03-29T12:24:53Z</time>
      </trkpt>
      <trkpt lat="45.33617" lon="4.24731">
        <ele>630.2</ele>
        <time>2023-03-29T12:24:57Z</time>
      </trkpt>
      <trkpt lat="45.3361" lon="4.24722">
        <ele>629.8</ele>
        <time>2023-03-29T12:24:58Z</time>
      </trkpt>
      <trkpt lat="45.33597" lon="4.24702">
        <ele>628.8</ele>
        <time>2023-03-29T12:25:00Z</time>
      </trkpt>
      <trkpt lat="45.3358" lon="4.24675">
        <ele>627.6</ele>
        <time>2023-03-29T12:25:03Z</time>
      </trkpt>
      <trkpt lat="45.33562" lon="4.24651">
        <ele>626.6</ele>
        <time>2023-03-29T12:25:06Z</time>
      </trkpt>
      <trkpt lat="45.33555" lon="4.24644">
        <ele>626.2</ele>
        <time>2023-03-29T12:25:07Z</time>
      </trkpt>
      <trkpt lat="45.33527" lon="4.24617">
        <ele>625</ele>
        <time>2023-03-29T12:25:11Z</time>
      </trkpt>
      <trkpt lat="45.33521" lon="4.2461">
        <ele>624.6</ele>
        <time>2023-03-29T12:25:12Z</time>
      </trkpt>
      <trkpt lat="45.33514" lon="4.24604">
        <ele>624.2</ele>
        <time>2023-03-29T12:25:13Z</time>
      </trkpt>
      <trkpt lat="45.33508" lon="4.24597">
        <ele>623.8</ele>
        <time>2023-03-29T12:25:14Z</time>
      </trkpt>
      <trkpt lat="45.33502" lon="4.2459">
        <ele>623.6</ele>
        <time>2023-03-29T12:25:15Z</time>
      </trkpt>
      <trkpt lat="45.33491" lon="4.24578">
        <ele>623.2</ele>
        <time>2023-03-29T12:25:17Z</time>
      </trkpt>
      <trkpt lat="45.33475" lon="4.24562">
        <ele>622.6</ele>
        <time>2023-03-29T12:25:20Z</time>
      </trkpt>
      <trkpt lat="45.3345" lon="4.24537">
        <ele>622.2</ele>
        <time>2023-03-29T12:25:25Z</time>
      </trkpt>
      <trkpt lat="45.33421" lon="4.24508">
        <ele>621.6</ele>
        <time>2023-03-29T12:25:31Z</time>
      </trkpt>
      <trkpt lat="45.33412" lon="4.24499">
        <ele>621</ele>
        <time>2023-03-29T12:25:33Z</time>
      </trkpt>
      <trkpt lat="45.334" lon="4.24486">
        <ele>620.6</ele>
        <time>2023-03-29T12:25:37Z</time>
      </trkpt>
      <trkpt lat="45.33385" lon="4.24471">
        <ele>620.6</ele>
        <time>2023-03-29T12:25:43Z</time>
      </trkpt>
      <trkpt lat="45.33362" lon="4.24447">
        <ele>620.6</ele>
        <time>2023-03-29T12:25:50Z</time>
      </trkpt>
      <trkpt lat="45.33359" lon="4.24445">
        <ele>620.6</ele>
        <time>2023-03-29T12:25:51Z</time>
      </trkpt>
      <trkpt lat="45.3335" lon="4.24445">
        <ele>620.6</ele>
        <time>2023-03-29T12:25:53Z</time>
      </trkpt>
      <trkpt lat="45.33344" lon="4.24451">
        <ele>620.6</ele>
        <time>2023-03-29T12:25:55Z</time>
      </trkpt>
      <trkpt lat="45.33339" lon="4.2446">
        <ele>620.8</ele>
        <time>2023-03-29T12:25:57Z</time>
      </trkpt>
      <trkpt lat="45.33327" lon="4.24488">
        <ele>622.2</ele>
        <time>2023-03-29T12:26:04Z</time>
      </trkpt>
      <trkpt lat="45.33324" lon="4.24494">
        <ele>623</ele>
        <time>2023-03-29T12:26:06Z</time>
      </trkpt>
      <trkpt lat="45.33313" lon="4.24508">
        <ele>624</ele>
        <time>2023-03-29T12:26:10Z</time>
      </trkpt>
      <trkpt lat="45.33302" lon="4.24518">
        <ele>625.2</ele>
        <time>2023-03-29T12:26:14Z</time>
      </trkpt>
      <trkpt lat="45.33293" lon="4.24525">
        <ele>625.8</ele>
        <time>2023-03-29T12:26:17Z</time>
      </trkpt>
      <trkpt lat="45.3329" lon="4.24527">
        <ele>626.2</ele>
        <time>2023-03-29T12:26:18Z</time>
      </trkpt>
      <trkpt lat="45.33275" lon="4.24539">
        <ele>627.2</ele>
        <time>2023-03-29T12:26:23Z</time>
      </trkpt>
      <trkpt lat="45.33265" lon="4.24548">
        <ele>628</ele>
        <time>2023-03-29T12:26:26Z</time>
      </trkpt>
      <trkpt lat="45.33256" lon="4.24555">
        <ele>628.4</ele>
        <time>2023-03-29T12:26:29Z</time>
      </trkpt>
      <trkpt lat="45.33248" lon="4.24563">
        <ele>628.8</ele>
        <time>2023-03-29T12:26:32Z</time>
      </trkpt>
      <trkpt lat="45.33235" lon="4.24577">
        <ele>629.6</ele>
        <time>2023-03-29T12:26:36Z</time>
      </trkpt>
      <trkpt lat="45.3322" lon="4.24598">
        <ele>630.4</ele>
        <time>2023-03-29T12:26:41Z</time>
      </trkpt>
      <trkpt lat="45.33215" lon="4.24606">
        <ele>630.6</ele>
        <time>2023-03-29T12:26:43Z</time>
      </trkpt>
      <trkpt lat="45.33193" lon="4.24638">
        <ele>631.2</ele>
        <time>2023-03-29T12:26:50Z</time>
      </trkpt>
      <trkpt lat="45.33156" lon="4.24684">
        <ele>631.4</ele>
        <time>2023-03-29T12:27:00Z</time>
      </trkpt>
      <trkpt lat="45.33137" lon="4.24701">
        <ele>631.4</ele>
        <time>2023-03-29T12:27:04Z</time>
      </trkpt>
      <trkpt lat="45.33128" lon="4.24707">
        <ele>631.2</ele>
        <time>2023-03-29T12:27:06Z</time>
      </trkpt>
      <trkpt lat="45.33087" lon="4.24728">
        <ele>631</ele>
        <time>2023-03-29T12:27:14Z</time>
      </trkpt>
      <trkpt lat="45.33053" lon="4.24736">
        <ele>630.8</ele>
        <time>2023-03-29T12:27:20Z</time>
      </trkpt>
      <trkpt lat="45.33041" lon="4.24735">
        <ele>630.8</ele>
        <time>2023-03-29T12:27:22Z</time>
      </trkpt>
      <trkpt lat="45.33024" lon="4.2473">
        <ele>630.8</ele>
        <time>2023-03-29T12:27:25Z</time>
      </trkpt>
      <trkpt lat="45.33012" lon="4.24724">
        <ele>630.8</ele>
        <time>2023-03-29T12:27:27Z</time>
      </trkpt>
      <trkpt lat="45.32995" lon="4.24713">
        <ele>631</ele>
        <time>2023-03-29T12:27:30Z</time>
      </trkpt>
      <trkpt lat="45.3299" lon="4.24708">
        <ele>631</ele>
        <time>2023-03-29T12:27:31Z</time>
      </trkpt>
      <trkpt lat="45.32959" lon="4.24686">
        <ele>631.2</ele>
        <time>2023-03-29T12:27:37Z</time>
      </trkpt>
      <trkpt lat="45.32935" lon="4.24677">
        <ele>631.4</ele>
        <time>2023-03-29T12:27:41Z</time>
      </trkpt>
      <trkpt lat="45.32926" lon="4.24674">
        <ele>631.4</ele>
        <time>2023-03-29T12:27:43Z</time>
      </trkpt>
      <trkpt lat="45.32916" lon="4.2467">
        <ele>632</ele>
        <time>2023-03-29T12:27:45Z</time>
      </trkpt>
      <trkpt lat="45.32898" lon="4.24664">
        <ele>632.4</ele>
        <time>2023-03-29T12:27:49Z</time>
      </trkpt>
      <trkpt lat="45.32886" lon="4.24657">
        <ele>633</ele>
        <time>2023-03-29T12:27:52Z</time>
      </trkpt>
      <trkpt lat="45.32868" lon="4.24644">
        <ele>633.8</ele>
        <time>2023-03-29T12:27:56Z</time>
      </trkpt>
      <trkpt lat="45.32861" lon="4.24638">
        <ele>634</ele>
        <time>2023-03-29T12:27:58Z</time>
      </trkpt>
      <trkpt lat="45.32841" lon="4.24625">
        <ele>635.4</ele>
        <time>2023-03-29T12:28:03Z</time>
      </trkpt>
      <trkpt lat="45.32832" lon="4.24621">
        <ele>635.8</ele>
        <time>2023-03-29T12:28:05Z</time>
      </trkpt>
      <trkpt lat="45.32815" lon="4.24615">
        <ele>636.6</ele>
        <time>2023-03-29T12:28:09Z</time>
      </trkpt>
      <trkpt lat="45.32791" lon="4.24606">
        <ele>637.8</ele>
        <time>2023-03-29T12:28:15Z</time>
      </trkpt>
      <trkpt lat="45.32768" lon="4.24597">
        <ele>639</ele>
        <time>2023-03-29T12:28:21Z</time>
      </trkpt>
      <trkpt lat="45.32764" lon="4.24596">
        <ele>639.2</ele>
        <time>2023-03-29T12:28:22Z</time>
      </trkpt>
      <trkpt lat="45.32739" lon="4.24591">
        <ele>640.2</ele>
        <time>2023-03-29T12:28:28Z</time>
      </trkpt>
      <trkpt lat="45.32734" lon="4.24591">
        <ele>640.2</ele>
        <time>2023-03-29T12:28:29Z</time>
      </trkpt>
      <trkpt lat="45.32731" lon="4.24591">
        <ele>640.4</ele>
        <time>2023-03-29T12:28:30Z</time>
      </trkpt>
      <trkpt lat="45.32715" lon="4.24593">
        <ele>641.2</ele>
        <time>2023-03-29T12:28:34Z</time>
      </trkpt>
      <trkpt lat="45.32697" lon="4.24598">
        <ele>642</ele>
        <time>2023-03-29T12:28:38Z</time>
      </trkpt>
      <trkpt lat="45.32694" lon="4.246">
        <ele>642</ele>
        <time>2023-03-29T12:28:39Z</time>
      </trkpt>
      <trkpt lat="45.32674" lon="4.2461">
        <ele>643.2</ele>
        <time>2023-03-29T12:28:44Z</time>
      </trkpt>
      <trkpt lat="45.32644" lon="4.24636">
        <ele>644.2</ele>
        <time>2023-03-29T12:28:52Z</time>
      </trkpt>
      <trkpt lat="45.32641" lon="4.2464">
        <ele>644.4</ele>
        <time>2023-03-29T12:28:53Z</time>
      </trkpt>
      <trkpt lat="45.32623" lon="4.24662">
        <ele>645.2</ele>
        <time>2023-03-29T12:28:58Z</time>
      </trkpt>
      <trkpt lat="45.32613" lon="4.24675">
        <ele>645.4</ele>
        <time>2023-03-29T12:29:01Z</time>
      </trkpt>
      <trkpt lat="45.32607" lon="4.24684">
        <ele>645.6</ele>
        <time>2023-03-29T12:29:03Z</time>
      </trkpt>
      <trkpt lat="45.32594" lon="4.24701">
        <ele>646</ele>
        <time>2023-03-29T12:29:07Z</time>
      </trkpt>
      <trkpt lat="45.3259" lon="4.24704">
        <ele>646.2</ele>
        <time>2023-03-29T12:29:08Z</time>
      </trkpt>
      <trkpt lat="45.32586" lon="4.24708">
        <ele>646.2</ele>
        <time>2023-03-29T12:29:09Z</time>
      </trkpt>
      <trkpt lat="45.32583" lon="4.24712">
        <ele>646.4</ele>
        <time>2023-03-29T12:29:10Z</time>
      </trkpt>
      <trkpt lat="45.32566" lon="4.24729">
        <ele>646.6</ele>
        <time>2023-03-29T12:29:14Z</time>
      </trkpt>
      <trkpt lat="45.32529" lon="4.24767">
        <ele>647.2</ele>
        <time>2023-03-29T12:29:24Z</time>
      </trkpt>
      <trkpt lat="45.32523" lon="4.24774">
        <ele>647.4</ele>
        <time>2023-03-29T12:29:26Z</time>
      </trkpt>
      <trkpt lat="45.32509" lon="4.2479">
        <ele>647.8</ele>
        <time>2023-03-29T12:29:30Z</time>
      </trkpt>
      <trkpt lat="45.32502" lon="4.24798">
        <ele>648.2</ele>
        <time>2023-03-29T12:29:32Z</time>
      </trkpt>
      <trkpt lat="45.32499" lon="4.24802">
        <ele>648.4</ele>
        <time>2023-03-29T12:29:33Z</time>
      </trkpt>
      <trkpt lat="45.32473" lon="4.24839">
        <ele>649.2</ele>
        <time>2023-03-29T12:29:41Z</time>
      </trkpt>
      <trkpt lat="45.32447" lon="4.24882">
        <ele>649.4</ele>
        <time>2023-03-29T12:29:50Z</time>
      </trkpt>
      <trkpt lat="45.32422" lon="4.24921">
        <ele>649.8</ele>
        <time>2023-03-29T12:29:58Z</time>
      </trkpt>
      <trkpt lat="45.32399" lon="4.24955">
        <ele>650.6</ele>
        <time>2023-03-29T12:30:05Z</time>
      </trkpt>
      <trkpt lat="45.32393" lon="4.24963">
        <ele>651</ele>
        <time>2023-03-29T12:30:07Z</time>
      </trkpt>
      <trkpt lat="45.32389" lon="4.24968">
        <ele>651</ele>
        <time>2023-03-29T12:30:08Z</time>
      </trkpt>
      <trkpt lat="45.32377" lon="4.24984">
        <ele>651.6</ele>
        <time>2023-03-29T12:30:12Z</time>
      </trkpt>
      <trkpt lat="45.32368" lon="4.24997">
        <ele>651.8</ele>
        <time>2023-03-29T12:30:15Z</time>
      </trkpt>
      <trkpt lat="45.3236" lon="4.25011">
        <ele>652.2</ele>
        <time>2023-03-29T12:30:18Z</time>
      </trkpt>
      <trkpt lat="45.32352" lon="4.25027">
        <ele>652.6</ele>
        <time>2023-03-29T12:30:21Z</time>
      </trkpt>
      <trkpt lat="45.32349" lon="4.25033">
        <ele>652.8</ele>
        <time>2023-03-29T12:30:22Z</time>
      </trkpt>
      <trkpt lat="45.32345" lon="4.25045">
        <ele>653</ele>
        <time>2023-03-29T12:30:24Z</time>
      </trkpt>
      <trkpt lat="45.32341" lon="4.25061">
        <ele>653.8</ele>
        <time>2023-03-29T12:30:27Z</time>
      </trkpt>
      <trkpt lat="45.32335" lon="4.25075">
        <ele>654.2</ele>
        <time>2023-03-29T12:30:30Z</time>
      </trkpt>
      <trkpt lat="45.32327" lon="4.25088">
        <ele>654.8</ele>
        <time>2023-03-29T12:30:33Z</time>
      </trkpt>
      <trkpt lat="45.32317" lon="4.25099">
        <ele>655.6</ele>
        <time>2023-03-29T12:30:36Z</time>
      </trkpt>
      <trkpt lat="45.32308" lon="4.25109">
        <ele>656</ele>
        <time>2023-03-29T12:30:39Z</time>
      </trkpt>
      <trkpt lat="45.32289" lon="4.25126">
        <ele>657</ele>
        <time>2023-03-29T12:30:44Z</time>
      </trkpt>
      <trkpt lat="45.32278" lon="4.25133">
        <ele>658.2</ele>
        <time>2023-03-29T12:30:48Z</time>
      </trkpt>
      <trkpt lat="45.32272" lon="4.25134">
        <ele>658.6</ele>
        <time>2023-03-29T12:30:50Z</time>
      </trkpt>
      <trkpt lat="45.32262" lon="4.25132">
        <ele>659.2</ele>
        <time>2023-03-29T12:30:53Z</time>
      </trkpt>
      <trkpt lat="45.32255" lon="4.25126">
        <ele>659.6</ele>
        <time>2023-03-29T12:30:55Z</time>
      </trkpt>
      <trkpt lat="45.32249" lon="4.25117">
        <ele>660.4</ele>
        <time>2023-03-29T12:30:58Z</time>
      </trkpt>
      <trkpt lat="45.32247" lon="4.25113">
        <ele>660.4</ele>
        <time>2023-03-29T12:30:59Z</time>
      </trkpt>
      <trkpt lat="45.32246" lon="4.25091">
        <ele>661.6</ele>
        <time>2023-03-29T12:31:04Z</time>
      </trkpt>
      <trkpt lat="45.32247" lon="4.25072">
        <ele>662.6</ele>
        <time>2023-03-29T12:31:08Z</time>
      </trkpt>
      <trkpt lat="45.32247" lon="4.25061">
        <ele>663.2</ele>
        <time>2023-03-29T12:31:10Z</time>
      </trkpt>
      <trkpt lat="45.32246" lon="4.25048">
        <ele>663.8</ele>
        <time>2023-03-29T12:31:13Z</time>
      </trkpt>
      <trkpt lat="45.32243" lon="4.25034">
        <ele>664.8</ele>
        <time>2023-03-29T12:31:16Z</time>
      </trkpt>
      <trkpt lat="45.32242" lon="4.25029">
        <ele>664.8</ele>
        <time>2023-03-29T12:31:17Z</time>
      </trkpt>
      <trkpt lat="45.32234" lon="4.2501">
        <ele>666</ele>
        <time>2023-03-29T12:31:21Z</time>
      </trkpt>
      <trkpt lat="45.32232" lon="4.25004">
        <ele>666.2</ele>
        <time>2023-03-29T12:31:22Z</time>
      </trkpt>
      <trkpt lat="45.32225" lon="4.24982">
        <ele>667.2</ele>
        <time>2023-03-29T12:31:27Z</time>
      </trkpt>
      <trkpt lat="45.32222" lon="4.24977">
        <ele>667.4</ele>
        <time>2023-03-29T12:31:28Z</time>
      </trkpt>
      <trkpt lat="45.32207" lon="4.24945">
        <ele>668</ele>
        <time>2023-03-29T12:31:36Z</time>
      </trkpt>
      <trkpt lat="45.32201" lon="4.24934">
        <ele>668.4</ele>
        <time>2023-03-29T12:31:39Z</time>
      </trkpt>
      <trkpt lat="45.32193" lon="4.24923">
        <ele>668.8</ele>
        <time>2023-03-29T12:31:42Z</time>
      </trkpt>
      <trkpt lat="45.32181" lon="4.24915">
        <ele>669</ele>
        <time>2023-03-29T12:31:45Z</time>
      </trkpt>
      <trkpt lat="45.32172" lon="4.24911">
        <ele>669.2</ele>
        <time>2023-03-29T12:31:47Z</time>
      </trkpt>
      <trkpt lat="45.32168" lon="4.2491">
        <ele>669.4</ele>
        <time>2023-03-29T12:31:48Z</time>
      </trkpt>
      <trkpt lat="45.32151" lon="4.24905">
        <ele>669.6</ele>
        <time>2023-03-29T12:31:52Z</time>
      </trkpt>
      <trkpt lat="45.32139" lon="4.249">
        <ele>670</ele>
        <time>2023-03-29T12:31:55Z</time>
      </trkpt>
      <trkpt lat="45.32136" lon="4.24898">
        <ele>670</ele>
        <time>2023-03-29T12:31:56Z</time>
      </trkpt>
      <trkpt lat="45.32116" lon="4.24884">
        <ele>670.2</ele>
        <time>2023-03-29T12:32:01Z</time>
      </trkpt>
      <trkpt lat="45.32108" lon="4.24879">
        <ele>670.2</ele>
        <time>2023-03-29T12:32:03Z</time>
      </trkpt>
      <trkpt lat="45.32085" lon="4.2487">
        <ele>669.8</ele>
        <time>2023-03-29T12:32:08Z</time>
      </trkpt>
      <trkpt lat="45.32072" lon="4.24868">
        <ele>669.8</ele>
        <time>2023-03-29T12:32:10Z</time>
      </trkpt>
      <trkpt lat="45.32052" lon="4.24867">
        <ele>669.4</ele>
        <time>2023-03-29T12:32:13Z</time>
      </trkpt>
      <trkpt lat="45.32029" lon="4.24869">
        <ele>668.2</ele>
        <time>2023-03-29T12:32:16Z</time>
      </trkpt>
      <trkpt lat="45.32014" lon="4.24869">
        <ele>667.4</ele>
        <time>2023-03-29T12:32:18Z</time>
      </trkpt>
      <trkpt lat="45.32003" lon="4.24868">
        <ele>667</ele>
        <time>2023-03-29T12:32:19Z</time>
      </trkpt>
      <trkpt lat="45.31987" lon="4.2486">
        <ele>666.4</ele>
        <time>2023-03-29T12:32:21Z</time>
      </trkpt>
      <trkpt lat="45.31979" lon="4.24854">
        <ele>665.8</ele>
        <time>2023-03-29T12:32:22Z</time>
      </trkpt>
      <trkpt lat="45.31968" lon="4.24848">
        <ele>665.2</ele>
        <time>2023-03-29T12:32:23Z</time>
      </trkpt>
      <trkpt lat="45.31961" lon="4.24844">
        <ele>664.4</ele>
        <time>2023-03-29T12:32:24Z</time>
      </trkpt>
      <trkpt lat="45.31951" lon="4.24842">
        <ele>663.8</ele>
        <time>2023-03-29T12:32:25Z</time>
      </trkpt>
      <trkpt lat="45.3193" lon="4.24844">
        <ele>662.8</ele>
        <time>2023-03-29T12:32:27Z</time>
      </trkpt>
      <trkpt lat="45.31923" lon="4.24847">
        <ele>662.4</ele>
        <time>2023-03-29T12:32:28Z</time>
      </trkpt>
      <trkpt lat="45.31915" lon="4.24851">
        <ele>661.8</ele>
        <time>2023-03-29T12:32:29Z</time>
      </trkpt>
      <trkpt lat="45.31907" lon="4.24856">
        <ele>661.6</ele>
        <time>2023-03-29T12:32:30Z</time>
      </trkpt>
      <trkpt lat="45.31893" lon="4.24867">
        <ele>661</ele>
        <time>2023-03-29T12:32:32Z</time>
      </trkpt>
      <trkpt lat="45.31877" lon="4.24874">
        <ele>660.6</ele>
        <time>2023-03-29T12:32:34Z</time>
      </trkpt>
      <trkpt lat="45.31853" lon="4.24882">
        <ele>660.4</ele>
        <time>2023-03-29T12:32:37Z</time>
      </trkpt>
      <trkpt lat="45.3183" lon="4.24888">
        <ele>660.4</ele>
        <time>2023-03-29T12:32:41Z</time>
      </trkpt>
      <trkpt lat="45.318" lon="4.24904">
        <ele>660.8</ele>
        <time>2023-03-29T12:32:47Z</time>
      </trkpt>
      <trkpt lat="45.31767" lon="4.24934">
        <ele>661.2</ele>
        <time>2023-03-29T12:32:54Z</time>
      </trkpt>
      <trkpt lat="45.31736" lon="4.24972">
        <ele>661</ele>
        <time>2023-03-29T12:33:00Z</time>
      </trkpt>
      <trkpt lat="45.31706" lon="4.25011">
        <ele>659.2</ele>
        <time>2023-03-29T12:33:05Z</time>
      </trkpt>
      <trkpt lat="45.31694" lon="4.25028">
        <ele>659</ele>
        <time>2023-03-29T12:33:07Z</time>
      </trkpt>
      <trkpt lat="45.31683" lon="4.25043">
        <ele>658.2</ele>
        <time>2023-03-29T12:33:09Z</time>
      </trkpt>
      <trkpt lat="45.31666" lon="4.25069">
        <ele>657</ele>
        <time>2023-03-29T12:33:12Z</time>
      </trkpt>
      <trkpt lat="45.31657" lon="4.25082">
        <ele>656.6</ele>
        <time>2023-03-29T12:33:14Z</time>
      </trkpt>
      <trkpt lat="45.31644" lon="4.251">
        <ele>656</ele>
        <time>2023-03-29T12:33:17Z</time>
      </trkpt>
      <trkpt lat="45.31637" lon="4.25106">
        <ele>656</ele>
        <time>2023-03-29T12:33:18Z</time>
      </trkpt>
      <trkpt lat="45.31632" lon="4.25109">
        <ele>655.8</ele>
        <time>2023-03-29T12:33:19Z</time>
      </trkpt>
      <trkpt lat="45.31614" lon="4.25115">
        <ele>655.8</ele>
        <time>2023-03-29T12:33:22Z</time>
      </trkpt>
      <trkpt lat="45.31604" lon="4.25115">
        <ele>656</ele>
        <time>2023-03-29T12:33:24Z</time>
      </trkpt>
      <trkpt lat="45.31581" lon="4.25105">
        <ele>657.2</ele>
        <time>2023-03-29T12:33:29Z</time>
      </trkpt>
      <trkpt lat="45.31577" lon="4.25103">
        <ele>657.4</ele>
        <time>2023-03-29T12:33:30Z</time>
      </trkpt>
      <trkpt lat="45.31569" lon="4.25098">
        <ele>658</ele>
        <time>2023-03-29T12:33:32Z</time>
      </trkpt>
      <trkpt lat="45.31566" lon="4.25095">
        <ele>658.4</ele>
        <time>2023-03-29T12:33:33Z</time>
      </trkpt>
      <trkpt lat="45.31562" lon="4.25093">
        <ele>658.6</ele>
        <time>2023-03-29T12:33:34Z</time>
      </trkpt>
      <trkpt lat="45.3155" lon="4.25088">
        <ele>659.6</ele>
        <time>2023-03-29T12:33:37Z</time>
      </trkpt>
      <trkpt lat="45.31546" lon="4.25087">
        <ele>659.8</ele>
        <time>2023-03-29T12:33:38Z</time>
      </trkpt>
      <trkpt lat="45.3154" lon="4.25087">
        <ele>660.4</ele>
        <time>2023-03-29T12:33:40Z</time>
      </trkpt>
      <trkpt lat="45.31531" lon="4.25087">
        <ele>660.8</ele>
        <time>2023-03-29T12:33:42Z</time>
      </trkpt>
      <trkpt lat="45.31517" lon="4.25093">
        <ele>662.2</ele>
        <time>2023-03-29T12:33:46Z</time>
      </trkpt>
      <trkpt lat="45.31501" lon="4.25109">
        <ele>663.2</ele>
        <time>2023-03-29T12:33:51Z</time>
      </trkpt>
      <trkpt lat="45.31499" lon="4.25112">
        <ele>663.4</ele>
        <time>2023-03-29T12:33:52Z</time>
      </trkpt>
      <trkpt lat="45.31489" lon="4.25129">
        <ele>664.4</ele>
        <time>2023-03-29T12:33:56Z</time>
      </trkpt>
      <trkpt lat="45.31478" lon="4.25146">
        <ele>665.4</ele>
        <time>2023-03-29T12:34:00Z</time>
      </trkpt>
      <trkpt lat="45.31476" lon="4.2515">
        <ele>665.6</ele>
        <time>2023-03-29T12:34:01Z</time>
      </trkpt>
      <trkpt lat="45.31463" lon="4.25168">
        <ele>666.6</ele>
        <time>2023-03-29T12:34:06Z</time>
      </trkpt>
      <trkpt lat="45.3146" lon="4.25171">
        <ele>667.2</ele>
        <time>2023-03-29T12:34:07Z</time>
      </trkpt>
      <trkpt lat="45.3145" lon="4.25182">
        <ele>667.6</ele>
        <time>2023-03-29T12:34:10Z</time>
      </trkpt>
      <trkpt lat="45.31434" lon="4.25194">
        <ele>668</ele>
        <time>2023-03-29T12:34:15Z</time>
      </trkpt>
      <trkpt lat="45.31421" lon="4.25197">
        <ele>668.8</ele>
        <time>2023-03-29T12:34:19Z</time>
      </trkpt>
      <trkpt lat="45.31419" lon="4.25197">
        <ele>668.8</ele>
        <time>2023-03-29T12:34:20Z</time>
      </trkpt>
      <trkpt lat="45.31416" lon="4.25196">
        <ele>669.2</ele>
        <time>2023-03-29T12:34:21Z</time>
      </trkpt>
      <trkpt lat="45.31407" lon="4.25194">
        <ele>669.8</ele>
        <time>2023-03-29T12:34:24Z</time>
      </trkpt>
      <trkpt lat="45.31391" lon="4.25196">
        <ele>670.8</ele>
        <time>2023-03-29T12:34:28Z</time>
      </trkpt>
      <trkpt lat="45.31387" lon="4.25197">
        <ele>671</ele>
        <time>2023-03-29T12:34:29Z</time>
      </trkpt>
      <trkpt lat="45.31367" lon="4.25207">
        <ele>672.4</ele>
        <time>2023-03-29T12:34:35Z</time>
      </trkpt>
      <trkpt lat="45.31349" lon="4.25216">
        <ele>673.4</ele>
        <time>2023-03-29T12:34:40Z</time>
      </trkpt>
      <trkpt lat="45.31339" lon="4.2522">
        <ele>674.4</ele>
        <time>2023-03-29T12:34:43Z</time>
      </trkpt>
      <trkpt lat="45.31335" lon="4.25222">
        <ele>674.6</ele>
        <time>2023-03-29T12:34:44Z</time>
      </trkpt>
      <trkpt lat="45.31311" lon="4.25242">
        <ele>675.6</ele>
        <time>2023-03-29T12:34:51Z</time>
      </trkpt>
      <trkpt lat="45.31308" lon="4.25246">
        <ele>675.6</ele>
        <time>2023-03-29T12:34:52Z</time>
      </trkpt>
      <trkpt lat="45.31296" lon="4.25265">
        <ele>676</ele>
        <time>2023-03-29T12:34:57Z</time>
      </trkpt>
      <trkpt lat="45.3129" lon="4.25283">
        <ele>676.8</ele>
        <time>2023-03-29T12:35:01Z</time>
      </trkpt>
      <trkpt lat="45.31278" lon="4.25298">
        <ele>677.6</ele>
        <time>2023-03-29T12:35:06Z</time>
      </trkpt>
      <trkpt lat="45.31275" lon="4.253">
        <ele>678</ele>
        <time>2023-03-29T12:35:07Z</time>
      </trkpt>
      <trkpt lat="45.31264" lon="4.2531">
        <ele>679.2</ele>
        <time>2023-03-29T12:35:11Z</time>
      </trkpt>
      <trkpt lat="45.31255" lon="4.25318">
        <ele>679.6</ele>
        <time>2023-03-29T12:35:14Z</time>
      </trkpt>
      <trkpt lat="45.31244" lon="4.25326">
        <ele>680.4</ele>
        <time>2023-03-29T12:35:18Z</time>
      </trkpt>
      <trkpt lat="45.31226" lon="4.2534">
        <ele>681.6</ele>
        <time>2023-03-29T12:35:24Z</time>
      </trkpt>
      <trkpt lat="45.31211" lon="4.25355">
        <ele>682.8</ele>
        <time>2023-03-29T12:35:30Z</time>
      </trkpt>
      <trkpt lat="45.31203" lon="4.25368">
        <ele>684.2</ele>
        <time>2023-03-29T12:35:34Z</time>
      </trkpt>
      <trkpt lat="45.31194" lon="4.25382">
        <ele>685.2</ele>
        <time>2023-03-29T12:35:38Z</time>
      </trkpt>
      <trkpt lat="45.31189" lon="4.25389">
        <ele>685.8</ele>
        <time>2023-03-29T12:35:40Z</time>
      </trkpt>
      <trkpt lat="45.31181" lon="4.25403">
        <ele>686.4</ele>
        <time>2023-03-29T12:35:44Z</time>
      </trkpt>
      <trkpt lat="45.31174" lon="4.25417">
        <ele>687.6</ele>
        <time>2023-03-29T12:35:48Z</time>
      </trkpt>
      <trkpt lat="45.31172" lon="4.25421">
        <ele>687.6</ele>
        <time>2023-03-29T12:35:49Z</time>
      </trkpt>
      <trkpt lat="45.31166" lon="4.25436">
        <ele>688.6</ele>
        <time>2023-03-29T12:35:53Z</time>
      </trkpt>
      <trkpt lat="45.31161" lon="4.25452">
        <ele>689.2</ele>
        <time>2023-03-29T12:35:57Z</time>
      </trkpt>
      <trkpt lat="45.31161" lon="4.25469">
        <ele>689.6</ele>
        <time>2023-03-29T12:36:01Z</time>
      </trkpt>
      <trkpt lat="45.31162" lon="4.25473">
        <ele>690.2</ele>
        <time>2023-03-29T12:36:02Z</time>
      </trkpt>
      <trkpt lat="45.31167" lon="4.25484">
        <ele>690.8</ele>
        <time>2023-03-29T12:36:05Z</time>
      </trkpt>
      <trkpt lat="45.3117" lon="4.25486">
        <ele>691.2</ele>
        <time>2023-03-29T12:36:06Z</time>
      </trkpt>
      <trkpt lat="45.31176" lon="4.25489">
        <ele>691.8</ele>
        <time>2023-03-29T12:36:08Z</time>
      </trkpt>
      <trkpt lat="45.31192" lon="4.25492">
        <ele>693</ele>
        <time>2023-03-29T12:36:13Z</time>
      </trkpt>
      <trkpt lat="45.31204" lon="4.25496">
        <ele>694</ele>
        <time>2023-03-29T12:36:17Z</time>
      </trkpt>
      <trkpt lat="45.31207" lon="4.25499">
        <ele>694.4</ele>
        <time>2023-03-29T12:36:18Z</time>
      </trkpt>
      <trkpt lat="45.31216" lon="4.25512">
        <ele>694.8</ele>
        <time>2023-03-29T12:36:22Z</time>
      </trkpt>
      <trkpt lat="45.31219" lon="4.25528">
        <ele>695.4</ele>
        <time>2023-03-29T12:36:26Z</time>
      </trkpt>
      <trkpt lat="45.31218" lon="4.25536">
        <ele>696</ele>
        <time>2023-03-29T12:36:28Z</time>
      </trkpt>
      <trkpt lat="45.31218" lon="4.25539">
        <ele>696</ele>
        <time>2023-03-29T12:36:29Z</time>
      </trkpt>
      <trkpt lat="45.31216" lon="4.25547">
        <ele>696.6</ele>
        <time>2023-03-29T12:36:31Z</time>
      </trkpt>
      <trkpt lat="45.31212" lon="4.25563">
        <ele>697.6</ele>
        <time>2023-03-29T12:36:35Z</time>
      </trkpt>
      <trkpt lat="45.31211" lon="4.25566">
        <ele>698</ele>
        <time>2023-03-29T12:36:36Z</time>
      </trkpt>
      <trkpt lat="45.31206" lon="4.25585">
        <ele>699</ele>
        <time>2023-03-29T12:36:41Z</time>
      </trkpt>
      <trkpt lat="45.31198" lon="4.25605">
        <ele>700.2</ele>
        <time>2023-03-29T12:36:46Z</time>
      </trkpt>
      <trkpt lat="45.31197" lon="4.25609">
        <ele>700.4</ele>
        <time>2023-03-29T12:36:47Z</time>
      </trkpt>
      <trkpt lat="45.31192" lon="4.25635">
        <ele>701.4</ele>
        <time>2023-03-29T12:36:53Z</time>
      </trkpt>
      <trkpt lat="45.31191" lon="4.25639">
        <ele>701.6</ele>
        <time>2023-03-29T12:36:54Z</time>
      </trkpt>
      <trkpt lat="45.31182" lon="4.25661">
        <ele>702.4</ele>
        <time>2023-03-29T12:36:59Z</time>
      </trkpt>
      <trkpt lat="45.31179" lon="4.25669">
        <ele>702.8</ele>
        <time>2023-03-29T12:37:01Z</time>
      </trkpt>
      <trkpt lat="45.31175" lon="4.25692">
        <ele>704</ele>
        <time>2023-03-29T12:37:06Z</time>
      </trkpt>
      <trkpt lat="45.31175" lon="4.257">
        <ele>704.4</ele>
        <time>2023-03-29T12:37:08Z</time>
      </trkpt>
      <trkpt lat="45.31175" lon="4.25717">
        <ele>705</ele>
        <time>2023-03-29T12:37:12Z</time>
      </trkpt>
      <trkpt lat="45.31176" lon="4.25722">
        <ele>705.2</ele>
        <time>2023-03-29T12:37:13Z</time>
      </trkpt>
      <trkpt lat="45.31179" lon="4.25739">
        <ele>706.2</ele>
        <time>2023-03-29T12:37:17Z</time>
      </trkpt>
      <trkpt lat="45.31183" lon="4.2576">
        <ele>707.2</ele>
        <time>2023-03-29T12:37:22Z</time>
      </trkpt>
      <trkpt lat="45.31184" lon="4.25786">
        <ele>708.4</ele>
        <time>2023-03-29T12:37:28Z</time>
      </trkpt>
      <trkpt lat="45.31182" lon="4.25794">
        <ele>709</ele>
        <time>2023-03-29T12:37:30Z</time>
      </trkpt>
      <trkpt lat="45.31178" lon="4.25805">
        <ele>709.6</ele>
        <time>2023-03-29T12:37:33Z</time>
      </trkpt>
      <trkpt lat="45.31174" lon="4.25812">
        <ele>709.8</ele>
        <time>2023-03-29T12:37:35Z</time>
      </trkpt>
      <trkpt lat="45.31166" lon="4.25821">
        <ele>710.6</ele>
        <time>2023-03-29T12:37:38Z</time>
      </trkpt>
      <trkpt lat="45.31154" lon="4.25835">
        <ele>711.2</ele>
        <time>2023-03-29T12:37:42Z</time>
      </trkpt>
      <trkpt lat="45.31143" lon="4.25847">
        <ele>711.6</ele>
        <time>2023-03-29T12:37:45Z</time>
      </trkpt>
      <trkpt lat="45.31129" lon="4.2587">
        <ele>711.8</ele>
        <time>2023-03-29T12:37:49Z</time>
      </trkpt>
      <trkpt lat="45.31113" lon="4.25903">
        <ele>711.8</ele>
        <time>2023-03-29T12:37:54Z</time>
      </trkpt>
      <trkpt lat="45.31111" lon="4.2591">
        <ele>711.8</ele>
        <time>2023-03-29T12:37:55Z</time>
      </trkpt>
      <trkpt lat="45.31109" lon="4.25932">
        <ele>711.6</ele>
        <time>2023-03-29T12:37:58Z</time>
      </trkpt>
      <trkpt lat="45.31108" lon="4.25945">
        <ele>711.6</ele>
        <time>2023-03-29T12:38:00Z</time>
      </trkpt>
      <trkpt lat="45.31109" lon="4.25955">
        <ele>711.6</ele>
        <time>2023-03-29T12:38:02Z</time>
      </trkpt>
      <trkpt lat="45.31109" lon="4.25967">
        <ele>711.8</ele>
        <time>2023-03-29T12:38:05Z</time>
      </trkpt>
      <trkpt lat="45.31111" lon="4.25978">
        <ele>712.8</ele>
        <time>2023-03-29T12:38:08Z</time>
      </trkpt>
      <trkpt lat="45.31112" lon="4.25997">
        <ele>714</ele>
        <time>2023-03-29T12:38:12Z</time>
      </trkpt>
      <trkpt lat="45.31114" lon="4.26015">
        <ele>714.6</ele>
        <time>2023-03-29T12:38:16Z</time>
      </trkpt>
      <trkpt lat="45.31115" lon="4.26024">
        <ele>715</ele>
        <time>2023-03-29T12:38:18Z</time>
      </trkpt>
      <trkpt lat="45.31118" lon="4.26043">
        <ele>716</ele>
        <time>2023-03-29T12:38:22Z</time>
      </trkpt>
      <trkpt lat="45.31119" lon="4.26048">
        <ele>716.4</ele>
        <time>2023-03-29T12:38:23Z</time>
      </trkpt>
      <trkpt lat="45.31124" lon="4.26067">
        <ele>717.6</ele>
        <time>2023-03-29T12:38:28Z</time>
      </trkpt>
      <trkpt lat="45.31125" lon="4.26071">
        <ele>717.6</ele>
        <time>2023-03-29T12:38:29Z</time>
      </trkpt>
      <trkpt lat="45.31128" lon="4.26091">
        <ele>718.6</ele>
        <time>2023-03-29T12:38:34Z</time>
      </trkpt>
      <trkpt lat="45.31129" lon="4.26096">
        <ele>719</ele>
        <time>2023-03-29T12:38:35Z</time>
      </trkpt>
      <trkpt lat="45.31127" lon="4.2611">
        <ele>719.6</ele>
        <time>2023-03-29T12:38:38Z</time>
      </trkpt>
      <trkpt lat="45.31123" lon="4.26119">
        <ele>720</ele>
        <time>2023-03-29T12:38:40Z</time>
      </trkpt>
      <trkpt lat="45.3112" lon="4.26127">
        <ele>720.8</ele>
        <time>2023-03-29T12:38:42Z</time>
      </trkpt>
      <trkpt lat="45.3111" lon="4.26142">
        <ele>721.6</ele>
        <time>2023-03-29T12:38:46Z</time>
      </trkpt>
      <trkpt lat="45.31107" lon="4.26146">
        <ele>721.8</ele>
        <time>2023-03-29T12:38:47Z</time>
      </trkpt>
      <trkpt lat="45.31083" lon="4.26181">
        <ele>722.6</ele>
        <time>2023-03-29T12:38:55Z</time>
      </trkpt>
      <trkpt lat="45.31061" lon="4.26212">
        <ele>722.6</ele>
        <time>2023-03-29T12:39:01Z</time>
      </trkpt>
      <trkpt lat="45.31032" lon="4.26241">
        <ele>722.4</ele>
        <time>2023-03-29T12:39:08Z</time>
      </trkpt>
      <trkpt lat="45.31007" lon="4.26263">
        <ele>722.6</ele>
        <time>2023-03-29T12:39:15Z</time>
      </trkpt>
      <trkpt lat="45.31003" lon="4.2627">
        <ele>722.8</ele>
        <time>2023-03-29T12:39:17Z</time>
      </trkpt>
      <trkpt lat="45.30997" lon="4.26282">
        <ele>723.4</ele>
        <time>2023-03-29T12:39:21Z</time>
      </trkpt>
      <trkpt lat="45.30992" lon="4.26289">
        <ele>724.2</ele>
        <time>2023-03-29T12:39:23Z</time>
      </trkpt>
      <trkpt lat="45.30982" lon="4.26309">
        <ele>725.4</ele>
        <time>2023-03-29T12:39:28Z</time>
      </trkpt>
      <trkpt lat="45.30972" lon="4.26327">
        <ele>726.4</ele>
        <time>2023-03-29T12:39:33Z</time>
      </trkpt>
      <trkpt lat="45.30968" lon="4.26335">
        <ele>727</ele>
        <time>2023-03-29T12:39:35Z</time>
      </trkpt>
      <trkpt lat="45.30965" lon="4.26341">
        <ele>727.6</ele>
        <time>2023-03-29T12:39:37Z</time>
      </trkpt>
      <trkpt lat="45.30963" lon="4.26344">
        <ele>727.6</ele>
        <time>2023-03-29T12:39:38Z</time>
      </trkpt>
      <trkpt lat="45.3096" lon="4.26347">
        <ele>728</ele>
        <time>2023-03-29T12:39:39Z</time>
      </trkpt>
      <trkpt lat="45.30957" lon="4.26354">
        <ele>728.6</ele>
        <time>2023-03-29T12:39:42Z</time>
      </trkpt>
      <trkpt lat="45.3095" lon="4.2636">
        <ele>729</ele>
        <time>2023-03-29T12:39:44Z</time>
      </trkpt>
      <trkpt lat="45.30942" lon="4.26374">
        <ele>729.6</ele>
        <time>2023-03-29T12:39:48Z</time>
      </trkpt>
      <trkpt lat="45.30939" lon="4.26379">
        <ele>729.8</ele>
        <time>2023-03-29T12:39:49Z</time>
      </trkpt>
      <trkpt lat="45.30932" lon="4.26398">
        <ele>730.6</ele>
        <time>2023-03-29T12:39:53Z</time>
      </trkpt>
      <trkpt lat="45.30928" lon="4.26406">
        <ele>731.2</ele>
        <time>2023-03-29T12:39:55Z</time>
      </trkpt>
      <trkpt lat="45.30926" lon="4.26412">
        <ele>731.8</ele>
        <time>2023-03-29T12:39:58Z</time>
      </trkpt>
      <trkpt lat="45.30927" lon="4.26426">
        <ele>732.4</ele>
        <time>2023-03-29T12:40:01Z</time>
      </trkpt>
      <trkpt lat="45.30927" lon="4.26433">
        <ele>733</ele>
        <time>2023-03-29T12:40:03Z</time>
      </trkpt>
      <trkpt lat="45.30926" lon="4.2645">
        <ele>733.6</ele>
        <time>2023-03-29T12:40:08Z</time>
      </trkpt>
      <trkpt lat="45.30926" lon="4.26458">
        <ele>734</ele>
        <time>2023-03-29T12:40:10Z</time>
      </trkpt>
      <trkpt lat="45.30928" lon="4.26474">
        <ele>735</ele>
        <time>2023-03-29T12:40:14Z</time>
      </trkpt>
      <trkpt lat="45.30929" lon="4.26478">
        <ele>735</ele>
        <time>2023-03-29T12:40:15Z</time>
      </trkpt>
      <trkpt lat="45.3093" lon="4.26482">
        <ele>735.2</ele>
        <time>2023-03-29T12:40:16Z</time>
      </trkpt>
      <trkpt lat="45.30936" lon="4.26495">
        <ele>736</ele>
        <time>2023-03-29T12:40:19Z</time>
      </trkpt>
      <trkpt lat="45.30941" lon="4.26512">
        <ele>736.8</ele>
        <time>2023-03-29T12:40:23Z</time>
      </trkpt>
      <trkpt lat="45.30944" lon="4.26527">
        <ele>737.2</ele>
        <time>2023-03-29T12:40:26Z</time>
      </trkpt>
      <trkpt lat="45.30943" lon="4.26541">
        <ele>737.4</ele>
        <time>2023-03-29T12:40:29Z</time>
      </trkpt>
      <trkpt lat="45.30937" lon="4.26552">
        <ele>738</ele>
        <time>2023-03-29T12:40:32Z</time>
      </trkpt>
      <trkpt lat="45.30935" lon="4.26555">
        <ele>738.2</ele>
        <time>2023-03-29T12:40:33Z</time>
      </trkpt>
      <trkpt lat="45.30923" lon="4.26568">
        <ele>739.2</ele>
        <time>2023-03-29T12:40:37Z</time>
      </trkpt>
      <trkpt lat="45.3092" lon="4.2657">
        <ele>739.4</ele>
        <time>2023-03-29T12:40:38Z</time>
      </trkpt>
      <trkpt lat="45.30909" lon="4.26578">
        <ele>740.4</ele>
        <time>2023-03-29T12:40:42Z</time>
      </trkpt>
      <trkpt lat="45.30897" lon="4.26583">
        <ele>741.2</ele>
        <time>2023-03-29T12:40:46Z</time>
      </trkpt>
      <trkpt lat="45.30891" lon="4.26585">
        <ele>741.6</ele>
        <time>2023-03-29T12:40:48Z</time>
      </trkpt>
      <trkpt lat="45.30872" lon="4.26585">
        <ele>742.6</ele>
        <time>2023-03-29T12:40:54Z</time>
      </trkpt>
      <trkpt lat="45.30854" lon="4.26582">
        <ele>743.6</ele>
        <time>2023-03-29T12:41:00Z</time>
      </trkpt>
      <trkpt lat="45.30844" lon="4.26581">
        <ele>744.2</ele>
        <time>2023-03-29T12:41:03Z</time>
      </trkpt>
      <trkpt lat="45.30835" lon="4.26581">
        <ele>744.6</ele>
        <time>2023-03-29T12:41:06Z</time>
      </trkpt>
      <trkpt lat="45.30821" lon="4.26584">
        <ele>745.8</ele>
        <time>2023-03-29T12:41:11Z</time>
      </trkpt>
      <trkpt lat="45.30818" lon="4.26584">
        <ele>745.8</ele>
        <time>2023-03-29T12:41:12Z</time>
      </trkpt>
      <trkpt lat="45.308" lon="4.26588">
        <ele>747</ele>
        <time>2023-03-29T12:41:18Z</time>
      </trkpt>
      <trkpt lat="45.30785" lon="4.26591">
        <ele>748</ele>
        <time>2023-03-29T12:41:23Z</time>
      </trkpt>
      <trkpt lat="45.30782" lon="4.26592">
        <ele>748.2</ele>
        <time>2023-03-29T12:41:24Z</time>
      </trkpt>
      <trkpt lat="45.30767" lon="4.26594">
        <ele>749</ele>
        <time>2023-03-29T12:41:29Z</time>
      </trkpt>
      <trkpt lat="45.30752" lon="4.26598">
        <ele>750.4</ele>
        <time>2023-03-29T12:41:34Z</time>
      </trkpt>
      <trkpt lat="45.30744" lon="4.26601">
        <ele>751</ele>
        <time>2023-03-29T12:41:37Z</time>
      </trkpt>
      <trkpt lat="45.30739" lon="4.26604">
        <ele>751.6</ele>
        <time>2023-03-29T12:41:39Z</time>
      </trkpt>
      <trkpt lat="45.30728" lon="4.26609">
        <ele>752.2</ele>
        <time>2023-03-29T12:41:43Z</time>
      </trkpt>
      <trkpt lat="45.30722" lon="4.26611">
        <ele>752.6</ele>
        <time>2023-03-29T12:41:45Z</time>
      </trkpt>
      <trkpt lat="45.30707" lon="4.26607">
        <ele>753</ele>
        <time>2023-03-29T12:41:50Z</time>
      </trkpt>
      <trkpt lat="45.30693" lon="4.266">
        <ele>753.6</ele>
        <time>2023-03-29T12:41:55Z</time>
      </trkpt>
      <trkpt lat="45.30687" lon="4.26598">
        <ele>754.2</ele>
        <time>2023-03-29T12:41:57Z</time>
      </trkpt>
      <trkpt lat="45.30681" lon="4.26596">
        <ele>754.6</ele>
        <time>2023-03-29T12:41:59Z</time>
      </trkpt>
      <trkpt lat="45.30664" lon="4.26591">
        <ele>755.8</ele>
        <time>2023-03-29T12:42:05Z</time>
      </trkpt>
      <trkpt lat="45.30649" lon="4.26588">
        <ele>757</ele>
        <time>2023-03-29T12:42:10Z</time>
      </trkpt>
      <trkpt lat="45.30635" lon="4.26587">
        <ele>758.2</ele>
        <time>2023-03-29T12:42:15Z</time>
      </trkpt>
      <trkpt lat="45.30629" lon="4.2659">
        <ele>758.6</ele>
        <time>2023-03-29T12:42:17Z</time>
      </trkpt>
      <trkpt lat="45.3062" lon="4.26597">
        <ele>759.4</ele>
        <time>2023-03-29T12:42:20Z</time>
      </trkpt>
      <trkpt lat="45.30616" lon="4.26604">
        <ele>759.8</ele>
        <time>2023-03-29T12:42:22Z</time>
      </trkpt>
      <trkpt lat="45.30614" lon="4.26622">
        <ele>760.2</ele>
        <time>2023-03-29T12:42:26Z</time>
      </trkpt>
      <trkpt lat="45.30615" lon="4.26627">
        <ele>760.4</ele>
        <time>2023-03-29T12:42:27Z</time>
      </trkpt>
      <trkpt lat="45.30622" lon="4.26641">
        <ele>761</ele>
        <time>2023-03-29T12:42:31Z</time>
      </trkpt>
      <trkpt lat="45.30626" lon="4.26647">
        <ele>761.6</ele>
        <time>2023-03-29T12:42:33Z</time>
      </trkpt>
      <trkpt lat="45.30639" lon="4.26661">
        <ele>762.6</ele>
        <time>2023-03-29T12:42:38Z</time>
      </trkpt>
      <trkpt lat="45.3065" lon="4.26678">
        <ele>763.4</ele>
        <time>2023-03-29T12:42:43Z</time>
      </trkpt>
      <trkpt lat="45.30655" lon="4.26689">
        <ele>763.8</ele>
        <time>2023-03-29T12:42:46Z</time>
      </trkpt>
      <trkpt lat="45.30657" lon="4.26706">
        <ele>764.4</ele>
        <time>2023-03-29T12:42:50Z</time>
      </trkpt>
      <trkpt lat="45.30657" lon="4.26714">
        <ele>764.8</ele>
        <time>2023-03-29T12:42:52Z</time>
      </trkpt>
      <trkpt lat="45.30653" lon="4.2673">
        <ele>765.4</ele>
        <time>2023-03-29T12:42:56Z</time>
      </trkpt>
      <trkpt lat="45.3065" lon="4.2674">
        <ele>766</ele>
        <time>2023-03-29T12:42:59Z</time>
      </trkpt>
      <trkpt lat="45.3064" lon="4.26764">
        <ele>767.2</ele>
        <time>2023-03-29T12:43:05Z</time>
      </trkpt>
      <trkpt lat="45.30632" lon="4.2678">
        <ele>768.4</ele>
        <time>2023-03-29T12:43:10Z</time>
      </trkpt>
      <trkpt lat="45.30623" lon="4.26796">
        <ele>769.2</ele>
        <time>2023-03-29T12:43:15Z</time>
      </trkpt>
      <trkpt lat="45.30618" lon="4.26805">
        <ele>769.4</ele>
        <time>2023-03-29T12:43:18Z</time>
      </trkpt>
      <trkpt lat="45.30608" lon="4.2682">
        <ele>770.6</ele>
        <time>2023-03-29T12:43:23Z</time>
      </trkpt>
      <trkpt lat="45.30604" lon="4.26826">
        <ele>771.2</ele>
        <time>2023-03-29T12:43:25Z</time>
      </trkpt>
      <trkpt lat="45.30599" lon="4.26833">
        <ele>771.8</ele>
        <time>2023-03-29T12:43:28Z</time>
      </trkpt>
      <trkpt lat="45.30589" lon="4.26841">
        <ele>772.6</ele>
        <time>2023-03-29T12:43:32Z</time>
      </trkpt>
      <trkpt lat="45.30584" lon="4.26844">
        <ele>772.8</ele>
        <time>2023-03-29T12:43:34Z</time>
      </trkpt>
      <trkpt lat="45.30569" lon="4.26851">
        <ele>773.8</ele>
        <time>2023-03-29T12:43:40Z</time>
      </trkpt>
      <trkpt lat="45.30566" lon="4.26852">
        <ele>774</ele>
        <time>2023-03-29T12:43:41Z</time>
      </trkpt>
      <trkpt lat="45.30555" lon="4.26859">
        <ele>774.8</ele>
        <time>2023-03-29T12:43:46Z</time>
      </trkpt>
      <trkpt lat="45.30549" lon="4.26867">
        <ele>775.6</ele>
        <time>2023-03-29T12:43:49Z</time>
      </trkpt>
      <trkpt lat="45.30547" lon="4.26875">
        <ele>776</ele>
        <time>2023-03-29T12:43:51Z</time>
      </trkpt>
      <trkpt lat="45.30547" lon="4.26887">
        <ele>776.4</ele>
        <time>2023-03-29T12:43:54Z</time>
      </trkpt>
      <trkpt lat="45.30554" lon="4.26899">
        <ele>777</ele>
        <time>2023-03-29T12:43:58Z</time>
      </trkpt>
      <trkpt lat="45.30557" lon="4.26901">
        <ele>777.2</ele>
        <time>2023-03-29T12:43:59Z</time>
      </trkpt>
      <trkpt lat="45.30567" lon="4.26907">
        <ele>778.4</ele>
        <time>2023-03-29T12:44:03Z</time>
      </trkpt>
      <trkpt lat="45.30575" lon="4.26913">
        <ele>779</ele>
        <time>2023-03-29T12:44:06Z</time>
      </trkpt>
      <trkpt lat="45.30585" lon="4.26921">
        <ele>779.6</ele>
        <time>2023-03-29T12:44:10Z</time>
      </trkpt>
      <trkpt lat="45.30595" lon="4.26931">
        <ele>780.6</ele>
        <time>2023-03-29T12:44:14Z</time>
      </trkpt>
      <trkpt lat="45.306" lon="4.26935">
        <ele>781</ele>
        <time>2023-03-29T12:44:16Z</time>
      </trkpt>
      <trkpt lat="45.3061" lon="4.26945">
        <ele>781.8</ele>
        <time>2023-03-29T12:44:20Z</time>
      </trkpt>
      <trkpt lat="45.30623" lon="4.26958">
        <ele>782.8</ele>
        <time>2023-03-29T12:44:25Z</time>
      </trkpt>
      <trkpt lat="45.30632" lon="4.26979">
        <ele>783.6</ele>
        <time>2023-03-29T12:44:31Z</time>
      </trkpt>
      <trkpt lat="45.30633" lon="4.26983">
        <ele>783.8</ele>
        <time>2023-03-29T12:44:32Z</time>
      </trkpt>
      <trkpt lat="45.30633" lon="4.27006">
        <ele>784.8</ele>
        <time>2023-03-29T12:44:38Z</time>
      </trkpt>
      <trkpt lat="45.30632" lon="4.27011">
        <ele>785.2</ele>
        <time>2023-03-29T12:44:39Z</time>
      </trkpt>
      <trkpt lat="45.30624" lon="4.27028">
        <ele>786</ele>
        <time>2023-03-29T12:44:44Z</time>
      </trkpt>
      <trkpt lat="45.3062" lon="4.27031">
        <ele>786.4</ele>
        <time>2023-03-29T12:44:46Z</time>
      </trkpt>
      <trkpt lat="45.30609" lon="4.27036">
        <ele>787</ele>
        <time>2023-03-29T12:44:50Z</time>
      </trkpt>
      <trkpt lat="45.30604" lon="4.27036">
        <ele>787.6</ele>
        <time>2023-03-29T12:44:52Z</time>
      </trkpt>
      <trkpt lat="45.30591" lon="4.27033">
        <ele>788.8</ele>
        <time>2023-03-29T12:44:57Z</time>
      </trkpt>
      <trkpt lat="45.30577" lon="4.27031">
        <ele>790</ele>
        <time>2023-03-29T12:45:02Z</time>
      </trkpt>
      <trkpt lat="45.30565" lon="4.27028">
        <ele>790.6</ele>
        <time>2023-03-29T12:45:06Z</time>
      </trkpt>
      <trkpt lat="45.30555" lon="4.27026">
        <ele>791</ele>
        <time>2023-03-29T12:45:09Z</time>
      </trkpt>
      <trkpt lat="45.30539" lon="4.27021">
        <ele>791.6</ele>
        <time>2023-03-29T12:45:14Z</time>
      </trkpt>
      <trkpt lat="45.30526" lon="4.27011">
        <ele>792.2</ele>
        <time>2023-03-29T12:45:18Z</time>
      </trkpt>
      <trkpt lat="45.30519" lon="4.27004">
        <ele>792.4</ele>
        <time>2023-03-29T12:45:21Z</time>
      </trkpt>
      <trkpt lat="45.30511" lon="4.26992">
        <ele>793.2</ele>
        <time>2023-03-29T12:45:25Z</time>
      </trkpt>
      <trkpt lat="45.30504" lon="4.26984">
        <ele>794</ele>
        <time>2023-03-29T12:45:28Z</time>
      </trkpt>
      <trkpt lat="45.30502" lon="4.26981">
        <ele>794.4</ele>
        <time>2023-03-29T12:45:29Z</time>
      </trkpt>
      <trkpt lat="45.30488" lon="4.26974">
        <ele>795.2</ele>
        <time>2023-03-29T12:45:34Z</time>
      </trkpt>
      <trkpt lat="45.30483" lon="4.26973">
        <ele>795.4</ele>
        <time>2023-03-29T12:45:36Z</time>
      </trkpt>
      <trkpt lat="45.3047" lon="4.26971">
        <ele>796.4</ele>
        <time>2023-03-29T12:45:40Z</time>
      </trkpt>
      <trkpt lat="45.30467" lon="4.2697">
        <ele>796.8</ele>
        <time>2023-03-29T12:45:41Z</time>
      </trkpt>
      <trkpt lat="45.30449" lon="4.26957">
        <ele>797.6</ele>
        <time>2023-03-29T12:45:48Z</time>
      </trkpt>
      <trkpt lat="45.30446" lon="4.26956">
        <ele>797.8</ele>
        <time>2023-03-29T12:45:49Z</time>
      </trkpt>
      <trkpt lat="45.30437" lon="4.26948">
        <ele>798.8</ele>
        <time>2023-03-29T12:45:53Z</time>
      </trkpt>
      <trkpt lat="45.3043" lon="4.26942">
        <ele>799.2</ele>
        <time>2023-03-29T12:45:56Z</time>
      </trkpt>
      <trkpt lat="45.30423" lon="4.26937">
        <ele>800</ele>
        <time>2023-03-29T12:45:59Z</time>
      </trkpt>
      <trkpt lat="45.30406" lon="4.26925">
        <ele>801</ele>
        <time>2023-03-29T12:46:06Z</time>
      </trkpt>
      <trkpt lat="45.30388" lon="4.26911">
        <ele>802.2</ele>
        <time>2023-03-29T12:46:13Z</time>
      </trkpt>
      <trkpt lat="45.30387" lon="4.26909">
        <ele>802.2</ele>
        <time>2023-03-29T12:46:14Z</time>
      </trkpt>
      <trkpt lat="45.30383" lon="4.26891">
        <ele>803</ele>
        <time>2023-03-29T12:46:19Z</time>
      </trkpt>
      <trkpt lat="45.30382" lon="4.26888">
        <ele>803.2</ele>
        <time>2023-03-29T12:46:20Z</time>
      </trkpt>
      <trkpt lat="45.30383" lon="4.26872">
        <ele>804</ele>
        <time>2023-03-29T12:46:24Z</time>
      </trkpt>
      <trkpt lat="45.30385" lon="4.26864">
        <ele>804.4</ele>
        <time>2023-03-29T12:46:26Z</time>
      </trkpt>
      <trkpt lat="45.30385" lon="4.26844">
        <ele>805.6</ele>
        <time>2023-03-29T12:46:31Z</time>
      </trkpt>
      <trkpt lat="45.30385" lon="4.26836">
        <ele>806</ele>
        <time>2023-03-29T12:46:33Z</time>
      </trkpt>
      <trkpt lat="45.30383" lon="4.26811">
        <ele>806.8</ele>
        <time>2023-03-29T12:46:39Z</time>
      </trkpt>
      <trkpt lat="45.30379" lon="4.2679">
        <ele>807.2</ele>
        <time>2023-03-29T12:46:44Z</time>
      </trkpt>
      <trkpt lat="45.30375" lon="4.26779">
        <ele>807.8</ele>
        <time>2023-03-29T12:46:47Z</time>
      </trkpt>
      <trkpt lat="45.30368" lon="4.26771">
        <ele>808.2</ele>
        <time>2023-03-29T12:46:50Z</time>
      </trkpt>
      <trkpt lat="45.30357" lon="4.26766">
        <ele>809</ele>
        <time>2023-03-29T12:46:54Z</time>
      </trkpt>
      <trkpt lat="45.30351" lon="4.26767">
        <ele>809.6</ele>
        <time>2023-03-29T12:46:56Z</time>
      </trkpt>
      <trkpt lat="45.30346" lon="4.2677">
        <ele>810</ele>
        <time>2023-03-29T12:46:58Z</time>
      </trkpt>
      <trkpt lat="45.30339" lon="4.26778">
        <ele>810.6</ele>
        <time>2023-03-29T12:47:01Z</time>
      </trkpt>
      <trkpt lat="45.30336" lon="4.26786">
        <ele>811.2</ele>
        <time>2023-03-29T12:47:03Z</time>
      </trkpt>
      <trkpt lat="45.30335" lon="4.26804">
        <ele>812.2</ele>
        <time>2023-03-29T12:47:07Z</time>
      </trkpt>
      <trkpt lat="45.30334" lon="4.26831">
        <ele>813.4</ele>
        <time>2023-03-29T12:47:13Z</time>
      </trkpt>
      <trkpt lat="45.30333" lon="4.2684">
        <ele>813.8</ele>
        <time>2023-03-29T12:47:15Z</time>
      </trkpt>
      <trkpt lat="45.30331" lon="4.26857">
        <ele>814.6</ele>
        <time>2023-03-29T12:47:19Z</time>
      </trkpt>
      <trkpt lat="45.30325" lon="4.26873">
        <ele>815.4</ele>
        <time>2023-03-29T12:47:23Z</time>
      </trkpt>
      <trkpt lat="45.30322" lon="4.26881">
        <ele>815.8</ele>
        <time>2023-03-29T12:47:25Z</time>
      </trkpt>
      <trkpt lat="45.30313" lon="4.269">
        <ele>816.8</ele>
        <time>2023-03-29T12:47:30Z</time>
      </trkpt>
      <trkpt lat="45.30312" lon="4.26904">
        <ele>817</ele>
        <time>2023-03-29T12:47:31Z</time>
      </trkpt>
      <trkpt lat="45.30309" lon="4.26926">
        <ele>817.6</ele>
        <time>2023-03-29T12:47:36Z</time>
      </trkpt>
      <trkpt lat="45.3031" lon="4.2693">
        <ele>817.8</ele>
        <time>2023-03-29T12:47:37Z</time>
      </trkpt>
      <trkpt lat="45.30316" lon="4.26945">
        <ele>818.8</ele>
        <time>2023-03-29T12:47:41Z</time>
      </trkpt>
      <trkpt lat="45.30318" lon="4.26948">
        <ele>819.4</ele>
        <time>2023-03-29T12:47:42Z</time>
      </trkpt>
      <trkpt lat="45.30323" lon="4.26957">
        <ele>820</ele>
        <time>2023-03-29T12:47:45Z</time>
      </trkpt>
      <trkpt lat="45.30334" lon="4.26972">
        <ele>820.6</ele>
        <time>2023-03-29T12:47:50Z</time>
      </trkpt>
      <trkpt lat="45.30336" lon="4.26975">
        <ele>821</ele>
        <time>2023-03-29T12:47:51Z</time>
      </trkpt>
      <trkpt lat="45.30348" lon="4.26994">
        <ele>822</ele>
        <time>2023-03-29T12:47:57Z</time>
      </trkpt>
      <trkpt lat="45.30352" lon="4.27">
        <ele>822.4</ele>
        <time>2023-03-29T12:47:59Z</time>
      </trkpt>
      <trkpt lat="45.30358" lon="4.27012">
        <ele>823.2</ele>
        <time>2023-03-29T12:48:03Z</time>
      </trkpt>
      <trkpt lat="45.3036" lon="4.27015">
        <ele>823.4</ele>
        <time>2023-03-29T12:48:04Z</time>
      </trkpt>
      <trkpt lat="45.30366" lon="4.27032">
        <ele>824.4</ele>
        <time>2023-03-29T12:48:09Z</time>
      </trkpt>
      <trkpt lat="45.3037" lon="4.27051">
        <ele>825.6</ele>
        <time>2023-03-29T12:48:14Z</time>
      </trkpt>
      <trkpt lat="45.30373" lon="4.2707">
        <ele>826.6</ele>
        <time>2023-03-29T12:48:19Z</time>
      </trkpt>
      <trkpt lat="45.30375" lon="4.27082">
        <ele>827.2</ele>
        <time>2023-03-29T12:48:22Z</time>
      </trkpt>
      <trkpt lat="45.30377" lon="4.27094">
        <ele>827.6</ele>
        <time>2023-03-29T12:48:25Z</time>
      </trkpt>
      <trkpt lat="45.3038" lon="4.27115">
        <ele>828.8</ele>
        <time>2023-03-29T12:48:30Z</time>
      </trkpt>
      <trkpt lat="45.3038" lon="4.27141">
        <ele>830</ele>
        <time>2023-03-29T12:48:36Z</time>
      </trkpt>
      <trkpt lat="45.3038" lon="4.27145">
        <ele>830.2</ele>
        <time>2023-03-29T12:48:37Z</time>
      </trkpt>
      <trkpt lat="45.30377" lon="4.27163">
        <ele>831.2</ele>
        <time>2023-03-29T12:48:41Z</time>
      </trkpt>
      <trkpt lat="45.30375" lon="4.27181">
        <ele>832</ele>
        <time>2023-03-29T12:48:45Z</time>
      </trkpt>
      <trkpt lat="45.30374" lon="4.27185">
        <ele>832.2</ele>
        <time>2023-03-29T12:48:46Z</time>
      </trkpt>
      <trkpt lat="45.30368" lon="4.27204">
        <ele>832.8</ele>
        <time>2023-03-29T12:48:51Z</time>
      </trkpt>
      <trkpt lat="45.30365" lon="4.27211">
        <ele>833.2</ele>
        <time>2023-03-29T12:48:53Z</time>
      </trkpt>
      <trkpt lat="45.30356" lon="4.27228">
        <ele>834.4</ele>
        <time>2023-03-29T12:48:58Z</time>
      </trkpt>
      <trkpt lat="45.30346" lon="4.27245">
        <ele>835.6</ele>
        <time>2023-03-29T12:49:03Z</time>
      </trkpt>
      <trkpt lat="45.30336" lon="4.2726">
        <ele>836.4</ele>
        <time>2023-03-29T12:49:07Z</time>
      </trkpt>
      <trkpt lat="45.30327" lon="4.27274">
        <ele>836.8</ele>
        <time>2023-03-29T12:49:10Z</time>
      </trkpt>
      <trkpt lat="45.30319" lon="4.27288">
        <ele>836.6</ele>
        <time>2023-03-29T12:49:13Z</time>
      </trkpt>
      <trkpt lat="45.30317" lon="4.27293">
        <ele>836.6</ele>
        <time>2023-03-29T12:49:14Z</time>
      </trkpt>
      <trkpt lat="45.30307" lon="4.27313">
        <ele>836</ele>
        <time>2023-03-29T12:49:18Z</time>
      </trkpt>
      <trkpt lat="45.30299" lon="4.27325">
        <ele>836</ele>
        <time>2023-03-29T12:49:21Z</time>
      </trkpt>
      <trkpt lat="45.30295" lon="4.27326">
        <ele>835.8</ele>
        <time>2023-03-29T12:49:22Z</time>
      </trkpt>
      <trkpt lat="45.30281" lon="4.27325">
        <ele>835.6</ele>
        <time>2023-03-29T12:49:25Z</time>
      </trkpt>
      <trkpt lat="45.30275" lon="4.27324">
        <ele>835.4</ele>
        <time>2023-03-29T12:49:26Z</time>
      </trkpt>
      <trkpt lat="45.30265" lon="4.27328">
        <ele>835</ele>
        <time>2023-03-29T12:49:28Z</time>
      </trkpt>
      <trkpt lat="45.3026" lon="4.27334">
        <ele>834.8</ele>
        <time>2023-03-29T12:49:29Z</time>
      </trkpt>
      <trkpt lat="45.3025" lon="4.27347">
        <ele>834.2</ele>
        <time>2023-03-29T12:49:31Z</time>
      </trkpt>
      <trkpt lat="45.30246" lon="4.27354">
        <ele>833.8</ele>
        <time>2023-03-29T12:49:32Z</time>
      </trkpt>
      <trkpt lat="45.30239" lon="4.27364">
        <ele>833.2</ele>
        <time>2023-03-29T12:49:34Z</time>
      </trkpt>
      <trkpt lat="45.30231" lon="4.27374">
        <ele>832.6</ele>
        <time>2023-03-29T12:49:38Z</time>
      </trkpt>
      <trkpt lat="45.30226" lon="4.27386">
        <ele>832.4</ele>
        <time>2023-03-29T12:49:41Z</time>
      </trkpt>
      <trkpt lat="45.3022" lon="4.27399">
        <ele>832.2</ele>
        <time>2023-03-29T12:49:44Z</time>
      </trkpt>
      <trkpt lat="45.30215" lon="4.27417">
        <ele>832</ele>
        <time>2023-03-29T12:49:48Z</time>
      </trkpt>
      <trkpt lat="45.30203" lon="4.2745">
        <ele>832.4</ele>
        <time>2023-03-29T12:49:55Z</time>
      </trkpt>
      <trkpt lat="45.30191" lon="4.27486">
        <ele>833</ele>
        <time>2023-03-29T12:50:02Z</time>
      </trkpt>
      <trkpt lat="45.30187" lon="4.27495">
        <ele>833.4</ele>
        <time>2023-03-29T12:50:04Z</time>
      </trkpt>
      <trkpt lat="45.30185" lon="4.27499">
        <ele>833.4</ele>
        <time>2023-03-29T12:50:05Z</time>
      </trkpt>
      <trkpt lat="45.30171" lon="4.2751">
        <ele>834</ele>
        <time>2023-03-29T12:50:09Z</time>
      </trkpt>
      <trkpt lat="45.3015" lon="4.27519">
        <ele>834.2</ele>
        <time>2023-03-29T12:50:14Z</time>
      </trkpt>
      <trkpt lat="45.30119" lon="4.27532">
        <ele>833.8</ele>
        <time>2023-03-29T12:50:21Z</time>
      </trkpt>
      <trkpt lat="45.30081" lon="4.27548">
        <ele>833</ele>
        <time>2023-03-29T12:50:28Z</time>
      </trkpt>
      <trkpt lat="45.3006" lon="4.27556">
        <ele>832.6</ele>
        <time>2023-03-29T12:50:32Z</time>
      </trkpt>
      <trkpt lat="45.30056" lon="4.27558">
        <ele>832.2</ele>
        <time>2023-03-29T12:50:33Z</time>
      </trkpt>
      <trkpt lat="45.3005" lon="4.2756">
        <ele>832.2</ele>
        <time>2023-03-29T12:50:34Z</time>
      </trkpt>
      <trkpt lat="45.30017" lon="4.27576">
        <ele>831.2</ele>
        <time>2023-03-29T12:50:40Z</time>
      </trkpt>
      <trkpt lat="45.30012" lon="4.27579">
        <ele>831</ele>
        <time>2023-03-29T12:50:41Z</time>
      </trkpt>
      <trkpt lat="45.30006" lon="4.27581">
        <ele>830.8</ele>
        <time>2023-03-29T12:50:42Z</time>
      </trkpt>
      <trkpt lat="45.29982" lon="4.27589">
        <ele>830.2</ele>
        <time>2023-03-29T12:50:46Z</time>
      </trkpt>
      <trkpt lat="45.29968" lon="4.27592">
        <ele>830</ele>
        <time>2023-03-29T12:50:48Z</time>
      </trkpt>
      <trkpt lat="45.29944" lon="4.27596">
        <ele>828.8</ele>
        <time>2023-03-29T12:50:51Z</time>
      </trkpt>
      <trkpt lat="45.29936" lon="4.27597">
        <ele>828.4</ele>
        <time>2023-03-29T12:50:52Z</time>
      </trkpt>
      <trkpt lat="45.29927" lon="4.276">
        <ele>827.8</ele>
        <time>2023-03-29T12:50:53Z</time>
      </trkpt>
      <trkpt lat="45.29912" lon="4.27611">
        <ele>826.4</ele>
        <time>2023-03-29T12:50:55Z</time>
      </trkpt>
      <trkpt lat="45.29902" lon="4.27633">
        <ele>825.6</ele>
        <time>2023-03-29T12:50:57Z</time>
      </trkpt>
      <trkpt lat="45.299" lon="4.27646">
        <ele>825</ele>
        <time>2023-03-29T12:50:58Z</time>
      </trkpt>
      <trkpt lat="45.29899" lon="4.2766">
        <ele>824.4</ele>
        <time>2023-03-29T12:50:59Z</time>
      </trkpt>
      <trkpt lat="45.299" lon="4.27674">
        <ele>823.4</ele>
        <time>2023-03-29T12:51:00Z</time>
      </trkpt>
      <trkpt lat="45.29903" lon="4.27688">
        <ele>822.2</ele>
        <time>2023-03-29T12:51:01Z</time>
      </trkpt>
      <trkpt lat="45.29915" lon="4.27712">
        <ele>821</ele>
        <time>2023-03-29T12:51:03Z</time>
      </trkpt>
      <trkpt lat="45.29921" lon="4.27724">
        <ele>820.8</ele>
        <time>2023-03-29T12:51:04Z</time>
      </trkpt>
      <trkpt lat="45.29929" lon="4.27735">
        <ele>819.6</ele>
        <time>2023-03-29T12:51:05Z</time>
      </trkpt>
      <trkpt lat="45.29943" lon="4.27758">
        <ele>818.4</ele>
        <time>2023-03-29T12:51:07Z</time>
      </trkpt>
      <trkpt lat="45.29949" lon="4.27771">
        <ele>817.8</ele>
        <time>2023-03-29T12:51:08Z</time>
      </trkpt>
      <trkpt lat="45.29953" lon="4.27785">
        <ele>817</ele>
        <time>2023-03-29T12:51:09Z</time>
      </trkpt>
      <trkpt lat="45.29955" lon="4.27801">
        <ele>816.2</ele>
        <time>2023-03-29T12:51:10Z</time>
      </trkpt>
      <trkpt lat="45.29957" lon="4.27817">
        <ele>815.8</ele>
        <time>2023-03-29T12:51:11Z</time>
      </trkpt>
      <trkpt lat="45.29962" lon="4.27849">
        <ele>814.4</ele>
        <time>2023-03-29T12:51:13Z</time>
      </trkpt>
      <trkpt lat="45.29964" lon="4.27865">
        <ele>813</ele>
        <time>2023-03-29T12:51:14Z</time>
      </trkpt>
      <trkpt lat="45.29969" lon="4.27898">
        <ele>811.4</ele>
        <time>2023-03-29T12:51:16Z</time>
      </trkpt>
      <trkpt lat="45.29976" lon="4.2793">
        <ele>809.8</ele>
        <time>2023-03-29T12:51:18Z</time>
      </trkpt>
      <trkpt lat="45.29986" lon="4.27961">
        <ele>808.4</ele>
        <time>2023-03-29T12:51:20Z</time>
      </trkpt>
      <trkpt lat="45.29995" lon="4.27991">
        <ele>807</ele>
        <time>2023-03-29T12:51:22Z</time>
      </trkpt>
      <trkpt lat="45.29999" lon="4.28007">
        <ele>806.2</ele>
        <time>2023-03-29T12:51:23Z</time>
      </trkpt>
      <trkpt lat="45.30001" lon="4.28024">
        <ele>805.6</ele>
        <time>2023-03-29T12:51:24Z</time>
      </trkpt>
      <trkpt lat="45.30003" lon="4.2804">
        <ele>804.2</ele>
        <time>2023-03-29T12:51:25Z</time>
      </trkpt>
      <trkpt lat="45.30004" lon="4.28057">
        <ele>803.2</ele>
        <time>2023-03-29T12:51:26Z</time>
      </trkpt>
      <trkpt lat="45.30005" lon="4.2809">
        <ele>802</ele>
        <time>2023-03-29T12:51:28Z</time>
      </trkpt>
      <trkpt lat="45.30005" lon="4.28123">
        <ele>800.4</ele>
        <time>2023-03-29T12:51:30Z</time>
      </trkpt>
      <trkpt lat="45.30002" lon="4.28155">
        <ele>799.2</ele>
        <time>2023-03-29T12:51:32Z</time>
      </trkpt>
      <trkpt lat="45.29999" lon="4.28169">
        <ele>798.8</ele>
        <time>2023-03-29T12:51:33Z</time>
      </trkpt>
      <trkpt lat="45.29994" lon="4.28183">
        <ele>798</ele>
        <time>2023-03-29T12:51:34Z</time>
      </trkpt>
      <trkpt lat="45.29987" lon="4.28193">
        <ele>797</ele>
        <time>2023-03-29T12:51:35Z</time>
      </trkpt>
      <trkpt lat="45.29973" lon="4.28205">
        <ele>796</ele>
        <time>2023-03-29T12:51:37Z</time>
      </trkpt>
      <trkpt lat="45.29966" lon="4.28209">
        <ele>796</ele>
        <time>2023-03-29T12:51:38Z</time>
      </trkpt>
      <trkpt lat="45.2996" lon="4.28208">
        <ele>795.8</ele>
        <time>2023-03-29T12:51:39Z</time>
      </trkpt>
      <trkpt lat="45.29947" lon="4.28201">
        <ele>795.8</ele>
        <time>2023-03-29T12:51:41Z</time>
      </trkpt>
      <trkpt lat="45.29928" lon="4.28182">
        <ele>796.2</ele>
        <time>2023-03-29T12:51:44Z</time>
      </trkpt>
      <trkpt lat="45.29922" lon="4.28177">
        <ele>796.6</ele>
        <time>2023-03-29T12:51:45Z</time>
      </trkpt>
      <trkpt lat="45.29916" lon="4.28172">
        <ele>797.2</ele>
        <time>2023-03-29T12:51:46Z</time>
      </trkpt>
      <trkpt lat="45.29902" lon="4.28167">
        <ele>798</ele>
        <time>2023-03-29T12:51:48Z</time>
      </trkpt>
      <trkpt lat="45.29895" lon="4.28167">
        <ele>798.2</ele>
        <time>2023-03-29T12:51:49Z</time>
      </trkpt>
      <trkpt lat="45.29889" lon="4.28169">
        <ele>798.4</ele>
        <time>2023-03-29T12:51:50Z</time>
      </trkpt>
      <trkpt lat="45.29878" lon="4.28175">
        <ele>798.6</ele>
        <time>2023-03-29T12:51:52Z</time>
      </trkpt>
      <trkpt lat="45.29853" lon="4.28194">
        <ele>799.2</ele>
        <time>2023-03-29T12:51:57Z</time>
      </trkpt>
      <trkpt lat="45.29847" lon="4.28196">
        <ele>799.2</ele>
        <time>2023-03-29T12:51:58Z</time>
      </trkpt>
      <trkpt lat="45.29842" lon="4.28198">
        <ele>799.4</ele>
        <time>2023-03-29T12:51:59Z</time>
      </trkpt>
      <trkpt lat="45.29837" lon="4.28197">
        <ele>799.6</ele>
        <time>2023-03-29T12:52:00Z</time>
      </trkpt>
      <trkpt lat="45.29831" lon="4.28197">
        <ele>799.8</ele>
        <time>2023-03-29T12:52:01Z</time>
      </trkpt>
      <trkpt lat="45.29825" lon="4.28194">
        <ele>800</ele>
        <time>2023-03-29T12:52:02Z</time>
      </trkpt>
      <trkpt lat="45.29821" lon="4.2819">
        <ele>800</ele>
        <time>2023-03-29T12:52:03Z</time>
      </trkpt>
      <trkpt lat="45.29814" lon="4.28179">
        <ele>800.6</ele>
        <time>2023-03-29T12:52:05Z</time>
      </trkpt>
      <trkpt lat="45.29812" lon="4.28173">
        <ele>801</ele>
        <time>2023-03-29T12:52:06Z</time>
      </trkpt>
      <trkpt lat="45.29811" lon="4.28166">
        <ele>801</ele>
        <time>2023-03-29T12:52:07Z</time>
      </trkpt>
      <trkpt lat="45.2981" lon="4.28152">
        <ele>801.8</ele>
        <time>2023-03-29T12:52:09Z</time>
      </trkpt>
      <trkpt lat="45.29809" lon="4.28138">
        <ele>802.4</ele>
        <time>2023-03-29T12:52:11Z</time>
      </trkpt>
      <trkpt lat="45.2981" lon="4.2811">
        <ele>803.4</ele>
        <time>2023-03-29T12:52:15Z</time>
      </trkpt>
      <trkpt lat="45.29808" lon="4.28096">
        <ele>803.8</ele>
        <time>2023-03-29T12:52:17Z</time>
      </trkpt>
      <trkpt lat="45.298" lon="4.28078">
        <ele>804.4</ele>
        <time>2023-03-29T12:52:20Z</time>
      </trkpt>
      <trkpt lat="45.29797" lon="4.28072">
        <ele>804.6</ele>
        <time>2023-03-29T12:52:21Z</time>
      </trkpt>
      <trkpt lat="45.29794" lon="4.28068">
        <ele>804.8</ele>
        <time>2023-03-29T12:52:22Z</time>
      </trkpt>
      <trkpt lat="45.29786" lon="4.28059">
        <ele>805</ele>
        <time>2023-03-29T12:52:24Z</time>
      </trkpt>
      <trkpt lat="45.29775" lon="4.28047">
        <ele>805.8</ele>
        <time>2023-03-29T12:52:27Z</time>
      </trkpt>
      <trkpt lat="45.29751" lon="4.28025">
        <ele>806.6</ele>
        <time>2023-03-29T12:52:33Z</time>
      </trkpt>
      <trkpt lat="45.29746" lon="4.28022">
        <ele>806.8</ele>
        <time>2023-03-29T12:52:34Z</time>
      </trkpt>
      <trkpt lat="45.29724" lon="4.28012">
        <ele>807.8</ele>
        <time>2023-03-29T12:52:39Z</time>
      </trkpt>
      <trkpt lat="45.2972" lon="4.28009">
        <ele>808</ele>
        <time>2023-03-29T12:52:40Z</time>
      </trkpt>
      <trkpt lat="45.2968" lon="4.27992">
        <ele>809.2</ele>
        <time>2023-03-29T12:52:49Z</time>
      </trkpt>
      <trkpt lat="45.29659" lon="4.27984">
        <ele>809.8</ele>
        <time>2023-03-29T12:52:54Z</time>
      </trkpt>
      <trkpt lat="45.2965" lon="4.27983">
        <ele>810</ele>
        <time>2023-03-29T12:52:56Z</time>
      </trkpt>
      <trkpt lat="45.29646" lon="4.27983">
        <ele>810.2</ele>
        <time>2023-03-29T12:52:57Z</time>
      </trkpt>
      <trkpt lat="45.29641" lon="4.27983">
        <ele>810.4</ele>
        <time>2023-03-29T12:52:58Z</time>
      </trkpt>
      <trkpt lat="45.29629" lon="4.27986">
        <ele>810.8</ele>
        <time>2023-03-29T12:53:01Z</time>
      </trkpt>
      <trkpt lat="45.29614" lon="4.2799">
        <ele>811.4</ele>
        <time>2023-03-29T12:53:05Z</time>
      </trkpt>
      <trkpt lat="45.29601" lon="4.27993">
        <ele>812.2</ele>
        <time>2023-03-29T12:53:09Z</time>
      </trkpt>
      <trkpt lat="45.29596" lon="4.27995">
        <ele>812.4</ele>
        <time>2023-03-29T12:53:11Z</time>
      </trkpt>
      <trkpt lat="45.29588" lon="4.27998">
        <ele>813</ele>
        <time>2023-03-29T12:53:14Z</time>
      </trkpt>
      <trkpt lat="45.29581" lon="4.27999">
        <ele>813.4</ele>
        <time>2023-03-29T12:53:16Z</time>
      </trkpt>
      <trkpt lat="45.29567" lon="4.27999">
        <ele>814.2</ele>
        <time>2023-03-29T12:53:20Z</time>
      </trkpt>
      <trkpt lat="45.2956" lon="4.28">
        <ele>814.6</ele>
        <time>2023-03-29T12:53:22Z</time>
      </trkpt>
      <trkpt lat="45.29538" lon="4.28002">
        <ele>815.6</ele>
        <time>2023-03-29T12:53:28Z</time>
      </trkpt>
      <trkpt lat="45.29535" lon="4.28002">
        <ele>815.8</ele>
        <time>2023-03-29T12:53:29Z</time>
      </trkpt>
      <trkpt lat="45.29515" lon="4.28006">
        <ele>817</ele>
        <time>2023-03-29T12:53:35Z</time>
      </trkpt>
      <trkpt lat="45.29512" lon="4.28006">
        <ele>817.2</ele>
        <time>2023-03-29T12:53:36Z</time>
      </trkpt>
      <trkpt lat="45.29497" lon="4.28005">
        <ele>818.2</ele>
        <time>2023-03-29T12:53:41Z</time>
      </trkpt>
      <trkpt lat="45.29489" lon="4.28002">
        <ele>819</ele>
        <time>2023-03-29T12:53:44Z</time>
      </trkpt>
      <trkpt lat="45.29483" lon="4.27999">
        <ele>819.4</ele>
        <time>2023-03-29T12:53:46Z</time>
      </trkpt>
      <trkpt lat="45.29469" lon="4.2799">
        <ele>820.6</ele>
        <time>2023-03-29T12:53:51Z</time>
      </trkpt>
      <trkpt lat="45.2946" lon="4.27983">
        <ele>820.8</ele>
        <time>2023-03-29T12:53:54Z</time>
      </trkpt>
      <trkpt lat="45.29449" lon="4.2797">
        <ele>821.6</ele>
        <time>2023-03-29T12:53:58Z</time>
      </trkpt>
      <trkpt lat="45.29446" lon="4.27961">
        <ele>821.8</ele>
        <time>2023-03-29T12:54:00Z</time>
      </trkpt>
      <trkpt lat="45.29445" lon="4.27925">
        <ele>822.4</ele>
        <time>2023-03-29T12:54:06Z</time>
      </trkpt>
      <trkpt lat="45.29446" lon="4.27906">
        <ele>822.6</ele>
        <time>2023-03-29T12:54:09Z</time>
      </trkpt>
      <trkpt lat="45.29446" lon="4.279">
        <ele>822.6</ele>
        <time>2023-03-29T12:54:10Z</time>
      </trkpt>
      <trkpt lat="45.29448" lon="4.27876">
        <ele>823</ele>
        <time>2023-03-29T12:54:14Z</time>
      </trkpt>
      <trkpt lat="45.29448" lon="4.27869">
        <ele>823</ele>
        <time>2023-03-29T12:54:15Z</time>
      </trkpt>
      <trkpt lat="45.29448" lon="4.2785">
        <ele>823</ele>
        <time>2023-03-29T12:54:18Z</time>
      </trkpt>
      <trkpt lat="45.29448" lon="4.27844">
        <ele>823</ele>
        <time>2023-03-29T12:54:19Z</time>
      </trkpt>
      <trkpt lat="45.29444" lon="4.27818">
        <ele>823.4</ele>
        <time>2023-03-29T12:54:23Z</time>
      </trkpt>
      <trkpt lat="45.29441" lon="4.27807">
        <ele>823.6</ele>
        <time>2023-03-29T12:54:25Z</time>
      </trkpt>
      <trkpt lat="45.29439" lon="4.27802">
        <ele>823.6</ele>
        <time>2023-03-29T12:54:26Z</time>
      </trkpt>
      <trkpt lat="45.29437" lon="4.27797">
        <ele>823.6</ele>
        <time>2023-03-29T12:54:27Z</time>
      </trkpt>
      <trkpt lat="45.29426" lon="4.27775">
        <ele>824</ele>
        <time>2023-03-29T12:54:31Z</time>
      </trkpt>
      <trkpt lat="45.29416" lon="4.27753">
        <ele>824.2</ele>
        <time>2023-03-29T12:54:35Z</time>
      </trkpt>
      <trkpt lat="45.29407" lon="4.27736">
        <ele>824.2</ele>
        <time>2023-03-29T12:54:38Z</time>
      </trkpt>
      <trkpt lat="45.29389" lon="4.27703">
        <ele>824.6</ele>
        <time>2023-03-29T12:54:44Z</time>
      </trkpt>
      <trkpt lat="45.29379" lon="4.27688">
        <ele>824.8</ele>
        <time>2023-03-29T12:54:47Z</time>
      </trkpt>
      <trkpt lat="45.29357" lon="4.27667">
        <ele>825</ele>
        <time>2023-03-29T12:54:52Z</time>
      </trkpt>
      <trkpt lat="45.29348" lon="4.27662">
        <ele>825.2</ele>
        <time>2023-03-29T12:54:54Z</time>
      </trkpt>
      <trkpt lat="45.29318" lon="4.27654">
        <ele>825.2</ele>
        <time>2023-03-29T12:55:00Z</time>
      </trkpt>
      <trkpt lat="45.29313" lon="4.27655">
        <ele>825.2</ele>
        <time>2023-03-29T12:55:01Z</time>
      </trkpt>
      <trkpt lat="45.29288" lon="4.27662">
        <ele>825.4</ele>
        <time>2023-03-29T12:55:06Z</time>
      </trkpt>
      <trkpt lat="45.29279" lon="4.27665">
        <ele>825.6</ele>
        <time>2023-03-29T12:55:08Z</time>
      </trkpt>
      <trkpt lat="45.29252" lon="4.27678">
        <ele>826</ele>
        <time>2023-03-29T12:55:14Z</time>
      </trkpt>
      <trkpt lat="45.2921" lon="4.27708">
        <ele>825.6</ele>
        <time>2023-03-29T12:55:23Z</time>
      </trkpt>
      <trkpt lat="45.29165" lon="4.27738">
        <ele>825.4</ele>
        <time>2023-03-29T12:55:32Z</time>
      </trkpt>
      <trkpt lat="45.2913" lon="4.27758">
        <ele>826</ele>
        <time>2023-03-29T12:55:39Z</time>
      </trkpt>
      <trkpt lat="45.29126" lon="4.27762">
        <ele>826.2</ele>
        <time>2023-03-29T12:55:40Z</time>
      </trkpt>
      <trkpt lat="45.29106" lon="4.27779">
        <ele>826.4</ele>
        <time>2023-03-29T12:55:44Z</time>
      </trkpt>
      <trkpt lat="45.29094" lon="4.27784">
        <ele>826.4</ele>
        <time>2023-03-29T12:55:46Z</time>
      </trkpt>
      <trkpt lat="45.29088" lon="4.27786">
        <ele>826.4</ele>
        <time>2023-03-29T12:55:47Z</time>
      </trkpt>
      <trkpt lat="45.29069" lon="4.2779">
        <ele>826.2</ele>
        <time>2023-03-29T12:55:50Z</time>
      </trkpt>
      <trkpt lat="45.29063" lon="4.27793">
        <ele>826.2</ele>
        <time>2023-03-29T12:55:51Z</time>
      </trkpt>
      <trkpt lat="45.29057" lon="4.27798">
        <ele>826</ele>
        <time>2023-03-29T12:55:52Z</time>
      </trkpt>
      <trkpt lat="45.29046" lon="4.27812">
        <ele>825.6</ele>
        <time>2023-03-29T12:55:54Z</time>
      </trkpt>
      <trkpt lat="45.29036" lon="4.27829">
        <ele>824.4</ele>
        <time>2023-03-29T12:55:56Z</time>
      </trkpt>
      <trkpt lat="45.29026" lon="4.27848">
        <ele>823.4</ele>
        <time>2023-03-29T12:55:58Z</time>
      </trkpt>
      <trkpt lat="45.2902" lon="4.27858">
        <ele>823.2</ele>
        <time>2023-03-29T12:55:59Z</time>
      </trkpt>
      <trkpt lat="45.29014" lon="4.27868">
        <ele>822.2</ele>
        <time>2023-03-29T12:56:00Z</time>
      </trkpt>
      <trkpt lat="45.29008" lon="4.27877">
        <ele>821.6</ele>
        <time>2023-03-29T12:56:01Z</time>
      </trkpt>
      <trkpt lat="45.29" lon="4.27884">
        <ele>820.8</ele>
        <time>2023-03-29T12:56:02Z</time>
      </trkpt>
      <trkpt lat="45.28992" lon="4.2789">
        <ele>820.4</ele>
        <time>2023-03-29T12:56:03Z</time>
      </trkpt>
      <trkpt lat="45.28982" lon="4.27892">
        <ele>819.6</ele>
        <time>2023-03-29T12:56:04Z</time>
      </trkpt>
      <trkpt lat="45.28973" lon="4.27892">
        <ele>818.6</ele>
        <time>2023-03-29T12:56:05Z</time>
      </trkpt>
      <trkpt lat="45.28962" lon="4.2789">
        <ele>818.2</ele>
        <time>2023-03-29T12:56:06Z</time>
      </trkpt>
      <trkpt lat="45.28952" lon="4.27889">
        <ele>817.2</ele>
        <time>2023-03-29T12:56:07Z</time>
      </trkpt>
      <trkpt lat="45.28942" lon="4.2789">
        <ele>816.8</ele>
        <time>2023-03-29T12:56:08Z</time>
      </trkpt>
      <trkpt lat="45.28932" lon="4.27894">
        <ele>816.2</ele>
        <time>2023-03-29T12:56:09Z</time>
      </trkpt>
      <trkpt lat="45.28923" lon="4.27901">
        <ele>815.6</ele>
        <time>2023-03-29T12:56:10Z</time>
      </trkpt>
      <trkpt lat="45.28915" lon="4.27911">
        <ele>815</ele>
        <time>2023-03-29T12:56:11Z</time>
      </trkpt>
      <trkpt lat="45.28908" lon="4.27923">
        <ele>814.6</ele>
        <time>2023-03-29T12:56:12Z</time>
      </trkpt>
      <trkpt lat="45.28894" lon="4.27945">
        <ele>812</ele>
        <time>2023-03-29T12:56:14Z</time>
      </trkpt>
      <trkpt lat="45.28885" lon="4.27953">
        <ele>811.4</ele>
        <time>2023-03-29T12:56:15Z</time>
      </trkpt>
      <trkpt lat="45.28875" lon="4.27959">
        <ele>810</ele>
        <time>2023-03-29T12:56:16Z</time>
      </trkpt>
      <trkpt lat="45.28853" lon="4.27963">
        <ele>808.6</ele>
        <time>2023-03-29T12:56:18Z</time>
      </trkpt>
      <trkpt lat="45.28829" lon="4.27964">
        <ele>807.2</ele>
        <time>2023-03-29T12:56:20Z</time>
      </trkpt>
      <trkpt lat="45.28804" lon="4.27957">
        <ele>805.4</ele>
        <time>2023-03-29T12:56:22Z</time>
      </trkpt>
      <trkpt lat="45.28781" lon="4.27943">
        <ele>804</ele>
        <time>2023-03-29T12:56:24Z</time>
      </trkpt>
      <trkpt lat="45.2877" lon="4.27934">
        <ele>803</ele>
        <time>2023-03-29T12:56:25Z</time>
      </trkpt>
      <trkpt lat="45.28759" lon="4.27925">
        <ele>802.2</ele>
        <time>2023-03-29T12:56:26Z</time>
      </trkpt>
      <trkpt lat="45.28748" lon="4.27917">
        <ele>800.8</ele>
        <time>2023-03-29T12:56:27Z</time>
      </trkpt>
      <trkpt lat="45.28726" lon="4.27901">
        <ele>798.6</ele>
        <time>2023-03-29T12:56:29Z</time>
      </trkpt>
      <trkpt lat="45.28702" lon="4.27892">
        <ele>796.6</ele>
        <time>2023-03-29T12:56:31Z</time>
      </trkpt>
      <trkpt lat="45.2869" lon="4.27891">
        <ele>795.4</ele>
        <time>2023-03-29T12:56:32Z</time>
      </trkpt>
      <trkpt lat="45.28667" lon="4.27888">
        <ele>794.4</ele>
        <time>2023-03-29T12:56:34Z</time>
      </trkpt>
      <trkpt lat="45.28646" lon="4.27876">
        <ele>792.8</ele>
        <time>2023-03-29T12:56:36Z</time>
      </trkpt>
      <trkpt lat="45.28637" lon="4.27869">
        <ele>792</ele>
        <time>2023-03-29T12:56:37Z</time>
      </trkpt>
      <trkpt lat="45.28627" lon="4.27864">
        <ele>790.6</ele>
        <time>2023-03-29T12:56:38Z</time>
      </trkpt>
      <trkpt lat="45.28616" lon="4.27863">
        <ele>789</ele>
        <time>2023-03-29T12:56:39Z</time>
      </trkpt>
      <trkpt lat="45.28606" lon="4.27866">
        <ele>788.2</ele>
        <time>2023-03-29T12:56:40Z</time>
      </trkpt>
      <trkpt lat="45.28596" lon="4.27874">
        <ele>787.2</ele>
        <time>2023-03-29T12:56:41Z</time>
      </trkpt>
      <trkpt lat="45.28576" lon="4.27891">
        <ele>786.2</ele>
        <time>2023-03-29T12:56:43Z</time>
      </trkpt>
      <trkpt lat="45.28565" lon="4.27895">
        <ele>785.2</ele>
        <time>2023-03-29T12:56:44Z</time>
      </trkpt>
      <trkpt lat="45.28555" lon="4.27897">
        <ele>783.8</ele>
        <time>2023-03-29T12:56:45Z</time>
      </trkpt>
      <trkpt lat="45.28534" lon="4.27898">
        <ele>782.6</ele>
        <time>2023-03-29T12:56:47Z</time>
      </trkpt>
      <trkpt lat="45.28524" lon="4.27897">
        <ele>781.8</ele>
        <time>2023-03-29T12:56:48Z</time>
      </trkpt>
      <trkpt lat="45.28507" lon="4.27891">
        <ele>781.6</ele>
        <time>2023-03-29T12:56:50Z</time>
      </trkpt>
      <trkpt lat="45.28481" lon="4.27873">
        <ele>781.6</ele>
        <time>2023-03-29T12:56:54Z</time>
      </trkpt>
      <trkpt lat="45.28465" lon="4.27859">
        <ele>783</ele>
        <time>2023-03-29T12:56:57Z</time>
      </trkpt>
      <trkpt lat="45.28461" lon="4.27855">
        <ele>783.4</ele>
        <time>2023-03-29T12:56:58Z</time>
      </trkpt>
      <trkpt lat="45.28455" lon="4.27853">
        <ele>783.8</ele>
        <time>2023-03-29T12:56:59Z</time>
      </trkpt>
      <trkpt lat="45.2845" lon="4.2785">
        <ele>784.2</ele>
        <time>2023-03-29T12:57:00Z</time>
      </trkpt>
      <trkpt lat="45.28435" lon="4.27843">
        <ele>785.4</ele>
        <time>2023-03-29T12:57:03Z</time>
      </trkpt>
      <trkpt lat="45.2842" lon="4.2784">
        <ele>786.4</ele>
        <time>2023-03-29T12:57:06Z</time>
      </trkpt>
      <trkpt lat="45.28398" lon="4.27833">
        <ele>787.6</ele>
        <time>2023-03-29T12:57:11Z</time>
      </trkpt>
      <trkpt lat="45.28378" lon="4.27828">
        <ele>788.6</ele>
        <time>2023-03-29T12:57:16Z</time>
      </trkpt>
      <trkpt lat="45.28368" lon="4.27828">
        <ele>789</ele>
        <time>2023-03-29T12:57:18Z</time>
      </trkpt>
      <trkpt lat="45.28355" lon="4.2783">
        <ele>789.8</ele>
        <time>2023-03-29T12:57:21Z</time>
      </trkpt>
      <trkpt lat="45.28345" lon="4.27833">
        <ele>790.2</ele>
        <time>2023-03-29T12:57:23Z</time>
      </trkpt>
      <trkpt lat="45.28335" lon="4.27837">
        <ele>790.4</ele>
        <time>2023-03-29T12:57:25Z</time>
      </trkpt>
      <trkpt lat="45.28299" lon="4.27853">
        <ele>790.6</ele>
        <time>2023-03-29T12:57:31Z</time>
      </trkpt>
      <trkpt lat="45.28258" lon="4.27876">
        <ele>789.4</ele>
        <time>2023-03-29T12:57:37Z</time>
      </trkpt>
      <trkpt lat="45.28242" lon="4.27884">
        <ele>788.6</ele>
        <time>2023-03-29T12:57:39Z</time>
      </trkpt>
      <trkpt lat="45.28217" lon="4.27896">
        <ele>787.4</ele>
        <time>2023-03-29T12:57:42Z</time>
      </trkpt>
      <trkpt lat="45.28209" lon="4.279">
        <ele>787.2</ele>
        <time>2023-03-29T12:57:43Z</time>
      </trkpt>
      <trkpt lat="45.28191" lon="4.27908">
        <ele>786.4</ele>
        <time>2023-03-29T12:57:45Z</time>
      </trkpt>
      <trkpt lat="45.28163" lon="4.2792">
        <ele>785</ele>
        <time>2023-03-29T12:57:48Z</time>
      </trkpt>
      <trkpt lat="45.28144" lon="4.27929">
        <ele>783.8</ele>
        <time>2023-03-29T12:57:50Z</time>
      </trkpt>
      <trkpt lat="45.28115" lon="4.27942">
        <ele>782.2</ele>
        <time>2023-03-29T12:57:53Z</time>
      </trkpt>
      <trkpt lat="45.28095" lon="4.27952">
        <ele>780.8</ele>
        <time>2023-03-29T12:57:55Z</time>
      </trkpt>
      <trkpt lat="45.28077" lon="4.27963">
        <ele>779.8</ele>
        <time>2023-03-29T12:57:57Z</time>
      </trkpt>
      <trkpt lat="45.28068" lon="4.27971">
        <ele>779.2</ele>
        <time>2023-03-29T12:57:58Z</time>
      </trkpt>
      <trkpt lat="45.28053" lon="4.2799">
        <ele>778.8</ele>
        <time>2023-03-29T12:58:00Z</time>
      </trkpt>
      <trkpt lat="45.28043" lon="4.28014">
        <ele>777.8</ele>
        <time>2023-03-29T12:58:02Z</time>
      </trkpt>
      <trkpt lat="45.28041" lon="4.28028">
        <ele>777.2</ele>
        <time>2023-03-29T12:58:03Z</time>
      </trkpt>
      <trkpt lat="45.2804" lon="4.28042">
        <ele>776.4</ele>
        <time>2023-03-29T12:58:04Z</time>
      </trkpt>
      <trkpt lat="45.28042" lon="4.28057">
        <ele>776</ele>
        <time>2023-03-29T12:58:05Z</time>
      </trkpt>
      <trkpt lat="45.28044" lon="4.28071">
        <ele>775.4</ele>
        <time>2023-03-29T12:58:06Z</time>
      </trkpt>
      <trkpt lat="45.28048" lon="4.28085">
        <ele>774.4</ele>
        <time>2023-03-29T12:58:07Z</time>
      </trkpt>
      <trkpt lat="45.28054" lon="4.28112">
        <ele>773.6</ele>
        <time>2023-03-29T12:58:09Z</time>
      </trkpt>
      <trkpt lat="45.28055" lon="4.28125">
        <ele>773.2</ele>
        <time>2023-03-29T12:58:10Z</time>
      </trkpt>
      <trkpt lat="45.28055" lon="4.28139">
        <ele>771.8</ele>
        <time>2023-03-29T12:58:11Z</time>
      </trkpt>
      <trkpt lat="45.28052" lon="4.28151">
        <ele>771.2</ele>
        <time>2023-03-29T12:58:12Z</time>
      </trkpt>
      <trkpt lat="45.28046" lon="4.28162">
        <ele>770.4</ele>
        <time>2023-03-29T12:58:13Z</time>
      </trkpt>
      <trkpt lat="45.28039" lon="4.28171">
        <ele>769.8</ele>
        <time>2023-03-29T12:58:14Z</time>
      </trkpt>
      <trkpt lat="45.28031" lon="4.28176">
        <ele>768.8</ele>
        <time>2023-03-29T12:58:15Z</time>
      </trkpt>
      <trkpt lat="45.28022" lon="4.28178">
        <ele>768</ele>
        <time>2023-03-29T12:58:16Z</time>
      </trkpt>
      <trkpt lat="45.28012" lon="4.28177">
        <ele>767.8</ele>
        <time>2023-03-29T12:58:17Z</time>
      </trkpt>
      <trkpt lat="45.28002" lon="4.28172">
        <ele>767.4</ele>
        <time>2023-03-29T12:58:18Z</time>
      </trkpt>
      <trkpt lat="45.27992" lon="4.28166">
        <ele>767.4</ele>
        <time>2023-03-29T12:58:19Z</time>
      </trkpt>
      <trkpt lat="45.27965" lon="4.28143">
        <ele>765.8</ele>
        <time>2023-03-29T12:58:22Z</time>
      </trkpt>
      <trkpt lat="45.27948" lon="4.28125">
        <ele>764.6</ele>
        <time>2023-03-29T12:58:24Z</time>
      </trkpt>
      <trkpt lat="45.27928" lon="4.28112">
        <ele>764</ele>
        <time>2023-03-29T12:58:26Z</time>
      </trkpt>
      <trkpt lat="45.27907" lon="4.2811">
        <ele>763.6</ele>
        <time>2023-03-29T12:58:28Z</time>
      </trkpt>
      <trkpt lat="45.27896" lon="4.28111">
        <ele>763</ele>
        <time>2023-03-29T12:58:29Z</time>
      </trkpt>
      <trkpt lat="45.27875" lon="4.2811">
        <ele>761.6</ele>
        <time>2023-03-29T12:58:31Z</time>
      </trkpt>
      <trkpt lat="45.27864" lon="4.28107">
        <ele>761</ele>
        <time>2023-03-29T12:58:32Z</time>
      </trkpt>
      <trkpt lat="45.27855" lon="4.28101">
        <ele>760.8</ele>
        <time>2023-03-29T12:58:33Z</time>
      </trkpt>
      <trkpt lat="45.27847" lon="4.28093">
        <ele>759.6</ele>
        <time>2023-03-29T12:58:34Z</time>
      </trkpt>
      <trkpt lat="45.27841" lon="4.28084">
        <ele>759.4</ele>
        <time>2023-03-29T12:58:35Z</time>
      </trkpt>
      <trkpt lat="45.27836" lon="4.28074">
        <ele>759</ele>
        <time>2023-03-29T12:58:36Z</time>
      </trkpt>
      <trkpt lat="45.27823" lon="4.28048">
        <ele>758.8</ele>
        <time>2023-03-29T12:58:39Z</time>
      </trkpt>
      <trkpt lat="45.27819" lon="4.28041">
        <ele>758.8</ele>
        <time>2023-03-29T12:58:40Z</time>
      </trkpt>
      <trkpt lat="45.2781" lon="4.28028">
        <ele>758.8</ele>
        <time>2023-03-29T12:58:42Z</time>
      </trkpt>
      <trkpt lat="45.27805" lon="4.28024">
        <ele>759.2</ele>
        <time>2023-03-29T12:58:43Z</time>
      </trkpt>
      <trkpt lat="45.27799" lon="4.28021">
        <ele>759.4</ele>
        <time>2023-03-29T12:58:44Z</time>
      </trkpt>
      <trkpt lat="45.27787" lon="4.2802">
        <ele>759.8</ele>
        <time>2023-03-29T12:58:46Z</time>
      </trkpt>
      <trkpt lat="45.27777" lon="4.28026">
        <ele>760.2</ele>
        <time>2023-03-29T12:58:48Z</time>
      </trkpt>
      <trkpt lat="45.27772" lon="4.28031">
        <ele>760.4</ele>
        <time>2023-03-29T12:58:49Z</time>
      </trkpt>
      <trkpt lat="45.27768" lon="4.28037">
        <ele>760.4</ele>
        <time>2023-03-29T12:58:50Z</time>
      </trkpt>
      <trkpt lat="45.27762" lon="4.2805">
        <ele>760.8</ele>
        <time>2023-03-29T12:58:52Z</time>
      </trkpt>
      <trkpt lat="45.27754" lon="4.28079">
        <ele>761.2</ele>
        <time>2023-03-29T12:58:57Z</time>
      </trkpt>
      <trkpt lat="45.27748" lon="4.28091">
        <ele>762</ele>
        <time>2023-03-29T12:59:00Z</time>
      </trkpt>
      <trkpt lat="45.27744" lon="4.28097">
        <ele>762.4</ele>
        <time>2023-03-29T12:59:02Z</time>
      </trkpt>
      <trkpt lat="45.27742" lon="4.281">
        <ele>763</ele>
        <time>2023-03-29T12:59:03Z</time>
      </trkpt>
      <trkpt lat="45.27734" lon="4.28106">
        <ele>764</ele>
        <time>2023-03-29T12:59:06Z</time>
      </trkpt>
      <trkpt lat="45.27731" lon="4.28108">
        <ele>764.6</ele>
        <time>2023-03-29T12:59:07Z</time>
      </trkpt>
      <trkpt lat="45.27724" lon="4.28113">
        <ele>765.2</ele>
        <time>2023-03-29T12:59:09Z</time>
      </trkpt>
      <trkpt lat="45.2771" lon="4.28117">
        <ele>766.2</ele>
        <time>2023-03-29T12:59:13Z</time>
      </trkpt>
      <trkpt lat="45.27706" lon="4.28118">
        <ele>766.6</ele>
        <time>2023-03-29T12:59:14Z</time>
      </trkpt>
      <trkpt lat="45.27691" lon="4.2812">
        <ele>767.4</ele>
        <time>2023-03-29T12:59:18Z</time>
      </trkpt>
      <trkpt lat="45.27679" lon="4.28122">
        <ele>768.4</ele>
        <time>2023-03-29T12:59:21Z</time>
      </trkpt>
      <trkpt lat="45.27675" lon="4.28123">
        <ele>768.6</ele>
        <time>2023-03-29T12:59:22Z</time>
      </trkpt>
      <trkpt lat="45.27657" lon="4.28127">
        <ele>769.8</ele>
        <time>2023-03-29T12:59:27Z</time>
      </trkpt>
      <trkpt lat="45.2765" lon="4.28128">
        <ele>770.2</ele>
        <time>2023-03-29T12:59:29Z</time>
      </trkpt>
      <trkpt lat="45.27639" lon="4.28131">
        <ele>770.8</ele>
        <time>2023-03-29T12:59:32Z</time>
      </trkpt>
      <trkpt lat="45.27625" lon="4.28135">
        <ele>771.6</ele>
        <time>2023-03-29T12:59:36Z</time>
      </trkpt>
      <trkpt lat="45.27618" lon="4.28137">
        <ele>771.8</ele>
        <time>2023-03-29T12:59:38Z</time>
      </trkpt>
      <trkpt lat="45.27601" lon="4.28146">
        <ele>773</ele>
        <time>2023-03-29T12:59:43Z</time>
      </trkpt>
      <trkpt lat="45.27584" lon="4.28157">
        <ele>774.2</ele>
        <time>2023-03-29T12:59:49Z</time>
      </trkpt>
      <trkpt lat="45.27582" lon="4.28159">
        <ele>774.4</ele>
        <time>2023-03-29T12:59:50Z</time>
      </trkpt>
      <trkpt lat="45.27571" lon="4.28168">
        <ele>775.2</ele>
        <time>2023-03-29T12:59:54Z</time>
      </trkpt>
      <trkpt lat="45.27562" lon="4.28178">
        <ele>776.2</ele>
        <time>2023-03-29T12:59:58Z</time>
      </trkpt>
      <trkpt lat="45.27559" lon="4.2818">
        <ele>776.4</ele>
        <time>2023-03-29T12:59:59Z</time>
      </trkpt>
      <trkpt lat="45.27553" lon="4.28188">
        <ele>777.6</ele>
        <time>2023-03-29T13:00:02Z</time>
      </trkpt>
      <trkpt lat="45.27546" lon="4.28196">
        <ele>778</ele>
        <time>2023-03-29T13:00:05Z</time>
      </trkpt>
      <trkpt lat="45.27541" lon="4.28202">
        <ele>778.8</ele>
        <time>2023-03-29T13:00:08Z</time>
      </trkpt>
      <trkpt lat="45.27537" lon="4.28207">
        <ele>779.2</ele>
        <time>2023-03-29T13:00:10Z</time>
      </trkpt>
      <trkpt lat="45.27531" lon="4.28214">
        <ele>780.2</ele>
        <time>2023-03-29T13:00:13Z</time>
      </trkpt>
      <trkpt lat="45.27524" lon="4.28221">
        <ele>780.6</ele>
        <time>2023-03-29T13:00:16Z</time>
      </trkpt>
      <trkpt lat="45.27519" lon="4.28225">
        <ele>781.2</ele>
        <time>2023-03-29T13:00:18Z</time>
      </trkpt>
      <trkpt lat="45.27509" lon="4.28237">
        <ele>782.2</ele>
        <time>2023-03-29T13:00:23Z</time>
      </trkpt>
      <trkpt lat="45.27507" lon="4.2824">
        <ele>782.6</ele>
        <time>2023-03-29T13:00:24Z</time>
      </trkpt>
      <trkpt lat="45.27499" lon="4.28248">
        <ele>783.4</ele>
        <time>2023-03-29T13:00:28Z</time>
      </trkpt>
      <trkpt lat="45.27492" lon="4.28258">
        <ele>783.8</ele>
        <time>2023-03-29T13:00:31Z</time>
      </trkpt>
      <trkpt lat="45.27487" lon="4.28271">
        <ele>784.4</ele>
        <time>2023-03-29T13:00:35Z</time>
      </trkpt>
      <trkpt lat="45.27485" lon="4.28278">
        <ele>784.6</ele>
        <time>2023-03-29T13:00:37Z</time>
      </trkpt>
      <trkpt lat="45.27486" lon="4.28294">
        <ele>785.6</ele>
        <time>2023-03-29T13:00:41Z</time>
      </trkpt>
      <trkpt lat="45.27488" lon="4.28299">
        <ele>785.8</ele>
        <time>2023-03-29T13:00:42Z</time>
      </trkpt>
      <trkpt lat="45.27492" lon="4.2831">
        <ele>786.6</ele>
        <time>2023-03-29T13:00:45Z</time>
      </trkpt>
      <trkpt lat="45.27498" lon="4.28321">
        <ele>787.2</ele>
        <time>2023-03-29T13:00:48Z</time>
      </trkpt>
      <trkpt lat="45.27504" lon="4.28332">
        <ele>787.6</ele>
        <time>2023-03-29T13:00:51Z</time>
      </trkpt>
      <trkpt lat="45.27513" lon="4.28347">
        <ele>788.2</ele>
        <time>2023-03-29T13:00:55Z</time>
      </trkpt>
      <trkpt lat="45.27521" lon="4.2836">
        <ele>788.6</ele>
        <time>2023-03-29T13:00:58Z</time>
      </trkpt>
      <trkpt lat="45.27528" lon="4.28369">
        <ele>789.4</ele>
        <time>2023-03-29T13:01:01Z</time>
      </trkpt>
      <trkpt lat="45.27532" lon="4.28377">
        <ele>790</ele>
        <time>2023-03-29T13:01:03Z</time>
      </trkpt>
      <trkpt lat="45.2754" lon="4.28387">
        <ele>790.4</ele>
        <time>2023-03-29T13:01:06Z</time>
      </trkpt>
      <trkpt lat="45.27547" lon="4.284">
        <ele>791</ele>
        <time>2023-03-29T13:01:09Z</time>
      </trkpt>
      <trkpt lat="45.2755" lon="4.28409">
        <ele>791.4</ele>
        <time>2023-03-29T13:01:11Z</time>
      </trkpt>
      <trkpt lat="45.2755" lon="4.28418">
        <ele>792</ele>
        <time>2023-03-29T13:01:13Z</time>
      </trkpt>
      <trkpt lat="45.2755" lon="4.28435">
        <ele>792.8</ele>
        <time>2023-03-29T13:01:17Z</time>
      </trkpt>
      <trkpt lat="45.27548" lon="4.28443">
        <ele>793.2</ele>
        <time>2023-03-29T13:01:19Z</time>
      </trkpt>
      <trkpt lat="45.27541" lon="4.28465">
        <ele>794.2</ele>
        <time>2023-03-29T13:01:24Z</time>
      </trkpt>
      <trkpt lat="45.27535" lon="4.28486">
        <ele>795.2</ele>
        <time>2023-03-29T13:01:29Z</time>
      </trkpt>
      <trkpt lat="45.2753" lon="4.28497">
        <ele>795.8</ele>
        <time>2023-03-29T13:01:32Z</time>
      </trkpt>
      <trkpt lat="45.27528" lon="4.28505">
        <ele>796.4</ele>
        <time>2023-03-29T13:01:34Z</time>
      </trkpt>
      <trkpt lat="45.27522" lon="4.28523">
        <ele>797.2</ele>
        <time>2023-03-29T13:01:39Z</time>
      </trkpt>
      <trkpt lat="45.27521" lon="4.28526">
        <ele>797.4</ele>
        <time>2023-03-29T13:01:40Z</time>
      </trkpt>
      <trkpt lat="45.27518" lon="4.28536">
        <ele>797.6</ele>
        <time>2023-03-29T13:01:43Z</time>
      </trkpt>
      <trkpt lat="45.27515" lon="4.28543">
        <ele>798.4</ele>
        <time>2023-03-29T13:01:45Z</time>
      </trkpt>
      <trkpt lat="45.27509" lon="4.28552">
        <ele>799.2</ele>
        <time>2023-03-29T13:01:48Z</time>
      </trkpt>
      <trkpt lat="45.27504" lon="4.28559">
        <ele>799.6</ele>
        <time>2023-03-29T13:01:51Z</time>
      </trkpt>
      <trkpt lat="45.27499" lon="4.28563">
        <ele>799.8</ele>
        <time>2023-03-29T13:01:53Z</time>
      </trkpt>
      <trkpt lat="45.27491" lon="4.2857">
        <ele>800.6</ele>
        <time>2023-03-29T13:01:56Z</time>
      </trkpt>
      <trkpt lat="45.27481" lon="4.28579">
        <ele>801.6</ele>
        <time>2023-03-29T13:02:00Z</time>
      </trkpt>
      <trkpt lat="45.27472" lon="4.28587">
        <ele>802</ele>
        <time>2023-03-29T13:02:02Z</time>
      </trkpt>
      <trkpt lat="45.27459" lon="4.28597">
        <ele>802.8</ele>
        <time>2023-03-29T13:02:07Z</time>
      </trkpt>
      <trkpt lat="45.27451" lon="4.28605">
        <ele>803.2</ele>
        <time>2023-03-29T13:02:09Z</time>
      </trkpt>
      <trkpt lat="45.2743" lon="4.28634">
        <ele>803.8</ele>
        <time>2023-03-29T13:02:16Z</time>
      </trkpt>
      <trkpt lat="45.27412" lon="4.28657">
        <ele>804.4</ele>
        <time>2023-03-29T13:02:23Z</time>
      </trkpt>
      <trkpt lat="45.27406" lon="4.28671">
        <ele>804.8</ele>
        <time>2023-03-29T13:02:26Z</time>
      </trkpt>
      <trkpt lat="45.27399" lon="4.28688">
        <ele>805.2</ele>
        <time>2023-03-29T13:02:30Z</time>
      </trkpt>
      <trkpt lat="45.27394" lon="4.28702">
        <ele>806</ele>
        <time>2023-03-29T13:02:33Z</time>
      </trkpt>
      <trkpt lat="45.27387" lon="4.2872">
        <ele>806.6</ele>
        <time>2023-03-29T13:02:37Z</time>
      </trkpt>
      <trkpt lat="45.27382" lon="4.28733">
        <ele>807</ele>
        <time>2023-03-29T13:02:40Z</time>
      </trkpt>
      <trkpt lat="45.27365" lon="4.28777">
        <ele>808.4</ele>
        <time>2023-03-29T13:02:49Z</time>
      </trkpt>
      <trkpt lat="45.27346" lon="4.28804">
        <ele>809.4</ele>
        <time>2023-03-29T13:02:56Z</time>
      </trkpt>
      <trkpt lat="45.27323" lon="4.28821">
        <ele>810.4</ele>
        <time>2023-03-29T13:03:03Z</time>
      </trkpt>
      <trkpt lat="45.27317" lon="4.28826">
        <ele>810.4</ele>
        <time>2023-03-29T13:03:05Z</time>
      </trkpt>
      <trkpt lat="45.27299" lon="4.28838">
        <ele>811.4</ele>
        <time>2023-03-29T13:03:11Z</time>
      </trkpt>
      <trkpt lat="45.27296" lon="4.2884">
        <ele>811.6</ele>
        <time>2023-03-29T13:03:12Z</time>
      </trkpt>
      <trkpt lat="45.27282" lon="4.28851">
        <ele>812.8</ele>
        <time>2023-03-29T13:03:17Z</time>
      </trkpt>
      <trkpt lat="45.27275" lon="4.28856">
        <ele>813.2</ele>
        <time>2023-03-29T13:03:19Z</time>
      </trkpt>
      <trkpt lat="45.27264" lon="4.28864">
        <ele>814.2</ele>
        <time>2023-03-29T13:03:23Z</time>
      </trkpt>
      <trkpt lat="45.27255" lon="4.2887">
        <ele>814.8</ele>
        <time>2023-03-29T13:03:26Z</time>
      </trkpt>
      <trkpt lat="45.27249" lon="4.28875">
        <ele>815.4</ele>
        <time>2023-03-29T13:03:28Z</time>
      </trkpt>
      <trkpt lat="45.27229" lon="4.2889">
        <ele>816.6</ele>
        <time>2023-03-29T13:03:35Z</time>
      </trkpt>
      <trkpt lat="45.27226" lon="4.28892">
        <ele>816.8</ele>
        <time>2023-03-29T13:03:36Z</time>
      </trkpt>
      <trkpt lat="45.27214" lon="4.28901">
        <ele>817.6</ele>
        <time>2023-03-29T13:03:40Z</time>
      </trkpt>
      <trkpt lat="45.27203" lon="4.28909">
        <ele>818.6</ele>
        <time>2023-03-29T13:03:44Z</time>
      </trkpt>
      <trkpt lat="45.27201" lon="4.28911">
        <ele>818.8</ele>
        <time>2023-03-29T13:03:45Z</time>
      </trkpt>
      <trkpt lat="45.27192" lon="4.28918">
        <ele>819.2</ele>
        <time>2023-03-29T13:03:49Z</time>
      </trkpt>
      <trkpt lat="45.27182" lon="4.28922">
        <ele>819.8</ele>
        <time>2023-03-29T13:03:52Z</time>
      </trkpt>
      <trkpt lat="45.2717" lon="4.28926">
        <ele>820.4</ele>
        <time>2023-03-29T13:03:56Z</time>
      </trkpt>
      <trkpt lat="45.27167" lon="4.28927">
        <ele>820.8</ele>
        <time>2023-03-29T13:03:57Z</time>
      </trkpt>
      <trkpt lat="45.27152" lon="4.2893">
        <ele>822</ele>
        <time>2023-03-29T13:04:02Z</time>
      </trkpt>
      <trkpt lat="45.27146" lon="4.28931">
        <ele>822.4</ele>
        <time>2023-03-29T13:04:04Z</time>
      </trkpt>
      <trkpt lat="45.27135" lon="4.28933">
        <ele>823.2</ele>
        <time>2023-03-29T13:04:08Z</time>
      </trkpt>
      <trkpt lat="45.27127" lon="4.28933">
        <ele>823.6</ele>
        <time>2023-03-29T13:04:11Z</time>
      </trkpt>
      <trkpt lat="45.27119" lon="4.28932">
        <ele>824.2</ele>
        <time>2023-03-29T13:04:14Z</time>
      </trkpt>
      <trkpt lat="45.27109" lon="4.2893">
        <ele>825</ele>
        <time>2023-03-29T13:04:18Z</time>
      </trkpt>
      <trkpt lat="45.27102" lon="4.28926">
        <ele>825.2</ele>
        <time>2023-03-29T13:04:21Z</time>
      </trkpt>
      <trkpt lat="45.27093" lon="4.2892">
        <ele>826</ele>
        <time>2023-03-29T13:04:25Z</time>
      </trkpt>
      <trkpt lat="45.27086" lon="4.28913">
        <ele>826.2</ele>
        <time>2023-03-29T13:04:28Z</time>
      </trkpt>
      <trkpt lat="45.27078" lon="4.28909">
        <ele>827</ele>
        <time>2023-03-29T13:04:31Z</time>
      </trkpt>
      <trkpt lat="45.27076" lon="4.28907">
        <ele>827.2</ele>
        <time>2023-03-29T13:04:32Z</time>
      </trkpt>
      <trkpt lat="45.27075" lon="4.28905">
        <ele>827.8</ele>
        <time>2023-03-29T13:04:33Z</time>
      </trkpt>
      <trkpt lat="45.27072" lon="4.28899">
        <ele>828.6</ele>
        <time>2023-03-29T13:04:35Z</time>
      </trkpt>
      <trkpt lat="45.2707" lon="4.28895">
        <ele>829</ele>
        <time>2023-03-29T13:04:36Z</time>
      </trkpt>
      <trkpt lat="45.27058" lon="4.28876">
        <ele>830</ele>
        <time>2023-03-29T13:04:41Z</time>
      </trkpt>
      <trkpt lat="45.27045" lon="4.28857">
        <ele>831.2</ele>
        <time>2023-03-29T13:04:47Z</time>
      </trkpt>
      <trkpt lat="45.27032" lon="4.28838">
        <ele>832</ele>
        <time>2023-03-29T13:04:53Z</time>
      </trkpt>
      <trkpt lat="45.2703" lon="4.28835">
        <ele>832.4</ele>
        <time>2023-03-29T13:04:54Z</time>
      </trkpt>
      <trkpt lat="45.27023" lon="4.28823">
        <ele>833.6</ele>
        <time>2023-03-29T13:04:58Z</time>
      </trkpt>
      <trkpt lat="45.27022" lon="4.2882">
        <ele>833.8</ele>
        <time>2023-03-29T13:04:59Z</time>
      </trkpt>
      <trkpt lat="45.27018" lon="4.28806">
        <ele>834.8</ele>
        <time>2023-03-29T13:05:03Z</time>
      </trkpt>
      <trkpt lat="45.27016" lon="4.28789">
        <ele>836</ele>
        <time>2023-03-29T13:05:07Z</time>
      </trkpt>
      <trkpt lat="45.27015" lon="4.28768">
        <ele>836.8</ele>
        <time>2023-03-29T13:05:12Z</time>
      </trkpt>
      <trkpt lat="45.27014" lon="4.28759">
        <ele>837.2</ele>
        <time>2023-03-29T13:05:14Z</time>
      </trkpt>
      <trkpt lat="45.27012" lon="4.2875">
        <ele>837.8</ele>
        <time>2023-03-29T13:05:17Z</time>
      </trkpt>
      <trkpt lat="45.27008" lon="4.28741">
        <ele>838.2</ele>
        <time>2023-03-29T13:05:19Z</time>
      </trkpt>
      <trkpt lat="45.26992" lon="4.28721">
        <ele>839.2</ele>
        <time>2023-03-29T13:05:25Z</time>
      </trkpt>
      <trkpt lat="45.26989" lon="4.28718">
        <ele>839.4</ele>
        <time>2023-03-29T13:05:26Z</time>
      </trkpt>
      <trkpt lat="45.26982" lon="4.28712">
        <ele>840.2</ele>
        <time>2023-03-29T13:05:29Z</time>
      </trkpt>
      <trkpt lat="45.26975" lon="4.28705">
        <ele>840.6</ele>
        <time>2023-03-29T13:05:32Z</time>
      </trkpt>
      <trkpt lat="45.26967" lon="4.28699">
        <ele>841.2</ele>
        <time>2023-03-29T13:05:35Z</time>
      </trkpt>
      <trkpt lat="45.26951" lon="4.2869">
        <ele>842.4</ele>
        <time>2023-03-29T13:05:41Z</time>
      </trkpt>
      <trkpt lat="45.26937" lon="4.28682">
        <ele>843.6</ele>
        <time>2023-03-29T13:05:46Z</time>
      </trkpt>
      <trkpt lat="45.26927" lon="4.2868">
        <ele>844</ele>
        <time>2023-03-29T13:05:49Z</time>
      </trkpt>
      <trkpt lat="45.26914" lon="4.28682">
        <ele>844.8</ele>
        <time>2023-03-29T13:05:53Z</time>
      </trkpt>
      <trkpt lat="45.26907" lon="4.28685">
        <ele>845</ele>
        <time>2023-03-29T13:05:55Z</time>
      </trkpt>
      <trkpt lat="45.2689" lon="4.28698">
        <ele>845.8</ele>
        <time>2023-03-29T13:06:01Z</time>
      </trkpt>
      <trkpt lat="45.26877" lon="4.28707">
        <ele>846.8</ele>
        <time>2023-03-29T13:06:06Z</time>
      </trkpt>
      <trkpt lat="45.26866" lon="4.28714">
        <ele>847.4</ele>
        <time>2023-03-29T13:06:10Z</time>
      </trkpt>
      <trkpt lat="45.2686" lon="4.28715">
        <ele>848</ele>
        <time>2023-03-29T13:06:12Z</time>
      </trkpt>
      <trkpt lat="45.26849" lon="4.28717">
        <ele>849.2</ele>
        <time>2023-03-29T13:06:16Z</time>
      </trkpt>
      <trkpt lat="45.26844" lon="4.28717">
        <ele>849.6</ele>
        <time>2023-03-29T13:06:18Z</time>
      </trkpt>
      <trkpt lat="45.26837" lon="4.28716">
        <ele>850.2</ele>
        <time>2023-03-29T13:06:21Z</time>
      </trkpt>
      <trkpt lat="45.26827" lon="4.28714">
        <ele>851.4</ele>
        <time>2023-03-29T13:06:25Z</time>
      </trkpt>
      <trkpt lat="45.26822" lon="4.28714">
        <ele>852</ele>
        <time>2023-03-29T13:06:27Z</time>
      </trkpt>
      <trkpt lat="45.26818" lon="4.28714">
        <ele>852.4</ele>
        <time>2023-03-29T13:06:29Z</time>
      </trkpt>
      <trkpt lat="45.2681" lon="4.28712">
        <ele>853</ele>
        <time>2023-03-29T13:06:32Z</time>
      </trkpt>
      <trkpt lat="45.26805" lon="4.28711">
        <ele>853.6</ele>
        <time>2023-03-29T13:06:34Z</time>
      </trkpt>
      <trkpt lat="45.268" lon="4.28711">
        <ele>854</ele>
        <time>2023-03-29T13:06:36Z</time>
      </trkpt>
      <trkpt lat="45.26795" lon="4.28711">
        <ele>854.6</ele>
        <time>2023-03-29T13:06:38Z</time>
      </trkpt>
      <trkpt lat="45.26782" lon="4.28713">
        <ele>855.8</ele>
        <time>2023-03-29T13:06:43Z</time>
      </trkpt>
      <trkpt lat="45.26775" lon="4.28713">
        <ele>856.4</ele>
        <time>2023-03-29T13:06:46Z</time>
      </trkpt>
      <trkpt lat="45.26772" lon="4.28714">
        <ele>856.8</ele>
        <time>2023-03-29T13:06:47Z</time>
      </trkpt>
      <trkpt lat="45.26755" lon="4.28717">
        <ele>858.2</ele>
        <time>2023-03-29T13:06:54Z</time>
      </trkpt>
      <trkpt lat="45.2675" lon="4.28718">
        <ele>858.6</ele>
        <time>2023-03-29T13:06:56Z</time>
      </trkpt>
      <trkpt lat="45.26743" lon="4.2872">
        <ele>859.4</ele>
        <time>2023-03-29T13:06:59Z</time>
      </trkpt>
      <trkpt lat="45.26731" lon="4.28723">
        <ele>860.4</ele>
        <time>2023-03-29T13:07:04Z</time>
      </trkpt>
      <trkpt lat="45.26728" lon="4.28723">
        <ele>860.6</ele>
        <time>2023-03-29T13:07:05Z</time>
      </trkpt>
      <trkpt lat="45.26712" lon="4.28724">
        <ele>861.8</ele>
        <time>2023-03-29T13:07:11Z</time>
      </trkpt>
      <trkpt lat="45.26706" lon="4.28725">
        <ele>862</ele>
        <time>2023-03-29T13:07:13Z</time>
      </trkpt>
      <trkpt lat="45.26696" lon="4.28723">
        <ele>862.8</ele>
        <time>2023-03-29T13:07:17Z</time>
      </trkpt>
      <trkpt lat="45.26685" lon="4.28721">
        <ele>863.6</ele>
        <time>2023-03-29T13:07:21Z</time>
      </trkpt>
      <trkpt lat="45.2668" lon="4.2872">
        <ele>864</ele>
        <time>2023-03-29T13:07:23Z</time>
      </trkpt>
      <trkpt lat="45.26658" lon="4.2871">
        <ele>865</ele>
        <time>2023-03-29T13:07:31Z</time>
      </trkpt>
      <trkpt lat="45.26655" lon="4.28709">
        <ele>865.2</ele>
        <time>2023-03-29T13:07:32Z</time>
      </trkpt>
      <trkpt lat="45.26643" lon="4.28702">
        <ele>866.4</ele>
        <time>2023-03-29T13:07:37Z</time>
      </trkpt>
      <trkpt lat="45.26638" lon="4.28699">
        <ele>866.8</ele>
        <time>2023-03-29T13:07:39Z</time>
      </trkpt>
      <trkpt lat="45.26628" lon="4.28694">
        <ele>867.4</ele>
        <time>2023-03-29T13:07:43Z</time>
      </trkpt>
      <trkpt lat="45.26615" lon="4.28688">
        <ele>868.6</ele>
        <time>2023-03-29T13:07:48Z</time>
      </trkpt>
      <trkpt lat="45.26601" lon="4.28685">
        <ele>869.6</ele>
        <time>2023-03-29T13:07:53Z</time>
      </trkpt>
      <trkpt lat="45.26593" lon="4.28683">
        <ele>870</ele>
        <time>2023-03-29T13:07:56Z</time>
      </trkpt>
      <trkpt lat="45.26585" lon="4.28683">
        <ele>870.6</ele>
        <time>2023-03-29T13:07:59Z</time>
      </trkpt>
      <trkpt lat="45.26578" lon="4.28682">
        <ele>871.6</ele>
        <time>2023-03-29T13:08:02Z</time>
      </trkpt>
      <trkpt lat="45.26575" lon="4.28682">
        <ele>871.8</ele>
        <time>2023-03-29T13:08:03Z</time>
      </trkpt>
      <trkpt lat="45.26563" lon="4.28682">
        <ele>872.8</ele>
        <time>2023-03-29T13:08:09Z</time>
      </trkpt>
      <trkpt lat="45.2655" lon="4.28682">
        <ele>874.2</ele>
        <time>2023-03-29T13:08:14Z</time>
      </trkpt>
      <trkpt lat="45.26535" lon="4.28683">
        <ele>875.2</ele>
        <time>2023-03-29T13:08:19Z</time>
      </trkpt>
      <trkpt lat="45.2653" lon="4.28683">
        <ele>875.4</ele>
        <time>2023-03-29T13:08:21Z</time>
      </trkpt>
      <trkpt lat="45.26516" lon="4.28682">
        <ele>876.2</ele>
        <time>2023-03-29T13:08:26Z</time>
      </trkpt>
      <trkpt lat="45.26503" lon="4.28682">
        <ele>877</ele>
        <time>2023-03-29T13:08:31Z</time>
      </trkpt>
      <trkpt lat="45.26494" lon="4.28682">
        <ele>877.4</ele>
        <time>2023-03-29T13:08:34Z</time>
      </trkpt>
      <trkpt lat="45.26479" lon="4.28683">
        <ele>878.4</ele>
        <time>2023-03-29T13:08:39Z</time>
      </trkpt>
      <trkpt lat="45.26453" lon="4.28687">
        <ele>879.6</ele>
        <time>2023-03-29T13:08:47Z</time>
      </trkpt>
      <trkpt lat="45.26443" lon="4.28688">
        <ele>880.2</ele>
        <time>2023-03-29T13:08:50Z</time>
      </trkpt>
      <trkpt lat="45.26426" lon="4.28691">
        <ele>880.6</ele>
        <time>2023-03-29T13:08:55Z</time>
      </trkpt>
      <trkpt lat="45.26417" lon="4.28693">
        <ele>881</ele>
        <time>2023-03-29T13:08:58Z</time>
      </trkpt>
      <trkpt lat="45.264" lon="4.28695">
        <ele>881.8</ele>
        <time>2023-03-29T13:09:03Z</time>
      </trkpt>
      <trkpt lat="45.26386" lon="4.28697">
        <ele>882.2</ele>
        <time>2023-03-29T13:09:07Z</time>
      </trkpt>
      <trkpt lat="45.26372" lon="4.28699">
        <ele>882.8</ele>
        <time>2023-03-29T13:09:11Z</time>
      </trkpt>
      <trkpt lat="45.2636" lon="4.28698">
        <ele>883.2</ele>
        <time>2023-03-29T13:09:14Z</time>
      </trkpt>
      <trkpt lat="45.26338" lon="4.28697">
        <ele>883.8</ele>
        <time>2023-03-29T13:09:20Z</time>
      </trkpt>
      <trkpt lat="45.26322" lon="4.28696">
        <ele>884.2</ele>
        <time>2023-03-29T13:09:24Z</time>
      </trkpt>
      <trkpt lat="45.26287" lon="4.28695">
        <ele>884.8</ele>
        <time>2023-03-29T13:09:33Z</time>
      </trkpt>
      <trkpt lat="45.2627" lon="4.28695">
        <ele>885</ele>
        <time>2023-03-29T13:09:37Z</time>
      </trkpt>
      <trkpt lat="45.26252" lon="4.28697">
        <ele>885</ele>
        <time>2023-03-29T13:09:41Z</time>
      </trkpt>
      <trkpt lat="45.26215" lon="4.28704">
        <ele>885.4</ele>
        <time>2023-03-29T13:09:49Z</time>
      </trkpt>
      <trkpt lat="45.26181" lon="4.28708">
        <ele>885.8</ele>
        <time>2023-03-29T13:09:57Z</time>
      </trkpt>
      <trkpt lat="45.26173" lon="4.28709">
        <ele>885.8</ele>
        <time>2023-03-29T13:09:59Z</time>
      </trkpt>
      <trkpt lat="45.26157" lon="4.28713">
        <ele>885.8</ele>
        <time>2023-03-29T13:10:03Z</time>
      </trkpt>
      <trkpt lat="45.26132" lon="4.28718">
        <ele>885.8</ele>
        <time>2023-03-29T13:10:09Z</time>
      </trkpt>
      <trkpt lat="45.2609" lon="4.28726">
        <ele>885.4</ele>
        <time>2023-03-29T13:10:18Z</time>
      </trkpt>
      <trkpt lat="45.26054" lon="4.28732">
        <ele>885</ele>
        <time>2023-03-29T13:10:25Z</time>
      </trkpt>
      <trkpt lat="45.26018" lon="4.28743">
        <ele>884.4</ele>
        <time>2023-03-29T13:10:31Z</time>
      </trkpt>
      <trkpt lat="45.25997" lon="4.28751">
        <ele>883.8</ele>
        <time>2023-03-29T13:10:34Z</time>
      </trkpt>
      <trkpt lat="45.25975" lon="4.2876">
        <ele>882.8</ele>
        <time>2023-03-29T13:10:37Z</time>
      </trkpt>
      <trkpt lat="45.25944" lon="4.28769">
        <ele>881.2</ele>
        <time>2023-03-29T13:10:41Z</time>
      </trkpt>
      <trkpt lat="45.25927" lon="4.28772">
        <ele>880.4</ele>
        <time>2023-03-29T13:10:43Z</time>
      </trkpt>
      <trkpt lat="45.25919" lon="4.28773">
        <ele>880</ele>
        <time>2023-03-29T13:10:44Z</time>
      </trkpt>
      <trkpt lat="45.25877" lon="4.2878">
        <ele>878.8</ele>
        <time>2023-03-29T13:10:49Z</time>
      </trkpt>
      <trkpt lat="45.25869" lon="4.28781">
        <ele>878.4</ele>
        <time>2023-03-29T13:10:50Z</time>
      </trkpt>
      <trkpt lat="45.25843" lon="4.28785">
        <ele>877.4</ele>
        <time>2023-03-29T13:10:53Z</time>
      </trkpt>
      <trkpt lat="45.25807" lon="4.28793">
        <ele>875.8</ele>
        <time>2023-03-29T13:10:57Z</time>
      </trkpt>
      <trkpt lat="45.25797" lon="4.28795">
        <ele>875.6</ele>
        <time>2023-03-29T13:10:58Z</time>
      </trkpt>
      <trkpt lat="45.25787" lon="4.28798">
        <ele>874.6</ele>
        <time>2023-03-29T13:10:59Z</time>
      </trkpt>
      <trkpt lat="45.25757" lon="4.28806">
        <ele>873</ele>
        <time>2023-03-29T13:11:02Z</time>
      </trkpt>
      <trkpt lat="45.25725" lon="4.28814">
        <ele>872.4</ele>
        <time>2023-03-29T13:11:05Z</time>
      </trkpt>
      <trkpt lat="45.25714" lon="4.28816">
        <ele>871.6</ele>
        <time>2023-03-29T13:11:06Z</time>
      </trkpt>
      <trkpt lat="45.25682" lon="4.28824">
        <ele>869.8</ele>
        <time>2023-03-29T13:11:09Z</time>
      </trkpt>
      <trkpt lat="45.25671" lon="4.28828">
        <ele>869.6</ele>
        <time>2023-03-29T13:11:10Z</time>
      </trkpt>
      <trkpt lat="45.25661" lon="4.28833">
        <ele>867.8</ele>
        <time>2023-03-29T13:11:11Z</time>
      </trkpt>
      <trkpt lat="45.25642" lon="4.28845">
        <ele>866.4</ele>
        <time>2023-03-29T13:11:13Z</time>
      </trkpt>
      <trkpt lat="45.25632" lon="4.28852">
        <ele>865.8</ele>
        <time>2023-03-29T13:11:14Z</time>
      </trkpt>
      <trkpt lat="45.25623" lon="4.2886">
        <ele>864.6</ele>
        <time>2023-03-29T13:11:15Z</time>
      </trkpt>
      <trkpt lat="45.25605" lon="4.28877">
        <ele>862.6</ele>
        <time>2023-03-29T13:11:17Z</time>
      </trkpt>
      <trkpt lat="45.25598" lon="4.28889">
        <ele>861.4</ele>
        <time>2023-03-29T13:11:18Z</time>
      </trkpt>
      <trkpt lat="45.25593" lon="4.28902">
        <ele>861</ele>
        <time>2023-03-29T13:11:19Z</time>
      </trkpt>
      <trkpt lat="45.25589" lon="4.28917">
        <ele>860.2</ele>
        <time>2023-03-29T13:11:20Z</time>
      </trkpt>
      <trkpt lat="45.25586" lon="4.28932">
        <ele>860</ele>
        <time>2023-03-29T13:11:21Z</time>
      </trkpt>
      <trkpt lat="45.25583" lon="4.28947">
        <ele>859.2</ele>
        <time>2023-03-29T13:11:22Z</time>
      </trkpt>
      <trkpt lat="45.25579" lon="4.28973">
        <ele>857.2</ele>
        <time>2023-03-29T13:11:24Z</time>
      </trkpt>
      <trkpt lat="45.25578" lon="4.28984">
        <ele>856.6</ele>
        <time>2023-03-29T13:11:25Z</time>
      </trkpt>
      <trkpt lat="45.25577" lon="4.28994">
        <ele>855.8</ele>
        <time>2023-03-29T13:11:26Z</time>
      </trkpt>
      <trkpt lat="45.25578" lon="4.29002">
        <ele>854.8</ele>
        <time>2023-03-29T13:11:27Z</time>
      </trkpt>
      <trkpt lat="45.25578" lon="4.29017">
        <ele>853.8</ele>
        <time>2023-03-29T13:11:29Z</time>
      </trkpt>
      <trkpt lat="45.25578" lon="4.29023">
        <ele>853.4</ele>
        <time>2023-03-29T13:11:30Z</time>
      </trkpt>
      <trkpt lat="45.25574" lon="4.29035">
        <ele>852.6</ele>
        <time>2023-03-29T13:11:32Z</time>
      </trkpt>
      <trkpt lat="45.2556" lon="4.29042">
        <ele>851.2</ele>
        <time>2023-03-29T13:11:35Z</time>
      </trkpt>
      <trkpt lat="45.25556" lon="4.29042">
        <ele>850.8</ele>
        <time>2023-03-29T13:11:36Z</time>
      </trkpt>
      <trkpt lat="45.25551" lon="4.2904">
        <ele>850.8</ele>
        <time>2023-03-29T13:11:37Z</time>
      </trkpt>
      <trkpt lat="45.25543" lon="4.29031">
        <ele>850.4</ele>
        <time>2023-03-29T13:11:39Z</time>
      </trkpt>
      <trkpt lat="45.25535" lon="4.29017">
        <ele>850.2</ele>
        <time>2023-03-29T13:11:41Z</time>
      </trkpt>
      <trkpt lat="45.25528" lon="4.29002">
        <ele>850</ele>
        <time>2023-03-29T13:11:43Z</time>
      </trkpt>
      <trkpt lat="45.25524" lon="4.28995">
        <ele>849.8</ele>
        <time>2023-03-29T13:11:44Z</time>
      </trkpt>
      <trkpt lat="45.25506" lon="4.28973">
        <ele>849</ele>
        <time>2023-03-29T13:11:47Z</time>
      </trkpt>
      <trkpt lat="45.2548" lon="4.28946">
        <ele>848</ele>
        <time>2023-03-29T13:11:51Z</time>
      </trkpt>
      <trkpt lat="45.25466" lon="4.28931">
        <ele>847.2</ele>
        <time>2023-03-29T13:11:53Z</time>
      </trkpt>
      <trkpt lat="45.25459" lon="4.28924">
        <ele>846.6</ele>
        <time>2023-03-29T13:11:54Z</time>
      </trkpt>
      <trkpt lat="45.25438" lon="4.28901">
        <ele>845.4</ele>
        <time>2023-03-29T13:11:57Z</time>
      </trkpt>
      <trkpt lat="45.25416" lon="4.28877">
        <ele>844.4</ele>
        <time>2023-03-29T13:12:00Z</time>
      </trkpt>
      <trkpt lat="45.25395" lon="4.28854">
        <ele>843</ele>
        <time>2023-03-29T13:12:03Z</time>
      </trkpt>
      <trkpt lat="45.25372" lon="4.28828">
        <ele>842</ele>
        <time>2023-03-29T13:12:07Z</time>
      </trkpt>
      <trkpt lat="45.2535" lon="4.28805">
        <ele>842.2</ele>
        <time>2023-03-29T13:12:12Z</time>
      </trkpt>
      <trkpt lat="45.25329" lon="4.28782">
        <ele>843.8</ele>
        <time>2023-03-29T13:12:18Z</time>
      </trkpt>
      <trkpt lat="45.25326" lon="4.28779">
        <ele>844.2</ele>
        <time>2023-03-29T13:12:19Z</time>
      </trkpt>
      <trkpt lat="45.2531" lon="4.28762">
        <ele>845</ele>
        <time>2023-03-29T13:12:24Z</time>
      </trkpt>
      <trkpt lat="45.25299" lon="4.28751">
        <ele>845.2</ele>
        <time>2023-03-29T13:12:27Z</time>
      </trkpt>
      <trkpt lat="45.25278" lon="4.28726">
        <ele>846.2</ele>
        <time>2023-03-29T13:12:33Z</time>
      </trkpt>
      <trkpt lat="45.25271" lon="4.28719">
        <ele>846.4</ele>
        <time>2023-03-29T13:12:35Z</time>
      </trkpt>
      <trkpt lat="45.25242" lon="4.28689">
        <ele>847.2</ele>
        <time>2023-03-29T13:12:43Z</time>
      </trkpt>
      <trkpt lat="45.25234" lon="4.28681">
        <ele>847.4</ele>
        <time>2023-03-29T13:12:45Z</time>
      </trkpt>
      <trkpt lat="45.25219" lon="4.28665">
        <ele>847.6</ele>
        <time>2023-03-29T13:12:49Z</time>
      </trkpt>
      <trkpt lat="45.25212" lon="4.28658">
        <ele>847.8</ele>
        <time>2023-03-29T13:12:51Z</time>
      </trkpt>
      <trkpt lat="45.25199" lon="4.28644">
        <ele>848</ele>
        <time>2023-03-29T13:12:55Z</time>
      </trkpt>
      <trkpt lat="45.25189" lon="4.28632">
        <ele>848.6</ele>
        <time>2023-03-29T13:12:58Z</time>
      </trkpt>
      <trkpt lat="45.25183" lon="4.28622">
        <ele>849</ele>
        <time>2023-03-29T13:13:00Z</time>
      </trkpt>
      <trkpt lat="45.2518" lon="4.28618">
        <ele>849.2</ele>
        <time>2023-03-29T13:13:01Z</time>
      </trkpt>
      <trkpt lat="45.25177" lon="4.28612">
        <ele>849.6</ele>
        <time>2023-03-29T13:13:02Z</time>
      </trkpt>
      <trkpt lat="45.25174" lon="4.28606">
        <ele>849.6</ele>
        <time>2023-03-29T13:13:03Z</time>
      </trkpt>
      <trkpt lat="45.25169" lon="4.28591">
        <ele>849.8</ele>
        <time>2023-03-29T13:13:05Z</time>
      </trkpt>
      <trkpt lat="45.25148" lon="4.28536">
        <ele>849.6</ele>
        <time>2023-03-29T13:13:12Z</time>
      </trkpt>
      <trkpt lat="45.25132" lon="4.28492">
        <ele>849.2</ele>
        <time>2023-03-29T13:13:18Z</time>
      </trkpt>
      <trkpt lat="45.25108" lon="4.2843">
        <ele>848.8</ele>
        <time>2023-03-29T13:13:26Z</time>
      </trkpt>
      <trkpt lat="45.25096" lon="4.28405">
        <ele>848.6</ele>
        <time>2023-03-29T13:13:29Z</time>
      </trkpt>
      <trkpt lat="45.25085" lon="4.28391">
        <ele>848.4</ele>
        <time>2023-03-29T13:13:31Z</time>
      </trkpt>
      <trkpt lat="45.25073" lon="4.28382">
        <ele>848.2</ele>
        <time>2023-03-29T13:13:33Z</time>
      </trkpt>
      <trkpt lat="45.25067" lon="4.28381">
        <ele>848.2</ele>
        <time>2023-03-29T13:13:34Z</time>
      </trkpt>
      <trkpt lat="45.25039" lon="4.2838">
        <ele>848</ele>
        <time>2023-03-29T13:13:39Z</time>
      </trkpt>
      <trkpt lat="45.2502" lon="4.28377">
        <ele>847.8</ele>
        <time>2023-03-29T13:13:42Z</time>
      </trkpt>
      <trkpt lat="45.25007" lon="4.2837">
        <ele>847.6</ele>
        <time>2023-03-29T13:13:44Z</time>
      </trkpt>
      <trkpt lat="45.25001" lon="4.28366">
        <ele>847.4</ele>
        <time>2023-03-29T13:13:45Z</time>
      </trkpt>
      <trkpt lat="45.24996" lon="4.28361">
        <ele>847.4</ele>
        <time>2023-03-29T13:13:46Z</time>
      </trkpt>
      <trkpt lat="45.24985" lon="4.28348">
        <ele>847</ele>
        <time>2023-03-29T13:13:48Z</time>
      </trkpt>
      <trkpt lat="45.2497" lon="4.28328">
        <ele>846.2</ele>
        <time>2023-03-29T13:13:51Z</time>
      </trkpt>
      <trkpt lat="45.24949" lon="4.283">
        <ele>845.2</ele>
        <time>2023-03-29T13:13:55Z</time>
      </trkpt>
      <trkpt lat="45.24918" lon="4.28258">
        <ele>844.2</ele>
        <time>2023-03-29T13:14:01Z</time>
      </trkpt>
      <trkpt lat="45.24907" lon="4.28245">
        <ele>843.6</ele>
        <time>2023-03-29T13:14:03Z</time>
      </trkpt>
      <trkpt lat="45.24897" lon="4.28231">
        <ele>843</ele>
        <time>2023-03-29T13:14:05Z</time>
      </trkpt>
      <trkpt lat="45.24883" lon="4.2821">
        <ele>842.8</ele>
        <time>2023-03-29T13:14:08Z</time>
      </trkpt>
      <trkpt lat="45.24877" lon="4.28193">
        <ele>842.6</ele>
        <time>2023-03-29T13:14:10Z</time>
      </trkpt>
      <trkpt lat="45.24874" lon="4.28183">
        <ele>842.6</ele>
        <time>2023-03-29T13:14:11Z</time>
      </trkpt>
      <trkpt lat="45.24871" lon="4.28161">
        <ele>842.2</ele>
        <time>2023-03-29T13:14:13Z</time>
      </trkpt>
      <trkpt lat="45.24871" lon="4.28151">
        <ele>842</ele>
        <time>2023-03-29T13:14:14Z</time>
      </trkpt>
      <trkpt lat="45.24871" lon="4.2814">
        <ele>841.8</ele>
        <time>2023-03-29T13:14:15Z</time>
      </trkpt>
      <trkpt lat="45.24876" lon="4.28121">
        <ele>841.2</ele>
        <time>2023-03-29T13:14:17Z</time>
      </trkpt>
      <trkpt lat="45.24878" lon="4.28112">
        <ele>841.2</ele>
        <time>2023-03-29T13:14:18Z</time>
      </trkpt>
      <trkpt lat="45.24885" lon="4.28093">
        <ele>840.8</ele>
        <time>2023-03-29T13:14:20Z</time>
      </trkpt>
      <trkpt lat="45.24905" lon="4.28038">
        <ele>840.2</ele>
        <time>2023-03-29T13:14:26Z</time>
      </trkpt>
      <trkpt lat="45.24911" lon="4.2802">
        <ele>839.8</ele>
        <time>2023-03-29T13:14:28Z</time>
      </trkpt>
      <trkpt lat="45.24917" lon="4.28002">
        <ele>839.6</ele>
        <time>2023-03-29T13:14:30Z</time>
      </trkpt>
      <trkpt lat="45.24922" lon="4.27981">
        <ele>839.4</ele>
        <time>2023-03-29T13:14:32Z</time>
      </trkpt>
      <trkpt lat="45.24922" lon="4.27971">
        <ele>839.2</ele>
        <time>2023-03-29T13:14:33Z</time>
      </trkpt>
      <trkpt lat="45.24921" lon="4.2796">
        <ele>839</ele>
        <time>2023-03-29T13:14:34Z</time>
      </trkpt>
      <trkpt lat="45.24916" lon="4.2794">
        <ele>838.6</ele>
        <time>2023-03-29T13:14:36Z</time>
      </trkpt>
      <trkpt lat="45.24893" lon="4.27869">
        <ele>837.6</ele>
        <time>2023-03-29T13:14:43Z</time>
      </trkpt>
      <trkpt lat="45.2489" lon="4.27859">
        <ele>837.4</ele>
        <time>2023-03-29T13:14:44Z</time>
      </trkpt>
      <trkpt lat="45.2488" lon="4.27833">
        <ele>836.8</ele>
        <time>2023-03-29T13:14:47Z</time>
      </trkpt>
      <trkpt lat="45.24875" lon="4.27825">
        <ele>836.6</ele>
        <time>2023-03-29T13:14:48Z</time>
      </trkpt>
      <trkpt lat="45.24848" lon="4.27789">
        <ele>836.8</ele>
        <time>2023-03-29T13:14:54Z</time>
      </trkpt>
      <trkpt lat="45.24816" lon="4.27748">
        <ele>838.4</ele>
        <time>2023-03-29T13:15:02Z</time>
      </trkpt>
      <trkpt lat="45.24812" lon="4.27744">
        <ele>838.6</ele>
        <time>2023-03-29T13:15:03Z</time>
      </trkpt>
      <trkpt lat="45.24779" lon="4.27702">
        <ele>839.4</ele>
        <time>2023-03-29T13:15:11Z</time>
      </trkpt>
      <trkpt lat="45.24757" lon="4.27662">
        <ele>839.4</ele>
        <time>2023-03-29T13:15:17Z</time>
      </trkpt>
      <trkpt lat="45.24733" lon="4.27608">
        <ele>838.4</ele>
        <time>2023-03-29T13:15:23Z</time>
      </trkpt>
      <trkpt lat="45.24728" lon="4.27598">
        <ele>837.6</ele>
        <time>2023-03-29T13:15:24Z</time>
      </trkpt>
      <trkpt lat="45.24716" lon="4.27571">
        <ele>836.2</ele>
        <time>2023-03-29T13:15:27Z</time>
      </trkpt>
      <trkpt lat="45.2471" lon="4.27558">
        <ele>835.6</ele>
        <time>2023-03-29T13:15:29Z</time>
      </trkpt>
      <trkpt lat="45.24708" lon="4.27552">
        <ele>835.4</ele>
        <time>2023-03-29T13:15:30Z</time>
      </trkpt>
      <trkpt lat="45.24707" lon="4.27545">
        <ele>835.2</ele>
        <time>2023-03-29T13:15:31Z</time>
      </trkpt>
      <trkpt lat="45.24708" lon="4.27538">
        <ele>835</ele>
        <time>2023-03-29T13:15:32Z</time>
      </trkpt>
      <trkpt lat="45.24718" lon="4.27518">
        <ele>834.4</ele>
        <time>2023-03-29T13:15:35Z</time>
      </trkpt>
      <trkpt lat="45.24721" lon="4.27514">
        <ele>834.2</ele>
        <time>2023-03-29T13:15:36Z</time>
      </trkpt>
      <trkpt lat="45.24727" lon="4.27508">
        <ele>834</ele>
        <time>2023-03-29T13:15:37Z</time>
      </trkpt>
      <trkpt lat="45.24742" lon="4.27505">
        <ele>833.4</ele>
        <time>2023-03-29T13:15:39Z</time>
      </trkpt>
      <trkpt lat="45.24753" lon="4.27502">
        <ele>833</ele>
        <time>2023-03-29T13:15:40Z</time>
      </trkpt>
      <trkpt lat="45.24772" lon="4.27497">
        <ele>832.2</ele>
        <time>2023-03-29T13:15:42Z</time>
      </trkpt>
      <trkpt lat="45.2478" lon="4.27494">
        <ele>831.2</ele>
        <time>2023-03-29T13:15:43Z</time>
      </trkpt>
      <trkpt lat="45.24802" lon="4.2748">
        <ele>829.8</ele>
        <time>2023-03-29T13:15:45Z</time>
      </trkpt>
      <trkpt lat="45.24809" lon="4.27471">
        <ele>829.2</ele>
        <time>2023-03-29T13:15:46Z</time>
      </trkpt>
      <trkpt lat="45.24816" lon="4.27461">
        <ele>828.2</ele>
        <time>2023-03-29T13:15:47Z</time>
      </trkpt>
      <trkpt lat="45.24822" lon="4.27449">
        <ele>827.4</ele>
        <time>2023-03-29T13:15:48Z</time>
      </trkpt>
      <trkpt lat="45.24828" lon="4.27438">
        <ele>826.2</ele>
        <time>2023-03-29T13:15:49Z</time>
      </trkpt>
      <trkpt lat="45.24833" lon="4.27427">
        <ele>825.2</ele>
        <time>2023-03-29T13:15:50Z</time>
      </trkpt>
      <trkpt lat="45.24839" lon="4.27415">
        <ele>824.6</ele>
        <time>2023-03-29T13:15:51Z</time>
      </trkpt>
      <trkpt lat="45.24844" lon="4.27405">
        <ele>823.6</ele>
        <time>2023-03-29T13:15:52Z</time>
      </trkpt>
      <trkpt lat="45.24853" lon="4.27385">
        <ele>821.8</ele>
        <time>2023-03-29T13:15:54Z</time>
      </trkpt>
      <trkpt lat="45.24863" lon="4.27367">
        <ele>820.2</ele>
        <time>2023-03-29T13:15:56Z</time>
      </trkpt>
      <trkpt lat="45.2487" lon="4.27354">
        <ele>818.8</ele>
        <time>2023-03-29T13:15:58Z</time>
      </trkpt>
      <trkpt lat="45.24878" lon="4.27344">
        <ele>817.8</ele>
        <time>2023-03-29T13:16:00Z</time>
      </trkpt>
      <trkpt lat="45.24882" lon="4.2734">
        <ele>817.2</ele>
        <time>2023-03-29T13:16:01Z</time>
      </trkpt>
      <trkpt lat="45.24885" lon="4.27337">
        <ele>816.8</ele>
        <time>2023-03-29T13:16:02Z</time>
      </trkpt>
      <trkpt lat="45.24886" lon="4.27334">
        <ele>816</ele>
        <time>2023-03-29T13:16:03Z</time>
      </trkpt>
      <trkpt lat="45.24888" lon="4.27332">
        <ele>815.6</ele>
        <time>2023-03-29T13:16:04Z</time>
      </trkpt>
      <trkpt lat="45.24888" lon="4.2733">
        <ele>814.8</ele>
        <time>2023-03-29T13:16:05Z</time>
      </trkpt>
      <trkpt lat="45.24888" lon="4.27329">
        <ele>814</ele>
        <time>2023-03-29T13:16:07Z</time>
      </trkpt>
      <trkpt lat="45.24888" lon="4.27329">
        <ele>813.6</ele>
        <time>2023-03-29T13:16:08Z</time>
      </trkpt>
      <trkpt lat="45.24888" lon="4.27329">
        <ele>812.6</ele>
        <time>2023-03-29T13:16:15Z</time>
      </trkpt>
      <trkpt lat="45.24888" lon="4.27319">
        <ele>812.4</ele>
        <time>2023-03-29T13:16:22Z</time>
      </trkpt>
      <trkpt lat="45.24876" lon="4.27302">
        <ele>812.2</ele>
        <time>2023-03-29T13:16:26Z</time>
      </trkpt>
      <trkpt lat="45.24856" lon="4.27276">
        <ele>811.8</ele>
        <time>2023-03-29T13:16:31Z</time>
      </trkpt>
      <trkpt lat="45.24848" lon="4.27265">
        <ele>811.6</ele>
        <time>2023-03-29T13:16:33Z</time>
      </trkpt>
      <trkpt lat="45.24832" lon="4.27245">
        <ele>811.6</ele>
        <time>2023-03-29T13:16:37Z</time>
      </trkpt>
      <trkpt lat="45.24821" lon="4.27232">
        <ele>811.6</ele>
        <time>2023-03-29T13:16:40Z</time>
      </trkpt>
      <trkpt lat="45.24814" lon="4.27225">
        <ele>811.6</ele>
        <time>2023-03-29T13:16:42Z</time>
      </trkpt>
      <trkpt lat="45.24793" lon="4.27208">
        <ele>812.2</ele>
        <time>2023-03-29T13:16:47Z</time>
      </trkpt>
      <trkpt lat="45.24789" lon="4.27206">
        <ele>812.4</ele>
        <time>2023-03-29T13:16:48Z</time>
      </trkpt>
      <trkpt lat="45.24773" lon="4.27202">
        <ele>812.6</ele>
        <time>2023-03-29T13:16:51Z</time>
      </trkpt>
      <trkpt lat="45.24757" lon="4.27201">
        <ele>813</ele>
        <time>2023-03-29T13:16:54Z</time>
      </trkpt>
      <trkpt lat="45.24734" lon="4.27204">
        <ele>813.8</ele>
        <time>2023-03-29T13:16:58Z</time>
      </trkpt>
      <trkpt lat="45.24718" lon="4.2721">
        <ele>814.2</ele>
        <time>2023-03-29T13:17:01Z</time>
      </trkpt>
      <trkpt lat="45.24688" lon="4.27222">
        <ele>814.8</ele>
        <time>2023-03-29T13:17:07Z</time>
      </trkpt>
      <trkpt lat="45.24683" lon="4.27221">
        <ele>814.8</ele>
        <time>2023-03-29T13:17:08Z</time>
      </trkpt>
      <trkpt lat="45.24677" lon="4.27219">
        <ele>815.2</ele>
        <time>2023-03-29T13:17:09Z</time>
      </trkpt>
      <trkpt lat="45.24662" lon="4.27208">
        <ele>815.6</ele>
        <time>2023-03-29T13:17:12Z</time>
      </trkpt>
      <trkpt lat="45.2462" lon="4.27176">
        <ele>815.6</ele>
        <time>2023-03-29T13:17:20Z</time>
      </trkpt>
      <trkpt lat="45.2459" lon="4.27148">
        <ele>815.4</ele>
        <time>2023-03-29T13:17:25Z</time>
      </trkpt>
      <trkpt lat="45.24545" lon="4.27118">
        <ele>814</ele>
        <time>2023-03-29T13:17:31Z</time>
      </trkpt>
      <trkpt lat="45.24537" lon="4.27114">
        <ele>813.6</ele>
        <time>2023-03-29T13:17:32Z</time>
      </trkpt>
      <trkpt lat="45.24513" lon="4.27105">
        <ele>812.4</ele>
        <time>2023-03-29T13:17:35Z</time>
      </trkpt>
      <trkpt lat="45.24496" lon="4.271">
        <ele>811.2</ele>
        <time>2023-03-29T13:17:37Z</time>
      </trkpt>
      <trkpt lat="45.24479" lon="4.27096">
        <ele>810.2</ele>
        <time>2023-03-29T13:17:39Z</time>
      </trkpt>
      <trkpt lat="45.24453" lon="4.27093">
        <ele>808.8</ele>
        <time>2023-03-29T13:17:42Z</time>
      </trkpt>
      <trkpt lat="45.24444" lon="4.27094">
        <ele>808</ele>
        <time>2023-03-29T13:17:43Z</time>
      </trkpt>
      <trkpt lat="45.24435" lon="4.27097">
        <ele>807.6</ele>
        <time>2023-03-29T13:17:44Z</time>
      </trkpt>
      <trkpt lat="45.24409" lon="4.27111">
        <ele>806.2</ele>
        <time>2023-03-29T13:17:47Z</time>
      </trkpt>
      <trkpt lat="45.24383" lon="4.27127">
        <ele>804.8</ele>
        <time>2023-03-29T13:17:50Z</time>
      </trkpt>
      <trkpt lat="45.24366" lon="4.27139">
        <ele>803.8</ele>
        <time>2023-03-29T13:17:52Z</time>
      </trkpt>
      <trkpt lat="45.24349" lon="4.27152">
        <ele>802.6</ele>
        <time>2023-03-29T13:17:54Z</time>
      </trkpt>
      <trkpt lat="45.24327" lon="4.27177">
        <ele>801.4</ele>
        <time>2023-03-29T13:17:57Z</time>
      </trkpt>
      <trkpt lat="45.24321" lon="4.27187">
        <ele>800.8</ele>
        <time>2023-03-29T13:17:58Z</time>
      </trkpt>
      <trkpt lat="45.24314" lon="4.27198">
        <ele>800.2</ele>
        <time>2023-03-29T13:17:59Z</time>
      </trkpt>
      <trkpt lat="45.24297" lon="4.27233">
        <ele>799</ele>
        <time>2023-03-29T13:18:02Z</time>
      </trkpt>
      <trkpt lat="45.2429" lon="4.27244">
        <ele>798.4</ele>
        <time>2023-03-29T13:18:03Z</time>
      </trkpt>
      <trkpt lat="45.24278" lon="4.27268">
        <ele>797.2</ele>
        <time>2023-03-29T13:18:05Z</time>
      </trkpt>
      <trkpt lat="45.24264" lon="4.27291">
        <ele>796</ele>
        <time>2023-03-29T13:18:07Z</time>
      </trkpt>
      <trkpt lat="45.24251" lon="4.27314">
        <ele>794.8</ele>
        <time>2023-03-29T13:18:09Z</time>
      </trkpt>
      <trkpt lat="45.24237" lon="4.27338">
        <ele>793.6</ele>
        <time>2023-03-29T13:18:11Z</time>
      </trkpt>
      <trkpt lat="45.2423" lon="4.27351">
        <ele>792.8</ele>
        <time>2023-03-29T13:18:12Z</time>
      </trkpt>
      <trkpt lat="45.24223" lon="4.27363">
        <ele>792.2</ele>
        <time>2023-03-29T13:18:13Z</time>
      </trkpt>
      <trkpt lat="45.24209" lon="4.27387">
        <ele>790.6</ele>
        <time>2023-03-29T13:18:15Z</time>
      </trkpt>
      <trkpt lat="45.2419" lon="4.27421">
        <ele>789.6</ele>
        <time>2023-03-29T13:18:18Z</time>
      </trkpt>
      <trkpt lat="45.24184" lon="4.27431">
        <ele>789.2</ele>
        <time>2023-03-29T13:18:19Z</time>
      </trkpt>
      <trkpt lat="45.24157" lon="4.27477">
        <ele>789</ele>
        <time>2023-03-29T13:18:24Z</time>
      </trkpt>
      <trkpt lat="45.24137" lon="4.27503">
        <ele>790</ele>
        <time>2023-03-29T13:18:28Z</time>
      </trkpt>
      <trkpt lat="45.24122" lon="4.27512">
        <ele>790.8</ele>
        <time>2023-03-29T13:18:31Z</time>
      </trkpt>
      <trkpt lat="45.24112" lon="4.27517">
        <ele>791.2</ele>
        <time>2023-03-29T13:18:33Z</time>
      </trkpt>
      <trkpt lat="45.24098" lon="4.27523">
        <ele>791.8</ele>
        <time>2023-03-29T13:18:36Z</time>
      </trkpt>
      <trkpt lat="45.24084" lon="4.27528">
        <ele>792.8</ele>
        <time>2023-03-29T13:18:39Z</time>
      </trkpt>
      <trkpt lat="45.24079" lon="4.2753">
        <ele>793.2</ele>
        <time>2023-03-29T13:18:40Z</time>
      </trkpt>
      <trkpt lat="45.24047" lon="4.27542">
        <ele>794.4</ele>
        <time>2023-03-29T13:18:47Z</time>
      </trkpt>
      <trkpt lat="45.24038" lon="4.27545">
        <ele>794.8</ele>
        <time>2023-03-29T13:18:49Z</time>
      </trkpt>
      <trkpt lat="45.24021" lon="4.27551">
        <ele>795.6</ele>
        <time>2023-03-29T13:18:53Z</time>
      </trkpt>
      <trkpt lat="45.23997" lon="4.2756">
        <ele>796.6</ele>
        <time>2023-03-29T13:18:59Z</time>
      </trkpt>
      <trkpt lat="45.23993" lon="4.27561">
        <ele>796.6</ele>
        <time>2023-03-29T13:19:00Z</time>
      </trkpt>
      <trkpt lat="45.23977" lon="4.27567">
        <ele>797.4</ele>
        <time>2023-03-29T13:19:04Z</time>
      </trkpt>
      <trkpt lat="45.23974" lon="4.27568">
        <ele>797.8</ele>
        <time>2023-03-29T13:19:05Z</time>
      </trkpt>
      <trkpt lat="45.23966" lon="4.27571">
        <ele>798</ele>
        <time>2023-03-29T13:19:07Z</time>
      </trkpt>
      <trkpt lat="45.2395" lon="4.27577">
        <ele>799</ele>
        <time>2023-03-29T13:19:11Z</time>
      </trkpt>
      <trkpt lat="45.23932" lon="4.27583">
        <ele>800.2</ele>
        <time>2023-03-29T13:19:16Z</time>
      </trkpt>
      <trkpt lat="45.23918" lon="4.27588">
        <ele>801.6</ele>
        <time>2023-03-29T13:19:20Z</time>
      </trkpt>
      <trkpt lat="45.23903" lon="4.27593">
        <ele>802.8</ele>
        <time>2023-03-29T13:19:24Z</time>
      </trkpt>
      <trkpt lat="45.23886" lon="4.27601">
        <ele>804</ele>
        <time>2023-03-29T13:19:29Z</time>
      </trkpt>
      <trkpt lat="45.23879" lon="4.27604">
        <ele>804.4</ele>
        <time>2023-03-29T13:19:31Z</time>
      </trkpt>
      <trkpt lat="45.23868" lon="4.27609">
        <ele>805</ele>
        <time>2023-03-29T13:19:34Z</time>
      </trkpt>
      <trkpt lat="45.23851" lon="4.2762">
        <ele>806.4</ele>
        <time>2023-03-29T13:19:39Z</time>
      </trkpt>
      <trkpt lat="45.23839" lon="4.27632">
        <ele>807.4</ele>
        <time>2023-03-29T13:19:43Z</time>
      </trkpt>
      <trkpt lat="45.23827" lon="4.27648">
        <ele>808.4</ele>
        <time>2023-03-29T13:19:47Z</time>
      </trkpt>
      <trkpt lat="45.23824" lon="4.27652">
        <ele>808.6</ele>
        <time>2023-03-29T13:19:48Z</time>
      </trkpt>
      <trkpt lat="45.23803" lon="4.27681">
        <ele>809.6</ele>
        <time>2023-03-29T13:19:55Z</time>
      </trkpt>
      <trkpt lat="45.23797" lon="4.27689">
        <ele>810.2</ele>
        <time>2023-03-29T13:19:57Z</time>
      </trkpt>
      <trkpt lat="45.23784" lon="4.27707">
        <ele>810.8</ele>
        <time>2023-03-29T13:20:01Z</time>
      </trkpt>
      <trkpt lat="45.23771" lon="4.27727">
        <ele>811.2</ele>
        <time>2023-03-29T13:20:05Z</time>
      </trkpt>
      <trkpt lat="45.23744" lon="4.27765">
        <ele>811.8</ele>
        <time>2023-03-29T13:20:12Z</time>
      </trkpt>
      <trkpt lat="45.23734" lon="4.2778">
        <ele>811.8</ele>
        <time>2023-03-29T13:20:15Z</time>
      </trkpt>
      <trkpt lat="45.2371" lon="4.27815">
        <ele>812.6</ele>
        <time>2023-03-29T13:20:22Z</time>
      </trkpt>
      <trkpt lat="45.23706" lon="4.27819">
        <ele>812.6</ele>
        <time>2023-03-29T13:20:23Z</time>
      </trkpt>
      <trkpt lat="45.23695" lon="4.27831">
        <ele>813</ele>
        <time>2023-03-29T13:20:26Z</time>
      </trkpt>
      <trkpt lat="45.23687" lon="4.27838">
        <ele>813.2</ele>
        <time>2023-03-29T13:20:28Z</time>
      </trkpt>
      <trkpt lat="45.23683" lon="4.27841">
        <ele>813.2</ele>
        <time>2023-03-29T13:20:29Z</time>
      </trkpt>
      <trkpt lat="45.23679" lon="4.27844">
        <ele>813.4</ele>
        <time>2023-03-29T13:20:30Z</time>
      </trkpt>
      <trkpt lat="45.23657" lon="4.27854">
        <ele>814.2</ele>
        <time>2023-03-29T13:20:36Z</time>
      </trkpt>
      <trkpt lat="45.23653" lon="4.27856">
        <ele>814.6</ele>
        <time>2023-03-29T13:20:37Z</time>
      </trkpt>
      <trkpt lat="45.23642" lon="4.2786">
        <ele>815.6</ele>
        <time>2023-03-29T13:20:40Z</time>
      </trkpt>
      <trkpt lat="45.23627" lon="4.27866">
        <ele>816.8</ele>
        <time>2023-03-29T13:20:44Z</time>
      </trkpt>
      <trkpt lat="45.23603" lon="4.27876">
        <ele>817.8</ele>
        <time>2023-03-29T13:20:50Z</time>
      </trkpt>
      <trkpt lat="45.2359" lon="4.27881">
        <ele>818.4</ele>
        <time>2023-03-29T13:20:53Z</time>
      </trkpt>
      <trkpt lat="45.23582" lon="4.27885">
        <ele>818.8</ele>
        <time>2023-03-29T13:20:55Z</time>
      </trkpt>
      <trkpt lat="45.23563" lon="4.27893">
        <ele>819.8</ele>
        <time>2023-03-29T13:21:00Z</time>
      </trkpt>
      <trkpt lat="45.23559" lon="4.27894">
        <ele>820</ele>
        <time>2023-03-29T13:21:01Z</time>
      </trkpt>
      <trkpt lat="45.23551" lon="4.27897">
        <ele>820.6</ele>
        <time>2023-03-29T13:21:03Z</time>
      </trkpt>
      <trkpt lat="45.23544" lon="4.27901">
        <ele>820.8</ele>
        <time>2023-03-29T13:21:05Z</time>
      </trkpt>
      <trkpt lat="45.2354" lon="4.27903">
        <ele>821</ele>
        <time>2023-03-29T13:21:06Z</time>
      </trkpt>
      <trkpt lat="45.23536" lon="4.27904">
        <ele>821.4</ele>
        <time>2023-03-29T13:21:07Z</time>
      </trkpt>
      <trkpt lat="45.23512" lon="4.27914">
        <ele>822.4</ele>
        <time>2023-03-29T13:21:13Z</time>
      </trkpt>
      <trkpt lat="45.23508" lon="4.27916">
        <ele>822.6</ele>
        <time>2023-03-29T13:21:14Z</time>
      </trkpt>
      <trkpt lat="45.23483" lon="4.27927">
        <ele>823.6</ele>
        <time>2023-03-29T13:21:20Z</time>
      </trkpt>
      <trkpt lat="45.2347" lon="4.27932">
        <ele>824</ele>
        <time>2023-03-29T13:21:23Z</time>
      </trkpt>
      <trkpt lat="45.23455" lon="4.27938">
        <ele>824.6</ele>
        <time>2023-03-29T13:21:27Z</time>
      </trkpt>
      <trkpt lat="45.23439" lon="4.27945">
        <ele>825.4</ele>
        <time>2023-03-29T13:21:31Z</time>
      </trkpt>
      <trkpt lat="45.23435" lon="4.27947">
        <ele>825.6</ele>
        <time>2023-03-29T13:21:32Z</time>
      </trkpt>
      <trkpt lat="45.23411" lon="4.27957">
        <ele>826.8</ele>
        <time>2023-03-29T13:21:38Z</time>
      </trkpt>
      <trkpt lat="45.23407" lon="4.27959">
        <ele>827</ele>
        <time>2023-03-29T13:21:39Z</time>
      </trkpt>
      <trkpt lat="45.23388" lon="4.2797">
        <ele>827.8</ele>
        <time>2023-03-29T13:21:44Z</time>
      </trkpt>
      <trkpt lat="45.23384" lon="4.27973">
        <ele>828.2</ele>
        <time>2023-03-29T13:21:45Z</time>
      </trkpt>
      <trkpt lat="45.23377" lon="4.27979">
        <ele>828.8</ele>
        <time>2023-03-29T13:21:47Z</time>
      </trkpt>
      <trkpt lat="45.23374" lon="4.27982">
        <ele>829</ele>
        <time>2023-03-29T13:21:48Z</time>
      </trkpt>
      <trkpt lat="45.23359" lon="4.28001">
        <ele>830</ele>
        <time>2023-03-29T13:21:53Z</time>
      </trkpt>
      <trkpt lat="45.23356" lon="4.28005">
        <ele>830.6</ele>
        <time>2023-03-29T13:21:54Z</time>
      </trkpt>
      <trkpt lat="45.23351" lon="4.28014">
        <ele>831</ele>
        <time>2023-03-29T13:21:56Z</time>
      </trkpt>
      <trkpt lat="45.23345" lon="4.28029">
        <ele>831.8</ele>
        <time>2023-03-29T13:21:59Z</time>
      </trkpt>
      <trkpt lat="45.23343" lon="4.28034">
        <ele>832</ele>
        <time>2023-03-29T13:22:00Z</time>
      </trkpt>
      <trkpt lat="45.23341" lon="4.28039">
        <ele>832.2</ele>
        <time>2023-03-29T13:22:01Z</time>
      </trkpt>
      <trkpt lat="45.23333" lon="4.28057">
        <ele>832.8</ele>
        <time>2023-03-29T13:22:05Z</time>
      </trkpt>
      <trkpt lat="45.23327" lon="4.28072">
        <ele>833.2</ele>
        <time>2023-03-29T13:22:08Z</time>
      </trkpt>
      <trkpt lat="45.23318" lon="4.28095">
        <ele>834.4</ele>
        <time>2023-03-29T13:22:13Z</time>
      </trkpt>
      <trkpt lat="45.23316" lon="4.281">
        <ele>834.6</ele>
        <time>2023-03-29T13:22:14Z</time>
      </trkpt>
      <trkpt lat="45.23308" lon="4.2812">
        <ele>835.6</ele>
        <time>2023-03-29T13:22:19Z</time>
      </trkpt>
      <trkpt lat="45.23306" lon="4.28124">
        <ele>835.8</ele>
        <time>2023-03-29T13:22:20Z</time>
      </trkpt>
      <trkpt lat="45.23298" lon="4.28147">
        <ele>836.6</ele>
        <time>2023-03-29T13:22:25Z</time>
      </trkpt>
      <trkpt lat="45.23294" lon="4.28155">
        <ele>837</ele>
        <time>2023-03-29T13:22:27Z</time>
      </trkpt>
      <trkpt lat="45.2329" lon="4.28163">
        <ele>838</ele>
        <time>2023-03-29T13:22:29Z</time>
      </trkpt>
      <trkpt lat="45.23276" lon="4.28187">
        <ele>839.2</ele>
        <time>2023-03-29T13:22:35Z</time>
      </trkpt>
      <trkpt lat="45.23256" lon="4.28215">
        <ele>840.2</ele>
        <time>2023-03-29T13:22:42Z</time>
      </trkpt>
      <trkpt lat="45.23244" lon="4.28232">
        <ele>840.4</ele>
        <time>2023-03-29T13:22:46Z</time>
      </trkpt>
      <trkpt lat="45.23231" lon="4.28248">
        <ele>840.6</ele>
        <time>2023-03-29T13:22:50Z</time>
      </trkpt>
      <trkpt lat="45.23202" lon="4.28287">
        <ele>841.4</ele>
        <time>2023-03-29T13:22:59Z</time>
      </trkpt>
      <trkpt lat="45.23195" lon="4.28295">
        <ele>841.6</ele>
        <time>2023-03-29T13:23:01Z</time>
      </trkpt>
      <trkpt lat="45.23192" lon="4.283">
        <ele>841.6</ele>
        <time>2023-03-29T13:23:02Z</time>
      </trkpt>
      <trkpt lat="45.23185" lon="4.28311">
        <ele>841.8</ele>
        <time>2023-03-29T13:23:04Z</time>
      </trkpt>
      <trkpt lat="45.2318" lon="4.28322">
        <ele>841.8</ele>
        <time>2023-03-29T13:23:06Z</time>
      </trkpt>
      <trkpt lat="45.23177" lon="4.28346">
        <ele>842.2</ele>
        <time>2023-03-29T13:23:10Z</time>
      </trkpt>
      <trkpt lat="45.23177" lon="4.28352">
        <ele>842.4</ele>
        <time>2023-03-29T13:23:11Z</time>
      </trkpt>
      <trkpt lat="45.23176" lon="4.28388">
        <ele>843.8</ele>
        <time>2023-03-29T13:23:17Z</time>
      </trkpt>
      <trkpt lat="45.23175" lon="4.28405">
        <ele>844.4</ele>
        <time>2023-03-29T13:23:20Z</time>
      </trkpt>
      <trkpt lat="45.23175" lon="4.28417">
        <ele>844.8</ele>
        <time>2023-03-29T13:23:22Z</time>
      </trkpt>
      <trkpt lat="45.23175" lon="4.28436">
        <ele>845.6</ele>
        <time>2023-03-29T13:23:26Z</time>
      </trkpt>
      <trkpt lat="45.23174" lon="4.2845">
        <ele>845.8</ele>
        <time>2023-03-29T13:23:29Z</time>
      </trkpt>
      <trkpt lat="45.23175" lon="4.28469">
        <ele>846</ele>
        <time>2023-03-29T13:23:33Z</time>
      </trkpt>
      <trkpt lat="45.23176" lon="4.28499">
        <ele>847</ele>
        <time>2023-03-29T13:23:39Z</time>
      </trkpt>
      <trkpt lat="45.23176" lon="4.28514">
        <ele>847.2</ele>
        <time>2023-03-29T13:23:42Z</time>
      </trkpt>
      <trkpt lat="45.23176" lon="4.28525">
        <ele>848</ele>
        <time>2023-03-29T13:23:44Z</time>
      </trkpt>
      <trkpt lat="45.23174" lon="4.2856">
        <ele>849.4</ele>
        <time>2023-03-29T13:23:50Z</time>
      </trkpt>
      <trkpt lat="45.23165" lon="4.28609">
        <ele>850.2</ele>
        <time>2023-03-29T13:23:58Z</time>
      </trkpt>
      <trkpt lat="45.23161" lon="4.28626">
        <ele>850.6</ele>
        <time>2023-03-29T13:24:01Z</time>
      </trkpt>
      <trkpt lat="45.23156" lon="4.28648">
        <ele>851</ele>
        <time>2023-03-29T13:24:05Z</time>
      </trkpt>
      <trkpt lat="45.23154" lon="4.28659">
        <ele>851.2</ele>
        <time>2023-03-29T13:24:07Z</time>
      </trkpt>
      <trkpt lat="45.23148" lon="4.28679">
        <ele>851.6</ele>
        <time>2023-03-29T13:24:11Z</time>
      </trkpt>
      <trkpt lat="45.23147" lon="4.28688">
        <ele>852</ele>
        <time>2023-03-29T13:24:13Z</time>
      </trkpt>
      <trkpt lat="45.23144" lon="4.28708">
        <ele>852.8</ele>
        <time>2023-03-29T13:24:17Z</time>
      </trkpt>
      <trkpt lat="45.23143" lon="4.28719">
        <ele>853.4</ele>
        <time>2023-03-29T13:24:19Z</time>
      </trkpt>
      <trkpt lat="45.23142" lon="4.2873">
        <ele>854</ele>
        <time>2023-03-29T13:24:21Z</time>
      </trkpt>
      <trkpt lat="45.23141" lon="4.28754">
        <ele>855</ele>
        <time>2023-03-29T13:24:25Z</time>
      </trkpt>
      <trkpt lat="45.23141" lon="4.2876">
        <ele>855.2</ele>
        <time>2023-03-29T13:24:26Z</time>
      </trkpt>
      <trkpt lat="45.23141" lon="4.28772">
        <ele>855.6</ele>
        <time>2023-03-29T13:24:28Z</time>
      </trkpt>
      <trkpt lat="45.23141" lon="4.28784">
        <ele>856</ele>
        <time>2023-03-29T13:24:30Z</time>
      </trkpt>
      <trkpt lat="45.23142" lon="4.28807">
        <ele>857</ele>
        <time>2023-03-29T13:24:34Z</time>
      </trkpt>
      <trkpt lat="45.23142" lon="4.28812">
        <ele>857.2</ele>
        <time>2023-03-29T13:24:35Z</time>
      </trkpt>
      <trkpt lat="45.23144" lon="4.28842">
        <ele>858.4</ele>
        <time>2023-03-29T13:24:40Z</time>
      </trkpt>
      <trkpt lat="45.23145" lon="4.28849">
        <ele>858.4</ele>
        <time>2023-03-29T13:24:41Z</time>
      </trkpt>
      <trkpt lat="45.23149" lon="4.28914">
        <ele>859</ele>
        <time>2023-03-29T13:24:51Z</time>
      </trkpt>
      <trkpt lat="45.23153" lon="4.28981">
        <ele>859</ele>
        <time>2023-03-29T13:25:01Z</time>
      </trkpt>
      <trkpt lat="45.23155" lon="4.2905">
        <ele>859</ele>
        <time>2023-03-29T13:25:10Z</time>
      </trkpt>
      <trkpt lat="45.23156" lon="4.29121">
        <ele>858.8</ele>
        <time>2023-03-29T13:25:19Z</time>
      </trkpt>
      <trkpt lat="45.23149" lon="4.29169">
        <ele>859.6</ele>
        <time>2023-03-29T13:25:26Z</time>
      </trkpt>
      <trkpt lat="45.23138" lon="4.29236">
        <ele>860.6</ele>
        <time>2023-03-29T13:25:36Z</time>
      </trkpt>
      <trkpt lat="45.23127" lon="4.2931">
        <ele>861</ele>
        <time>2023-03-29T13:25:46Z</time>
      </trkpt>
      <trkpt lat="45.23117" lon="4.29368">
        <ele>860.6</ele>
        <time>2023-03-29T13:25:54Z</time>
      </trkpt>
      <trkpt lat="45.23108" lon="4.2942">
        <ele>860.8</ele>
        <time>2023-03-29T13:26:02Z</time>
      </trkpt>
      <trkpt lat="45.23102" lon="4.29461">
        <ele>861.8</ele>
        <time>2023-03-29T13:26:09Z</time>
      </trkpt>
      <trkpt lat="45.23101" lon="4.29467">
        <ele>862</ele>
        <time>2023-03-29T13:26:10Z</time>
      </trkpt>
      <trkpt lat="45.23094" lon="4.29505">
        <ele>863</ele>
        <time>2023-03-29T13:26:16Z</time>
      </trkpt>
      <trkpt lat="45.23092" lon="4.29516">
        <ele>863.6</ele>
        <time>2023-03-29T13:26:18Z</time>
      </trkpt>
      <trkpt lat="45.23086" lon="4.29533">
        <ele>864.2</ele>
        <time>2023-03-29T13:26:21Z</time>
      </trkpt>
      <trkpt lat="45.23076" lon="4.29554">
        <ele>865.2</ele>
        <time>2023-03-29T13:26:25Z</time>
      </trkpt>
      <trkpt lat="45.23073" lon="4.29559">
        <ele>865.2</ele>
        <time>2023-03-29T13:26:26Z</time>
      </trkpt>
      <trkpt lat="45.23052" lon="4.29603">
        <ele>866</ele>
        <time>2023-03-29T13:26:34Z</time>
      </trkpt>
      <trkpt lat="45.23045" lon="4.29619">
        <ele>866.2</ele>
        <time>2023-03-29T13:26:37Z</time>
      </trkpt>
      <trkpt lat="45.23029" lon="4.29648">
        <ele>867.2</ele>
        <time>2023-03-29T13:26:43Z</time>
      </trkpt>
      <trkpt lat="45.23026" lon="4.29657">
        <ele>867.4</ele>
        <time>2023-03-29T13:26:45Z</time>
      </trkpt>
      <trkpt lat="45.23014" lon="4.29682">
        <ele>868.4</ele>
        <time>2023-03-29T13:26:50Z</time>
      </trkpt>
      <trkpt lat="45.23005" lon="4.29701">
        <ele>869.2</ele>
        <time>2023-03-29T13:26:54Z</time>
      </trkpt>
      <trkpt lat="45.23001" lon="4.29709">
        <ele>869.4</ele>
        <time>2023-03-29T13:26:56Z</time>
      </trkpt>
      <trkpt lat="45.23" lon="4.29712">
        <ele>869.8</ele>
        <time>2023-03-29T13:26:57Z</time>
      </trkpt>
      <trkpt lat="45.22994" lon="4.29724">
        <ele>870.4</ele>
        <time>2023-03-29T13:27:00Z</time>
      </trkpt>
      <trkpt lat="45.22988" lon="4.29736">
        <ele>871.4</ele>
        <time>2023-03-29T13:27:03Z</time>
      </trkpt>
      <trkpt lat="45.22986" lon="4.2974">
        <ele>871.6</ele>
        <time>2023-03-29T13:27:04Z</time>
      </trkpt>
      <trkpt lat="45.22982" lon="4.29749">
        <ele>872.6</ele>
        <time>2023-03-29T13:27:06Z</time>
      </trkpt>
      <trkpt lat="45.22976" lon="4.29763">
        <ele>873.8</ele>
        <time>2023-03-29T13:27:09Z</time>
      </trkpt>
      <trkpt lat="45.22965" lon="4.29788">
        <ele>874.6</ele>
        <time>2023-03-29T13:27:14Z</time>
      </trkpt>
      <trkpt lat="45.22952" lon="4.29834">
        <ele>874.6</ele>
        <time>2023-03-29T13:27:22Z</time>
      </trkpt>
      <trkpt lat="45.2295" lon="4.29847">
        <ele>874.8</ele>
        <time>2023-03-29T13:27:24Z</time>
      </trkpt>
      <trkpt lat="45.22946" lon="4.29887">
        <ele>875.2</ele>
        <time>2023-03-29T13:27:30Z</time>
      </trkpt>
      <trkpt lat="45.22948" lon="4.29933">
        <ele>875.6</ele>
        <time>2023-03-29T13:27:37Z</time>
      </trkpt>
      <trkpt lat="45.22954" lon="4.29988">
        <ele>875.8</ele>
        <time>2023-03-29T13:27:45Z</time>
      </trkpt>
      <trkpt lat="45.22961" lon="4.30054">
        <ele>875.8</ele>
        <time>2023-03-29T13:27:54Z</time>
      </trkpt>
      <trkpt lat="45.22961" lon="4.30071">
        <ele>875.6</ele>
        <time>2023-03-29T13:27:56Z</time>
      </trkpt>
      <trkpt lat="45.22959" lon="4.30089">
        <ele>875.8</ele>
        <time>2023-03-29T13:27:58Z</time>
      </trkpt>
      <trkpt lat="45.22957" lon="4.30098">
        <ele>875.8</ele>
        <time>2023-03-29T13:27:59Z</time>
      </trkpt>
      <trkpt lat="45.22939" lon="4.30161">
        <ele>875.4</ele>
        <time>2023-03-29T13:28:07Z</time>
      </trkpt>
      <trkpt lat="45.22929" lon="4.3022">
        <ele>875.4</ele>
        <time>2023-03-29T13:28:14Z</time>
      </trkpt>
      <trkpt lat="45.2293" lon="4.30228">
        <ele>875.4</ele>
        <time>2023-03-29T13:28:15Z</time>
      </trkpt>
      <trkpt lat="45.22932" lon="4.30269">
        <ele>875.8</ele>
        <time>2023-03-29T13:28:20Z</time>
      </trkpt>
      <trkpt lat="45.22933" lon="4.30329">
        <ele>876.6</ele>
        <time>2023-03-29T13:28:27Z</time>
      </trkpt>
      <trkpt lat="45.22922" lon="4.30383">
        <ele>876</ele>
        <time>2023-03-29T13:28:33Z</time>
      </trkpt>
      <trkpt lat="45.22917" lon="4.30399">
        <ele>875.4</ele>
        <time>2023-03-29T13:28:35Z</time>
      </trkpt>
      <trkpt lat="45.22899" lon="4.30452">
        <ele>875</ele>
        <time>2023-03-29T13:28:42Z</time>
      </trkpt>
      <trkpt lat="45.22872" lon="4.30507">
        <ele>875.2</ele>
        <time>2023-03-29T13:28:49Z</time>
      </trkpt>
      <trkpt lat="45.22866" lon="4.30527">
        <ele>875.2</ele>
        <time>2023-03-29T13:28:51Z</time>
      </trkpt>
      <trkpt lat="45.22863" lon="4.30549">
        <ele>875.2</ele>
        <time>2023-03-29T13:28:53Z</time>
      </trkpt>
      <trkpt lat="45.22862" lon="4.30571">
        <ele>874.6</ele>
        <time>2023-03-29T13:28:55Z</time>
      </trkpt>
      <trkpt lat="45.22864" lon="4.30594">
        <ele>873.4</ele>
        <time>2023-03-29T13:28:57Z</time>
      </trkpt>
      <trkpt lat="45.22867" lon="4.30606">
        <ele>873.2</ele>
        <time>2023-03-29T13:28:58Z</time>
      </trkpt>
      <trkpt lat="45.22872" lon="4.30631">
        <ele>872.6</ele>
        <time>2023-03-29T13:29:00Z</time>
      </trkpt>
      <trkpt lat="45.22876" lon="4.30643">
        <ele>871.6</ele>
        <time>2023-03-29T13:29:01Z</time>
      </trkpt>
      <trkpt lat="45.22884" lon="4.30668">
        <ele>871</ele>
        <time>2023-03-29T13:29:03Z</time>
      </trkpt>
      <trkpt lat="45.22889" lon="4.3068">
        <ele>870.6</ele>
        <time>2023-03-29T13:29:04Z</time>
      </trkpt>
      <trkpt lat="45.22897" lon="4.30707">
        <ele>869</ele>
        <time>2023-03-29T13:29:06Z</time>
      </trkpt>
      <trkpt lat="45.22898" lon="4.30721">
        <ele>869.2</ele>
        <time>2023-03-29T13:29:07Z</time>
      </trkpt>
      <trkpt lat="45.22897" lon="4.30736">
        <ele>868.4</ele>
        <time>2023-03-29T13:29:08Z</time>
      </trkpt>
      <trkpt lat="45.22894" lon="4.30751">
        <ele>868.2</ele>
        <time>2023-03-29T13:29:09Z</time>
      </trkpt>
      <trkpt lat="45.22889" lon="4.30766">
        <ele>867.4</ele>
        <time>2023-03-29T13:29:10Z</time>
      </trkpt>
      <trkpt lat="45.22884" lon="4.30779">
        <ele>867</ele>
        <time>2023-03-29T13:29:11Z</time>
      </trkpt>
      <trkpt lat="45.22878" lon="4.30792">
        <ele>866</ele>
        <time>2023-03-29T13:29:12Z</time>
      </trkpt>
      <trkpt lat="45.22871" lon="4.30805">
        <ele>865.6</ele>
        <time>2023-03-29T13:29:13Z</time>
      </trkpt>
      <trkpt lat="45.22862" lon="4.30817">
        <ele>864.6</ele>
        <time>2023-03-29T13:29:14Z</time>
      </trkpt>
      <trkpt lat="45.22853" lon="4.30826">
        <ele>863.6</ele>
        <time>2023-03-29T13:29:15Z</time>
      </trkpt>
      <trkpt lat="45.22831" lon="4.30834">
        <ele>861.8</ele>
        <time>2023-03-29T13:29:17Z</time>
      </trkpt>
      <trkpt lat="45.22808" lon="4.30834">
        <ele>860.2</ele>
        <time>2023-03-29T13:29:19Z</time>
      </trkpt>
      <trkpt lat="45.22784" lon="4.30837">
        <ele>858.8</ele>
        <time>2023-03-29T13:29:21Z</time>
      </trkpt>
      <trkpt lat="45.22773" lon="4.30836">
        <ele>858.6</ele>
        <time>2023-03-29T13:29:22Z</time>
      </trkpt>
      <trkpt lat="45.22751" lon="4.30826">
        <ele>857.6</ele>
        <time>2023-03-29T13:29:24Z</time>
      </trkpt>
      <trkpt lat="45.2274" lon="4.3082">
        <ele>857.2</ele>
        <time>2023-03-29T13:29:25Z</time>
      </trkpt>
      <trkpt lat="45.2273" lon="4.30813">
        <ele>856.4</ele>
        <time>2023-03-29T13:29:26Z</time>
      </trkpt>
      <trkpt lat="45.22709" lon="4.30801">
        <ele>855.6</ele>
        <time>2023-03-29T13:29:28Z</time>
      </trkpt>
      <trkpt lat="45.22698" lon="4.30797">
        <ele>855.2</ele>
        <time>2023-03-29T13:29:29Z</time>
      </trkpt>
      <trkpt lat="45.22687" lon="4.30796">
        <ele>854.8</ele>
        <time>2023-03-29T13:29:30Z</time>
      </trkpt>
      <trkpt lat="45.22665" lon="4.308">
        <ele>853.8</ele>
        <time>2023-03-29T13:29:32Z</time>
      </trkpt>
      <trkpt lat="45.22654" lon="4.30805">
        <ele>853.2</ele>
        <time>2023-03-29T13:29:33Z</time>
      </trkpt>
      <trkpt lat="45.22643" lon="4.30811">
        <ele>852.6</ele>
        <time>2023-03-29T13:29:34Z</time>
      </trkpt>
      <trkpt lat="45.22633" lon="4.30817">
        <ele>851.6</ele>
        <time>2023-03-29T13:29:35Z</time>
      </trkpt>
      <trkpt lat="45.22612" lon="4.30833">
        <ele>850.4</ele>
        <time>2023-03-29T13:29:37Z</time>
      </trkpt>
      <trkpt lat="45.22603" lon="4.30842">
        <ele>850</ele>
        <time>2023-03-29T13:29:38Z</time>
      </trkpt>
      <trkpt lat="45.22595" lon="4.30853">
        <ele>849.2</ele>
        <time>2023-03-29T13:29:39Z</time>
      </trkpt>
      <trkpt lat="45.22587" lon="4.30865">
        <ele>848.6</ele>
        <time>2023-03-29T13:29:40Z</time>
      </trkpt>
      <trkpt lat="45.22575" lon="4.30893">
        <ele>847.8</ele>
        <time>2023-03-29T13:29:42Z</time>
      </trkpt>
      <trkpt lat="45.22571" lon="4.30909">
        <ele>847.2</ele>
        <time>2023-03-29T13:29:43Z</time>
      </trkpt>
      <trkpt lat="45.22567" lon="4.30926">
        <ele>846.8</ele>
        <time>2023-03-29T13:29:44Z</time>
      </trkpt>
      <trkpt lat="45.2256" lon="4.30958">
        <ele>845.2</ele>
        <time>2023-03-29T13:29:46Z</time>
      </trkpt>
      <trkpt lat="45.2255" lon="4.30991">
        <ele>844.2</ele>
        <time>2023-03-29T13:29:48Z</time>
      </trkpt>
      <trkpt lat="45.22542" lon="4.31024">
        <ele>843</ele>
        <time>2023-03-29T13:29:50Z</time>
      </trkpt>
      <trkpt lat="45.22536" lon="4.31056">
        <ele>841.6</ele>
        <time>2023-03-29T13:29:52Z</time>
      </trkpt>
      <trkpt lat="45.22528" lon="4.31087">
        <ele>840.6</ele>
        <time>2023-03-29T13:29:54Z</time>
      </trkpt>
      <trkpt lat="45.22522" lon="4.31102">
        <ele>839.6</ele>
        <time>2023-03-29T13:29:55Z</time>
      </trkpt>
      <trkpt lat="45.22515" lon="4.31116">
        <ele>839.4</ele>
        <time>2023-03-29T13:29:56Z</time>
      </trkpt>
      <trkpt lat="45.22501" lon="4.31143">
        <ele>837.4</ele>
        <time>2023-03-29T13:29:58Z</time>
      </trkpt>
      <trkpt lat="45.22488" lon="4.31172">
        <ele>836.4</ele>
        <time>2023-03-29T13:30:00Z</time>
      </trkpt>
      <trkpt lat="45.22483" lon="4.31187">
        <ele>836.2</ele>
        <time>2023-03-29T13:30:01Z</time>
      </trkpt>
      <trkpt lat="45.22479" lon="4.31202">
        <ele>835.4</ele>
        <time>2023-03-29T13:30:02Z</time>
      </trkpt>
      <trkpt lat="45.22475" lon="4.31217">
        <ele>835</ele>
        <time>2023-03-29T13:30:03Z</time>
      </trkpt>
      <trkpt lat="45.22467" lon="4.31249">
        <ele>833.8</ele>
        <time>2023-03-29T13:30:05Z</time>
      </trkpt>
      <trkpt lat="45.22464" lon="4.31266">
        <ele>832.8</ele>
        <time>2023-03-29T13:30:06Z</time>
      </trkpt>
      <trkpt lat="45.22461" lon="4.31282">
        <ele>831.8</ele>
        <time>2023-03-29T13:30:07Z</time>
      </trkpt>
      <trkpt lat="45.22458" lon="4.31298">
        <ele>831.4</ele>
        <time>2023-03-29T13:30:08Z</time>
      </trkpt>
      <trkpt lat="45.22452" lon="4.3133">
        <ele>830.2</ele>
        <time>2023-03-29T13:30:10Z</time>
      </trkpt>
      <trkpt lat="45.22448" lon="4.31346">
        <ele>829.4</ele>
        <time>2023-03-29T13:30:11Z</time>
      </trkpt>
      <trkpt lat="45.22443" lon="4.31361">
        <ele>829</ele>
        <time>2023-03-29T13:30:12Z</time>
      </trkpt>
      <trkpt lat="45.22437" lon="4.31375">
        <ele>827.8</ele>
        <time>2023-03-29T13:30:13Z</time>
      </trkpt>
      <trkpt lat="45.22423" lon="4.314">
        <ele>826.6</ele>
        <time>2023-03-29T13:30:15Z</time>
      </trkpt>
      <trkpt lat="45.22417" lon="4.31411">
        <ele>825.6</ele>
        <time>2023-03-29T13:30:16Z</time>
      </trkpt>
      <trkpt lat="45.22413" lon="4.31423">
        <ele>825.2</ele>
        <time>2023-03-29T13:30:17Z</time>
      </trkpt>
      <trkpt lat="45.22412" lon="4.31436">
        <ele>824.2</ele>
        <time>2023-03-29T13:30:18Z</time>
      </trkpt>
      <trkpt lat="45.2242" lon="4.31458">
        <ele>823</ele>
        <time>2023-03-29T13:30:20Z</time>
      </trkpt>
      <trkpt lat="45.22435" lon="4.31473">
        <ele>822.2</ele>
        <time>2023-03-29T13:30:22Z</time>
      </trkpt>
      <trkpt lat="45.22444" lon="4.31479">
        <ele>821.8</ele>
        <time>2023-03-29T13:30:23Z</time>
      </trkpt>
      <trkpt lat="45.22462" lon="4.31492">
        <ele>820.6</ele>
        <time>2023-03-29T13:30:25Z</time>
      </trkpt>
      <trkpt lat="45.2249" lon="4.31512">
        <ele>819.4</ele>
        <time>2023-03-29T13:30:28Z</time>
      </trkpt>
      <trkpt lat="45.22499" lon="4.31518">
        <ele>819</ele>
        <time>2023-03-29T13:30:29Z</time>
      </trkpt>
      <trkpt lat="45.2252" lon="4.3153">
        <ele>818.2</ele>
        <time>2023-03-29T13:30:31Z</time>
      </trkpt>
      <trkpt lat="45.22541" lon="4.31541">
        <ele>817</ele>
        <time>2023-03-29T13:30:33Z</time>
      </trkpt>
      <trkpt lat="45.22551" lon="4.31547">
        <ele>816.4</ele>
        <time>2023-03-29T13:30:34Z</time>
      </trkpt>
      <trkpt lat="45.22561" lon="4.31553">
        <ele>815.8</ele>
        <time>2023-03-29T13:30:35Z</time>
      </trkpt>
      <trkpt lat="45.22572" lon="4.31559">
        <ele>815.2</ele>
        <time>2023-03-29T13:30:36Z</time>
      </trkpt>
      <trkpt lat="45.22583" lon="4.31564">
        <ele>814.8</ele>
        <time>2023-03-29T13:30:37Z</time>
      </trkpt>
      <trkpt lat="45.22594" lon="4.31564">
        <ele>814.4</ele>
        <time>2023-03-29T13:30:38Z</time>
      </trkpt>
      <trkpt lat="45.22615" lon="4.31554">
        <ele>813.6</ele>
        <time>2023-03-29T13:30:40Z</time>
      </trkpt>
      <trkpt lat="45.22632" lon="4.31533">
        <ele>812.4</ele>
        <time>2023-03-29T13:30:42Z</time>
      </trkpt>
      <trkpt lat="45.2264" lon="4.31525">
        <ele>811.6</ele>
        <time>2023-03-29T13:30:43Z</time>
      </trkpt>
      <trkpt lat="45.22649" lon="4.31521">
        <ele>811.4</ele>
        <time>2023-03-29T13:30:44Z</time>
      </trkpt>
      <trkpt lat="45.22657" lon="4.31521">
        <ele>810.2</ele>
        <time>2023-03-29T13:30:45Z</time>
      </trkpt>
      <trkpt lat="45.22664" lon="4.31526">
        <ele>810</ele>
        <time>2023-03-29T13:30:46Z</time>
      </trkpt>
      <trkpt lat="45.22671" lon="4.31532">
        <ele>809.2</ele>
        <time>2023-03-29T13:30:47Z</time>
      </trkpt>
      <trkpt lat="45.22675" lon="4.31542">
        <ele>808.8</ele>
        <time>2023-03-29T13:30:48Z</time>
      </trkpt>
      <trkpt lat="45.22675" lon="4.31554">
        <ele>808</ele>
        <time>2023-03-29T13:30:49Z</time>
      </trkpt>
      <trkpt lat="45.22673" lon="4.31567">
        <ele>806.8</ele>
        <time>2023-03-29T13:30:50Z</time>
      </trkpt>
      <trkpt lat="45.22669" lon="4.31591">
        <ele>805.8</ele>
        <time>2023-03-29T13:30:52Z</time>
      </trkpt>
      <trkpt lat="45.22664" lon="4.31629">
        <ele>804.8</ele>
        <time>2023-03-29T13:30:55Z</time>
      </trkpt>
      <trkpt lat="45.22658" lon="4.31655">
        <ele>804</ele>
        <time>2023-03-29T13:30:57Z</time>
      </trkpt>
      <trkpt lat="45.22654" lon="4.31668">
        <ele>803.6</ele>
        <time>2023-03-29T13:30:58Z</time>
      </trkpt>
      <trkpt lat="45.22644" lon="4.31693">
        <ele>802.8</ele>
        <time>2023-03-29T13:31:00Z</time>
      </trkpt>
      <trkpt lat="45.22637" lon="4.31704">
        <ele>801.8</ele>
        <time>2023-03-29T13:31:01Z</time>
      </trkpt>
      <trkpt lat="45.22615" lon="4.31731">
        <ele>800.6</ele>
        <time>2023-03-29T13:31:04Z</time>
      </trkpt>
      <trkpt lat="45.2261" lon="4.31741">
        <ele>799</ele>
        <time>2023-03-29T13:31:05Z</time>
      </trkpt>
      <trkpt lat="45.22607" lon="4.31751">
        <ele>798</ele>
        <time>2023-03-29T13:31:06Z</time>
      </trkpt>
      <trkpt lat="45.22607" lon="4.31762">
        <ele>797.2</ele>
        <time>2023-03-29T13:31:07Z</time>
      </trkpt>
      <trkpt lat="45.22608" lon="4.31774">
        <ele>796.6</ele>
        <time>2023-03-29T13:31:08Z</time>
      </trkpt>
      <trkpt lat="45.2261" lon="4.31801">
        <ele>795.8</ele>
        <time>2023-03-29T13:31:10Z</time>
      </trkpt>
      <trkpt lat="45.22602" lon="4.31827">
        <ele>794.8</ele>
        <time>2023-03-29T13:31:12Z</time>
      </trkpt>
      <trkpt lat="45.22588" lon="4.31845">
        <ele>794</ele>
        <time>2023-03-29T13:31:14Z</time>
      </trkpt>
      <trkpt lat="45.2258" lon="4.31852">
        <ele>793.6</ele>
        <time>2023-03-29T13:31:15Z</time>
      </trkpt>
      <trkpt lat="45.22572" lon="4.31857">
        <ele>792.8</ele>
        <time>2023-03-29T13:31:16Z</time>
      </trkpt>
      <trkpt lat="45.22556" lon="4.31854">
        <ele>791.6</ele>
        <time>2023-03-29T13:31:18Z</time>
      </trkpt>
      <trkpt lat="45.22546" lon="4.31836">
        <ele>790.8</ele>
        <time>2023-03-29T13:31:20Z</time>
      </trkpt>
      <trkpt lat="45.22528" lon="4.31798">
        <ele>790.8</ele>
        <time>2023-03-29T13:31:24Z</time>
      </trkpt>
      <trkpt lat="45.22522" lon="4.31789">
        <ele>790.8</ele>
        <time>2023-03-29T13:31:25Z</time>
      </trkpt>
      <trkpt lat="45.22491" lon="4.31744">
        <ele>791</ele>
        <time>2023-03-29T13:31:31Z</time>
      </trkpt>
      <trkpt lat="45.22476" lon="4.3172">
        <ele>791.2</ele>
        <time>2023-03-29T13:31:34Z</time>
      </trkpt>
      <trkpt lat="45.2247" lon="4.31714">
        <ele>791.2</ele>
        <time>2023-03-29T13:31:35Z</time>
      </trkpt>
      <trkpt lat="45.22463" lon="4.3171">
        <ele>791.2</ele>
        <time>2023-03-29T13:31:36Z</time>
      </trkpt>
      <trkpt lat="45.22448" lon="4.31705">
        <ele>791.2</ele>
        <time>2023-03-29T13:31:38Z</time>
      </trkpt>
      <trkpt lat="45.22433" lon="4.31704">
        <ele>791.2</ele>
        <time>2023-03-29T13:31:40Z</time>
      </trkpt>
      <trkpt lat="45.2241" lon="4.31707">
        <ele>791</ele>
        <time>2023-03-29T13:31:43Z</time>
      </trkpt>
      <trkpt lat="45.22352" lon="4.31725">
        <ele>790.8</ele>
        <time>2023-03-29T13:31:51Z</time>
      </trkpt>
      <trkpt lat="45.22296" lon="4.31748">
        <ele>790.6</ele>
        <time>2023-03-29T13:31:59Z</time>
      </trkpt>
      <trkpt lat="45.22275" lon="4.3176">
        <ele>790.4</ele>
        <time>2023-03-29T13:32:02Z</time>
      </trkpt>
      <trkpt lat="45.22263" lon="4.31771">
        <ele>790.2</ele>
        <time>2023-03-29T13:32:04Z</time>
      </trkpt>
      <trkpt lat="45.22238" lon="4.31794">
        <ele>789.8</ele>
        <time>2023-03-29T13:32:08Z</time>
      </trkpt>
      <trkpt lat="45.22226" lon="4.318">
        <ele>789.8</ele>
        <time>2023-03-29T13:32:10Z</time>
      </trkpt>
      <trkpt lat="45.22188" lon="4.31821">
        <ele>790</ele>
        <time>2023-03-29T13:32:16Z</time>
      </trkpt>
      <trkpt lat="45.22178" lon="4.31832">
        <ele>790.2</ele>
        <time>2023-03-29T13:32:18Z</time>
      </trkpt>
      <trkpt lat="45.2217" lon="4.31845">
        <ele>790.2</ele>
        <time>2023-03-29T13:32:20Z</time>
      </trkpt>
      <trkpt lat="45.22143" lon="4.3189">
        <ele>789.8</ele>
        <time>2023-03-29T13:32:27Z</time>
      </trkpt>
      <trkpt lat="45.22128" lon="4.31915">
        <ele>789</ele>
        <time>2023-03-29T13:32:31Z</time>
      </trkpt>
      <trkpt lat="45.22121" lon="4.31928">
        <ele>788.8</ele>
        <time>2023-03-29T13:32:33Z</time>
      </trkpt>
      <trkpt lat="45.22114" lon="4.31941">
        <ele>788.8</ele>
        <time>2023-03-29T13:32:35Z</time>
      </trkpt>
      <trkpt lat="45.22091" lon="4.31989">
        <ele>789</ele>
        <time>2023-03-29T13:32:42Z</time>
      </trkpt>
      <trkpt lat="45.22075" lon="4.32047">
        <ele>788.6</ele>
        <time>2023-03-29T13:32:49Z</time>
      </trkpt>
      <trkpt lat="45.22073" lon="4.32055">
        <ele>788.6</ele>
        <time>2023-03-29T13:32:50Z</time>
      </trkpt>
      <trkpt lat="45.22069" lon="4.321">
        <ele>788.2</ele>
        <time>2023-03-29T13:32:55Z</time>
      </trkpt>
      <trkpt lat="45.22067" lon="4.32128">
        <ele>788</ele>
        <time>2023-03-29T13:32:58Z</time>
      </trkpt>
      <trkpt lat="45.22064" lon="4.32182">
        <ele>788.2</ele>
        <time>2023-03-29T13:33:04Z</time>
      </trkpt>
      <trkpt lat="45.22059" lon="4.32254">
        <ele>788.2</ele>
        <time>2023-03-29T13:33:12Z</time>
      </trkpt>
      <trkpt lat="45.22057" lon="4.32319">
        <ele>788.4</ele>
        <time>2023-03-29T13:33:19Z</time>
      </trkpt>
      <trkpt lat="45.22057" lon="4.32396">
        <ele>788.6</ele>
        <time>2023-03-29T13:33:27Z</time>
      </trkpt>
      <trkpt lat="45.22058" lon="4.32406">
        <ele>788.6</ele>
        <time>2023-03-29T13:33:28Z</time>
      </trkpt>
      <trkpt lat="45.22059" lon="4.32462">
        <ele>787.6</ele>
        <time>2023-03-29T13:33:34Z</time>
      </trkpt>
      <trkpt lat="45.22058" lon="4.32482">
        <ele>787.4</ele>
        <time>2023-03-29T13:33:36Z</time>
      </trkpt>
      <trkpt lat="45.22057" lon="4.32506">
        <ele>787.2</ele>
        <time>2023-03-29T13:33:38Z</time>
      </trkpt>
      <trkpt lat="45.22052" lon="4.32546">
        <ele>786</ele>
        <time>2023-03-29T13:33:41Z</time>
      </trkpt>
      <trkpt lat="45.22046" lon="4.32574">
        <ele>784.6</ele>
        <time>2023-03-29T13:33:43Z</time>
      </trkpt>
      <trkpt lat="45.22042" lon="4.32587">
        <ele>784</ele>
        <time>2023-03-29T13:33:44Z</time>
      </trkpt>
      <trkpt lat="45.22036" lon="4.326">
        <ele>783</ele>
        <time>2023-03-29T13:33:45Z</time>
      </trkpt>
      <trkpt lat="45.22024" lon="4.32626">
        <ele>781.6</ele>
        <time>2023-03-29T13:33:47Z</time>
      </trkpt>
      <trkpt lat="45.22017" lon="4.3264">
        <ele>780.6</ele>
        <time>2023-03-29T13:33:48Z</time>
      </trkpt>
      <trkpt lat="45.22013" lon="4.32655">
        <ele>780</ele>
        <time>2023-03-29T13:33:49Z</time>
      </trkpt>
      <trkpt lat="45.22009" lon="4.32671">
        <ele>779.2</ele>
        <time>2023-03-29T13:33:50Z</time>
      </trkpt>
      <trkpt lat="45.22007" lon="4.32686">
        <ele>778.6</ele>
        <time>2023-03-29T13:33:51Z</time>
      </trkpt>
      <trkpt lat="45.22006" lon="4.32702">
        <ele>777.8</ele>
        <time>2023-03-29T13:33:52Z</time>
      </trkpt>
      <trkpt lat="45.22006" lon="4.32718">
        <ele>776.2</ele>
        <time>2023-03-29T13:33:53Z</time>
      </trkpt>
      <trkpt lat="45.22006" lon="4.3275">
        <ele>775</ele>
        <time>2023-03-29T13:33:55Z</time>
      </trkpt>
      <trkpt lat="45.22006" lon="4.32781">
        <ele>774</ele>
        <time>2023-03-29T13:33:57Z</time>
      </trkpt>
      <trkpt lat="45.22007" lon="4.32797">
        <ele>773.4</ele>
        <time>2023-03-29T13:33:58Z</time>
      </trkpt>
      <trkpt lat="45.22009" lon="4.32813">
        <ele>772.8</ele>
        <time>2023-03-29T13:33:59Z</time>
      </trkpt>
      <trkpt lat="45.22015" lon="4.32844">
        <ele>771.4</ele>
        <time>2023-03-29T13:34:01Z</time>
      </trkpt>
      <trkpt lat="45.22019" lon="4.32859">
        <ele>770.4</ele>
        <time>2023-03-29T13:34:02Z</time>
      </trkpt>
      <trkpt lat="45.22022" lon="4.32874">
        <ele>770</ele>
        <time>2023-03-29T13:34:03Z</time>
      </trkpt>
      <trkpt lat="45.22025" lon="4.32888">
        <ele>769</ele>
        <time>2023-03-29T13:34:04Z</time>
      </trkpt>
      <trkpt lat="45.22027" lon="4.32903">
        <ele>768.4</ele>
        <time>2023-03-29T13:34:05Z</time>
      </trkpt>
      <trkpt lat="45.22029" lon="4.32917">
        <ele>767.6</ele>
        <time>2023-03-29T13:34:06Z</time>
      </trkpt>
      <trkpt lat="45.2203" lon="4.32931">
        <ele>767</ele>
        <time>2023-03-29T13:34:07Z</time>
      </trkpt>
      <trkpt lat="45.22031" lon="4.32945">
        <ele>766</ele>
        <time>2023-03-29T13:34:08Z</time>
      </trkpt>
      <trkpt lat="45.22036" lon="4.32986">
        <ele>765</ele>
        <time>2023-03-29T13:34:11Z</time>
      </trkpt>
      <trkpt lat="45.22041" lon="4.33013">
        <ele>764.2</ele>
        <time>2023-03-29T13:34:13Z</time>
      </trkpt>
      <trkpt lat="45.22044" lon="4.33026">
        <ele>763.8</ele>
        <time>2023-03-29T13:34:14Z</time>
      </trkpt>
      <trkpt lat="45.22053" lon="4.33078">
        <ele>762.8</ele>
        <time>2023-03-29T13:34:18Z</time>
      </trkpt>
      <trkpt lat="45.22056" lon="4.33103">
        <ele>762</ele>
        <time>2023-03-29T13:34:20Z</time>
      </trkpt>
      <trkpt lat="45.22052" lon="4.33128">
        <ele>761.6</ele>
        <time>2023-03-29T13:34:22Z</time>
      </trkpt>
      <trkpt lat="45.22047" lon="4.33138">
        <ele>761.2</ele>
        <time>2023-03-29T13:34:23Z</time>
      </trkpt>
      <trkpt lat="45.22039" lon="4.33146">
        <ele>760.6</ele>
        <time>2023-03-29T13:34:24Z</time>
      </trkpt>
      <trkpt lat="45.22021" lon="4.33161">
        <ele>760</ele>
        <time>2023-03-29T13:34:26Z</time>
      </trkpt>
      <trkpt lat="45.22002" lon="4.33177">
        <ele>759.6</ele>
        <time>2023-03-29T13:34:28Z</time>
      </trkpt>
      <trkpt lat="45.21982" lon="4.33195">
        <ele>758.2</ele>
        <time>2023-03-29T13:34:30Z</time>
      </trkpt>
      <trkpt lat="45.21962" lon="4.33214">
        <ele>757</ele>
        <time>2023-03-29T13:34:32Z</time>
      </trkpt>
      <trkpt lat="45.21953" lon="4.33222">
        <ele>755.6</ele>
        <time>2023-03-29T13:34:33Z</time>
      </trkpt>
      <trkpt lat="45.21936" lon="4.33237">
        <ele>753.8</ele>
        <time>2023-03-29T13:34:35Z</time>
      </trkpt>
      <trkpt lat="45.21929" lon="4.33243">
        <ele>753.4</ele>
        <time>2023-03-29T13:34:36Z</time>
      </trkpt>
      <trkpt lat="45.21914" lon="4.33255">
        <ele>752.6</ele>
        <time>2023-03-29T13:34:38Z</time>
      </trkpt>
      <trkpt lat="45.21908" lon="4.33261">
        <ele>752.6</ele>
        <time>2023-03-29T13:34:39Z</time>
      </trkpt>
      <trkpt lat="45.21903" lon="4.33267">
        <ele>752.6</ele>
        <time>2023-03-29T13:34:40Z</time>
      </trkpt>
      <trkpt lat="45.21894" lon="4.33281">
        <ele>752.8</ele>
        <time>2023-03-29T13:34:42Z</time>
      </trkpt>
      <trkpt lat="45.21887" lon="4.33296">
        <ele>753.2</ele>
        <time>2023-03-29T13:34:44Z</time>
      </trkpt>
      <trkpt lat="45.21882" lon="4.33312">
        <ele>753.8</ele>
        <time>2023-03-29T13:34:46Z</time>
      </trkpt>
      <trkpt lat="45.2188" lon="4.33329">
        <ele>754.2</ele>
        <time>2023-03-29T13:34:48Z</time>
      </trkpt>
      <trkpt lat="45.21881" lon="4.33352">
        <ele>755</ele>
        <time>2023-03-29T13:34:51Z</time>
      </trkpt>
      <trkpt lat="45.21881" lon="4.33377">
        <ele>755.4</ele>
        <time>2023-03-29T13:34:54Z</time>
      </trkpt>
      <trkpt lat="45.21887" lon="4.33449">
        <ele>756</ele>
        <time>2023-03-29T13:35:03Z</time>
      </trkpt>
      <trkpt lat="45.21885" lon="4.33479">
        <ele>756.4</ele>
        <time>2023-03-29T13:35:07Z</time>
      </trkpt>
      <trkpt lat="45.21884" lon="4.33509">
        <ele>757</ele>
        <time>2023-03-29T13:35:11Z</time>
      </trkpt>
      <trkpt lat="45.2188" lon="4.33549">
        <ele>757.4</ele>
        <time>2023-03-29T13:35:16Z</time>
      </trkpt>
      <trkpt lat="45.21876" lon="4.33614">
        <ele>757.4</ele>
        <time>2023-03-29T13:35:24Z</time>
      </trkpt>
      <trkpt lat="45.21875" lon="4.33661">
        <ele>758</ele>
        <time>2023-03-29T13:35:30Z</time>
      </trkpt>
      <trkpt lat="45.21875" lon="4.3368">
        <ele>758.2</ele>
        <time>2023-03-29T13:35:32Z</time>
      </trkpt>
      <trkpt lat="45.21874" lon="4.33742">
        <ele>758.2</ele>
        <time>2023-03-29T13:35:39Z</time>
      </trkpt>
      <trkpt lat="45.21872" lon="4.33814">
        <ele>757.6</ele>
        <time>2023-03-29T13:35:48Z</time>
      </trkpt>
      <trkpt lat="45.2187" lon="4.33865">
        <ele>758.4</ele>
        <time>2023-03-29T13:35:55Z</time>
      </trkpt>
      <trkpt lat="45.2187" lon="4.33881">
        <ele>758.4</ele>
        <time>2023-03-29T13:35:57Z</time>
      </trkpt>
      <trkpt lat="45.21868" lon="4.33934">
        <ele>759.2</ele>
        <time>2023-03-29T13:36:04Z</time>
      </trkpt>
      <trkpt lat="45.21869" lon="4.33942">
        <ele>759.2</ele>
        <time>2023-03-29T13:36:05Z</time>
      </trkpt>
      <trkpt lat="45.21866" lon="4.33995">
        <ele>759.6</ele>
        <time>2023-03-29T13:36:12Z</time>
      </trkpt>
      <trkpt lat="45.21857" lon="4.34038">
        <ele>760</ele>
        <time>2023-03-29T13:36:18Z</time>
      </trkpt>
      <trkpt lat="45.21854" lon="4.34044">
        <ele>760</ele>
        <time>2023-03-29T13:36:19Z</time>
      </trkpt>
      <trkpt lat="45.21847" lon="4.34057">
        <ele>760.4</ele>
        <time>2023-03-29T13:36:21Z</time>
      </trkpt>
      <trkpt lat="45.2184" lon="4.34067">
        <ele>760.6</ele>
        <time>2023-03-29T13:36:23Z</time>
      </trkpt>
      <trkpt lat="45.21836" lon="4.34071">
        <ele>760.6</ele>
        <time>2023-03-29T13:36:24Z</time>
      </trkpt>
      <trkpt lat="45.21829" lon="4.34075">
        <ele>760.8</ele>
        <time>2023-03-29T13:36:26Z</time>
      </trkpt>
      <trkpt lat="45.21824" lon="4.34076">
        <ele>760.8</ele>
        <time>2023-03-29T13:36:27Z</time>
      </trkpt>
      <trkpt lat="45.21819" lon="4.34079">
        <ele>761</ele>
        <time>2023-03-29T13:36:29Z</time>
      </trkpt>
      <trkpt lat="45.21818" lon="4.34081">
        <ele>761.6</ele>
        <time>2023-03-29T13:36:31Z</time>
      </trkpt>
      <trkpt lat="45.21818" lon="4.34081">
        <ele>762.6</ele>
        <time>2023-03-29T13:36:38Z</time>
      </trkpt>
      <trkpt lat="45.21818" lon="4.34081">
        <ele>762.8</ele>
        <time>2023-03-29T13:36:40Z</time>
      </trkpt>
      <trkpt lat="45.21818" lon="4.34081">
        <ele>762.6</ele>
        <time>2023-03-29T13:36:53Z</time>
      </trkpt>
      <trkpt lat="45.21818" lon="4.34081">
        <ele>762.6</ele>
        <time>2023-03-29T13:37:30Z</time>
      </trkpt>
      <trkpt lat="45.21817" lon="4.34085">
        <ele>762.2</ele>
        <time>2023-03-29T13:37:51Z</time>
      </trkpt>
      <trkpt lat="45.21815" lon="4.34087">
        <ele>762.2</ele>
        <time>2023-03-29T13:37:53Z</time>
      </trkpt>
      <trkpt lat="45.2181" lon="4.34091">
        <ele>762.4</ele>
        <time>2023-03-29T13:37:57Z</time>
      </trkpt>
      <trkpt lat="45.218" lon="4.34097">
        <ele>762.8</ele>
        <time>2023-03-29T13:38:03Z</time>
      </trkpt>
      <trkpt lat="45.21796" lon="4.34099">
        <ele>763</ele>
        <time>2023-03-29T13:38:05Z</time>
      </trkpt>
      <trkpt lat="45.21782" lon="4.34114">
        <ele>763.6</ele>
        <time>2023-03-29T13:38:12Z</time>
      </trkpt>
      <trkpt lat="45.21779" lon="4.34117">
        <ele>763.8</ele>
        <time>2023-03-29T13:38:13Z</time>
      </trkpt>
      <trkpt lat="45.21769" lon="4.34135">
        <ele>765</ele>
        <time>2023-03-29T13:38:18Z</time>
      </trkpt>
      <trkpt lat="45.21765" lon="4.34142">
        <ele>765.4</ele>
        <time>2023-03-29T13:38:20Z</time>
      </trkpt>
      <trkpt lat="45.21762" lon="4.3415">
        <ele>766</ele>
        <time>2023-03-29T13:38:22Z</time>
      </trkpt>
      <trkpt lat="45.21758" lon="4.34166">
        <ele>767</ele>
        <time>2023-03-29T13:38:26Z</time>
      </trkpt>
      <trkpt lat="45.21757" lon="4.3417">
        <ele>767.4</ele>
        <time>2023-03-29T13:38:27Z</time>
      </trkpt>
      <trkpt lat="45.21754" lon="4.34182">
        <ele>768.2</ele>
        <time>2023-03-29T13:38:30Z</time>
      </trkpt>
      <trkpt lat="45.21749" lon="4.34193">
        <ele>769.4</ele>
        <time>2023-03-29T13:38:33Z</time>
      </trkpt>
      <trkpt lat="45.21745" lon="4.34202">
        <ele>770.2</ele>
        <time>2023-03-29T13:38:36Z</time>
      </trkpt>
      <trkpt lat="45.21743" lon="4.34204">
        <ele>770.4</ele>
        <time>2023-03-29T13:38:37Z</time>
      </trkpt>
      <trkpt lat="45.21738" lon="4.34216">
        <ele>771.6</ele>
        <time>2023-03-29T13:38:41Z</time>
      </trkpt>
      <trkpt lat="45.21736" lon="4.34219">
        <ele>772.2</ele>
        <time>2023-03-29T13:38:42Z</time>
      </trkpt>
      <trkpt lat="45.21735" lon="4.34222">
        <ele>772.8</ele>
        <time>2023-03-29T13:38:43Z</time>
      </trkpt>
      <trkpt lat="45.2173" lon="4.34236">
        <ele>773.8</ele>
        <time>2023-03-29T13:38:47Z</time>
      </trkpt>
      <trkpt lat="45.21728" lon="4.3424">
        <ele>774</ele>
        <time>2023-03-29T13:38:48Z</time>
      </trkpt>
      <trkpt lat="45.21723" lon="4.34251">
        <ele>775</ele>
        <time>2023-03-29T13:38:51Z</time>
      </trkpt>
      <trkpt lat="45.2172" lon="4.3426">
        <ele>776</ele>
        <time>2023-03-29T13:38:54Z</time>
      </trkpt>
      <trkpt lat="45.21715" lon="4.34269">
        <ele>777.2</ele>
        <time>2023-03-29T13:38:57Z</time>
      </trkpt>
      <trkpt lat="45.21713" lon="4.34275">
        <ele>777.8</ele>
        <time>2023-03-29T13:38:59Z</time>
      </trkpt>
      <trkpt lat="45.2171" lon="4.34281">
        <ele>778.4</ele>
        <time>2023-03-29T13:39:01Z</time>
      </trkpt>
      <trkpt lat="45.21709" lon="4.34284">
        <ele>778.8</ele>
        <time>2023-03-29T13:39:02Z</time>
      </trkpt>
      <trkpt lat="45.21702" lon="4.34297">
        <ele>779.6</ele>
        <time>2023-03-29T13:39:06Z</time>
      </trkpt>
      <trkpt lat="45.21694" lon="4.34308">
        <ele>780.8</ele>
        <time>2023-03-29T13:39:10Z</time>
      </trkpt>
      <trkpt lat="45.21679" lon="4.34332">
        <ele>781.4</ele>
        <time>2023-03-29T13:39:16Z</time>
      </trkpt>
      <trkpt lat="45.21673" lon="4.34348">
        <ele>781.4</ele>
        <time>2023-03-29T13:39:19Z</time>
      </trkpt>
      <trkpt lat="45.2167" lon="4.3435">
        <ele>781.2</ele>
        <time>2023-03-29T13:39:20Z</time>
      </trkpt>
      <trkpt lat="45.21653" lon="4.34356">
        <ele>781</ele>
        <time>2023-03-29T13:39:25Z</time>
      </trkpt>
      <trkpt lat="45.21636" lon="4.34362">
        <ele>782</ele>
        <time>2023-03-29T13:39:31Z</time>
      </trkpt>
      <trkpt lat="45.21624" lon="4.34369">
        <ele>783</ele>
        <time>2023-03-29T13:39:35Z</time>
      </trkpt>
      <trkpt lat="45.21619" lon="4.34373">
        <ele>783.6</ele>
        <time>2023-03-29T13:39:37Z</time>
      </trkpt>
      <trkpt lat="45.21613" lon="4.34375">
        <ele>784.2</ele>
        <time>2023-03-29T13:39:39Z</time>
      </trkpt>
      <trkpt lat="45.21599" lon="4.34384">
        <ele>785.2</ele>
        <time>2023-03-29T13:39:44Z</time>
      </trkpt>
      <trkpt lat="45.21585" lon="4.34393">
        <ele>786.2</ele>
        <time>2023-03-29T13:39:49Z</time>
      </trkpt>
      <trkpt lat="45.21582" lon="4.34393">
        <ele>786.4</ele>
        <time>2023-03-29T13:39:50Z</time>
      </trkpt>
      <trkpt lat="45.21571" lon="4.34398">
        <ele>787.2</ele>
        <time>2023-03-29T13:39:54Z</time>
      </trkpt>
      <trkpt lat="45.21562" lon="4.34403">
        <ele>788.2</ele>
        <time>2023-03-29T13:39:57Z</time>
      </trkpt>
      <trkpt lat="45.21559" lon="4.34404">
        <ele>788.4</ele>
        <time>2023-03-29T13:39:58Z</time>
      </trkpt>
      <trkpt lat="45.21545" lon="4.34412">
        <ele>789</ele>
        <time>2023-03-29T13:40:03Z</time>
      </trkpt>
      <trkpt lat="45.2154" lon="4.34417">
        <ele>789.4</ele>
        <time>2023-03-29T13:40:05Z</time>
      </trkpt>
      <trkpt lat="45.21523" lon="4.34428">
        <ele>790.6</ele>
        <time>2023-03-29T13:40:11Z</time>
      </trkpt>
      <trkpt lat="45.21511" lon="4.34438">
        <ele>791.8</ele>
        <time>2023-03-29T13:40:16Z</time>
      </trkpt>
      <trkpt lat="45.21502" lon="4.34444">
        <ele>792.4</ele>
        <time>2023-03-29T13:40:19Z</time>
      </trkpt>
      <trkpt lat="45.21497" lon="4.34449">
        <ele>793</ele>
        <time>2023-03-29T13:40:21Z</time>
      </trkpt>
      <trkpt lat="45.2149" lon="4.34459">
        <ele>794.2</ele>
        <time>2023-03-29T13:40:25Z</time>
      </trkpt>
      <trkpt lat="45.21488" lon="4.34463">
        <ele>794.4</ele>
        <time>2023-03-29T13:40:26Z</time>
      </trkpt>
      <trkpt lat="45.2148" lon="4.34475">
        <ele>795.4</ele>
        <time>2023-03-29T13:40:30Z</time>
      </trkpt>
      <trkpt lat="45.21475" lon="4.34481">
        <ele>795.6</ele>
        <time>2023-03-29T13:40:32Z</time>
      </trkpt>
      <trkpt lat="45.21464" lon="4.34498">
        <ele>796.4</ele>
        <time>2023-03-29T13:40:38Z</time>
      </trkpt>
      <trkpt lat="45.2146" lon="4.34504">
        <ele>796.8</ele>
        <time>2023-03-29T13:40:40Z</time>
      </trkpt>
      <trkpt lat="45.21452" lon="4.34516">
        <ele>797.6</ele>
        <time>2023-03-29T13:40:44Z</time>
      </trkpt>
      <trkpt lat="45.21446" lon="4.34524">
        <ele>797.8</ele>
        <time>2023-03-29T13:40:47Z</time>
      </trkpt>
      <trkpt lat="45.21438" lon="4.34535">
        <ele>798.6</ele>
        <time>2023-03-29T13:40:51Z</time>
      </trkpt>
      <trkpt lat="45.21433" lon="4.34541">
        <ele>799</ele>
        <time>2023-03-29T13:40:53Z</time>
      </trkpt>
      <trkpt lat="45.21424" lon="4.34552">
        <ele>799.8</ele>
        <time>2023-03-29T13:40:57Z</time>
      </trkpt>
      <trkpt lat="45.21415" lon="4.34563">
        <ele>801</ele>
        <time>2023-03-29T13:41:01Z</time>
      </trkpt>
      <trkpt lat="45.21409" lon="4.34573">
        <ele>801.6</ele>
        <time>2023-03-29T13:41:04Z</time>
      </trkpt>
      <trkpt lat="45.21403" lon="4.34582">
        <ele>802</ele>
        <time>2023-03-29T13:41:07Z</time>
      </trkpt>
      <trkpt lat="45.214" lon="4.34586">
        <ele>802.2</ele>
        <time>2023-03-29T13:41:08Z</time>
      </trkpt>
      <trkpt lat="45.2139" lon="4.34601">
        <ele>803.2</ele>
        <time>2023-03-29T13:41:13Z</time>
      </trkpt>
      <trkpt lat="45.21381" lon="4.34616">
        <ele>804</ele>
        <time>2023-03-29T13:41:17Z</time>
      </trkpt>
      <trkpt lat="45.21379" lon="4.34619">
        <ele>804.2</ele>
        <time>2023-03-29T13:41:18Z</time>
      </trkpt>
      <trkpt lat="45.21365" lon="4.34638">
        <ele>805.2</ele>
        <time>2023-03-29T13:41:24Z</time>
      </trkpt>
      <trkpt lat="45.21356" lon="4.3465">
        <ele>806</ele>
        <time>2023-03-29T13:41:28Z</time>
      </trkpt>
      <trkpt lat="45.21347" lon="4.34658">
        <ele>806.4</ele>
        <time>2023-03-29T13:41:31Z</time>
      </trkpt>
      <trkpt lat="45.21342" lon="4.34661">
        <ele>806.8</ele>
        <time>2023-03-29T13:41:33Z</time>
      </trkpt>
      <trkpt lat="45.21337" lon="4.34668">
        <ele>807.4</ele>
        <time>2023-03-29T13:41:35Z</time>
      </trkpt>
      <trkpt lat="45.21334" lon="4.34678">
        <ele>807.8</ele>
        <time>2023-03-29T13:41:37Z</time>
      </trkpt>
      <trkpt lat="45.21323" lon="4.34708">
        <ele>808</ele>
        <time>2023-03-29T13:41:43Z</time>
      </trkpt>
      <trkpt lat="45.2132" lon="4.34714">
        <ele>807.8</ele>
        <time>2023-03-29T13:41:44Z</time>
      </trkpt>
      <trkpt lat="45.21313" lon="4.34724">
        <ele>807.6</ele>
        <time>2023-03-29T13:41:46Z</time>
      </trkpt>
      <trkpt lat="45.213" lon="4.34737">
        <ele>807.2</ele>
        <time>2023-03-29T13:41:49Z</time>
      </trkpt>
      <trkpt lat="45.21275" lon="4.3476">
        <ele>806.2</ele>
        <time>2023-03-29T13:41:54Z</time>
      </trkpt>
      <trkpt lat="45.21269" lon="4.34766">
        <ele>805.6</ele>
        <time>2023-03-29T13:41:55Z</time>
      </trkpt>
      <trkpt lat="45.2126" lon="4.3478">
        <ele>805.2</ele>
        <time>2023-03-29T13:41:57Z</time>
      </trkpt>
      <trkpt lat="45.21257" lon="4.34788">
        <ele>805</ele>
        <time>2023-03-29T13:41:58Z</time>
      </trkpt>
      <trkpt lat="45.21254" lon="4.34798">
        <ele>804.6</ele>
        <time>2023-03-29T13:41:59Z</time>
      </trkpt>
      <trkpt lat="45.21253" lon="4.34808">
        <ele>804.4</ele>
        <time>2023-03-29T13:42:00Z</time>
      </trkpt>
      <trkpt lat="45.21252" lon="4.34828">
        <ele>803.8</ele>
        <time>2023-03-29T13:42:02Z</time>
      </trkpt>
      <trkpt lat="45.21247" lon="4.34853">
        <ele>803.2</ele>
        <time>2023-03-29T13:42:04Z</time>
      </trkpt>
      <trkpt lat="45.21242" lon="4.3486">
        <ele>802.8</ele>
        <time>2023-03-29T13:42:05Z</time>
      </trkpt>
      <trkpt lat="45.21234" lon="4.34869">
        <ele>802.4</ele>
        <time>2023-03-29T13:42:06Z</time>
      </trkpt>
      <trkpt lat="45.21219" lon="4.34883">
        <ele>801.2</ele>
        <time>2023-03-29T13:42:08Z</time>
      </trkpt>
      <trkpt lat="45.21212" lon="4.34889">
        <ele>800.4</ele>
        <time>2023-03-29T13:42:09Z</time>
      </trkpt>
      <trkpt lat="45.21204" lon="4.34896">
        <ele>799.6</ele>
        <time>2023-03-29T13:42:10Z</time>
      </trkpt>
      <trkpt lat="45.21191" lon="4.34909">
        <ele>798.6</ele>
        <time>2023-03-29T13:42:12Z</time>
      </trkpt>
      <trkpt lat="45.21185" lon="4.34916">
        <ele>798</ele>
        <time>2023-03-29T13:42:13Z</time>
      </trkpt>
      <trkpt lat="45.21174" lon="4.34926">
        <ele>797.2</ele>
        <time>2023-03-29T13:42:15Z</time>
      </trkpt>
      <trkpt lat="45.21167" lon="4.34933">
        <ele>797.2</ele>
        <time>2023-03-29T13:42:16Z</time>
      </trkpt>
      <trkpt lat="45.21161" lon="4.34938">
        <ele>796.8</ele>
        <time>2023-03-29T13:42:17Z</time>
      </trkpt>
      <trkpt lat="45.21136" lon="4.34968">
        <ele>796.4</ele>
        <time>2023-03-29T13:42:22Z</time>
      </trkpt>
      <trkpt lat="45.21132" lon="4.34974">
        <ele>796.4</ele>
        <time>2023-03-29T13:42:23Z</time>
      </trkpt>
      <trkpt lat="45.21129" lon="4.34981">
        <ele>796.4</ele>
        <time>2023-03-29T13:42:24Z</time>
      </trkpt>
      <trkpt lat="45.21125" lon="4.34995">
        <ele>796.4</ele>
        <time>2023-03-29T13:42:26Z</time>
      </trkpt>
      <trkpt lat="45.21122" lon="4.35002">
        <ele>796</ele>
        <time>2023-03-29T13:42:27Z</time>
      </trkpt>
      <trkpt lat="45.21119" lon="4.35008">
        <ele>796</ele>
        <time>2023-03-29T13:42:28Z</time>
      </trkpt>
      <trkpt lat="45.21103" lon="4.35037">
        <ele>796.4</ele>
        <time>2023-03-29T13:42:32Z</time>
      </trkpt>
      <trkpt lat="45.21073" lon="4.35101">
        <ele>796.6</ele>
        <time>2023-03-29T13:42:40Z</time>
      </trkpt>
      <trkpt lat="45.21069" lon="4.35109">
        <ele>796.6</ele>
        <time>2023-03-29T13:42:41Z</time>
      </trkpt>
      <trkpt lat="45.21045" lon="4.3517">
        <ele>796.6</ele>
        <time>2023-03-29T13:42:48Z</time>
      </trkpt>
      <trkpt lat="45.21029" lon="4.35233">
        <ele>796.6</ele>
        <time>2023-03-29T13:42:55Z</time>
      </trkpt>
      <trkpt lat="45.21013" lon="4.35302">
        <ele>797.8</ele>
        <time>2023-03-29T13:43:03Z</time>
      </trkpt>
      <trkpt lat="45.20994" lon="4.35365">
        <ele>798.2</ele>
        <time>2023-03-29T13:43:11Z</time>
      </trkpt>
      <trkpt lat="45.20987" lon="4.35387">
        <ele>798.4</ele>
        <time>2023-03-29T13:43:14Z</time>
      </trkpt>
      <trkpt lat="45.2097" lon="4.35427">
        <ele>798.6</ele>
        <time>2023-03-29T13:43:20Z</time>
      </trkpt>
      <trkpt lat="45.20938" lon="4.35475">
        <ele>798.6</ele>
        <time>2023-03-29T13:43:29Z</time>
      </trkpt>
      <trkpt lat="45.20916" lon="4.35505">
        <ele>799.4</ele>
        <time>2023-03-29T13:43:35Z</time>
      </trkpt>
      <trkpt lat="45.20898" lon="4.35528">
        <ele>800</ele>
        <time>2023-03-29T13:43:40Z</time>
      </trkpt>
      <trkpt lat="45.20877" lon="4.35555">
        <ele>800.6</ele>
        <time>2023-03-29T13:43:46Z</time>
      </trkpt>
      <trkpt lat="45.20866" lon="4.35572">
        <ele>801</ele>
        <time>2023-03-29T13:43:50Z</time>
      </trkpt>
      <trkpt lat="45.20843" lon="4.35611">
        <ele>801.6</ele>
        <time>2023-03-29T13:43:58Z</time>
      </trkpt>
      <trkpt lat="45.2084" lon="4.35617">
        <ele>801.6</ele>
        <time>2023-03-29T13:43:59Z</time>
      </trkpt>
      <trkpt lat="45.20822" lon="4.35664">
        <ele>801.8</ele>
        <time>2023-03-29T13:44:07Z</time>
      </trkpt>
      <trkpt lat="45.2081" lon="4.35706">
        <ele>802.4</ele>
        <time>2023-03-29T13:44:14Z</time>
      </trkpt>
      <trkpt lat="45.20805" lon="4.35731">
        <ele>802.6</ele>
        <time>2023-03-29T13:44:18Z</time>
      </trkpt>
      <trkpt lat="45.208" lon="4.35767">
        <ele>803.4</ele>
        <time>2023-03-29T13:44:24Z</time>
      </trkpt>
      <trkpt lat="45.20799" lon="4.35792">
        <ele>803.6</ele>
        <time>2023-03-29T13:44:28Z</time>
      </trkpt>
      <trkpt lat="45.20798" lon="4.3581">
        <ele>804</ele>
        <time>2023-03-29T13:44:31Z</time>
      </trkpt>
      <trkpt lat="45.20797" lon="4.35821">
        <ele>804.4</ele>
        <time>2023-03-29T13:44:33Z</time>
      </trkpt>
      <trkpt lat="45.20798" lon="4.35838">
        <ele>804.8</ele>
        <time>2023-03-29T13:44:36Z</time>
      </trkpt>
      <trkpt lat="45.20801" lon="4.35866">
        <ele>805.8</ele>
        <time>2023-03-29T13:44:41Z</time>
      </trkpt>
      <trkpt lat="45.20806" lon="4.35911">
        <ele>806.8</ele>
        <time>2023-03-29T13:44:49Z</time>
      </trkpt>
      <trkpt lat="45.20812" lon="4.35939">
        <ele>808</ele>
        <time>2023-03-29T13:44:54Z</time>
      </trkpt>
      <trkpt lat="45.20818" lon="4.3596">
        <ele>809</ele>
        <time>2023-03-29T13:44:58Z</time>
      </trkpt>
      <trkpt lat="45.20827" lon="4.35997">
        <ele>810</ele>
        <time>2023-03-29T13:45:05Z</time>
      </trkpt>
      <trkpt lat="45.20832" lon="4.36013">
        <ele>810.8</ele>
        <time>2023-03-29T13:45:08Z</time>
      </trkpt>
      <trkpt lat="45.20836" lon="4.36025">
        <ele>811.2</ele>
        <time>2023-03-29T13:45:10Z</time>
      </trkpt>
      <trkpt lat="45.20846" lon="4.36059">
        <ele>811.8</ele>
        <time>2023-03-29T13:45:16Z</time>
      </trkpt>
      <trkpt lat="45.20855" lon="4.361">
        <ele>812.2</ele>
        <time>2023-03-29T13:45:23Z</time>
      </trkpt>
      <trkpt lat="45.20857" lon="4.36113">
        <ele>812</ele>
        <time>2023-03-29T13:45:25Z</time>
      </trkpt>
      <trkpt lat="45.20862" lon="4.36172">
        <ele>810.8</ele>
        <time>2023-03-29T13:45:33Z</time>
      </trkpt>
      <trkpt lat="45.20861" lon="4.36214">
        <ele>809.6</ele>
        <time>2023-03-29T13:45:38Z</time>
      </trkpt>
      <trkpt lat="45.20858" lon="4.36231">
        <ele>809.2</ele>
        <time>2023-03-29T13:45:40Z</time>
      </trkpt>
      <trkpt lat="45.20855" lon="4.36262">
        <ele>808.6</ele>
        <time>2023-03-29T13:45:44Z</time>
      </trkpt>
      <trkpt lat="45.20855" lon="4.36269">
        <ele>808.6</ele>
        <time>2023-03-29T13:45:45Z</time>
      </trkpt>
      <trkpt lat="45.20855" lon="4.36277">
        <ele>808.4</ele>
        <time>2023-03-29T13:45:46Z</time>
      </trkpt>
      <trkpt lat="45.20862" lon="4.36353">
        <ele>807.8</ele>
        <time>2023-03-29T13:45:54Z</time>
      </trkpt>
      <trkpt lat="45.20864" lon="4.36373">
        <ele>807.6</ele>
        <time>2023-03-29T13:45:56Z</time>
      </trkpt>
      <trkpt lat="45.20868" lon="4.36402">
        <ele>806.6</ele>
        <time>2023-03-29T13:45:59Z</time>
      </trkpt>
      <trkpt lat="45.20869" lon="4.36411">
        <ele>806.4</ele>
        <time>2023-03-29T13:46:00Z</time>
      </trkpt>
      <trkpt lat="45.20878" lon="4.36456">
        <ele>806.2</ele>
        <time>2023-03-29T13:46:05Z</time>
      </trkpt>
      <trkpt lat="45.2089" lon="4.36537">
        <ele>805.8</ele>
        <time>2023-03-29T13:46:14Z</time>
      </trkpt>
      <trkpt lat="45.20894" lon="4.36588">
        <ele>805.6</ele>
        <time>2023-03-29T13:46:20Z</time>
      </trkpt>
      <trkpt lat="45.20894" lon="4.36596">
        <ele>805.6</ele>
        <time>2023-03-29T13:46:21Z</time>
      </trkpt>
      <trkpt lat="45.20891" lon="4.36654">
        <ele>806</ele>
        <time>2023-03-29T13:46:28Z</time>
      </trkpt>
      <trkpt lat="45.2089" lon="4.36662">
        <ele>806</ele>
        <time>2023-03-29T13:46:29Z</time>
      </trkpt>
      <trkpt lat="45.20885" lon="4.36693">
        <ele>806.4</ele>
        <time>2023-03-29T13:46:33Z</time>
      </trkpt>
      <trkpt lat="45.20883" lon="4.367">
        <ele>806.6</ele>
        <time>2023-03-29T13:46:34Z</time>
      </trkpt>
      <trkpt lat="45.20881" lon="4.36715">
        <ele>807</ele>
        <time>2023-03-29T13:46:36Z</time>
      </trkpt>
      <trkpt lat="45.20873" lon="4.36743">
        <ele>807.6</ele>
        <time>2023-03-29T13:46:40Z</time>
      </trkpt>
      <trkpt lat="45.20871" lon="4.36751">
        <ele>807.8</ele>
        <time>2023-03-29T13:46:41Z</time>
      </trkpt>
      <trkpt lat="45.20851" lon="4.36804">
        <ele>808.8</ele>
        <time>2023-03-29T13:46:49Z</time>
      </trkpt>
      <trkpt lat="45.20827" lon="4.36853">
        <ele>809.2</ele>
        <time>2023-03-29T13:46:58Z</time>
      </trkpt>
      <trkpt lat="45.20805" lon="4.36898">
        <ele>810</ele>
        <time>2023-03-29T13:47:07Z</time>
      </trkpt>
      <trkpt lat="45.20784" lon="4.36947">
        <ele>811</ele>
        <time>2023-03-29T13:47:16Z</time>
      </trkpt>
      <trkpt lat="45.20774" lon="4.36979">
        <ele>811.4</ele>
        <time>2023-03-29T13:47:21Z</time>
      </trkpt>
      <trkpt lat="45.2077" lon="4.36998">
        <ele>812.2</ele>
        <time>2023-03-29T13:47:24Z</time>
      </trkpt>
      <trkpt lat="45.20763" lon="4.3703">
        <ele>813.2</ele>
        <time>2023-03-29T13:47:29Z</time>
      </trkpt>
      <trkpt lat="45.2076" lon="4.37051">
        <ele>813.4</ele>
        <time>2023-03-29T13:47:32Z</time>
      </trkpt>
      <trkpt lat="45.20755" lon="4.37102">
        <ele>814</ele>
        <time>2023-03-29T13:47:40Z</time>
      </trkpt>
      <trkpt lat="45.20755" lon="4.37107">
        <ele>814.2</ele>
        <time>2023-03-29T13:47:41Z</time>
      </trkpt>
      <trkpt lat="45.20756" lon="4.37134">
        <ele>815</ele>
        <time>2023-03-29T13:47:46Z</time>
      </trkpt>
      <trkpt lat="45.20756" lon="4.37148">
        <ele>815.4</ele>
        <time>2023-03-29T13:47:48Z</time>
      </trkpt>
      <trkpt lat="45.20756" lon="4.37162">
        <ele>815.6</ele>
        <time>2023-03-29T13:47:50Z</time>
      </trkpt>
      <trkpt lat="45.20757" lon="4.37169">
        <ele>815.6</ele>
        <time>2023-03-29T13:47:51Z</time>
      </trkpt>
      <trkpt lat="45.20758" lon="4.37189">
        <ele>815.8</ele>
        <time>2023-03-29T13:47:54Z</time>
      </trkpt>
      <trkpt lat="45.2076" lon="4.37208">
        <ele>816</ele>
        <time>2023-03-29T13:47:57Z</time>
      </trkpt>
      <trkpt lat="45.20761" lon="4.37215">
        <ele>816.2</ele>
        <time>2023-03-29T13:47:58Z</time>
      </trkpt>
      <trkpt lat="45.20765" lon="4.37235">
        <ele>816.6</ele>
        <time>2023-03-29T13:48:01Z</time>
      </trkpt>
      <trkpt lat="45.2077" lon="4.37254">
        <ele>817</ele>
        <time>2023-03-29T13:48:04Z</time>
      </trkpt>
      <trkpt lat="45.20779" lon="4.37282">
        <ele>817.6</ele>
        <time>2023-03-29T13:48:08Z</time>
      </trkpt>
      <trkpt lat="45.20782" lon="4.37294">
        <ele>817.8</ele>
        <time>2023-03-29T13:48:10Z</time>
      </trkpt>
      <trkpt lat="45.208" lon="4.37336">
        <ele>818.4</ele>
        <time>2023-03-29T13:48:17Z</time>
      </trkpt>
      <trkpt lat="45.20813" lon="4.3736">
        <ele>818.8</ele>
        <time>2023-03-29T13:48:21Z</time>
      </trkpt>
      <trkpt lat="45.20823" lon="4.37375">
        <ele>819.2</ele>
        <time>2023-03-29T13:48:24Z</time>
      </trkpt>
      <trkpt lat="45.20847" lon="4.37409">
        <ele>819.4</ele>
        <time>2023-03-29T13:48:31Z</time>
      </trkpt>
      <trkpt lat="45.20851" lon="4.37414">
        <ele>819.6</ele>
        <time>2023-03-29T13:48:32Z</time>
      </trkpt>
      <trkpt lat="45.20868" lon="4.37429">
        <ele>820</ele>
        <time>2023-03-29T13:48:36Z</time>
      </trkpt>
      <trkpt lat="45.20871" lon="4.37432">
        <ele>820</ele>
        <time>2023-03-29T13:48:37Z</time>
      </trkpt>
      <trkpt lat="45.20883" lon="4.37444">
        <ele>820.4</ele>
        <time>2023-03-29T13:48:40Z</time>
      </trkpt>
      <trkpt lat="45.20887" lon="4.37448">
        <ele>820.6</ele>
        <time>2023-03-29T13:48:41Z</time>
      </trkpt>
      <trkpt lat="45.20902" lon="4.37458">
        <ele>821</ele>
        <time>2023-03-29T13:48:44Z</time>
      </trkpt>
      <trkpt lat="45.20918" lon="4.37472">
        <ele>821.2</ele>
        <time>2023-03-29T13:48:48Z</time>
      </trkpt>
      <trkpt lat="45.20922" lon="4.37475">
        <ele>821.2</ele>
        <time>2023-03-29T13:48:49Z</time>
      </trkpt>
      <trkpt lat="45.20941" lon="4.37487">
        <ele>821.2</ele>
        <time>2023-03-29T13:48:54Z</time>
      </trkpt>
      <trkpt lat="45.20961" lon="4.37495">
        <ele>821</ele>
        <time>2023-03-29T13:48:58Z</time>
      </trkpt>
      <trkpt lat="45.2101" lon="4.37513">
        <ele>821.2</ele>
        <time>2023-03-29T13:49:07Z</time>
      </trkpt>
      <trkpt lat="45.21026" lon="4.37523">
        <ele>821.4</ele>
        <time>2023-03-29T13:49:10Z</time>
      </trkpt>
      <trkpt lat="45.21037" lon="4.37531">
        <ele>821.6</ele>
        <time>2023-03-29T13:49:12Z</time>
      </trkpt>
      <trkpt lat="45.21055" lon="4.37546">
        <ele>821.4</ele>
        <time>2023-03-29T13:49:15Z</time>
      </trkpt>
      <trkpt lat="45.21072" lon="4.37559">
        <ele>821.6</ele>
        <time>2023-03-29T13:49:18Z</time>
      </trkpt>
      <trkpt lat="45.21104" lon="4.37589">
        <ele>821.4</ele>
        <time>2023-03-29T13:49:23Z</time>
      </trkpt>
      <trkpt lat="45.21117" lon="4.37599">
        <ele>821.6</ele>
        <time>2023-03-29T13:49:25Z</time>
      </trkpt>
      <trkpt lat="45.21143" lon="4.37623">
        <ele>821.8</ele>
        <time>2023-03-29T13:49:29Z</time>
      </trkpt>
      <trkpt lat="45.21147" lon="4.37629">
        <ele>821.8</ele>
        <time>2023-03-29T13:49:30Z</time>
      </trkpt>
      <trkpt lat="45.21154" lon="4.37636">
        <ele>821.8</ele>
        <time>2023-03-29T13:49:31Z</time>
      </trkpt>
      <trkpt lat="45.21171" lon="4.37651">
        <ele>821.6</ele>
        <time>2023-03-29T13:49:34Z</time>
      </trkpt>
      <trkpt lat="45.21179" lon="4.37658">
        <ele>821.6</ele>
        <time>2023-03-29T13:49:35Z</time>
      </trkpt>
      <trkpt lat="45.21201" lon="4.37684">
        <ele>821.4</ele>
        <time>2023-03-29T13:49:39Z</time>
      </trkpt>
      <trkpt lat="45.21234" lon="4.37733">
        <ele>821.4</ele>
        <time>2023-03-29T13:49:46Z</time>
      </trkpt>
      <trkpt lat="45.21267" lon="4.37799">
        <ele>821.4</ele>
        <time>2023-03-29T13:49:54Z</time>
      </trkpt>
      <trkpt lat="45.21285" lon="4.37852">
        <ele>821.4</ele>
        <time>2023-03-29T13:50:00Z</time>
      </trkpt>
      <trkpt lat="45.21287" lon="4.37859">
        <ele>821.4</ele>
        <time>2023-03-29T13:50:01Z</time>
      </trkpt>
      <trkpt lat="45.21293" lon="4.37879">
        <ele>821.4</ele>
        <time>2023-03-29T13:50:03Z</time>
      </trkpt>
      <trkpt lat="45.213" lon="4.37903">
        <ele>821.4</ele>
        <time>2023-03-29T13:50:06Z</time>
      </trkpt>
      <trkpt lat="45.21319" lon="4.37965">
        <ele>821.4</ele>
        <time>2023-03-29T13:50:13Z</time>
      </trkpt>
      <trkpt lat="45.2134" lon="4.38029">
        <ele>821.2</ele>
        <time>2023-03-29T13:50:21Z</time>
      </trkpt>
      <trkpt lat="45.21366" lon="4.38096">
        <ele>821.4</ele>
        <time>2023-03-29T13:50:30Z</time>
      </trkpt>
      <trkpt lat="45.21372" lon="4.38112">
        <ele>821.6</ele>
        <time>2023-03-29T13:50:33Z</time>
      </trkpt>
      <trkpt lat="45.21377" lon="4.38117">
        <ele>821.8</ele>
        <time>2023-03-29T13:50:35Z</time>
      </trkpt>
      <trkpt lat="45.21383" lon="4.38121">
        <ele>822</ele>
        <time>2023-03-29T13:50:37Z</time>
      </trkpt>
      <trkpt lat="45.21384" lon="4.38126">
        <ele>822</ele>
        <time>2023-03-29T13:50:38Z</time>
      </trkpt>
      <trkpt lat="45.21396" lon="4.38157">
        <ele>822.2</ele>
        <time>2023-03-29T13:50:43Z</time>
      </trkpt>
      <trkpt lat="45.21416" lon="4.382">
        <ele>822.2</ele>
        <time>2023-03-29T13:50:49Z</time>
      </trkpt>
      <trkpt lat="45.21442" lon="4.38256">
        <ele>822.4</ele>
        <time>2023-03-29T13:50:57Z</time>
      </trkpt>
      <trkpt lat="45.21454" lon="4.3828">
        <ele>822.6</ele>
        <time>2023-03-29T13:51:01Z</time>
      </trkpt>
      <trkpt lat="45.21458" lon="4.38284">
        <ele>822.6</ele>
        <time>2023-03-29T13:51:02Z</time>
      </trkpt>
      <trkpt lat="45.21463" lon="4.38285">
        <ele>822.6</ele>
        <time>2023-03-29T13:51:03Z</time>
      </trkpt>
      <trkpt lat="45.21471" lon="4.38282">
        <ele>822.6</ele>
        <time>2023-03-29T13:51:05Z</time>
      </trkpt>
      <trkpt lat="45.21475" lon="4.3828">
        <ele>822.6</ele>
        <time>2023-03-29T13:51:06Z</time>
      </trkpt>
      <trkpt lat="45.2148" lon="4.38282">
        <ele>822.6</ele>
        <time>2023-03-29T13:51:08Z</time>
      </trkpt>
      <trkpt lat="45.21493" lon="4.38294">
        <ele>822.8</ele>
        <time>2023-03-29T13:51:13Z</time>
      </trkpt>
      <trkpt lat="45.21496" lon="4.38296">
        <ele>823</ele>
        <time>2023-03-29T13:51:14Z</time>
      </trkpt>
      <trkpt lat="45.21519" lon="4.38307">
        <ele>823.2</ele>
        <time>2023-03-29T13:51:20Z</time>
      </trkpt>
      <trkpt lat="45.21528" lon="4.38311">
        <ele>823.2</ele>
        <time>2023-03-29T13:51:22Z</time>
      </trkpt>
      <trkpt lat="45.21538" lon="4.38315">
        <ele>823.2</ele>
        <time>2023-03-29T13:51:24Z</time>
      </trkpt>
      <trkpt lat="45.21544" lon="4.38317">
        <ele>823.4</ele>
        <time>2023-03-29T13:51:25Z</time>
      </trkpt>
      <trkpt lat="45.21554" lon="4.38324">
        <ele>823.4</ele>
        <time>2023-03-29T13:51:27Z</time>
      </trkpt>
      <trkpt lat="45.21558" lon="4.3833">
        <ele>823.4</ele>
        <time>2023-03-29T13:51:28Z</time>
      </trkpt>
      <trkpt lat="45.21559" lon="4.38338">
        <ele>823.4</ele>
        <time>2023-03-29T13:51:29Z</time>
      </trkpt>
      <trkpt lat="45.21558" lon="4.38352">
        <ele>823.6</ele>
        <time>2023-03-29T13:51:31Z</time>
      </trkpt>
      <trkpt lat="45.21553" lon="4.38375">
        <ele>824</ele>
        <time>2023-03-29T13:51:34Z</time>
      </trkpt>
      <trkpt lat="45.21549" lon="4.3839">
        <ele>824.2</ele>
        <time>2023-03-29T13:51:36Z</time>
      </trkpt>
      <trkpt lat="45.21548" lon="4.38398">
        <ele>824.2</ele>
        <time>2023-03-29T13:51:37Z</time>
      </trkpt>
      <trkpt lat="45.21547" lon="4.3843">
        <ele>824.6</ele>
        <time>2023-03-29T13:51:41Z</time>
      </trkpt>
      <trkpt lat="45.21545" lon="4.38446">
        <ele>824.8</ele>
        <time>2023-03-29T13:51:43Z</time>
      </trkpt>
      <trkpt lat="45.21536" lon="4.38478">
        <ele>825</ele>
        <time>2023-03-29T13:51:47Z</time>
      </trkpt>
      <trkpt lat="45.21531" lon="4.38494">
        <ele>825.2</ele>
        <time>2023-03-29T13:51:49Z</time>
      </trkpt>
      <trkpt lat="45.21529" lon="4.38503">
        <ele>825.2</ele>
        <time>2023-03-29T13:51:50Z</time>
      </trkpt>
      <trkpt lat="45.21528" lon="4.38519">
        <ele>825.4</ele>
        <time>2023-03-29T13:51:52Z</time>
      </trkpt>
      <trkpt lat="45.21529" lon="4.38528">
        <ele>825.4</ele>
        <time>2023-03-29T13:51:53Z</time>
      </trkpt>
      <trkpt lat="45.21533" lon="4.38569">
        <ele>826</ele>
        <time>2023-03-29T13:51:58Z</time>
      </trkpt>
      <trkpt lat="45.21534" lon="4.38575">
        <ele>826.2</ele>
        <time>2023-03-29T13:51:59Z</time>
      </trkpt>
      <trkpt lat="45.21534" lon="4.38582">
        <ele>826.2</ele>
        <time>2023-03-29T13:52:00Z</time>
      </trkpt>
      <trkpt lat="45.21536" lon="4.386">
        <ele>826.4</ele>
        <time>2023-03-29T13:52:02Z</time>
      </trkpt>
      <trkpt lat="45.2154" lon="4.38615">
        <ele>826.8</ele>
        <time>2023-03-29T13:52:04Z</time>
      </trkpt>
      <trkpt lat="45.2154" lon="4.38622">
        <ele>826.8</ele>
        <time>2023-03-29T13:52:05Z</time>
      </trkpt>
      <trkpt lat="45.21541" lon="4.3863">
        <ele>827</ele>
        <time>2023-03-29T13:52:06Z</time>
      </trkpt>
      <trkpt lat="45.21543" lon="4.38645">
        <ele>827.2</ele>
        <time>2023-03-29T13:52:08Z</time>
      </trkpt>
      <trkpt lat="45.21545" lon="4.38661">
        <ele>827.2</ele>
        <time>2023-03-29T13:52:10Z</time>
      </trkpt>
      <trkpt lat="45.21546" lon="4.38685">
        <ele>827.6</ele>
        <time>2023-03-29T13:52:13Z</time>
      </trkpt>
      <trkpt lat="45.21547" lon="4.38702">
        <ele>827.8</ele>
        <time>2023-03-29T13:52:15Z</time>
      </trkpt>
      <trkpt lat="45.2155" lon="4.38726">
        <ele>828.4</ele>
        <time>2023-03-29T13:52:18Z</time>
      </trkpt>
      <trkpt lat="45.21554" lon="4.38748">
        <ele>828.6</ele>
        <time>2023-03-29T13:52:21Z</time>
      </trkpt>
      <trkpt lat="45.21558" lon="4.38765">
        <ele>828.6</ele>
        <time>2023-03-29T13:52:23Z</time>
      </trkpt>
      <trkpt lat="45.21561" lon="4.38781">
        <ele>828.8</ele>
        <time>2023-03-29T13:52:25Z</time>
      </trkpt>
      <trkpt lat="45.21566" lon="4.38804">
        <ele>829.4</ele>
        <time>2023-03-29T13:52:28Z</time>
      </trkpt>
      <trkpt lat="45.21578" lon="4.38842">
        <ele>830</ele>
        <time>2023-03-29T13:52:33Z</time>
      </trkpt>
      <trkpt lat="45.21581" lon="4.38849">
        <ele>830</ele>
        <time>2023-03-29T13:52:34Z</time>
      </trkpt>
      <trkpt lat="45.21592" lon="4.38877">
        <ele>830.4</ele>
        <time>2023-03-29T13:52:38Z</time>
      </trkpt>
      <trkpt lat="45.21597" lon="4.38891">
        <ele>830.6</ele>
        <time>2023-03-29T13:52:40Z</time>
      </trkpt>
      <trkpt lat="45.21603" lon="4.38903">
        <ele>830.8</ele>
        <time>2023-03-29T13:52:42Z</time>
      </trkpt>
      <trkpt lat="45.21606" lon="4.38909">
        <ele>830.8</ele>
        <time>2023-03-29T13:52:43Z</time>
      </trkpt>
      <trkpt lat="45.21608" lon="4.38916">
        <ele>831</ele>
        <time>2023-03-29T13:52:44Z</time>
      </trkpt>
      <trkpt lat="45.21619" lon="4.38942">
        <ele>831.6</ele>
        <time>2023-03-29T13:52:48Z</time>
      </trkpt>
      <trkpt lat="45.21629" lon="4.38963">
        <ele>832</ele>
        <time>2023-03-29T13:52:51Z</time>
      </trkpt>
      <trkpt lat="45.21632" lon="4.38968">
        <ele>832</ele>
        <time>2023-03-29T13:52:52Z</time>
      </trkpt>
      <trkpt lat="45.21638" lon="4.3898">
        <ele>832.2</ele>
        <time>2023-03-29T13:52:54Z</time>
      </trkpt>
      <trkpt lat="45.21647" lon="4.38999">
        <ele>832.6</ele>
        <time>2023-03-29T13:52:57Z</time>
      </trkpt>
      <trkpt lat="45.21651" lon="4.39012">
        <ele>832.8</ele>
        <time>2023-03-29T13:52:59Z</time>
      </trkpt>
      <trkpt lat="45.21656" lon="4.39027">
        <ele>833</ele>
        <time>2023-03-29T13:53:01Z</time>
      </trkpt>
      <trkpt lat="45.21661" lon="4.39051">
        <ele>833.4</ele>
        <time>2023-03-29T13:53:04Z</time>
      </trkpt>
      <trkpt lat="45.21669" lon="4.39079">
        <ele>833.8</ele>
        <time>2023-03-29T13:53:08Z</time>
      </trkpt>
      <trkpt lat="45.21671" lon="4.39096">
        <ele>834.2</ele>
        <time>2023-03-29T13:53:10Z</time>
      </trkpt>
      <trkpt lat="45.21673" lon="4.39104">
        <ele>834.2</ele>
        <time>2023-03-29T13:53:11Z</time>
      </trkpt>
      <trkpt lat="45.21674" lon="4.3912">
        <ele>834.6</ele>
        <time>2023-03-29T13:53:13Z</time>
      </trkpt>
      <trkpt lat="45.21677" lon="4.39144">
        <ele>834.8</ele>
        <time>2023-03-29T13:53:16Z</time>
      </trkpt>
      <trkpt lat="45.21677" lon="4.39154">
        <ele>834.8</ele>
        <time>2023-03-29T13:53:17Z</time>
      </trkpt>
      <trkpt lat="45.21678" lon="4.39161">
        <ele>835</ele>
        <time>2023-03-29T13:53:18Z</time>
      </trkpt>
      <trkpt lat="45.2168" lon="4.39184">
        <ele>835</ele>
        <time>2023-03-29T13:53:21Z</time>
      </trkpt>
      <trkpt lat="45.2168" lon="4.39212">
        <ele>835.4</ele>
        <time>2023-03-29T13:53:25Z</time>
      </trkpt>
      <trkpt lat="45.21684" lon="4.39235">
        <ele>835.8</ele>
        <time>2023-03-29T13:53:28Z</time>
      </trkpt>
      <trkpt lat="45.21688" lon="4.39258">
        <ele>836.2</ele>
        <time>2023-03-29T13:53:31Z</time>
      </trkpt>
      <trkpt lat="45.21689" lon="4.39266">
        <ele>836.4</ele>
        <time>2023-03-29T13:53:32Z</time>
      </trkpt>
      <trkpt lat="45.21689" lon="4.39281">
        <ele>836.6</ele>
        <time>2023-03-29T13:53:34Z</time>
      </trkpt>
      <trkpt lat="45.21691" lon="4.39302">
        <ele>836.6</ele>
        <time>2023-03-29T13:53:37Z</time>
      </trkpt>
      <trkpt lat="45.21693" lon="4.39311">
        <ele>836.8</ele>
        <time>2023-03-29T13:53:38Z</time>
      </trkpt>
      <trkpt lat="45.21695" lon="4.39318">
        <ele>837</ele>
        <time>2023-03-29T13:53:39Z</time>
      </trkpt>
      <trkpt lat="45.21698" lon="4.39332">
        <ele>837.4</ele>
        <time>2023-03-29T13:53:41Z</time>
      </trkpt>
      <trkpt lat="45.21701" lon="4.39339">
        <ele>837.4</ele>
        <time>2023-03-29T13:53:42Z</time>
      </trkpt>
      <trkpt lat="45.21706" lon="4.39354">
        <ele>837.8</ele>
        <time>2023-03-29T13:53:44Z</time>
      </trkpt>
      <trkpt lat="45.21708" lon="4.39361">
        <ele>838</ele>
        <time>2023-03-29T13:53:45Z</time>
      </trkpt>
      <trkpt lat="45.21713" lon="4.39376">
        <ele>838.2</ele>
        <time>2023-03-29T13:53:47Z</time>
      </trkpt>
      <trkpt lat="45.21715" lon="4.39383">
        <ele>838.4</ele>
        <time>2023-03-29T13:53:48Z</time>
      </trkpt>
      <trkpt lat="45.21724" lon="4.39402">
        <ele>838.6</ele>
        <time>2023-03-29T13:53:51Z</time>
      </trkpt>
      <trkpt lat="45.21729" lon="4.39415">
        <ele>838.8</ele>
        <time>2023-03-29T13:53:53Z</time>
      </trkpt>
      <trkpt lat="45.21732" lon="4.39421">
        <ele>839</ele>
        <time>2023-03-29T13:53:54Z</time>
      </trkpt>
      <trkpt lat="45.21746" lon="4.39451">
        <ele>839.4</ele>
        <time>2023-03-29T13:53:59Z</time>
      </trkpt>
      <trkpt lat="45.21749" lon="4.39457">
        <ele>839.4</ele>
        <time>2023-03-29T13:54:00Z</time>
      </trkpt>
      <trkpt lat="45.21759" lon="4.39475">
        <ele>839.8</ele>
        <time>2023-03-29T13:54:03Z</time>
      </trkpt>
      <trkpt lat="45.2177" lon="4.39493">
        <ele>840</ele>
        <time>2023-03-29T13:54:06Z</time>
      </trkpt>
      <trkpt lat="45.21774" lon="4.395">
        <ele>840.2</ele>
        <time>2023-03-29T13:54:07Z</time>
      </trkpt>
      <trkpt lat="45.21776" lon="4.39505">
        <ele>840.2</ele>
        <time>2023-03-29T13:54:08Z</time>
      </trkpt>
      <trkpt lat="45.21783" lon="4.39518">
        <ele>840.2</ele>
        <time>2023-03-29T13:54:10Z</time>
      </trkpt>
      <trkpt lat="45.21786" lon="4.39524">
        <ele>840.2</ele>
        <time>2023-03-29T13:54:11Z</time>
      </trkpt>
      <trkpt lat="45.21798" lon="4.39548">
        <ele>840.8</ele>
        <time>2023-03-29T13:54:15Z</time>
      </trkpt>
      <trkpt lat="45.21801" lon="4.39554">
        <ele>840.8</ele>
        <time>2023-03-29T13:54:16Z</time>
      </trkpt>
      <trkpt lat="45.21804" lon="4.3956">
        <ele>841</ele>
        <time>2023-03-29T13:54:17Z</time>
      </trkpt>
      <trkpt lat="45.21807" lon="4.39566">
        <ele>841</ele>
        <time>2023-03-29T13:54:18Z</time>
      </trkpt>
      <trkpt lat="45.21816" lon="4.39584">
        <ele>841.2</ele>
        <time>2023-03-29T13:54:21Z</time>
      </trkpt>
      <trkpt lat="45.21823" lon="4.39604">
        <ele>841.6</ele>
        <time>2023-03-29T13:54:24Z</time>
      </trkpt>
      <trkpt lat="45.21828" lon="4.39616">
        <ele>842</ele>
        <time>2023-03-29T13:54:26Z</time>
      </trkpt>
      <trkpt lat="45.21836" lon="4.3963">
        <ele>842.2</ele>
        <time>2023-03-29T13:54:28Z</time>
      </trkpt>
      <trkpt lat="45.21851" lon="4.39654">
        <ele>842.8</ele>
        <time>2023-03-29T13:54:32Z</time>
      </trkpt>
      <trkpt lat="45.21859" lon="4.39665">
        <ele>843</ele>
        <time>2023-03-29T13:54:34Z</time>
      </trkpt>
      <trkpt lat="45.21863" lon="4.39672">
        <ele>843</ele>
        <time>2023-03-29T13:54:35Z</time>
      </trkpt>
      <trkpt lat="45.21871" lon="4.39688">
        <ele>843.2</ele>
        <time>2023-03-29T13:54:38Z</time>
      </trkpt>
      <trkpt lat="45.21874" lon="4.39693">
        <ele>843.4</ele>
        <time>2023-03-29T13:54:39Z</time>
      </trkpt>
      <trkpt lat="45.21884" lon="4.39706">
        <ele>843.8</ele>
        <time>2023-03-29T13:54:42Z</time>
      </trkpt>
      <trkpt lat="45.21887" lon="4.39711">
        <ele>844</ele>
        <time>2023-03-29T13:54:43Z</time>
      </trkpt>
      <trkpt lat="45.219" lon="4.39725">
        <ele>844.2</ele>
        <time>2023-03-29T13:54:46Z</time>
      </trkpt>
      <trkpt lat="45.21921" lon="4.39745">
        <ele>844.6</ele>
        <time>2023-03-29T13:54:51Z</time>
      </trkpt>
      <trkpt lat="45.21931" lon="4.39754">
        <ele>844.6</ele>
        <time>2023-03-29T13:54:53Z</time>
      </trkpt>
      <trkpt lat="45.21936" lon="4.39758">
        <ele>844.6</ele>
        <time>2023-03-29T13:54:54Z</time>
      </trkpt>
      <trkpt lat="45.21965" lon="4.39778">
        <ele>845.6</ele>
        <time>2023-03-29T13:55:00Z</time>
      </trkpt>
      <trkpt lat="45.2197" lon="4.3978">
        <ele>845.8</ele>
        <time>2023-03-29T13:55:01Z</time>
      </trkpt>
      <trkpt lat="45.2198" lon="4.39785">
        <ele>846.2</ele>
        <time>2023-03-29T13:55:03Z</time>
      </trkpt>
      <trkpt lat="45.22002" lon="4.39796">
        <ele>846.6</ele>
        <time>2023-03-29T13:55:07Z</time>
      </trkpt>
      <trkpt lat="45.22007" lon="4.39798">
        <ele>846.8</ele>
        <time>2023-03-29T13:55:08Z</time>
      </trkpt>
      <trkpt lat="45.22029" lon="4.39807">
        <ele>847.2</ele>
        <time>2023-03-29T13:55:12Z</time>
      </trkpt>
      <trkpt lat="45.2204" lon="4.39812">
        <ele>847.4</ele>
        <time>2023-03-29T13:55:14Z</time>
      </trkpt>
      <trkpt lat="45.22063" lon="4.39821">
        <ele>848</ele>
        <time>2023-03-29T13:55:18Z</time>
      </trkpt>
      <trkpt lat="45.22087" lon="4.3983">
        <ele>848</ele>
        <time>2023-03-29T13:55:22Z</time>
      </trkpt>
      <trkpt lat="45.22136" lon="4.3985">
        <ele>848.8</ele>
        <time>2023-03-29T13:55:31Z</time>
      </trkpt>
      <trkpt lat="45.22179" lon="4.39868">
        <ele>849.4</ele>
        <time>2023-03-29T13:55:39Z</time>
      </trkpt>
      <trkpt lat="45.22195" lon="4.39875">
        <ele>849.8</ele>
        <time>2023-03-29T13:55:42Z</time>
      </trkpt>
      <trkpt lat="45.22221" lon="4.39888">
        <ele>850.4</ele>
        <time>2023-03-29T13:55:47Z</time>
      </trkpt>
      <trkpt lat="45.22246" lon="4.39902">
        <ele>850.8</ele>
        <time>2023-03-29T13:55:52Z</time>
      </trkpt>
      <trkpt lat="45.22257" lon="4.39909">
        <ele>851</ele>
        <time>2023-03-29T13:55:54Z</time>
      </trkpt>
      <trkpt lat="45.22261" lon="4.39913">
        <ele>851.2</ele>
        <time>2023-03-29T13:55:55Z</time>
      </trkpt>
      <trkpt lat="45.2229" lon="4.39938">
        <ele>851.8</ele>
        <time>2023-03-29T13:56:01Z</time>
      </trkpt>
      <trkpt lat="45.22295" lon="4.39942">
        <ele>851.8</ele>
        <time>2023-03-29T13:56:02Z</time>
      </trkpt>
      <trkpt lat="45.223" lon="4.39947">
        <ele>852</ele>
        <time>2023-03-29T13:56:03Z</time>
      </trkpt>
      <trkpt lat="45.22312" lon="4.3996">
        <ele>852.2</ele>
        <time>2023-03-29T13:56:06Z</time>
      </trkpt>
      <trkpt lat="45.22341" lon="4.39987">
        <ele>853</ele>
        <time>2023-03-29T13:56:12Z</time>
      </trkpt>
      <trkpt lat="45.22346" lon="4.3999">
        <ele>853</ele>
        <time>2023-03-29T13:56:13Z</time>
      </trkpt>
      <trkpt lat="45.22359" lon="4.40003">
        <ele>853.4</ele>
        <time>2023-03-29T13:56:16Z</time>
      </trkpt>
      <trkpt lat="45.22394" lon="4.40036">
        <ele>853.8</ele>
        <time>2023-03-29T13:56:23Z</time>
      </trkpt>
      <trkpt lat="45.22399" lon="4.4004">
        <ele>853.8</ele>
        <time>2023-03-29T13:56:24Z</time>
      </trkpt>
      <trkpt lat="45.22435" lon="4.40071">
        <ele>854.6</ele>
        <time>2023-03-29T13:56:31Z</time>
      </trkpt>
      <trkpt lat="45.2245" lon="4.4008">
        <ele>855</ele>
        <time>2023-03-29T13:56:34Z</time>
      </trkpt>
      <trkpt lat="45.22474" lon="4.40094">
        <ele>855.4</ele>
        <time>2023-03-29T13:56:39Z</time>
      </trkpt>
      <trkpt lat="45.22494" lon="4.40102">
        <ele>855.8</ele>
        <time>2023-03-29T13:56:43Z</time>
      </trkpt>
      <trkpt lat="45.22505" lon="4.40106">
        <ele>856</ele>
        <time>2023-03-29T13:56:45Z</time>
      </trkpt>
      <trkpt lat="45.2251" lon="4.40107">
        <ele>856.2</ele>
        <time>2023-03-29T13:56:46Z</time>
      </trkpt>
      <trkpt lat="45.22527" lon="4.4011">
        <ele>856.6</ele>
        <time>2023-03-29T13:56:49Z</time>
      </trkpt>
      <trkpt lat="45.22553" lon="4.40113">
        <ele>857.2</ele>
        <time>2023-03-29T13:56:54Z</time>
      </trkpt>
      <trkpt lat="45.22564" lon="4.40115">
        <ele>857</ele>
        <time>2023-03-29T13:56:56Z</time>
      </trkpt>
      <trkpt lat="45.226" lon="4.40117">
        <ele>857.6</ele>
        <time>2023-03-29T13:57:03Z</time>
      </trkpt>
      <trkpt lat="45.22621" lon="4.4012">
        <ele>858</ele>
        <time>2023-03-29T13:57:07Z</time>
      </trkpt>
      <trkpt lat="45.22637" lon="4.40121">
        <ele>858.2</ele>
        <time>2023-03-29T13:57:10Z</time>
      </trkpt>
      <trkpt lat="45.22664" lon="4.40126">
        <ele>859</ele>
        <time>2023-03-29T13:57:15Z</time>
      </trkpt>
      <trkpt lat="45.227" lon="4.40135">
        <ele>859.8</ele>
        <time>2023-03-29T13:57:22Z</time>
      </trkpt>
      <trkpt lat="45.2271" lon="4.40138">
        <ele>860</ele>
        <time>2023-03-29T13:57:24Z</time>
      </trkpt>
      <trkpt lat="45.22736" lon="4.40147">
        <ele>860.4</ele>
        <time>2023-03-29T13:57:29Z</time>
      </trkpt>
      <trkpt lat="45.22758" lon="4.40157">
        <ele>861</ele>
        <time>2023-03-29T13:57:34Z</time>
      </trkpt>
      <trkpt lat="45.22762" lon="4.40159">
        <ele>861.2</ele>
        <time>2023-03-29T13:57:35Z</time>
      </trkpt>
      <trkpt lat="45.22781" lon="4.40172">
        <ele>861.8</ele>
        <time>2023-03-29T13:57:40Z</time>
      </trkpt>
      <trkpt lat="45.22785" lon="4.40175">
        <ele>862.2</ele>
        <time>2023-03-29T13:57:41Z</time>
      </trkpt>
      <trkpt lat="45.22808" lon="4.40188">
        <ele>863.6</ele>
        <time>2023-03-29T13:57:46Z</time>
      </trkpt>
      <trkpt lat="45.22822" lon="4.40199">
        <ele>865</ele>
        <time>2023-03-29T13:57:50Z</time>
      </trkpt>
      <trkpt lat="45.22824" lon="4.40202">
        <ele>865.2</ele>
        <time>2023-03-29T13:57:51Z</time>
      </trkpt>
      <trkpt lat="45.22838" lon="4.40214">
        <ele>866.2</ele>
        <time>2023-03-29T13:57:55Z</time>
      </trkpt>
      <trkpt lat="45.22845" lon="4.40219">
        <ele>866.8</ele>
        <time>2023-03-29T13:57:57Z</time>
      </trkpt>
      <trkpt lat="45.22853" lon="4.40226">
        <ele>867.4</ele>
        <time>2023-03-29T13:58:00Z</time>
      </trkpt>
      <trkpt lat="45.22865" lon="4.40233">
        <ele>868.4</ele>
        <time>2023-03-29T13:58:04Z</time>
      </trkpt>
      <trkpt lat="45.2287" lon="4.40236">
        <ele>868.8</ele>
        <time>2023-03-29T13:58:06Z</time>
      </trkpt>
      <trkpt lat="45.22885" lon="4.4025">
        <ele>869</ele>
        <time>2023-03-29T13:58:13Z</time>
      </trkpt>
      <trkpt lat="45.22891" lon="4.40257">
        <ele>869</ele>
        <time>2023-03-29T13:58:16Z</time>
      </trkpt>
      <trkpt lat="45.22896" lon="4.40256">
        <ele>868.8</ele>
        <time>2023-03-29T13:58:18Z</time>
      </trkpt>
      <trkpt lat="45.22899" lon="4.40245">
        <ele>868.8</ele>
        <time>2023-03-29T13:58:21Z</time>
      </trkpt>
      <trkpt lat="45.22897" lon="4.4024">
        <ele>868.8</ele>
        <time>2023-03-29T13:58:23Z</time>
      </trkpt>
      <trkpt lat="45.22891" lon="4.40235">
        <ele>868.8</ele>
        <time>2023-03-29T13:58:26Z</time>
      </trkpt>
      <trkpt lat="45.22878" lon="4.40222">
        <ele>869.2</ele>
        <time>2023-03-29T13:58:33Z</time>
      </trkpt>
      <trkpt lat="45.22867" lon="4.40211">
        <ele>869.4</ele>
        <time>2023-03-29T13:58:37Z</time>
      </trkpt>
      <trkpt lat="45.22864" lon="4.40209">
        <ele>869.6</ele>
        <time>2023-03-29T13:58:38Z</time>
      </trkpt>
      <trkpt lat="45.22852" lon="4.40197">
        <ele>870.4</ele>
        <time>2023-03-29T13:58:42Z</time>
      </trkpt>
      <trkpt lat="45.2284" lon="4.40186">
        <ele>871</ele>
        <time>2023-03-29T13:58:46Z</time>
      </trkpt>
      <trkpt lat="45.22807" lon="4.40161">
        <ele>871</ele>
        <time>2023-03-29T13:58:56Z</time>
      </trkpt>
      <trkpt lat="45.22796" lon="4.40152">
        <ele>870.4</ele>
        <time>2023-03-29T13:58:59Z</time>
      </trkpt>
      <trkpt lat="45.22791" lon="4.40142">
        <ele>870.4</ele>
        <time>2023-03-29T13:59:01Z</time>
      </trkpt>
      <trkpt lat="45.22796" lon="4.40134">
        <ele>870.2</ele>
        <time>2023-03-29T13:59:03Z</time>
      </trkpt>
      <trkpt lat="45.22807" lon="4.40132">
        <ele>869.8</ele>
        <time>2023-03-29T13:59:05Z</time>
      </trkpt>
      <trkpt lat="45.22819" lon="4.4013">
        <ele>869.4</ele>
        <time>2023-03-29T13:59:07Z</time>
      </trkpt>
      <trkpt lat="45.22846" lon="4.40128">
        <ele>868.4</ele>
        <time>2023-03-29T13:59:11Z</time>
      </trkpt>
      <trkpt lat="45.22855" lon="4.40125">
        <ele>868.2</ele>
        <time>2023-03-29T13:59:12Z</time>
      </trkpt>
      <trkpt lat="45.22871" lon="4.40117">
        <ele>867.6</ele>
        <time>2023-03-29T13:59:14Z</time>
      </trkpt>
      <trkpt lat="45.22879" lon="4.40111">
        <ele>867.2</ele>
        <time>2023-03-29T13:59:15Z</time>
      </trkpt>
      <trkpt lat="45.22887" lon="4.40104">
        <ele>866.6</ele>
        <time>2023-03-29T13:59:16Z</time>
      </trkpt>
      <trkpt lat="45.22904" lon="4.4009">
        <ele>865.6</ele>
        <time>2023-03-29T13:59:18Z</time>
      </trkpt>
      <trkpt lat="45.22922" lon="4.40075">
        <ele>864.4</ele>
        <time>2023-03-29T13:59:20Z</time>
      </trkpt>
      <trkpt lat="45.2293" lon="4.40069">
        <ele>864.2</ele>
        <time>2023-03-29T13:59:21Z</time>
      </trkpt>
      <trkpt lat="45.22948" lon="4.40055">
        <ele>863.2</ele>
        <time>2023-03-29T13:59:23Z</time>
      </trkpt>
      <trkpt lat="45.22957" lon="4.40048">
        <ele>862.6</ele>
        <time>2023-03-29T13:59:24Z</time>
      </trkpt>
      <trkpt lat="45.22968" lon="4.40044">
        <ele>862</ele>
        <time>2023-03-29T13:59:25Z</time>
      </trkpt>
      <trkpt lat="45.2299" lon="4.40039">
        <ele>860.8</ele>
        <time>2023-03-29T13:59:27Z</time>
      </trkpt>
      <trkpt lat="45.23012" lon="4.40039">
        <ele>859.4</ele>
        <time>2023-03-29T13:59:29Z</time>
      </trkpt>
      <trkpt lat="45.23032" lon="4.40044">
        <ele>857.4</ele>
        <time>2023-03-29T13:59:31Z</time>
      </trkpt>
      <trkpt lat="45.23043" lon="4.40047">
        <ele>856</ele>
        <time>2023-03-29T13:59:32Z</time>
      </trkpt>
      <trkpt lat="45.23064" lon="4.40054">
        <ele>854.4</ele>
        <time>2023-03-29T13:59:34Z</time>
      </trkpt>
      <trkpt lat="45.23085" lon="4.40062">
        <ele>853</ele>
        <time>2023-03-29T13:59:36Z</time>
      </trkpt>
      <trkpt lat="45.23104" lon="4.4007">
        <ele>851.8</ele>
        <time>2023-03-29T13:59:38Z</time>
      </trkpt>
      <trkpt lat="45.23122" lon="4.40078">
        <ele>850.2</ele>
        <time>2023-03-29T13:59:40Z</time>
      </trkpt>
      <trkpt lat="45.23131" lon="4.40082">
        <ele>849.2</ele>
        <time>2023-03-29T13:59:41Z</time>
      </trkpt>
      <trkpt lat="45.23148" lon="4.40088">
        <ele>847.8</ele>
        <time>2023-03-29T13:59:43Z</time>
      </trkpt>
      <trkpt lat="45.23166" lon="4.40098">
        <ele>846.2</ele>
        <time>2023-03-29T13:59:45Z</time>
      </trkpt>
      <trkpt lat="45.23182" lon="4.40105">
        <ele>845</ele>
        <time>2023-03-29T13:59:47Z</time>
      </trkpt>
      <trkpt lat="45.23196" lon="4.40107">
        <ele>843.6</ele>
        <time>2023-03-29T13:59:49Z</time>
      </trkpt>
      <trkpt lat="45.23202" lon="4.40106">
        <ele>843.2</ele>
        <time>2023-03-29T13:59:50Z</time>
      </trkpt>
      <trkpt lat="45.23207" lon="4.40103">
        <ele>843</ele>
        <time>2023-03-29T13:59:51Z</time>
      </trkpt>
      <trkpt lat="45.23212" lon="4.40097">
        <ele>842.4</ele>
        <time>2023-03-29T13:59:52Z</time>
      </trkpt>
      <trkpt lat="45.23216" lon="4.40092">
        <ele>842.2</ele>
        <time>2023-03-29T13:59:53Z</time>
      </trkpt>
      <trkpt lat="45.23224" lon="4.40082">
        <ele>841.8</ele>
        <time>2023-03-29T13:59:55Z</time>
      </trkpt>
      <trkpt lat="45.23233" lon="4.40078">
        <ele>841.6</ele>
        <time>2023-03-29T13:59:57Z</time>
      </trkpt>
      <trkpt lat="45.23249" lon="4.40083">
        <ele>842</ele>
        <time>2023-03-29T14:00:01Z</time>
      </trkpt>
      <trkpt lat="45.23257" lon="4.40084">
        <ele>842</ele>
        <time>2023-03-29T14:00:03Z</time>
      </trkpt>
      <trkpt lat="45.23264" lon="4.40084">
        <ele>842.2</ele>
        <time>2023-03-29T14:00:05Z</time>
      </trkpt>
      <trkpt lat="45.23272" lon="4.40086">
        <ele>842.4</ele>
        <time>2023-03-29T14:00:07Z</time>
      </trkpt>
      <trkpt lat="45.23292" lon="4.40094">
        <ele>843.8</ele>
        <time>2023-03-29T14:00:13Z</time>
      </trkpt>
      <trkpt lat="45.23299" lon="4.40114">
        <ele>844.2</ele>
        <time>2023-03-29T14:00:17Z</time>
      </trkpt>
      <trkpt lat="45.23311" lon="4.40151">
        <ele>844.6</ele>
        <time>2023-03-29T14:00:23Z</time>
      </trkpt>
      <trkpt lat="45.23312" lon="4.40155">
        <ele>844.6</ele>
        <time>2023-03-29T14:00:24Z</time>
      </trkpt>
      <trkpt lat="45.23319" lon="4.40181">
        <ele>844.4</ele>
        <time>2023-03-29T14:00:28Z</time>
      </trkpt>
      <trkpt lat="45.23323" lon="4.40209">
        <ele>844.6</ele>
        <time>2023-03-29T14:00:32Z</time>
      </trkpt>
      <trkpt lat="45.23323" lon="4.40222">
        <ele>844.6</ele>
        <time>2023-03-29T14:00:34Z</time>
      </trkpt>
      <trkpt lat="45.23324" lon="4.40233">
        <ele>845</ele>
        <time>2023-03-29T14:00:36Z</time>
      </trkpt>
      <trkpt lat="45.23327" lon="4.40238">
        <ele>845.4</ele>
        <time>2023-03-29T14:00:37Z</time>
      </trkpt>
      <trkpt lat="45.23329" lon="4.4024">
        <ele>845.4</ele>
        <time>2023-03-29T14:00:38Z</time>
      </trkpt>
      <trkpt lat="45.23333" lon="4.40243">
        <ele>845.6</ele>
        <time>2023-03-29T14:00:39Z</time>
      </trkpt>
      <trkpt lat="45.23336" lon="4.40247">
        <ele>845.8</ele>
        <time>2023-03-29T14:00:40Z</time>
      </trkpt>
      <trkpt lat="45.23341" lon="4.40257">
        <ele>846</ele>
        <time>2023-03-29T14:00:42Z</time>
      </trkpt>
      <trkpt lat="45.23342" lon="4.40261">
        <ele>846</ele>
        <time>2023-03-29T14:00:43Z</time>
      </trkpt>
      <trkpt lat="45.23348" lon="4.40278">
        <ele>846.6</ele>
        <time>2023-03-29T14:00:47Z</time>
      </trkpt>
      <trkpt lat="45.23354" lon="4.40296">
        <ele>848</ele>
        <time>2023-03-29T14:00:52Z</time>
      </trkpt>
      <trkpt lat="45.23358" lon="4.40305">
        <ele>848.6</ele>
        <time>2023-03-29T14:00:55Z</time>
      </trkpt>
      <trkpt lat="45.23364" lon="4.40315">
        <ele>849</ele>
        <time>2023-03-29T14:00:58Z</time>
      </trkpt>
      <trkpt lat="45.23371" lon="4.40328">
        <ele>850.2</ele>
        <time>2023-03-29T14:01:02Z</time>
      </trkpt>
      <trkpt lat="45.23372" lon="4.40331">
        <ele>850.4</ele>
        <time>2023-03-29T14:01:03Z</time>
      </trkpt>
      <trkpt lat="45.23381" lon="4.40345">
        <ele>851.4</ele>
        <time>2023-03-29T14:01:08Z</time>
      </trkpt>
      <trkpt lat="45.23383" lon="4.40348">
        <ele>851.6</ele>
        <time>2023-03-29T14:01:09Z</time>
      </trkpt>
      <trkpt lat="45.23393" lon="4.40358">
        <ele>852.4</ele>
        <time>2023-03-29T14:01:13Z</time>
      </trkpt>
      <trkpt lat="45.23403" lon="4.40369">
        <ele>852.8</ele>
        <time>2023-03-29T14:01:17Z</time>
      </trkpt>
      <trkpt lat="45.2341" lon="4.40377">
        <ele>853.4</ele>
        <time>2023-03-29T14:01:20Z</time>
      </trkpt>
      <trkpt lat="45.23423" lon="4.40392">
        <ele>854.4</ele>
        <time>2023-03-29T14:01:25Z</time>
      </trkpt>
      <trkpt lat="45.23435" lon="4.40412">
        <ele>855.6</ele>
        <time>2023-03-29T14:01:31Z</time>
      </trkpt>
      <trkpt lat="45.23437" lon="4.40416">
        <ele>855.6</ele>
        <time>2023-03-29T14:01:32Z</time>
      </trkpt>
      <trkpt lat="45.23445" lon="4.40431">
        <ele>856.8</ele>
        <time>2023-03-29T14:01:36Z</time>
      </trkpt>
      <trkpt lat="45.23454" lon="4.40449">
        <ele>857.8</ele>
        <time>2023-03-29T14:01:41Z</time>
      </trkpt>
      <trkpt lat="45.23457" lon="4.40453">
        <ele>858</ele>
        <time>2023-03-29T14:01:42Z</time>
      </trkpt>
      <trkpt lat="45.23462" lon="4.40464">
        <ele>859</ele>
        <time>2023-03-29T14:01:45Z</time>
      </trkpt>
      <trkpt lat="45.23468" lon="4.40475">
        <ele>859.6</ele>
        <time>2023-03-29T14:01:48Z</time>
      </trkpt>
      <trkpt lat="45.23472" lon="4.40482">
        <ele>860</ele>
        <time>2023-03-29T14:01:50Z</time>
      </trkpt>
      <trkpt lat="45.2348" lon="4.40501">
        <ele>861</ele>
        <time>2023-03-29T14:01:55Z</time>
      </trkpt>
      <trkpt lat="45.23483" lon="4.40508">
        <ele>861.6</ele>
        <time>2023-03-29T14:01:57Z</time>
      </trkpt>
      <trkpt lat="45.23488" lon="4.4052">
        <ele>862.4</ele>
        <time>2023-03-29T14:02:00Z</time>
      </trkpt>
      <trkpt lat="45.23493" lon="4.40536">
        <ele>863.2</ele>
        <time>2023-03-29T14:02:04Z</time>
      </trkpt>
      <trkpt lat="45.23495" lon="4.40543">
        <ele>863.4</ele>
        <time>2023-03-29T14:02:06Z</time>
      </trkpt>
      <trkpt lat="45.23502" lon="4.40559">
        <ele>864.6</ele>
        <time>2023-03-29T14:02:10Z</time>
      </trkpt>
      <trkpt lat="45.23505" lon="4.40567">
        <ele>865.2</ele>
        <time>2023-03-29T14:02:12Z</time>
      </trkpt>
      <trkpt lat="45.23509" lon="4.40576">
        <ele>865.6</ele>
        <time>2023-03-29T14:02:14Z</time>
      </trkpt>
      <trkpt lat="45.23519" lon="4.40594">
        <ele>866.6</ele>
        <time>2023-03-29T14:02:19Z</time>
      </trkpt>
      <trkpt lat="45.23521" lon="4.40598">
        <ele>867</ele>
        <time>2023-03-29T14:02:20Z</time>
      </trkpt>
      <trkpt lat="45.23527" lon="4.40606">
        <ele>867.6</ele>
        <time>2023-03-29T14:02:23Z</time>
      </trkpt>
      <trkpt lat="45.2354" lon="4.40618">
        <ele>868.6</ele>
        <time>2023-03-29T14:02:28Z</time>
      </trkpt>
      <trkpt lat="45.23542" lon="4.40619">
        <ele>869</ele>
        <time>2023-03-29T14:02:29Z</time>
      </trkpt>
      <trkpt lat="45.2356" lon="4.40627">
        <ele>870</ele>
        <time>2023-03-29T14:02:35Z</time>
      </trkpt>
      <trkpt lat="45.23564" lon="4.40628">
        <ele>870.2</ele>
        <time>2023-03-29T14:02:36Z</time>
      </trkpt>
      <trkpt lat="45.23582" lon="4.4063">
        <ele>871.2</ele>
        <time>2023-03-29T14:02:42Z</time>
      </trkpt>
      <trkpt lat="45.23585" lon="4.40631">
        <ele>871.6</ele>
        <time>2023-03-29T14:02:43Z</time>
      </trkpt>
      <trkpt lat="45.23597" lon="4.40632">
        <ele>872.6</ele>
        <time>2023-03-29T14:02:47Z</time>
      </trkpt>
      <trkpt lat="45.23609" lon="4.40632">
        <ele>873.2</ele>
        <time>2023-03-29T14:02:51Z</time>
      </trkpt>
      <trkpt lat="45.23612" lon="4.40632">
        <ele>873.6</ele>
        <time>2023-03-29T14:02:52Z</time>
      </trkpt>
      <trkpt lat="45.23629" lon="4.40634">
        <ele>874.6</ele>
        <time>2023-03-29T14:02:58Z</time>
      </trkpt>
      <trkpt lat="45.23632" lon="4.40634">
        <ele>874.8</ele>
        <time>2023-03-29T14:02:59Z</time>
      </trkpt>
      <trkpt lat="45.23643" lon="4.40633">
        <ele>875.8</ele>
        <time>2023-03-29T14:03:03Z</time>
      </trkpt>
      <trkpt lat="45.23649" lon="4.40632">
        <ele>876</ele>
        <time>2023-03-29T14:03:05Z</time>
      </trkpt>
      <trkpt lat="45.23663" lon="4.4063">
        <ele>877.2</ele>
        <time>2023-03-29T14:03:10Z</time>
      </trkpt>
      <trkpt lat="45.23672" lon="4.40629">
        <ele>878</ele>
        <time>2023-03-29T14:03:13Z</time>
      </trkpt>
      <trkpt lat="45.23678" lon="4.40629">
        <ele>878.4</ele>
        <time>2023-03-29T14:03:15Z</time>
      </trkpt>
      <trkpt lat="45.23694" lon="4.40627">
        <ele>879.4</ele>
        <time>2023-03-29T14:03:21Z</time>
      </trkpt>
      <trkpt lat="45.23696" lon="4.40626">
        <ele>879.8</ele>
        <time>2023-03-29T14:03:22Z</time>
      </trkpt>
      <trkpt lat="45.23713" lon="4.40624">
        <ele>880.4</ele>
        <time>2023-03-29T14:03:28Z</time>
      </trkpt>
      <trkpt lat="45.23719" lon="4.40624">
        <ele>880.6</ele>
        <time>2023-03-29T14:03:30Z</time>
      </trkpt>
      <trkpt lat="45.23733" lon="4.4062">
        <ele>881.6</ele>
        <time>2023-03-29T14:03:35Z</time>
      </trkpt>
      <trkpt lat="45.23739" lon="4.4062">
        <ele>882.2</ele>
        <time>2023-03-29T14:03:37Z</time>
      </trkpt>
      <trkpt lat="45.2375" lon="4.40618">
        <ele>882.8</ele>
        <time>2023-03-29T14:03:41Z</time>
      </trkpt>
      <trkpt lat="45.23764" lon="4.40616">
        <ele>883.8</ele>
        <time>2023-03-29T14:03:46Z</time>
      </trkpt>
      <trkpt lat="45.23769" lon="4.40616">
        <ele>884.4</ele>
        <time>2023-03-29T14:03:48Z</time>
      </trkpt>
      <trkpt lat="45.23781" lon="4.40616">
        <ele>885</ele>
        <time>2023-03-29T14:03:52Z</time>
      </trkpt>
      <trkpt lat="45.23786" lon="4.40615">
        <ele>885.4</ele>
        <time>2023-03-29T14:03:54Z</time>
      </trkpt>
      <trkpt lat="45.23797" lon="4.40614">
        <ele>886.4</ele>
        <time>2023-03-29T14:03:58Z</time>
      </trkpt>
      <trkpt lat="45.23807" lon="4.40614">
        <ele>887.2</ele>
        <time>2023-03-29T14:04:02Z</time>
      </trkpt>
      <trkpt lat="45.2381" lon="4.40614">
        <ele>887.4</ele>
        <time>2023-03-29T14:04:03Z</time>
      </trkpt>
      <trkpt lat="45.23826" lon="4.40619">
        <ele>888.4</ele>
        <time>2023-03-29T14:04:09Z</time>
      </trkpt>
      <trkpt lat="45.23832" lon="4.4062">
        <ele>888.8</ele>
        <time>2023-03-29T14:04:11Z</time>
      </trkpt>
      <trkpt lat="45.2384" lon="4.40622">
        <ele>889.4</ele>
        <time>2023-03-29T14:04:14Z</time>
      </trkpt>
      <trkpt lat="45.23855" lon="4.40628">
        <ele>890.6</ele>
        <time>2023-03-29T14:04:20Z</time>
      </trkpt>
      <trkpt lat="45.23867" lon="4.40634">
        <ele>891.6</ele>
        <time>2023-03-29T14:04:25Z</time>
      </trkpt>
      <trkpt lat="45.23875" lon="4.40639">
        <ele>892.2</ele>
        <time>2023-03-29T14:04:28Z</time>
      </trkpt>
      <trkpt lat="45.23882" lon="4.40642">
        <ele>892.8</ele>
        <time>2023-03-29T14:04:31Z</time>
      </trkpt>
      <trkpt lat="45.23894" lon="4.40649">
        <ele>893.6</ele>
        <time>2023-03-29T14:04:36Z</time>
      </trkpt>
      <trkpt lat="45.23899" lon="4.40651">
        <ele>894</ele>
        <time>2023-03-29T14:04:38Z</time>
      </trkpt>
      <trkpt lat="45.23914" lon="4.40658">
        <ele>895.2</ele>
        <time>2023-03-29T14:04:44Z</time>
      </trkpt>
      <trkpt lat="45.23917" lon="4.40659">
        <ele>895.4</ele>
        <time>2023-03-29T14:04:45Z</time>
      </trkpt>
      <trkpt lat="45.23928" lon="4.40665">
        <ele>896.2</ele>
        <time>2023-03-29T14:04:49Z</time>
      </trkpt>
      <trkpt lat="45.23941" lon="4.40672">
        <ele>897</ele>
        <time>2023-03-29T14:04:54Z</time>
      </trkpt>
      <trkpt lat="45.23943" lon="4.40674">
        <ele>897.2</ele>
        <time>2023-03-29T14:04:55Z</time>
      </trkpt>
      <trkpt lat="45.23958" lon="4.40681">
        <ele>898.4</ele>
        <time>2023-03-29T14:05:01Z</time>
      </trkpt>
      <trkpt lat="45.23961" lon="4.40682">
        <ele>898.4</ele>
        <time>2023-03-29T14:05:02Z</time>
      </trkpt>
      <trkpt lat="45.23972" lon="4.40687">
        <ele>899.6</ele>
        <time>2023-03-29T14:05:06Z</time>
      </trkpt>
      <trkpt lat="45.23979" lon="4.40691">
        <ele>900.2</ele>
        <time>2023-03-29T14:05:09Z</time>
      </trkpt>
      <trkpt lat="45.23984" lon="4.40692">
        <ele>900.6</ele>
        <time>2023-03-29T14:05:11Z</time>
      </trkpt>
      <trkpt lat="45.24" lon="4.40697">
        <ele>901.8</ele>
        <time>2023-03-29T14:05:17Z</time>
      </trkpt>
      <trkpt lat="45.2401" lon="4.40699">
        <ele>902.6</ele>
        <time>2023-03-29T14:05:21Z</time>
      </trkpt>
      <trkpt lat="45.24016" lon="4.40699">
        <ele>903</ele>
        <time>2023-03-29T14:05:23Z</time>
      </trkpt>
      <trkpt lat="45.24027" lon="4.40701">
        <ele>904</ele>
        <time>2023-03-29T14:05:27Z</time>
      </trkpt>
      <trkpt lat="45.24029" lon="4.40702">
        <ele>904.2</ele>
        <time>2023-03-29T14:05:28Z</time>
      </trkpt>
      <trkpt lat="45.24045" lon="4.40702">
        <ele>905.2</ele>
        <time>2023-03-29T14:05:34Z</time>
      </trkpt>
      <trkpt lat="45.24056" lon="4.407">
        <ele>905.6</ele>
        <time>2023-03-29T14:05:38Z</time>
      </trkpt>
      <trkpt lat="45.24064" lon="4.40698">
        <ele>906.6</ele>
        <time>2023-03-29T14:05:41Z</time>
      </trkpt>
      <trkpt lat="45.24078" lon="4.40694">
        <ele>908</ele>
        <time>2023-03-29T14:05:46Z</time>
      </trkpt>
      <trkpt lat="45.24081" lon="4.40693">
        <ele>908.2</ele>
        <time>2023-03-29T14:05:47Z</time>
      </trkpt>
      <trkpt lat="45.24092" lon="4.40687">
        <ele>909.2</ele>
        <time>2023-03-29T14:05:51Z</time>
      </trkpt>
      <trkpt lat="45.24101" lon="4.40678">
        <ele>909.8</ele>
        <time>2023-03-29T14:05:55Z</time>
      </trkpt>
      <trkpt lat="45.24106" lon="4.40673">
        <ele>910.2</ele>
        <time>2023-03-29T14:05:57Z</time>
      </trkpt>
      <trkpt lat="45.24118" lon="4.40656">
        <ele>911.2</ele>
        <time>2023-03-29T14:06:03Z</time>
      </trkpt>
      <trkpt lat="45.2412" lon="4.40653">
        <ele>911.4</ele>
        <time>2023-03-29T14:06:04Z</time>
      </trkpt>
      <trkpt lat="45.24127" lon="4.40632">
        <ele>912.2</ele>
        <time>2023-03-29T14:06:10Z</time>
      </trkpt>
      <trkpt lat="45.24128" lon="4.40628">
        <ele>912.6</ele>
        <time>2023-03-29T14:06:11Z</time>
      </trkpt>
      <trkpt lat="45.24135" lon="4.406">
        <ele>913.6</ele>
        <time>2023-03-29T14:06:18Z</time>
      </trkpt>
      <trkpt lat="45.24138" lon="4.40591">
        <ele>914</ele>
        <time>2023-03-29T14:06:20Z</time>
      </trkpt>
      <trkpt lat="45.24145" lon="4.40575">
        <ele>914.8</ele>
        <time>2023-03-29T14:06:24Z</time>
      </trkpt>
      <trkpt lat="45.24152" lon="4.40565">
        <ele>915.2</ele>
        <time>2023-03-29T14:06:27Z</time>
      </trkpt>
      <trkpt lat="45.24164" lon="4.40553">
        <ele>915.8</ele>
        <time>2023-03-29T14:06:32Z</time>
      </trkpt>
      <trkpt lat="45.24172" lon="4.40548">
        <ele>916.4</ele>
        <time>2023-03-29T14:06:35Z</time>
      </trkpt>
      <trkpt lat="45.24177" lon="4.40545">
        <ele>917</ele>
        <time>2023-03-29T14:06:37Z</time>
      </trkpt>
      <trkpt lat="45.24192" lon="4.40542">
        <ele>918.4</ele>
        <time>2023-03-29T14:06:42Z</time>
      </trkpt>
      <trkpt lat="45.24198" lon="4.40541">
        <ele>919</ele>
        <time>2023-03-29T14:06:44Z</time>
      </trkpt>
      <trkpt lat="45.24207" lon="4.40539">
        <ele>919.8</ele>
        <time>2023-03-29T14:06:47Z</time>
      </trkpt>
      <trkpt lat="45.24215" lon="4.40537">
        <ele>920.6</ele>
        <time>2023-03-29T14:06:50Z</time>
      </trkpt>
      <trkpt lat="45.24221" lon="4.40535">
        <ele>921</ele>
        <time>2023-03-29T14:06:52Z</time>
      </trkpt>
      <trkpt lat="45.24225" lon="4.40535">
        <ele>921.2</ele>
        <time>2023-03-29T14:06:53Z</time>
      </trkpt>
      <trkpt lat="45.24244" lon="4.4053">
        <ele>922.2</ele>
        <time>2023-03-29T14:06:59Z</time>
      </trkpt>
      <trkpt lat="45.24253" lon="4.40527">
        <ele>922.6</ele>
        <time>2023-03-29T14:07:02Z</time>
      </trkpt>
      <trkpt lat="45.24268" lon="4.40523">
        <ele>923.4</ele>
        <time>2023-03-29T14:07:07Z</time>
      </trkpt>
      <trkpt lat="45.24282" lon="4.40519">
        <ele>924</ele>
        <time>2023-03-29T14:07:11Z</time>
      </trkpt>
      <trkpt lat="45.24289" lon="4.40517">
        <ele>924.4</ele>
        <time>2023-03-29T14:07:13Z</time>
      </trkpt>
      <trkpt lat="45.24312" lon="4.40511">
        <ele>925.2</ele>
        <time>2023-03-29T14:07:19Z</time>
      </trkpt>
      <trkpt lat="45.24329" lon="4.40506">
        <ele>925.4</ele>
        <time>2023-03-29T14:07:23Z</time>
      </trkpt>
      <trkpt lat="45.24343" lon="4.40502">
        <ele>925.6</ele>
        <time>2023-03-29T14:07:26Z</time>
      </trkpt>
      <trkpt lat="45.24385" lon="4.40492">
        <ele>926</ele>
        <time>2023-03-29T14:07:34Z</time>
      </trkpt>
      <trkpt lat="45.24429" lon="4.4048">
        <ele>926.4</ele>
        <time>2023-03-29T14:07:42Z</time>
      </trkpt>
      <trkpt lat="45.24435" lon="4.40478">
        <ele>926.6</ele>
        <time>2023-03-29T14:07:43Z</time>
      </trkpt>
      <trkpt lat="45.24473" lon="4.40462">
        <ele>927.2</ele>
        <time>2023-03-29T14:07:50Z</time>
      </trkpt>
      <trkpt lat="45.24487" lon="4.40452">
        <ele>927.6</ele>
        <time>2023-03-29T14:07:53Z</time>
      </trkpt>
      <trkpt lat="45.24502" lon="4.40437">
        <ele>928.2</ele>
        <time>2023-03-29T14:07:57Z</time>
      </trkpt>
      <trkpt lat="45.24512" lon="4.40426">
        <ele>929</ele>
        <time>2023-03-29T14:08:00Z</time>
      </trkpt>
      <trkpt lat="45.24524" lon="4.4041">
        <ele>930</ele>
        <time>2023-03-29T14:08:04Z</time>
      </trkpt>
      <trkpt lat="45.24527" lon="4.40407">
        <ele>930.2</ele>
        <time>2023-03-29T14:08:05Z</time>
      </trkpt>
      <trkpt lat="45.24543" lon="4.40388">
        <ele>931.2</ele>
        <time>2023-03-29T14:08:10Z</time>
      </trkpt>
      <trkpt lat="45.2456" lon="4.40368">
        <ele>932.2</ele>
        <time>2023-03-29T14:08:15Z</time>
      </trkpt>
      <trkpt lat="45.24586" lon="4.40331">
        <ele>932.8</ele>
        <time>2023-03-29T14:08:23Z</time>
      </trkpt>
      <trkpt lat="45.24599" lon="4.40303">
        <ele>933.4</ele>
        <time>2023-03-29T14:08:29Z</time>
      </trkpt>
      <trkpt lat="45.24601" lon="4.40299">
        <ele>933.4</ele>
        <time>2023-03-29T14:08:30Z</time>
      </trkpt>
      <trkpt lat="45.24612" lon="4.40279">
        <ele>934.4</ele>
        <time>2023-03-29T14:08:35Z</time>
      </trkpt>
      <trkpt lat="45.24615" lon="4.40272">
        <ele>934.8</ele>
        <time>2023-03-29T14:08:37Z</time>
      </trkpt>
      <trkpt lat="45.24622" lon="4.40264">
        <ele>935.6</ele>
        <time>2023-03-29T14:08:40Z</time>
      </trkpt>
      <trkpt lat="45.24632" lon="4.40255">
        <ele>936.6</ele>
        <time>2023-03-29T14:08:44Z</time>
      </trkpt>
      <trkpt lat="45.24634" lon="4.40252">
        <ele>937</ele>
        <time>2023-03-29T14:08:45Z</time>
      </trkpt>
      <trkpt lat="45.24645" lon="4.40241">
        <ele>938</ele>
        <time>2023-03-29T14:08:50Z</time>
      </trkpt>
      <trkpt lat="45.24652" lon="4.40231">
        <ele>939.2</ele>
        <time>2023-03-29T14:08:54Z</time>
      </trkpt>
      <trkpt lat="45.24667" lon="4.40217">
        <ele>940.4</ele>
        <time>2023-03-29T14:09:00Z</time>
      </trkpt>
      <trkpt lat="45.24669" lon="4.40215">
        <ele>940.6</ele>
        <time>2023-03-29T14:09:01Z</time>
      </trkpt>
      <trkpt lat="45.24678" lon="4.40207">
        <ele>941.2</ele>
        <time>2023-03-29T14:09:05Z</time>
      </trkpt>
      <trkpt lat="45.24687" lon="4.40198">
        <ele>942.2</ele>
        <time>2023-03-29T14:09:09Z</time>
      </trkpt>
      <trkpt lat="45.24698" lon="4.40188">
        <ele>943.6</ele>
        <time>2023-03-29T14:09:14Z</time>
      </trkpt>
      <trkpt lat="45.24706" lon="4.4018">
        <ele>944.6</ele>
        <time>2023-03-29T14:09:18Z</time>
      </trkpt>
      <trkpt lat="45.24708" lon="4.40178">
        <ele>944.8</ele>
        <time>2023-03-29T14:09:19Z</time>
      </trkpt>
      <trkpt lat="45.24719" lon="4.40165">
        <ele>946.2</ele>
        <time>2023-03-29T14:09:25Z</time>
      </trkpt>
      <trkpt lat="45.24723" lon="4.40161">
        <ele>946.6</ele>
        <time>2023-03-29T14:09:27Z</time>
      </trkpt>
      <trkpt lat="45.24729" lon="4.40156">
        <ele>947.2</ele>
        <time>2023-03-29T14:09:30Z</time>
      </trkpt>
      <trkpt lat="45.24743" lon="4.40144">
        <ele>948.4</ele>
        <time>2023-03-29T14:09:36Z</time>
      </trkpt>
      <trkpt lat="45.24745" lon="4.40142">
        <ele>948.8</ele>
        <time>2023-03-29T14:09:37Z</time>
      </trkpt>
      <trkpt lat="45.24755" lon="4.40136">
        <ele>949.6</ele>
        <time>2023-03-29T14:09:41Z</time>
      </trkpt>
      <trkpt lat="45.24766" lon="4.4013">
        <ele>950.2</ele>
        <time>2023-03-29T14:09:45Z</time>
      </trkpt>
      <trkpt lat="45.24769" lon="4.40128">
        <ele>950.8</ele>
        <time>2023-03-29T14:09:46Z</time>
      </trkpt>
      <trkpt lat="45.24786" lon="4.40119">
        <ele>951.8</ele>
        <time>2023-03-29T14:09:52Z</time>
      </trkpt>
      <trkpt lat="45.24801" lon="4.40116">
        <ele>952.8</ele>
        <time>2023-03-29T14:09:57Z</time>
      </trkpt>
      <trkpt lat="45.24816" lon="4.40113">
        <ele>953.8</ele>
        <time>2023-03-29T14:10:02Z</time>
      </trkpt>
      <trkpt lat="45.24819" lon="4.40112">
        <ele>954</ele>
        <time>2023-03-29T14:10:03Z</time>
      </trkpt>
      <trkpt lat="45.24835" lon="4.40111">
        <ele>955</ele>
        <time>2023-03-29T14:10:08Z</time>
      </trkpt>
      <trkpt lat="45.24847" lon="4.4011">
        <ele>955.6</ele>
        <time>2023-03-29T14:10:12Z</time>
      </trkpt>
      <trkpt lat="45.24854" lon="4.4011">
        <ele>956</ele>
        <time>2023-03-29T14:10:14Z</time>
      </trkpt>
      <trkpt lat="45.24868" lon="4.4011">
        <ele>957.2</ele>
        <time>2023-03-29T14:10:19Z</time>
      </trkpt>
      <trkpt lat="45.2488" lon="4.4011">
        <ele>958</ele>
        <time>2023-03-29T14:10:23Z</time>
      </trkpt>
      <trkpt lat="45.24883" lon="4.4011">
        <ele>958.2</ele>
        <time>2023-03-29T14:10:24Z</time>
      </trkpt>
      <trkpt lat="45.24896" lon="4.4011">
        <ele>959.4</ele>
        <time>2023-03-29T14:10:29Z</time>
      </trkpt>
      <trkpt lat="45.24901" lon="4.40109">
        <ele>960</ele>
        <time>2023-03-29T14:10:31Z</time>
      </trkpt>
      <trkpt lat="45.24911" lon="4.40108">
        <ele>960.4</ele>
        <time>2023-03-29T14:10:35Z</time>
      </trkpt>
      <trkpt lat="45.24924" lon="4.40108">
        <ele>961.4</ele>
        <time>2023-03-29T14:10:40Z</time>
      </trkpt>
      <trkpt lat="45.24938" lon="4.40109">
        <ele>962.6</ele>
        <time>2023-03-29T14:10:45Z</time>
      </trkpt>
      <trkpt lat="45.24941" lon="4.40109">
        <ele>962.8</ele>
        <time>2023-03-29T14:10:46Z</time>
      </trkpt>
      <trkpt lat="45.24953" lon="4.40109">
        <ele>963.8</ele>
        <time>2023-03-29T14:10:50Z</time>
      </trkpt>
      <trkpt lat="45.24964" lon="4.40109">
        <ele>964.6</ele>
        <time>2023-03-29T14:10:54Z</time>
      </trkpt>
      <trkpt lat="45.24973" lon="4.40109">
        <ele>965</ele>
        <time>2023-03-29T14:10:57Z</time>
      </trkpt>
      <trkpt lat="45.24982" lon="4.40109">
        <ele>965.6</ele>
        <time>2023-03-29T14:11:00Z</time>
      </trkpt>
      <trkpt lat="45.25004" lon="4.40109">
        <ele>966.8</ele>
        <time>2023-03-29T14:11:07Z</time>
      </trkpt>
      <trkpt lat="45.25023" lon="4.40109">
        <ele>967.8</ele>
        <time>2023-03-29T14:11:13Z</time>
      </trkpt>
      <trkpt lat="45.25033" lon="4.40109">
        <ele>968.4</ele>
        <time>2023-03-29T14:11:16Z</time>
      </trkpt>
      <trkpt lat="45.2505" lon="4.40109">
        <ele>969</ele>
        <time>2023-03-29T14:11:21Z</time>
      </trkpt>
      <trkpt lat="45.25068" lon="4.40109">
        <ele>969.6</ele>
        <time>2023-03-29T14:11:26Z</time>
      </trkpt>
      <trkpt lat="45.25079" lon="4.40109">
        <ele>970</ele>
        <time>2023-03-29T14:11:29Z</time>
      </trkpt>
      <trkpt lat="45.25112" lon="4.4011">
        <ele>970.6</ele>
        <time>2023-03-29T14:11:37Z</time>
      </trkpt>
      <trkpt lat="45.25146" lon="4.40107">
        <ele>971</ele>
        <time>2023-03-29T14:11:44Z</time>
      </trkpt>
      <trkpt lat="45.25151" lon="4.40106">
        <ele>971</ele>
        <time>2023-03-29T14:11:45Z</time>
      </trkpt>
      <trkpt lat="45.25174" lon="4.40099">
        <ele>971.8</ele>
        <time>2023-03-29T14:11:50Z</time>
      </trkpt>
      <trkpt lat="45.25183" lon="4.40095">
        <ele>971.8</ele>
        <time>2023-03-29T14:11:52Z</time>
      </trkpt>
      <trkpt lat="45.25196" lon="4.4009">
        <ele>972.2</ele>
        <time>2023-03-29T14:11:55Z</time>
      </trkpt>
      <trkpt lat="45.25213" lon="4.40081">
        <ele>973</ele>
        <time>2023-03-29T14:11:59Z</time>
      </trkpt>
      <trkpt lat="45.25217" lon="4.40079">
        <ele>973</ele>
        <time>2023-03-29T14:12:00Z</time>
      </trkpt>
      <trkpt lat="45.25225" lon="4.40076">
        <ele>973.2</ele>
        <time>2023-03-29T14:12:02Z</time>
      </trkpt>
      <trkpt lat="45.25229" lon="4.40073">
        <ele>973.6</ele>
        <time>2023-03-29T14:12:03Z</time>
      </trkpt>
      <trkpt lat="45.25237" lon="4.40069">
        <ele>973.8</ele>
        <time>2023-03-29T14:12:05Z</time>
      </trkpt>
      <trkpt lat="45.25242" lon="4.40067">
        <ele>973.8</ele>
        <time>2023-03-29T14:12:06Z</time>
      </trkpt>
      <trkpt lat="45.25255" lon="4.40059">
        <ele>974</ele>
        <time>2023-03-29T14:12:09Z</time>
      </trkpt>
      <trkpt lat="45.2526" lon="4.40058">
        <ele>974.2</ele>
        <time>2023-03-29T14:12:10Z</time>
      </trkpt>
      <trkpt lat="45.25277" lon="4.4005">
        <ele>974.8</ele>
        <time>2023-03-29T14:12:14Z</time>
      </trkpt>
      <trkpt lat="45.25289" lon="4.40046">
        <ele>975.2</ele>
        <time>2023-03-29T14:12:17Z</time>
      </trkpt>
      <trkpt lat="45.25301" lon="4.40042">
        <ele>975.6</ele>
        <time>2023-03-29T14:12:20Z</time>
      </trkpt>
      <trkpt lat="45.2531" lon="4.40041">
        <ele>976.2</ele>
        <time>2023-03-29T14:12:22Z</time>
      </trkpt>
      <trkpt lat="45.25314" lon="4.4004">
        <ele>976.4</ele>
        <time>2023-03-29T14:12:23Z</time>
      </trkpt>
      <trkpt lat="45.25322" lon="4.40038">
        <ele>976.6</ele>
        <time>2023-03-29T14:12:25Z</time>
      </trkpt>
      <trkpt lat="45.2533" lon="4.40037">
        <ele>976.8</ele>
        <time>2023-03-29T14:12:27Z</time>
      </trkpt>
      <trkpt lat="45.25334" lon="4.40037">
        <ele>976.8</ele>
        <time>2023-03-29T14:12:28Z</time>
      </trkpt>
      <trkpt lat="45.25346" lon="4.40036">
        <ele>977.4</ele>
        <time>2023-03-29T14:12:31Z</time>
      </trkpt>
      <trkpt lat="45.25361" lon="4.40035">
        <ele>978</ele>
        <time>2023-03-29T14:12:35Z</time>
      </trkpt>
      <trkpt lat="45.25369" lon="4.40034">
        <ele>978.4</ele>
        <time>2023-03-29T14:12:37Z</time>
      </trkpt>
      <trkpt lat="45.2539" lon="4.40032">
        <ele>979.6</ele>
        <time>2023-03-29T14:12:43Z</time>
      </trkpt>
      <trkpt lat="45.25397" lon="4.40031">
        <ele>979.8</ele>
        <time>2023-03-29T14:12:45Z</time>
      </trkpt>
      <trkpt lat="45.25412" lon="4.40029">
        <ele>980.6</ele>
        <time>2023-03-29T14:12:49Z</time>
      </trkpt>
      <trkpt lat="45.25423" lon="4.40028">
        <ele>981.2</ele>
        <time>2023-03-29T14:12:52Z</time>
      </trkpt>
      <trkpt lat="45.25434" lon="4.40027">
        <ele>981.8</ele>
        <time>2023-03-29T14:12:55Z</time>
      </trkpt>
      <trkpt lat="45.25449" lon="4.40026">
        <ele>982.4</ele>
        <time>2023-03-29T14:12:59Z</time>
      </trkpt>
      <trkpt lat="45.2546" lon="4.40025">
        <ele>983</ele>
        <time>2023-03-29T14:13:02Z</time>
      </trkpt>
      <trkpt lat="45.25474" lon="4.40025">
        <ele>983.6</ele>
        <time>2023-03-29T14:13:06Z</time>
      </trkpt>
      <trkpt lat="45.25486" lon="4.40026">
        <ele>984.2</ele>
        <time>2023-03-29T14:13:09Z</time>
      </trkpt>
      <trkpt lat="45.25504" lon="4.40028">
        <ele>985</ele>
        <time>2023-03-29T14:13:14Z</time>
      </trkpt>
      <trkpt lat="45.25511" lon="4.40029">
        <ele>985.4</ele>
        <time>2023-03-29T14:13:16Z</time>
      </trkpt>
      <trkpt lat="45.25532" lon="4.40031">
        <ele>986.4</ele>
        <time>2023-03-29T14:13:22Z</time>
      </trkpt>
      <trkpt lat="45.25535" lon="4.40032">
        <ele>986.6</ele>
        <time>2023-03-29T14:13:23Z</time>
      </trkpt>
      <trkpt lat="45.25556" lon="4.40036">
        <ele>987.8</ele>
        <time>2023-03-29T14:13:29Z</time>
      </trkpt>
      <trkpt lat="45.25563" lon="4.40038">
        <ele>988.2</ele>
        <time>2023-03-29T14:13:31Z</time>
      </trkpt>
      <trkpt lat="45.25573" lon="4.40043">
        <ele>988.8</ele>
        <time>2023-03-29T14:13:34Z</time>
      </trkpt>
      <trkpt lat="45.2559" lon="4.40056">
        <ele>989.4</ele>
        <time>2023-03-29T14:13:39Z</time>
      </trkpt>
      <trkpt lat="45.25598" lon="4.40065">
        <ele>990</ele>
        <time>2023-03-29T14:13:42Z</time>
      </trkpt>
      <trkpt lat="45.25611" lon="4.40082">
        <ele>991</ele>
        <time>2023-03-29T14:13:47Z</time>
      </trkpt>
      <trkpt lat="45.25613" lon="4.40085">
        <ele>991.2</ele>
        <time>2023-03-29T14:13:48Z</time>
      </trkpt>
      <trkpt lat="45.2563" lon="4.40108">
        <ele>992.2</ele>
        <time>2023-03-29T14:13:54Z</time>
      </trkpt>
      <trkpt lat="45.2564" lon="4.40119">
        <ele>992.4</ele>
        <time>2023-03-29T14:13:57Z</time>
      </trkpt>
      <trkpt lat="45.25658" lon="4.4014">
        <ele>993.2</ele>
        <time>2023-03-29T14:14:03Z</time>
      </trkpt>
      <trkpt lat="45.25669" lon="4.40153">
        <ele>993.6</ele>
        <time>2023-03-29T14:14:07Z</time>
      </trkpt>
      <trkpt lat="45.25677" lon="4.40162">
        <ele>994.2</ele>
        <time>2023-03-29T14:14:10Z</time>
      </trkpt>
      <trkpt lat="45.25691" lon="4.40177">
        <ele>995</ele>
        <time>2023-03-29T14:14:15Z</time>
      </trkpt>
      <trkpt lat="45.25694" lon="4.40179">
        <ele>995.2</ele>
        <time>2023-03-29T14:14:16Z</time>
      </trkpt>
      <trkpt lat="45.25708" lon="4.4019">
        <ele>996.4</ele>
        <time>2023-03-29T14:14:21Z</time>
      </trkpt>
      <trkpt lat="45.25711" lon="4.40192">
        <ele>996.6</ele>
        <time>2023-03-29T14:14:22Z</time>
      </trkpt>
      <trkpt lat="45.25727" lon="4.40198">
        <ele>997.4</ele>
        <time>2023-03-29T14:14:27Z</time>
      </trkpt>
      <trkpt lat="45.25734" lon="4.40199">
        <ele>998</ele>
        <time>2023-03-29T14:14:29Z</time>
      </trkpt>
      <trkpt lat="45.25748" lon="4.402">
        <ele>998.6</ele>
        <time>2023-03-29T14:14:33Z</time>
      </trkpt>
      <trkpt lat="45.25762" lon="4.402">
        <ele>999.2</ele>
        <time>2023-03-29T14:14:37Z</time>
      </trkpt>
      <trkpt lat="45.25777" lon="4.40196">
        <ele>999.8</ele>
        <time>2023-03-29T14:14:41Z</time>
      </trkpt>
      <trkpt lat="45.25793" lon="4.40192">
        <ele>1000.2</ele>
        <time>2023-03-29T14:14:45Z</time>
      </trkpt>
      <trkpt lat="45.2581" lon="4.40185">
        <ele>1000.8</ele>
        <time>2023-03-29T14:14:49Z</time>
      </trkpt>
      <trkpt lat="45.25822" lon="4.40181">
        <ele>1001.4</ele>
        <time>2023-03-29T14:14:52Z</time>
      </trkpt>
      <trkpt lat="45.25826" lon="4.40179">
        <ele>1001.6</ele>
        <time>2023-03-29T14:14:53Z</time>
      </trkpt>
      <trkpt lat="45.25844" lon="4.40171">
        <ele>1002</ele>
        <time>2023-03-29T14:14:57Z</time>
      </trkpt>
      <trkpt lat="45.25865" lon="4.40164">
        <ele>1003</ele>
        <time>2023-03-29T14:15:02Z</time>
      </trkpt>
      <trkpt lat="45.25869" lon="4.40162">
        <ele>1003.2</ele>
        <time>2023-03-29T14:15:03Z</time>
      </trkpt>
      <trkpt lat="45.25894" lon="4.40153">
        <ele>1004.2</ele>
        <time>2023-03-29T14:15:09Z</time>
      </trkpt>
      <trkpt lat="45.25898" lon="4.40151">
        <ele>1004.4</ele>
        <time>2023-03-29T14:15:10Z</time>
      </trkpt>
      <trkpt lat="45.25926" lon="4.40141">
        <ele>1005.6</ele>
        <time>2023-03-29T14:15:17Z</time>
      </trkpt>
      <trkpt lat="45.25934" lon="4.40138">
        <ele>1006.2</ele>
        <time>2023-03-29T14:15:19Z</time>
      </trkpt>
      <trkpt lat="45.25945" lon="4.40133">
        <ele>1006.8</ele>
        <time>2023-03-29T14:15:22Z</time>
      </trkpt>
      <trkpt lat="45.2596" lon="4.40127">
        <ele>1007.8</ele>
        <time>2023-03-29T14:15:26Z</time>
      </trkpt>
      <trkpt lat="45.25964" lon="4.40125">
        <ele>1008</ele>
        <time>2023-03-29T14:15:27Z</time>
      </trkpt>
      <trkpt lat="45.2598" lon="4.40119">
        <ele>1009</ele>
        <time>2023-03-29T14:15:31Z</time>
      </trkpt>
      <trkpt lat="45.25984" lon="4.40118">
        <ele>1009</ele>
        <time>2023-03-29T14:15:32Z</time>
      </trkpt>
      <trkpt lat="45.25992" lon="4.40115">
        <ele>1009.2</ele>
        <time>2023-03-29T14:15:34Z</time>
      </trkpt>
      <trkpt lat="45.25999" lon="4.40111">
        <ele>1009.6</ele>
        <time>2023-03-29T14:15:36Z</time>
      </trkpt>
      <trkpt lat="45.26003" lon="4.4011">
        <ele>1009.8</ele>
        <time>2023-03-29T14:15:37Z</time>
      </trkpt>
      <trkpt lat="45.26011" lon="4.40107">
        <ele>1010</ele>
        <time>2023-03-29T14:15:39Z</time>
      </trkpt>
      <trkpt lat="45.26015" lon="4.40106">
        <ele>1010.2</ele>
        <time>2023-03-29T14:15:40Z</time>
      </trkpt>
      <trkpt lat="45.26039" lon="4.40097">
        <ele>1011.2</ele>
        <time>2023-03-29T14:15:46Z</time>
      </trkpt>
      <trkpt lat="45.26044" lon="4.40095">
        <ele>1011</ele>
        <time>2023-03-29T14:15:47Z</time>
      </trkpt>
      <trkpt lat="45.26069" lon="4.40086">
        <ele>1012.2</ele>
        <time>2023-03-29T14:15:53Z</time>
      </trkpt>
      <trkpt lat="45.26091" lon="4.40077">
        <ele>1013.2</ele>
        <time>2023-03-29T14:15:58Z</time>
      </trkpt>
      <trkpt lat="45.26109" lon="4.4007">
        <ele>1013.8</ele>
        <time>2023-03-29T14:16:02Z</time>
      </trkpt>
      <trkpt lat="45.26122" lon="4.40064">
        <ele>1014.2</ele>
        <time>2023-03-29T14:16:05Z</time>
      </trkpt>
      <trkpt lat="45.26143" lon="4.40051">
        <ele>1015</ele>
        <time>2023-03-29T14:16:10Z</time>
      </trkpt>
      <trkpt lat="45.2615" lon="4.40045">
        <ele>1015.4</ele>
        <time>2023-03-29T14:16:12Z</time>
      </trkpt>
      <trkpt lat="45.26163" lon="4.40033">
        <ele>1015.8</ele>
        <time>2023-03-29T14:16:16Z</time>
      </trkpt>
      <trkpt lat="45.26191" lon="4.40004">
        <ele>1015.8</ele>
        <time>2023-03-29T14:16:23Z</time>
      </trkpt>
      <trkpt lat="45.26219" lon="4.39975">
        <ele>1015.2</ele>
        <time>2023-03-29T14:16:28Z</time>
      </trkpt>
      <trkpt lat="45.26243" lon="4.39958">
        <ele>1014.4</ele>
        <time>2023-03-29T14:16:31Z</time>
      </trkpt>
      <trkpt lat="45.26253" lon="4.39954">
        <ele>1013.8</ele>
        <time>2023-03-29T14:16:32Z</time>
      </trkpt>
      <trkpt lat="45.26264" lon="4.39951">
        <ele>1013.4</ele>
        <time>2023-03-29T14:16:33Z</time>
      </trkpt>
      <trkpt lat="45.26286" lon="4.3995">
        <ele>1012.4</ele>
        <time>2023-03-29T14:16:35Z</time>
      </trkpt>
      <trkpt lat="45.2631" lon="4.39956">
        <ele>1010.8</ele>
        <time>2023-03-29T14:16:37Z</time>
      </trkpt>
      <trkpt lat="45.26322" lon="4.39962">
        <ele>1010.4</ele>
        <time>2023-03-29T14:16:38Z</time>
      </trkpt>
      <trkpt lat="45.26334" lon="4.39969">
        <ele>1009</ele>
        <time>2023-03-29T14:16:39Z</time>
      </trkpt>
      <trkpt lat="45.26357" lon="4.39986">
        <ele>1007.2</ele>
        <time>2023-03-29T14:16:41Z</time>
      </trkpt>
      <trkpt lat="45.26381" lon="4.40004">
        <ele>1005</ele>
        <time>2023-03-29T14:16:43Z</time>
      </trkpt>
      <trkpt lat="45.26405" lon="4.40022">
        <ele>1003.2</ele>
        <time>2023-03-29T14:16:45Z</time>
      </trkpt>
      <trkpt lat="45.26417" lon="4.40032">
        <ele>1001.4</ele>
        <time>2023-03-29T14:16:46Z</time>
      </trkpt>
      <trkpt lat="45.26442" lon="4.40051">
        <ele>999.4</ele>
        <time>2023-03-29T14:16:48Z</time>
      </trkpt>
      <trkpt lat="45.26454" lon="4.40061">
        <ele>998.8</ele>
        <time>2023-03-29T14:16:49Z</time>
      </trkpt>
      <trkpt lat="45.26467" lon="4.4007">
        <ele>997.8</ele>
        <time>2023-03-29T14:16:50Z</time>
      </trkpt>
      <trkpt lat="45.26494" lon="4.40087">
        <ele>994.8</ele>
        <time>2023-03-29T14:16:52Z</time>
      </trkpt>
      <trkpt lat="45.26508" lon="4.40093">
        <ele>994.2</ele>
        <time>2023-03-29T14:16:53Z</time>
      </trkpt>
      <trkpt lat="45.26522" lon="4.40099">
        <ele>993</ele>
        <time>2023-03-29T14:16:54Z</time>
      </trkpt>
      <trkpt lat="45.26536" lon="4.40102">
        <ele>991.8</ele>
        <time>2023-03-29T14:16:55Z</time>
      </trkpt>
      <trkpt lat="45.26551" lon="4.40104">
        <ele>991.2</ele>
        <time>2023-03-29T14:16:56Z</time>
      </trkpt>
      <trkpt lat="45.26566" lon="4.40104">
        <ele>989.8</ele>
        <time>2023-03-29T14:16:57Z</time>
      </trkpt>
      <trkpt lat="45.26595" lon="4.40099">
        <ele>987.4</ele>
        <time>2023-03-29T14:16:59Z</time>
      </trkpt>
      <trkpt lat="45.26624" lon="4.4009">
        <ele>985.2</ele>
        <time>2023-03-29T14:17:01Z</time>
      </trkpt>
      <trkpt lat="45.26652" lon="4.40079">
        <ele>983</ele>
        <time>2023-03-29T14:17:03Z</time>
      </trkpt>
      <trkpt lat="45.26667" lon="4.40075">
        <ele>981.4</ele>
        <time>2023-03-29T14:17:04Z</time>
      </trkpt>
      <trkpt lat="45.26682" lon="4.40071">
        <ele>980.4</ele>
        <time>2023-03-29T14:17:05Z</time>
      </trkpt>
      <trkpt lat="45.26696" lon="4.40066">
        <ele>979.2</ele>
        <time>2023-03-29T14:17:06Z</time>
      </trkpt>
      <trkpt lat="45.2671" lon="4.40058">
        <ele>978.8</ele>
        <time>2023-03-29T14:17:07Z</time>
      </trkpt>
      <trkpt lat="45.26722" lon="4.40047">
        <ele>977.8</ele>
        <time>2023-03-29T14:17:08Z</time>
      </trkpt>
      <trkpt lat="45.26747" lon="4.40025">
        <ele>975.4</ele>
        <time>2023-03-29T14:17:10Z</time>
      </trkpt>
      <trkpt lat="45.26759" lon="4.40014">
        <ele>974.6</ele>
        <time>2023-03-29T14:17:11Z</time>
      </trkpt>
      <trkpt lat="45.26772" lon="4.40004">
        <ele>973.2</ele>
        <time>2023-03-29T14:17:12Z</time>
      </trkpt>
      <trkpt lat="45.26785" lon="4.39995">
        <ele>972</ele>
        <time>2023-03-29T14:17:13Z</time>
      </trkpt>
      <trkpt lat="45.26812" lon="4.39979">
        <ele>970.2</ele>
        <time>2023-03-29T14:17:15Z</time>
      </trkpt>
      <trkpt lat="45.26826" lon="4.3997">
        <ele>969.4</ele>
        <time>2023-03-29T14:17:16Z</time>
      </trkpt>
      <trkpt lat="45.26838" lon="4.39959">
        <ele>968.4</ele>
        <time>2023-03-29T14:17:17Z</time>
      </trkpt>
      <trkpt lat="45.26849" lon="4.39945">
        <ele>967.8</ele>
        <time>2023-03-29T14:17:18Z</time>
      </trkpt>
      <trkpt lat="45.26858" lon="4.39928">
        <ele>966.4</ele>
        <time>2023-03-29T14:17:19Z</time>
      </trkpt>
      <trkpt lat="45.26864" lon="4.3991">
        <ele>965.8</ele>
        <time>2023-03-29T14:17:20Z</time>
      </trkpt>
      <trkpt lat="45.2687" lon="4.39893">
        <ele>964.2</ele>
        <time>2023-03-29T14:17:21Z</time>
      </trkpt>
      <trkpt lat="45.26876" lon="4.39875">
        <ele>962.8</ele>
        <time>2023-03-29T14:17:22Z</time>
      </trkpt>
      <trkpt lat="45.26882" lon="4.39858">
        <ele>962.2</ele>
        <time>2023-03-29T14:17:23Z</time>
      </trkpt>
      <trkpt lat="45.26888" lon="4.39842">
        <ele>961.4</ele>
        <time>2023-03-29T14:17:24Z</time>
      </trkpt>
      <trkpt lat="45.2692" lon="4.39793">
        <ele>960.2</ele>
        <time>2023-03-29T14:17:28Z</time>
      </trkpt>
      <trkpt lat="45.26929" lon="4.39783">
        <ele>960.2</ele>
        <time>2023-03-29T14:17:29Z</time>
      </trkpt>
      <trkpt lat="45.26953" lon="4.3977">
        <ele>960.2</ele>
        <time>2023-03-29T14:17:31Z</time>
      </trkpt>
      <trkpt lat="45.26975" lon="4.39765">
        <ele>960.2</ele>
        <time>2023-03-29T14:17:33Z</time>
      </trkpt>
      <trkpt lat="45.26996" lon="4.39753">
        <ele>960.6</ele>
        <time>2023-03-29T14:17:35Z</time>
      </trkpt>
      <trkpt lat="45.27014" lon="4.39735">
        <ele>960.8</ele>
        <time>2023-03-29T14:17:37Z</time>
      </trkpt>
      <trkpt lat="45.27022" lon="4.39724">
        <ele>961</ele>
        <time>2023-03-29T14:17:38Z</time>
      </trkpt>
      <trkpt lat="45.27048" lon="4.39678">
        <ele>961.2</ele>
        <time>2023-03-29T14:17:42Z</time>
      </trkpt>
      <trkpt lat="45.27063" lon="4.39657">
        <ele>961.2</ele>
        <time>2023-03-29T14:17:44Z</time>
      </trkpt>
      <trkpt lat="45.2708" lon="4.39641">
        <ele>961.2</ele>
        <time>2023-03-29T14:17:46Z</time>
      </trkpt>
      <trkpt lat="45.27119" lon="4.39618">
        <ele>961.2</ele>
        <time>2023-03-29T14:17:50Z</time>
      </trkpt>
      <trkpt lat="45.27137" lon="4.39604">
        <ele>961</ele>
        <time>2023-03-29T14:17:52Z</time>
      </trkpt>
      <trkpt lat="45.27153" lon="4.39584">
        <ele>960.6</ele>
        <time>2023-03-29T14:17:54Z</time>
      </trkpt>
      <trkpt lat="45.2716" lon="4.39573">
        <ele>960.6</ele>
        <time>2023-03-29T14:17:55Z</time>
      </trkpt>
      <trkpt lat="45.2718" lon="4.39537">
        <ele>960.4</ele>
        <time>2023-03-29T14:17:58Z</time>
      </trkpt>
      <trkpt lat="45.27195" lon="4.39514">
        <ele>960.2</ele>
        <time>2023-03-29T14:18:00Z</time>
      </trkpt>
      <trkpt lat="45.27213" lon="4.39495">
        <ele>959.8</ele>
        <time>2023-03-29T14:18:02Z</time>
      </trkpt>
      <trkpt lat="45.27233" lon="4.3948">
        <ele>959</ele>
        <time>2023-03-29T14:18:04Z</time>
      </trkpt>
      <trkpt lat="45.27266" lon="4.3946">
        <ele>957.6</ele>
        <time>2023-03-29T14:18:07Z</time>
      </trkpt>
      <trkpt lat="45.27288" lon="4.39447">
        <ele>956.8</ele>
        <time>2023-03-29T14:18:09Z</time>
      </trkpt>
      <trkpt lat="45.27299" lon="4.3944">
        <ele>956.6</ele>
        <time>2023-03-29T14:18:10Z</time>
      </trkpt>
      <trkpt lat="45.27323" lon="4.39428">
        <ele>955.6</ele>
        <time>2023-03-29T14:18:12Z</time>
      </trkpt>
      <trkpt lat="45.27336" lon="4.39422">
        <ele>955</ele>
        <time>2023-03-29T14:18:13Z</time>
      </trkpt>
      <trkpt lat="45.27375" lon="4.39406">
        <ele>953.6</ele>
        <time>2023-03-29T14:18:16Z</time>
      </trkpt>
      <trkpt lat="45.27388" lon="4.39402">
        <ele>953.4</ele>
        <time>2023-03-29T14:18:17Z</time>
      </trkpt>
      <trkpt lat="45.27417" lon="4.39398">
        <ele>952.2</ele>
        <time>2023-03-29T14:18:19Z</time>
      </trkpt>
      <trkpt lat="45.27431" lon="4.39398">
        <ele>951.2</ele>
        <time>2023-03-29T14:18:20Z</time>
      </trkpt>
      <trkpt lat="45.2746" lon="4.39403">
        <ele>949.8</ele>
        <time>2023-03-29T14:18:22Z</time>
      </trkpt>
      <trkpt lat="45.27475" lon="4.39406">
        <ele>948.8</ele>
        <time>2023-03-29T14:18:23Z</time>
      </trkpt>
      <trkpt lat="45.27505" lon="4.39411">
        <ele>946.8</ele>
        <time>2023-03-29T14:18:25Z</time>
      </trkpt>
      <trkpt lat="45.2753" lon="4.39416">
        <ele>945.4</ele>
        <time>2023-03-29T14:18:27Z</time>
      </trkpt>
      <trkpt lat="45.2756" lon="4.39422">
        <ele>944.4</ele>
        <time>2023-03-29T14:18:29Z</time>
      </trkpt>
      <trkpt lat="45.27586" lon="4.39427">
        <ele>943.4</ele>
        <time>2023-03-29T14:18:31Z</time>
      </trkpt>
      <trkpt lat="45.27599" lon="4.3943">
        <ele>943.2</ele>
        <time>2023-03-29T14:18:32Z</time>
      </trkpt>
      <trkpt lat="45.27657" lon="4.3944">
        <ele>942.8</ele>
        <time>2023-03-29T14:18:37Z</time>
      </trkpt>
      <trkpt lat="45.27718" lon="4.39456">
        <ele>943.4</ele>
        <time>2023-03-29T14:18:43Z</time>
      </trkpt>
      <trkpt lat="45.2777" lon="4.39489">
        <ele>943.6</ele>
        <time>2023-03-29T14:18:48Z</time>
      </trkpt>
      <trkpt lat="45.27826" lon="4.39528">
        <ele>942.6</ele>
        <time>2023-03-29T14:18:53Z</time>
      </trkpt>
      <trkpt lat="45.27838" lon="4.39537">
        <ele>941.6</ele>
        <time>2023-03-29T14:18:54Z</time>
      </trkpt>
      <trkpt lat="45.27859" lon="4.39556">
        <ele>939.8</ele>
        <time>2023-03-29T14:18:56Z</time>
      </trkpt>
      <trkpt lat="45.27881" lon="4.39573">
        <ele>938.4</ele>
        <time>2023-03-29T14:18:58Z</time>
      </trkpt>
      <trkpt lat="45.27893" lon="4.39579">
        <ele>937.4</ele>
        <time>2023-03-29T14:18:59Z</time>
      </trkpt>
      <trkpt lat="45.27905" lon="4.39582">
        <ele>937</ele>
        <time>2023-03-29T14:19:00Z</time>
      </trkpt>
      <trkpt lat="45.27918" lon="4.39581">
        <ele>936.2</ele>
        <time>2023-03-29T14:19:01Z</time>
      </trkpt>
      <trkpt lat="45.2793" lon="4.39577">
        <ele>936</ele>
        <time>2023-03-29T14:19:02Z</time>
      </trkpt>
      <trkpt lat="45.27942" lon="4.39572">
        <ele>935.4</ele>
        <time>2023-03-29T14:19:03Z</time>
      </trkpt>
      <trkpt lat="45.27998" lon="4.39552">
        <ele>934.4</ele>
        <time>2023-03-29T14:19:08Z</time>
      </trkpt>
      <trkpt lat="45.28009" lon="4.39549">
        <ele>934.4</ele>
        <time>2023-03-29T14:19:09Z</time>
      </trkpt>
      <trkpt lat="45.28055" lon="4.39535">
        <ele>934.8</ele>
        <time>2023-03-29T14:19:14Z</time>
      </trkpt>
      <trkpt lat="45.2807" lon="4.3953">
        <ele>935.8</ele>
        <time>2023-03-29T14:19:16Z</time>
      </trkpt>
      <trkpt lat="45.28091" lon="4.39524">
        <ele>937.4</ele>
        <time>2023-03-29T14:19:19Z</time>
      </trkpt>
      <trkpt lat="45.28117" lon="4.39514">
        <ele>938.4</ele>
        <time>2023-03-29T14:19:23Z</time>
      </trkpt>
      <trkpt lat="45.28135" lon="4.39506">
        <ele>939.2</ele>
        <time>2023-03-29T14:19:26Z</time>
      </trkpt>
      <trkpt lat="45.28146" lon="4.395">
        <ele>939.6</ele>
        <time>2023-03-29T14:19:28Z</time>
      </trkpt>
      <trkpt lat="45.28168" lon="4.39491">
        <ele>940.6</ele>
        <time>2023-03-29T14:19:32Z</time>
      </trkpt>
      <trkpt lat="45.28172" lon="4.3949">
        <ele>940.6</ele>
        <time>2023-03-29T14:19:33Z</time>
      </trkpt>
      <trkpt lat="45.28193" lon="4.39486">
        <ele>942</ele>
        <time>2023-03-29T14:19:37Z</time>
      </trkpt>
      <trkpt lat="45.2821" lon="4.39481">
        <ele>942.6</ele>
        <time>2023-03-29T14:19:41Z</time>
      </trkpt>
      <trkpt lat="45.28219" lon="4.39479">
        <ele>943</ele>
        <time>2023-03-29T14:19:43Z</time>
      </trkpt>
      <trkpt lat="45.28235" lon="4.39473">
        <ele>943.6</ele>
        <time>2023-03-29T14:19:47Z</time>
      </trkpt>
      <trkpt lat="45.28242" lon="4.3947">
        <ele>944</ele>
        <time>2023-03-29T14:19:49Z</time>
      </trkpt>
      <trkpt lat="45.28246" lon="4.39468">
        <ele>944.2</ele>
        <time>2023-03-29T14:19:50Z</time>
      </trkpt>
      <trkpt lat="45.2825" lon="4.39467">
        <ele>944.2</ele>
        <time>2023-03-29T14:19:51Z</time>
      </trkpt>
      <trkpt lat="45.28263" lon="4.39464">
        <ele>944.8</ele>
        <time>2023-03-29T14:19:54Z</time>
      </trkpt>
      <trkpt lat="45.28274" lon="4.3946">
        <ele>945.4</ele>
        <time>2023-03-29T14:19:57Z</time>
      </trkpt>
      <trkpt lat="45.28289" lon="4.39455">
        <ele>946</ele>
        <time>2023-03-29T14:20:01Z</time>
      </trkpt>
      <trkpt lat="45.28299" lon="4.39452">
        <ele>946.4</ele>
        <time>2023-03-29T14:20:04Z</time>
      </trkpt>
      <trkpt lat="45.2831" lon="4.39446">
        <ele>947</ele>
        <time>2023-03-29T14:20:08Z</time>
      </trkpt>
      <trkpt lat="45.2832" lon="4.39444">
        <ele>947.6</ele>
        <time>2023-03-29T14:20:11Z</time>
      </trkpt>
      <trkpt lat="45.28334" lon="4.3944">
        <ele>948</ele>
        <time>2023-03-29T14:20:15Z</time>
      </trkpt>
      <trkpt lat="45.28349" lon="4.39435">
        <ele>948.8</ele>
        <time>2023-03-29T14:20:19Z</time>
      </trkpt>
      <trkpt lat="45.28353" lon="4.39434">
        <ele>948.8</ele>
        <time>2023-03-29T14:20:20Z</time>
      </trkpt>
      <trkpt lat="45.28373" lon="4.39433">
        <ele>949.2</ele>
        <time>2023-03-29T14:20:26Z</time>
      </trkpt>
      <trkpt lat="45.28377" lon="4.39432">
        <ele>949.4</ele>
        <time>2023-03-29T14:20:28Z</time>
      </trkpt>
      <trkpt lat="45.28378" lon="4.39429">
        <ele>949.6</ele>
        <time>2023-03-29T14:20:29Z</time>
      </trkpt>
      <trkpt lat="45.2838" lon="4.39406">
        <ele>949.8</ele>
        <time>2023-03-29T14:20:35Z</time>
      </trkpt>
      <trkpt lat="45.2838" lon="4.39401">
        <ele>949.8</ele>
        <time>2023-03-29T14:20:36Z</time>
      </trkpt>
      <trkpt lat="45.28381" lon="4.39383">
        <ele>949.8</ele>
        <time>2023-03-29T14:20:39Z</time>
      </trkpt>
      <trkpt lat="45.28381" lon="4.3937">
        <ele>949.8</ele>
        <time>2023-03-29T14:20:41Z</time>
      </trkpt>
      <trkpt lat="45.28382" lon="4.39308">
        <ele>949.8</ele>
        <time>2023-03-29T14:20:49Z</time>
      </trkpt>
      <trkpt lat="45.28385" lon="4.39256">
        <ele>950</ele>
        <time>2023-03-29T14:20:56Z</time>
      </trkpt>
      <trkpt lat="45.28386" lon="4.3925">
        <ele>950</ele>
        <time>2023-03-29T14:20:57Z</time>
      </trkpt>
      <trkpt lat="45.28387" lon="4.39236">
        <ele>950.4</ele>
        <time>2023-03-29T14:20:59Z</time>
      </trkpt>
      <trkpt lat="45.28392" lon="4.39216">
        <ele>950.6</ele>
        <time>2023-03-29T14:21:02Z</time>
      </trkpt>
      <trkpt lat="45.28395" lon="4.39203">
        <ele>951</ele>
        <time>2023-03-29T14:21:04Z</time>
      </trkpt>
      <trkpt lat="45.28401" lon="4.39189">
        <ele>951</ele>
        <time>2023-03-29T14:21:06Z</time>
      </trkpt>
      <trkpt lat="45.28405" lon="4.39183">
        <ele>951.2</ele>
        <time>2023-03-29T14:21:07Z</time>
      </trkpt>
      <trkpt lat="45.28428" lon="4.39145">
        <ele>951.2</ele>
        <time>2023-03-29T14:21:12Z</time>
      </trkpt>
      <trkpt lat="45.28432" lon="4.39137">
        <ele>951.2</ele>
        <time>2023-03-29T14:21:13Z</time>
      </trkpt>
      <trkpt lat="45.28454" lon="4.39097">
        <ele>950.2</ele>
        <time>2023-03-29T14:21:18Z</time>
      </trkpt>
      <trkpt lat="45.28464" lon="4.39079">
        <ele>949.6</ele>
        <time>2023-03-29T14:21:20Z</time>
      </trkpt>
      <trkpt lat="45.28494" lon="4.39036">
        <ele>948.8</ele>
        <time>2023-03-29T14:21:26Z</time>
      </trkpt>
      <trkpt lat="45.285" lon="4.3903">
        <ele>948.6</ele>
        <time>2023-03-29T14:21:27Z</time>
      </trkpt>
      <trkpt lat="45.2854" lon="4.38998">
        <ele>948.4</ele>
        <time>2023-03-29T14:21:33Z</time>
      </trkpt>
      <trkpt lat="45.28589" lon="4.38961">
        <ele>948</ele>
        <time>2023-03-29T14:21:40Z</time>
      </trkpt>
      <trkpt lat="45.28613" lon="4.38944">
        <ele>947.4</ele>
        <time>2023-03-29T14:21:43Z</time>
      </trkpt>
      <trkpt lat="45.2863" lon="4.38933">
        <ele>946.8</ele>
        <time>2023-03-29T14:21:45Z</time>
      </trkpt>
      <trkpt lat="45.28648" lon="4.38922">
        <ele>945.8</ele>
        <time>2023-03-29T14:21:47Z</time>
      </trkpt>
      <trkpt lat="45.28676" lon="4.38905">
        <ele>944.6</ele>
        <time>2023-03-29T14:21:50Z</time>
      </trkpt>
      <trkpt lat="45.28686" lon="4.38899">
        <ele>944.4</ele>
        <time>2023-03-29T14:21:51Z</time>
      </trkpt>
      <trkpt lat="45.28705" lon="4.38886">
        <ele>943.4</ele>
        <time>2023-03-29T14:21:53Z</time>
      </trkpt>
      <trkpt lat="45.28724" lon="4.38868">
        <ele>942.2</ele>
        <time>2023-03-29T14:21:55Z</time>
      </trkpt>
      <trkpt lat="45.28739" lon="4.38848">
        <ele>941.6</ele>
        <time>2023-03-29T14:21:57Z</time>
      </trkpt>
      <trkpt lat="45.28747" lon="4.38832">
        <ele>941</ele>
        <time>2023-03-29T14:21:58Z</time>
      </trkpt>
      <trkpt lat="45.28759" lon="4.38803">
        <ele>939.6</ele>
        <time>2023-03-29T14:22:00Z</time>
      </trkpt>
      <trkpt lat="45.28771" lon="4.38773">
        <ele>938.6</ele>
        <time>2023-03-29T14:22:02Z</time>
      </trkpt>
      <trkpt lat="45.28789" lon="4.38729">
        <ele>937.4</ele>
        <time>2023-03-29T14:22:05Z</time>
      </trkpt>
      <trkpt lat="45.28801" lon="4.38699">
        <ele>935.6</ele>
        <time>2023-03-29T14:22:07Z</time>
      </trkpt>
      <trkpt lat="45.28806" lon="4.38684">
        <ele>934.2</ele>
        <time>2023-03-29T14:22:08Z</time>
      </trkpt>
      <trkpt lat="45.28812" lon="4.38669">
        <ele>933.6</ele>
        <time>2023-03-29T14:22:09Z</time>
      </trkpt>
      <trkpt lat="45.28818" lon="4.38654">
        <ele>932.8</ele>
        <time>2023-03-29T14:22:10Z</time>
      </trkpt>
      <trkpt lat="45.28827" lon="4.38624">
        <ele>931.6</ele>
        <time>2023-03-29T14:22:12Z</time>
      </trkpt>
      <trkpt lat="45.2883" lon="4.38607">
        <ele>931.4</ele>
        <time>2023-03-29T14:22:13Z</time>
      </trkpt>
      <trkpt lat="45.28834" lon="4.38575">
        <ele>930.2</ele>
        <time>2023-03-29T14:22:15Z</time>
      </trkpt>
      <trkpt lat="45.28839" lon="4.38546">
        <ele>928.6</ele>
        <time>2023-03-29T14:22:17Z</time>
      </trkpt>
      <trkpt lat="45.28851" lon="4.38522">
        <ele>927.8</ele>
        <time>2023-03-29T14:22:19Z</time>
      </trkpt>
      <trkpt lat="45.28859" lon="4.38516">
        <ele>927.4</ele>
        <time>2023-03-29T14:22:20Z</time>
      </trkpt>
      <trkpt lat="45.28869" lon="4.38514">
        <ele>926.6</ele>
        <time>2023-03-29T14:22:21Z</time>
      </trkpt>
      <trkpt lat="45.2888" lon="4.38517">
        <ele>926.2</ele>
        <time>2023-03-29T14:22:22Z</time>
      </trkpt>
      <trkpt lat="45.2889" lon="4.38523">
        <ele>925.4</ele>
        <time>2023-03-29T14:22:23Z</time>
      </trkpt>
      <trkpt lat="45.28901" lon="4.38526">
        <ele>925</ele>
        <time>2023-03-29T14:22:24Z</time>
      </trkpt>
      <trkpt lat="45.28912" lon="4.38524">
        <ele>924.4</ele>
        <time>2023-03-29T14:22:25Z</time>
      </trkpt>
      <trkpt lat="45.28922" lon="4.38519">
        <ele>923.8</ele>
        <time>2023-03-29T14:22:26Z</time>
      </trkpt>
      <trkpt lat="45.28943" lon="4.38509">
        <ele>923</ele>
        <time>2023-03-29T14:22:28Z</time>
      </trkpt>
      <trkpt lat="45.28953" lon="4.38507">
        <ele>922.6</ele>
        <time>2023-03-29T14:22:29Z</time>
      </trkpt>
      <trkpt lat="45.28964" lon="4.38508">
        <ele>922</ele>
        <time>2023-03-29T14:22:30Z</time>
      </trkpt>
      <trkpt lat="45.28972" lon="4.38515">
        <ele>921.8</ele>
        <time>2023-03-29T14:22:31Z</time>
      </trkpt>
      <trkpt lat="45.28976" lon="4.38526">
        <ele>921</ele>
        <time>2023-03-29T14:22:32Z</time>
      </trkpt>
      <trkpt lat="45.28978" lon="4.38537">
        <ele>920.8</ele>
        <time>2023-03-29T14:22:33Z</time>
      </trkpt>
      <trkpt lat="45.28976" lon="4.38549">
        <ele>920</ele>
        <time>2023-03-29T14:22:34Z</time>
      </trkpt>
      <trkpt lat="45.28971" lon="4.38561">
        <ele>919.4</ele>
        <time>2023-03-29T14:22:35Z</time>
      </trkpt>
      <trkpt lat="45.28964" lon="4.38573">
        <ele>919.2</ele>
        <time>2023-03-29T14:22:36Z</time>
      </trkpt>
      <trkpt lat="45.28956" lon="4.38583">
        <ele>918.6</ele>
        <time>2023-03-29T14:22:37Z</time>
      </trkpt>
      <trkpt lat="45.28942" lon="4.38605">
        <ele>918</ele>
        <time>2023-03-29T14:22:39Z</time>
      </trkpt>
      <trkpt lat="45.28938" lon="4.38618">
        <ele>917.8</ele>
        <time>2023-03-29T14:22:40Z</time>
      </trkpt>
      <trkpt lat="45.28935" lon="4.38631">
        <ele>917.4</ele>
        <time>2023-03-29T14:22:41Z</time>
      </trkpt>
      <trkpt lat="45.28935" lon="4.38659">
        <ele>916.6</ele>
        <time>2023-03-29T14:22:43Z</time>
      </trkpt>
      <trkpt lat="45.28939" lon="4.38672">
        <ele>916.2</ele>
        <time>2023-03-29T14:22:44Z</time>
      </trkpt>
      <trkpt lat="45.28945" lon="4.38683">
        <ele>916.2</ele>
        <time>2023-03-29T14:22:45Z</time>
      </trkpt>
      <trkpt lat="45.28953" lon="4.38691">
        <ele>915.4</ele>
        <time>2023-03-29T14:22:46Z</time>
      </trkpt>
      <trkpt lat="45.28961" lon="4.38695">
        <ele>915</ele>
        <time>2023-03-29T14:22:47Z</time>
      </trkpt>
      <trkpt lat="45.28971" lon="4.38694">
        <ele>914.4</ele>
        <time>2023-03-29T14:22:48Z</time>
      </trkpt>
      <trkpt lat="45.28982" lon="4.38691">
        <ele>914.2</ele>
        <time>2023-03-29T14:22:49Z</time>
      </trkpt>
      <trkpt lat="45.28992" lon="4.38687">
        <ele>913.6</ele>
        <time>2023-03-29T14:22:50Z</time>
      </trkpt>
      <trkpt lat="45.29003" lon="4.38684">
        <ele>913.4</ele>
        <time>2023-03-29T14:22:51Z</time>
      </trkpt>
      <trkpt lat="45.29035" lon="4.38676">
        <ele>912</ele>
        <time>2023-03-29T14:22:54Z</time>
      </trkpt>
      <trkpt lat="45.29059" lon="4.38676">
        <ele>911</ele>
        <time>2023-03-29T14:22:56Z</time>
      </trkpt>
      <trkpt lat="45.2907" lon="4.38679">
        <ele>910.4</ele>
        <time>2023-03-29T14:22:57Z</time>
      </trkpt>
      <trkpt lat="45.29082" lon="4.38685">
        <ele>910</ele>
        <time>2023-03-29T14:22:58Z</time>
      </trkpt>
      <trkpt lat="45.29094" lon="4.38691">
        <ele>909.2</ele>
        <time>2023-03-29T14:22:59Z</time>
      </trkpt>
      <trkpt lat="45.29117" lon="4.38703">
        <ele>908.2</ele>
        <time>2023-03-29T14:23:01Z</time>
      </trkpt>
      <trkpt lat="45.29152" lon="4.38722">
        <ele>906.4</ele>
        <time>2023-03-29T14:23:04Z</time>
      </trkpt>
      <trkpt lat="45.29176" lon="4.38735">
        <ele>905.2</ele>
        <time>2023-03-29T14:23:06Z</time>
      </trkpt>
      <trkpt lat="45.29189" lon="4.38741">
        <ele>905</ele>
        <time>2023-03-29T14:23:07Z</time>
      </trkpt>
      <trkpt lat="45.29213" lon="4.38756">
        <ele>903.8</ele>
        <time>2023-03-29T14:23:09Z</time>
      </trkpt>
      <trkpt lat="45.29223" lon="4.38766">
        <ele>903</ele>
        <time>2023-03-29T14:23:10Z</time>
      </trkpt>
      <trkpt lat="45.29233" lon="4.38779">
        <ele>902.6</ele>
        <time>2023-03-29T14:23:11Z</time>
      </trkpt>
      <trkpt lat="45.29248" lon="4.38809">
        <ele>900.8</ele>
        <time>2023-03-29T14:23:13Z</time>
      </trkpt>
      <trkpt lat="45.2926" lon="4.38839">
        <ele>899.8</ele>
        <time>2023-03-29T14:23:15Z</time>
      </trkpt>
      <trkpt lat="45.29269" lon="4.38851">
        <ele>899.4</ele>
        <time>2023-03-29T14:23:16Z</time>
      </trkpt>
      <trkpt lat="45.29279" lon="4.38859">
        <ele>898.2</ele>
        <time>2023-03-29T14:23:17Z</time>
      </trkpt>
      <trkpt lat="45.29302" lon="4.38865">
        <ele>897.4</ele>
        <time>2023-03-29T14:23:19Z</time>
      </trkpt>
      <trkpt lat="45.29315" lon="4.38864">
        <ele>897</ele>
        <time>2023-03-29T14:23:20Z</time>
      </trkpt>
      <trkpt lat="45.29341" lon="4.38861">
        <ele>895.4</ele>
        <time>2023-03-29T14:23:22Z</time>
      </trkpt>
      <trkpt lat="45.29367" lon="4.38858">
        <ele>894.2</ele>
        <time>2023-03-29T14:23:24Z</time>
      </trkpt>
      <trkpt lat="45.29393" lon="4.38854">
        <ele>892.6</ele>
        <time>2023-03-29T14:23:26Z</time>
      </trkpt>
      <trkpt lat="45.2942" lon="4.38851">
        <ele>891.4</ele>
        <time>2023-03-29T14:23:28Z</time>
      </trkpt>
      <trkpt lat="45.29447" lon="4.38848">
        <ele>890.4</ele>
        <time>2023-03-29T14:23:30Z</time>
      </trkpt>
      <trkpt lat="45.29474" lon="4.38846">
        <ele>889.2</ele>
        <time>2023-03-29T14:23:32Z</time>
      </trkpt>
      <trkpt lat="45.29488" lon="4.38844">
        <ele>888.4</ele>
        <time>2023-03-29T14:23:33Z</time>
      </trkpt>
      <trkpt lat="45.29501" lon="4.38842">
        <ele>887.8</ele>
        <time>2023-03-29T14:23:34Z</time>
      </trkpt>
      <trkpt lat="45.29526" lon="4.38829">
        <ele>886.6</ele>
        <time>2023-03-29T14:23:36Z</time>
      </trkpt>
      <trkpt lat="45.29546" lon="4.38806">
        <ele>885.4</ele>
        <time>2023-03-29T14:23:38Z</time>
      </trkpt>
      <trkpt lat="45.29569" lon="4.38794">
        <ele>883.8</ele>
        <time>2023-03-29T14:23:40Z</time>
      </trkpt>
      <trkpt lat="45.29592" lon="4.38803">
        <ele>882.4</ele>
        <time>2023-03-29T14:23:42Z</time>
      </trkpt>
      <trkpt lat="45.29611" lon="4.38824">
        <ele>881</ele>
        <time>2023-03-29T14:23:44Z</time>
      </trkpt>
      <trkpt lat="45.29623" lon="4.38831">
        <ele>880.4</ele>
        <time>2023-03-29T14:23:45Z</time>
      </trkpt>
      <trkpt lat="45.29635" lon="4.38836">
        <ele>879.6</ele>
        <time>2023-03-29T14:23:46Z</time>
      </trkpt>
      <trkpt lat="45.2966" lon="4.38839">
        <ele>878.4</ele>
        <time>2023-03-29T14:23:48Z</time>
      </trkpt>
      <trkpt lat="45.29686" lon="4.38834">
        <ele>877.4</ele>
        <time>2023-03-29T14:23:50Z</time>
      </trkpt>
      <trkpt lat="45.29725" lon="4.38825">
        <ele>875.8</ele>
        <time>2023-03-29T14:23:53Z</time>
      </trkpt>
      <trkpt lat="45.29738" lon="4.38824">
        <ele>875.4</ele>
        <time>2023-03-29T14:23:54Z</time>
      </trkpt>
      <trkpt lat="45.29752" lon="4.38826">
        <ele>874.8</ele>
        <time>2023-03-29T14:23:55Z</time>
      </trkpt>
      <trkpt lat="45.29765" lon="4.38831">
        <ele>874.4</ele>
        <time>2023-03-29T14:23:56Z</time>
      </trkpt>
      <trkpt lat="45.29777" lon="4.38839">
        <ele>873</ele>
        <time>2023-03-29T14:23:57Z</time>
      </trkpt>
      <trkpt lat="45.29789" lon="4.38848">
        <ele>872.2</ele>
        <time>2023-03-29T14:23:58Z</time>
      </trkpt>
      <trkpt lat="45.29801" lon="4.38856">
        <ele>871.8</ele>
        <time>2023-03-29T14:23:59Z</time>
      </trkpt>
      <trkpt lat="45.29814" lon="4.38862">
        <ele>870.8</ele>
        <time>2023-03-29T14:24:00Z</time>
      </trkpt>
      <trkpt lat="45.29839" lon="4.38875">
        <ele>869.6</ele>
        <time>2023-03-29T14:24:02Z</time>
      </trkpt>
      <trkpt lat="45.29864" lon="4.38885">
        <ele>868.2</ele>
        <time>2023-03-29T14:24:04Z</time>
      </trkpt>
      <trkpt lat="45.29878" lon="4.38889">
        <ele>867.6</ele>
        <time>2023-03-29T14:24:05Z</time>
      </trkpt>
      <trkpt lat="45.29891" lon="4.38892">
        <ele>867</ele>
        <time>2023-03-29T14:24:06Z</time>
      </trkpt>
      <trkpt lat="45.29931" lon="4.38895">
        <ele>865.4</ele>
        <time>2023-03-29T14:24:09Z</time>
      </trkpt>
      <trkpt lat="45.29958" lon="4.38892">
        <ele>864</ele>
        <time>2023-03-29T14:24:11Z</time>
      </trkpt>
      <trkpt lat="45.29984" lon="4.38886">
        <ele>863</ele>
        <time>2023-03-29T14:24:13Z</time>
      </trkpt>
      <trkpt lat="45.30011" lon="4.3888">
        <ele>861.8</ele>
        <time>2023-03-29T14:24:15Z</time>
      </trkpt>
      <trkpt lat="45.3005" lon="4.38869">
        <ele>859.6</ele>
        <time>2023-03-29T14:24:18Z</time>
      </trkpt>
      <trkpt lat="45.30062" lon="4.38863">
        <ele>859.2</ele>
        <time>2023-03-29T14:24:19Z</time>
      </trkpt>
      <trkpt lat="45.30075" lon="4.38857">
        <ele>858.4</ele>
        <time>2023-03-29T14:24:20Z</time>
      </trkpt>
      <trkpt lat="45.3011" lon="4.38835">
        <ele>857</ele>
        <time>2023-03-29T14:24:23Z</time>
      </trkpt>
      <trkpt lat="45.30132" lon="4.3882">
        <ele>855.8</ele>
        <time>2023-03-29T14:24:25Z</time>
      </trkpt>
      <trkpt lat="45.30165" lon="4.38799">
        <ele>854.6</ele>
        <time>2023-03-29T14:24:28Z</time>
      </trkpt>
      <trkpt lat="45.30185" lon="4.38783">
        <ele>853.6</ele>
        <time>2023-03-29T14:24:30Z</time>
      </trkpt>
      <trkpt lat="45.30195" lon="4.38774">
        <ele>853</ele>
        <time>2023-03-29T14:24:31Z</time>
      </trkpt>
      <trkpt lat="45.30204" lon="4.38764">
        <ele>852.8</ele>
        <time>2023-03-29T14:24:32Z</time>
      </trkpt>
      <trkpt lat="45.30212" lon="4.38752">
        <ele>852.2</ele>
        <time>2023-03-29T14:24:33Z</time>
      </trkpt>
      <trkpt lat="45.3023" lon="4.38733">
        <ele>851.6</ele>
        <time>2023-03-29T14:24:35Z</time>
      </trkpt>
      <trkpt lat="45.30252" lon="4.38723">
        <ele>851.2</ele>
        <time>2023-03-29T14:24:37Z</time>
      </trkpt>
      <trkpt lat="45.30263" lon="4.38723">
        <ele>850.6</ele>
        <time>2023-03-29T14:24:38Z</time>
      </trkpt>
      <trkpt lat="45.30273" lon="4.38725">
        <ele>850.4</ele>
        <time>2023-03-29T14:24:39Z</time>
      </trkpt>
      <trkpt lat="45.30284" lon="4.38728">
        <ele>849.8</ele>
        <time>2023-03-29T14:24:40Z</time>
      </trkpt>
      <trkpt lat="45.30294" lon="4.38727">
        <ele>849.8</ele>
        <time>2023-03-29T14:24:41Z</time>
      </trkpt>
      <trkpt lat="45.30313" lon="4.38718">
        <ele>849.4</ele>
        <time>2023-03-29T14:24:43Z</time>
      </trkpt>
      <trkpt lat="45.30322" lon="4.3871">
        <ele>848.8</ele>
        <time>2023-03-29T14:24:44Z</time>
      </trkpt>
      <trkpt lat="45.30358" lon="4.38668">
        <ele>848.2</ele>
        <time>2023-03-29T14:24:49Z</time>
      </trkpt>
      <trkpt lat="45.30364" lon="4.38659">
        <ele>848.2</ele>
        <time>2023-03-29T14:24:50Z</time>
      </trkpt>
      <trkpt lat="45.30377" lon="4.3864">
        <ele>848.2</ele>
        <time>2023-03-29T14:24:52Z</time>
      </trkpt>
      <trkpt lat="45.30382" lon="4.38629">
        <ele>848.2</ele>
        <time>2023-03-29T14:24:53Z</time>
      </trkpt>
      <trkpt lat="45.30408" lon="4.3858">
        <ele>848.4</ele>
        <time>2023-03-29T14:24:58Z</time>
      </trkpt>
      <trkpt lat="45.30419" lon="4.3856">
        <ele>848.4</ele>
        <time>2023-03-29T14:25:00Z</time>
      </trkpt>
      <trkpt lat="45.30427" lon="4.38541">
        <ele>848.4</ele>
        <time>2023-03-29T14:25:02Z</time>
      </trkpt>
      <trkpt lat="45.30432" lon="4.38532">
        <ele>848.4</ele>
        <time>2023-03-29T14:25:03Z</time>
      </trkpt>
      <trkpt lat="45.30441" lon="4.38513">
        <ele>848.6</ele>
        <time>2023-03-29T14:25:05Z</time>
      </trkpt>
      <trkpt lat="45.30444" lon="4.38499">
        <ele>848.6</ele>
        <time>2023-03-29T14:25:06Z</time>
      </trkpt>
      <trkpt lat="45.30447" lon="4.38484">
        <ele>848.4</ele>
        <time>2023-03-29T14:25:07Z</time>
      </trkpt>
      <trkpt lat="45.30448" lon="4.38456">
        <ele>848.4</ele>
        <time>2023-03-29T14:25:09Z</time>
      </trkpt>
      <trkpt lat="45.30448" lon="4.38442">
        <ele>848.4</ele>
        <time>2023-03-29T14:25:10Z</time>
      </trkpt>
      <trkpt lat="45.30455" lon="4.38415">
        <ele>848.4</ele>
        <time>2023-03-29T14:25:12Z</time>
      </trkpt>
      <trkpt lat="45.30465" lon="4.38389">
        <ele>848.4</ele>
        <time>2023-03-29T14:25:14Z</time>
      </trkpt>
      <trkpt lat="45.30467" lon="4.38377">
        <ele>848.2</ele>
        <time>2023-03-29T14:25:15Z</time>
      </trkpt>
      <trkpt lat="45.30467" lon="4.38365">
        <ele>848</ele>
        <time>2023-03-29T14:25:16Z</time>
      </trkpt>
      <trkpt lat="45.30461" lon="4.3834">
        <ele>847.4</ele>
        <time>2023-03-29T14:25:18Z</time>
      </trkpt>
      <trkpt lat="45.30451" lon="4.38284">
        <ele>846.4</ele>
        <time>2023-03-29T14:25:22Z</time>
      </trkpt>
      <trkpt lat="45.3044" lon="4.38217">
        <ele>845.4</ele>
        <time>2023-03-29T14:25:27Z</time>
      </trkpt>
      <trkpt lat="45.30436" lon="4.38193">
        <ele>845.2</ele>
        <time>2023-03-29T14:25:29Z</time>
      </trkpt>
      <trkpt lat="45.30434" lon="4.38168">
        <ele>845</ele>
        <time>2023-03-29T14:25:31Z</time>
      </trkpt>
      <trkpt lat="45.30432" lon="4.38095">
        <ele>845</ele>
        <time>2023-03-29T14:25:37Z</time>
      </trkpt>
      <trkpt lat="45.30431" lon="4.38083">
        <ele>845.2</ele>
        <time>2023-03-29T14:25:38Z</time>
      </trkpt>
      <trkpt lat="45.30419" lon="4.38016">
        <ele>845.4</ele>
        <time>2023-03-29T14:25:44Z</time>
      </trkpt>
      <trkpt lat="45.30399" lon="4.37954">
        <ele>846</ele>
        <time>2023-03-29T14:25:50Z</time>
      </trkpt>
      <trkpt lat="45.30389" lon="4.37937">
        <ele>846.2</ele>
        <time>2023-03-29T14:25:52Z</time>
      </trkpt>
      <trkpt lat="45.30377" lon="4.37911">
        <ele>846.2</ele>
        <time>2023-03-29T14:25:55Z</time>
      </trkpt>
      <trkpt lat="45.30375" lon="4.37888">
        <ele>846.4</ele>
        <time>2023-03-29T14:25:57Z</time>
      </trkpt>
      <trkpt lat="45.30375" lon="4.37877">
        <ele>846.4</ele>
        <time>2023-03-29T14:25:58Z</time>
      </trkpt>
      <trkpt lat="45.30377" lon="4.37868">
        <ele>846.6</ele>
        <time>2023-03-29T14:25:59Z</time>
      </trkpt>
      <trkpt lat="45.30383" lon="4.37847">
        <ele>846.8</ele>
        <time>2023-03-29T14:26:01Z</time>
      </trkpt>
      <trkpt lat="45.30385" lon="4.37836">
        <ele>846.8</ele>
        <time>2023-03-29T14:26:02Z</time>
      </trkpt>
      <trkpt lat="45.30386" lon="4.37813">
        <ele>847</ele>
        <time>2023-03-29T14:26:04Z</time>
      </trkpt>
      <trkpt lat="45.30383" lon="4.3779">
        <ele>847.2</ele>
        <time>2023-03-29T14:26:06Z</time>
      </trkpt>
      <trkpt lat="45.30378" lon="4.37759">
        <ele>847.4</ele>
        <time>2023-03-29T14:26:09Z</time>
      </trkpt>
      <trkpt lat="45.30378" lon="4.37749">
        <ele>847.4</ele>
        <time>2023-03-29T14:26:10Z</time>
      </trkpt>
      <trkpt lat="45.30378" lon="4.37727">
        <ele>847.4</ele>
        <time>2023-03-29T14:26:12Z</time>
      </trkpt>
      <trkpt lat="45.3038" lon="4.37715">
        <ele>847.6</ele>
        <time>2023-03-29T14:26:13Z</time>
      </trkpt>
      <trkpt lat="45.30383" lon="4.37705">
        <ele>847.8</ele>
        <time>2023-03-29T14:26:14Z</time>
      </trkpt>
      <trkpt lat="45.30394" lon="4.37676">
        <ele>848</ele>
        <time>2023-03-29T14:26:17Z</time>
      </trkpt>
      <trkpt lat="45.30401" lon="4.37658">
        <ele>848.2</ele>
        <time>2023-03-29T14:26:19Z</time>
      </trkpt>
      <trkpt lat="45.30415" lon="4.37623">
        <ele>848.6</ele>
        <time>2023-03-29T14:26:23Z</time>
      </trkpt>
      <trkpt lat="45.30419" lon="4.37603">
        <ele>848.8</ele>
        <time>2023-03-29T14:26:25Z</time>
      </trkpt>
      <trkpt lat="45.30419" lon="4.37581">
        <ele>849</ele>
        <time>2023-03-29T14:26:27Z</time>
      </trkpt>
      <trkpt lat="45.30417" lon="4.3755">
        <ele>849.4</ele>
        <time>2023-03-29T14:26:30Z</time>
      </trkpt>
      <trkpt lat="45.30414" lon="4.37529">
        <ele>849.6</ele>
        <time>2023-03-29T14:26:32Z</time>
      </trkpt>
      <trkpt lat="45.30413" lon="4.37519">
        <ele>849.6</ele>
        <time>2023-03-29T14:26:33Z</time>
      </trkpt>
      <trkpt lat="45.30413" lon="4.3749">
        <ele>849.8</ele>
        <time>2023-03-29T14:26:36Z</time>
      </trkpt>
      <trkpt lat="45.30406" lon="4.37424">
        <ele>850.2</ele>
        <time>2023-03-29T14:26:42Z</time>
      </trkpt>
      <trkpt lat="45.30401" lon="4.37401">
        <ele>850.2</ele>
        <time>2023-03-29T14:26:44Z</time>
      </trkpt>
      <trkpt lat="45.30392" lon="4.3737">
        <ele>850.4</ele>
        <time>2023-03-29T14:26:47Z</time>
      </trkpt>
      <trkpt lat="45.30363" lon="4.37307">
        <ele>851.2</ele>
        <time>2023-03-29T14:26:54Z</time>
      </trkpt>
      <trkpt lat="45.30354" lon="4.37291">
        <ele>851.2</ele>
        <time>2023-03-29T14:26:56Z</time>
      </trkpt>
      <trkpt lat="45.30329" lon="4.37253">
        <ele>851.6</ele>
        <time>2023-03-29T14:27:01Z</time>
      </trkpt>
      <trkpt lat="45.3031" lon="4.37212">
        <ele>851.4</ele>
        <time>2023-03-29T14:27:06Z</time>
      </trkpt>
      <trkpt lat="45.30307" lon="4.37193">
        <ele>851.4</ele>
        <time>2023-03-29T14:27:08Z</time>
      </trkpt>
      <trkpt lat="45.30309" lon="4.37179">
        <ele>851.4</ele>
        <time>2023-03-29T14:27:09Z</time>
      </trkpt>
      <trkpt lat="45.30312" lon="4.37167">
        <ele>851.2</ele>
        <time>2023-03-29T14:27:10Z</time>
      </trkpt>
      <trkpt lat="45.30322" lon="4.37148">
        <ele>850.8</ele>
        <time>2023-03-29T14:27:12Z</time>
      </trkpt>
      <trkpt lat="45.30329" lon="4.37138">
        <ele>850.2</ele>
        <time>2023-03-29T14:27:13Z</time>
      </trkpt>
      <trkpt lat="45.30344" lon="4.37117">
        <ele>849</ele>
        <time>2023-03-29T14:27:15Z</time>
      </trkpt>
      <trkpt lat="45.30352" lon="4.37107">
        <ele>848.8</ele>
        <time>2023-03-29T14:27:16Z</time>
      </trkpt>
      <trkpt lat="45.3036" lon="4.37097">
        <ele>848</ele>
        <time>2023-03-29T14:27:17Z</time>
      </trkpt>
      <trkpt lat="45.3037" lon="4.37085">
        <ele>847.6</ele>
        <time>2023-03-29T14:27:18Z</time>
      </trkpt>
      <trkpt lat="45.30389" lon="4.37071">
        <ele>846.8</ele>
        <time>2023-03-29T14:27:20Z</time>
      </trkpt>
      <trkpt lat="45.304" lon="4.37066">
        <ele>846.2</ele>
        <time>2023-03-29T14:27:21Z</time>
      </trkpt>
      <trkpt lat="45.30414" lon="4.37061">
        <ele>845.4</ele>
        <time>2023-03-29T14:27:22Z</time>
      </trkpt>
      <trkpt lat="45.30427" lon="4.37059">
        <ele>844.8</ele>
        <time>2023-03-29T14:27:23Z</time>
      </trkpt>
      <trkpt lat="45.30439" lon="4.3706">
        <ele>844.2</ele>
        <time>2023-03-29T14:27:24Z</time>
      </trkpt>
      <trkpt lat="45.3045" lon="4.37062">
        <ele>844</ele>
        <time>2023-03-29T14:27:25Z</time>
      </trkpt>
      <trkpt lat="45.30463" lon="4.37065">
        <ele>843</ele>
        <time>2023-03-29T14:27:26Z</time>
      </trkpt>
      <trkpt lat="45.30478" lon="4.37069">
        <ele>842.4</ele>
        <time>2023-03-29T14:27:27Z</time>
      </trkpt>
      <trkpt lat="45.30492" lon="4.37073">
        <ele>840.8</ele>
        <time>2023-03-29T14:27:28Z</time>
      </trkpt>
      <trkpt lat="45.30515" lon="4.37082">
        <ele>839.4</ele>
        <time>2023-03-29T14:27:30Z</time>
      </trkpt>
      <trkpt lat="45.30528" lon="4.37088">
        <ele>838.2</ele>
        <time>2023-03-29T14:27:31Z</time>
      </trkpt>
      <trkpt lat="45.30541" lon="4.37095">
        <ele>837.6</ele>
        <time>2023-03-29T14:27:32Z</time>
      </trkpt>
      <trkpt lat="45.30553" lon="4.37101">
        <ele>836.4</ele>
        <time>2023-03-29T14:27:33Z</time>
      </trkpt>
      <trkpt lat="45.30569" lon="4.37107">
        <ele>835.8</ele>
        <time>2023-03-29T14:27:34Z</time>
      </trkpt>
      <trkpt lat="45.30582" lon="4.37109">
        <ele>834.8</ele>
        <time>2023-03-29T14:27:35Z</time>
      </trkpt>
      <trkpt lat="45.30608" lon="4.37109">
        <ele>833.6</ele>
        <time>2023-03-29T14:27:37Z</time>
      </trkpt>
      <trkpt lat="45.30633" lon="4.37106">
        <ele>832.6</ele>
        <time>2023-03-29T14:27:39Z</time>
      </trkpt>
      <trkpt lat="45.30656" lon="4.37102">
        <ele>831</ele>
        <time>2023-03-29T14:27:41Z</time>
      </trkpt>
      <trkpt lat="45.30687" lon="4.37093">
        <ele>830</ele>
        <time>2023-03-29T14:27:44Z</time>
      </trkpt>
      <trkpt lat="45.30728" lon="4.37081">
        <ele>830</ele>
        <time>2023-03-29T14:27:49Z</time>
      </trkpt>
      <trkpt lat="45.30755" lon="4.37072">
        <ele>831.8</ele>
        <time>2023-03-29T14:27:53Z</time>
      </trkpt>
      <trkpt lat="45.3076" lon="4.3707">
        <ele>832.2</ele>
        <time>2023-03-29T14:27:54Z</time>
      </trkpt>
      <trkpt lat="45.30766" lon="4.37069">
        <ele>833</ele>
        <time>2023-03-29T14:27:55Z</time>
      </trkpt>
      <trkpt lat="45.30776" lon="4.37066">
        <ele>834</ele>
        <time>2023-03-29T14:27:57Z</time>
      </trkpt>
      <trkpt lat="45.30785" lon="4.37063">
        <ele>835.2</ele>
        <time>2023-03-29T14:27:59Z</time>
      </trkpt>
      <trkpt lat="45.30794" lon="4.3706">
        <ele>835.8</ele>
        <time>2023-03-29T14:28:01Z</time>
      </trkpt>
      <trkpt lat="45.30798" lon="4.37058">
        <ele>836.2</ele>
        <time>2023-03-29T14:28:02Z</time>
      </trkpt>
      <trkpt lat="45.30817" lon="4.37052">
        <ele>837.2</ele>
        <time>2023-03-29T14:28:06Z</time>
      </trkpt>
      <trkpt lat="45.30826" lon="4.3705">
        <ele>837.6</ele>
        <time>2023-03-29T14:28:08Z</time>
      </trkpt>
      <trkpt lat="45.30839" lon="4.37045">
        <ele>838.4</ele>
        <time>2023-03-29T14:28:11Z</time>
      </trkpt>
      <trkpt lat="45.30855" lon="4.3704">
        <ele>839.8</ele>
        <time>2023-03-29T14:28:15Z</time>
      </trkpt>
      <trkpt lat="45.30863" lon="4.37038">
        <ele>840</ele>
        <time>2023-03-29T14:28:17Z</time>
      </trkpt>
      <trkpt lat="45.30875" lon="4.37034">
        <ele>840.8</ele>
        <time>2023-03-29T14:28:20Z</time>
      </trkpt>
      <trkpt lat="45.3089" lon="4.37028">
        <ele>842</ele>
        <time>2023-03-29T14:28:24Z</time>
      </trkpt>
      <trkpt lat="45.30901" lon="4.37024">
        <ele>842.4</ele>
        <time>2023-03-29T14:28:27Z</time>
      </trkpt>
      <trkpt lat="45.30909" lon="4.37021">
        <ele>843.2</ele>
        <time>2023-03-29T14:28:29Z</time>
      </trkpt>
      <trkpt lat="45.3093" lon="4.37011">
        <ele>844.4</ele>
        <time>2023-03-29T14:28:35Z</time>
      </trkpt>
      <trkpt lat="45.30934" lon="4.37009">
        <ele>844.6</ele>
        <time>2023-03-29T14:28:36Z</time>
      </trkpt>
      <trkpt lat="45.30937" lon="4.37007">
        <ele>844.8</ele>
        <time>2023-03-29T14:28:37Z</time>
      </trkpt>
      <trkpt lat="45.30952" lon="4.36998">
        <ele>845.4</ele>
        <time>2023-03-29T14:28:41Z</time>
      </trkpt>
      <trkpt lat="45.30968" lon="4.36985">
        <ele>846.6</ele>
        <time>2023-03-29T14:28:46Z</time>
      </trkpt>
      <trkpt lat="45.30986" lon="4.3697">
        <ele>847.8</ele>
        <time>2023-03-29T14:28:52Z</time>
      </trkpt>
      <trkpt lat="45.30998" lon="4.36959">
        <ele>848.8</ele>
        <time>2023-03-29T14:28:56Z</time>
      </trkpt>
      <trkpt lat="45.31004" lon="4.36953">
        <ele>849</ele>
        <time>2023-03-29T14:28:58Z</time>
      </trkpt>
      <trkpt lat="45.31022" lon="4.36936">
        <ele>850</ele>
        <time>2023-03-29T14:29:04Z</time>
      </trkpt>
      <trkpt lat="45.31025" lon="4.36933">
        <ele>850.4</ele>
        <time>2023-03-29T14:29:05Z</time>
      </trkpt>
      <trkpt lat="45.31039" lon="4.36922">
        <ele>851.4</ele>
        <time>2023-03-29T14:29:10Z</time>
      </trkpt>
      <trkpt lat="45.31045" lon="4.36916">
        <ele>851.8</ele>
        <time>2023-03-29T14:29:12Z</time>
      </trkpt>
      <trkpt lat="45.31051" lon="4.3691">
        <ele>852.6</ele>
        <time>2023-03-29T14:29:14Z</time>
      </trkpt>
      <trkpt lat="45.3107" lon="4.36894">
        <ele>853.6</ele>
        <time>2023-03-29T14:29:21Z</time>
      </trkpt>
      <trkpt lat="45.31076" lon="4.36887">
        <ele>854.2</ele>
        <time>2023-03-29T14:29:23Z</time>
      </trkpt>
      <trkpt lat="45.31083" lon="4.36878">
        <ele>854.6</ele>
        <time>2023-03-29T14:29:26Z</time>
      </trkpt>
      <trkpt lat="45.31094" lon="4.36861">
        <ele>855.6</ele>
        <time>2023-03-29T14:29:31Z</time>
      </trkpt>
      <trkpt lat="45.31098" lon="4.36853">
        <ele>855.8</ele>
        <time>2023-03-29T14:29:33Z</time>
      </trkpt>
      <trkpt lat="45.31105" lon="4.36841">
        <ele>856.6</ele>
        <time>2023-03-29T14:29:36Z</time>
      </trkpt>
      <trkpt lat="45.31116" lon="4.36817">
        <ele>857.6</ele>
        <time>2023-03-29T14:29:42Z</time>
      </trkpt>
      <trkpt lat="45.31117" lon="4.36813">
        <ele>857.8</ele>
        <time>2023-03-29T14:29:43Z</time>
      </trkpt>
      <trkpt lat="45.31118" lon="4.36788">
        <ele>859</ele>
        <time>2023-03-29T14:29:48Z</time>
      </trkpt>
      <trkpt lat="45.31109" lon="4.36773">
        <ele>859.8</ele>
        <time>2023-03-29T14:29:52Z</time>
      </trkpt>
      <trkpt lat="45.31103" lon="4.36771">
        <ele>860.2</ele>
        <time>2023-03-29T14:29:54Z</time>
      </trkpt>
      <trkpt lat="45.31096" lon="4.36773">
        <ele>860.4</ele>
        <time>2023-03-29T14:29:56Z</time>
      </trkpt>
      <trkpt lat="45.31076" lon="4.36788">
        <ele>861.2</ele>
        <time>2023-03-29T14:30:02Z</time>
      </trkpt>
      <trkpt lat="45.3107" lon="4.3679">
        <ele>862</ele>
        <time>2023-03-29T14:30:04Z</time>
      </trkpt>
      <trkpt lat="45.31066" lon="4.3679">
        <ele>862.2</ele>
        <time>2023-03-29T14:30:05Z</time>
      </trkpt>
      <trkpt lat="45.31058" lon="4.36787">
        <ele>863.4</ele>
        <time>2023-03-29T14:30:08Z</time>
      </trkpt>
      <trkpt lat="45.31055" lon="4.36786">
        <ele>863.6</ele>
        <time>2023-03-29T14:30:09Z</time>
      </trkpt>
      <trkpt lat="45.31048" lon="4.36783">
        <ele>864.6</ele>
        <time>2023-03-29T14:30:12Z</time>
      </trkpt>
      <trkpt lat="45.3104" lon="4.36781">
        <ele>865.6</ele>
        <time>2023-03-29T14:30:15Z</time>
      </trkpt>
      <trkpt lat="45.31035" lon="4.3678">
        <ele>866.2</ele>
        <time>2023-03-29T14:30:17Z</time>
      </trkpt>
      <trkpt lat="45.31024" lon="4.36779">
        <ele>867.2</ele>
        <time>2023-03-29T14:30:21Z</time>
      </trkpt>
      <trkpt lat="45.31021" lon="4.36779">
        <ele>867.4</ele>
        <time>2023-03-29T14:30:22Z</time>
      </trkpt>
      <trkpt lat="45.31004" lon="4.36779">
        <ele>868.4</ele>
        <time>2023-03-29T14:30:28Z</time>
      </trkpt>
      <trkpt lat="45.30999" lon="4.36779">
        <ele>868.6</ele>
        <time>2023-03-29T14:30:30Z</time>
      </trkpt>
      <trkpt lat="45.3098" lon="4.36778">
        <ele>869.4</ele>
        <time>2023-03-29T14:30:37Z</time>
      </trkpt>
      <trkpt lat="45.30977" lon="4.36778">
        <ele>869.6</ele>
        <time>2023-03-29T14:30:38Z</time>
      </trkpt>
      <trkpt lat="45.3096" lon="4.36777">
        <ele>870.4</ele>
        <time>2023-03-29T14:30:44Z</time>
      </trkpt>
      <trkpt lat="45.30936" lon="4.36778">
        <ele>871.8</ele>
        <time>2023-03-29T14:30:53Z</time>
      </trkpt>
      <trkpt lat="45.30933" lon="4.36777">
        <ele>872</ele>
        <time>2023-03-29T14:30:54Z</time>
      </trkpt>
      <trkpt lat="45.30916" lon="4.36776">
        <ele>873</ele>
        <time>2023-03-29T14:31:00Z</time>
      </trkpt>
      <trkpt lat="45.30907" lon="4.36774">
        <ele>873.4</ele>
        <time>2023-03-29T14:31:03Z</time>
      </trkpt>
      <trkpt lat="45.30898" lon="4.36766">
        <ele>874.2</ele>
        <time>2023-03-29T14:31:07Z</time>
      </trkpt>
      <trkpt lat="45.30896" lon="4.36763">
        <ele>874.4</ele>
        <time>2023-03-29T14:31:08Z</time>
      </trkpt>
      <trkpt lat="45.30897" lon="4.36749">
        <ele>875</ele>
        <time>2023-03-29T14:31:12Z</time>
      </trkpt>
      <trkpt lat="45.30899" lon="4.36746">
        <ele>875.4</ele>
        <time>2023-03-29T14:31:13Z</time>
      </trkpt>
      <trkpt lat="45.30909" lon="4.3674">
        <ele>876.4</ele>
        <time>2023-03-29T14:31:17Z</time>
      </trkpt>
      <trkpt lat="45.30926" lon="4.3674">
        <ele>877.6</ele>
        <time>2023-03-29T14:31:22Z</time>
      </trkpt>
      <trkpt lat="45.30939" lon="4.36739">
        <ele>878.4</ele>
        <time>2023-03-29T14:31:26Z</time>
      </trkpt>
      <trkpt lat="45.30942" lon="4.36738">
        <ele>878.6</ele>
        <time>2023-03-29T14:31:27Z</time>
      </trkpt>
      <trkpt lat="45.30968" lon="4.3673">
        <ele>879.4</ele>
        <time>2023-03-29T14:31:35Z</time>
      </trkpt>
      <trkpt lat="45.30974" lon="4.36726">
        <ele>879.6</ele>
        <time>2023-03-29T14:31:37Z</time>
      </trkpt>
      <trkpt lat="45.30994" lon="4.36713">
        <ele>880.2</ele>
        <time>2023-03-29T14:31:43Z</time>
      </trkpt>
      <trkpt lat="45.31006" lon="4.36704">
        <ele>880.8</ele>
        <time>2023-03-29T14:31:47Z</time>
      </trkpt>
      <trkpt lat="45.31021" lon="4.36691">
        <ele>881.4</ele>
        <time>2023-03-29T14:31:52Z</time>
      </trkpt>
      <trkpt lat="45.31029" lon="4.36682">
        <ele>882</ele>
        <time>2023-03-29T14:31:55Z</time>
      </trkpt>
      <trkpt lat="45.31044" lon="4.3666">
        <ele>882.8</ele>
        <time>2023-03-29T14:32:01Z</time>
      </trkpt>
      <trkpt lat="45.31049" lon="4.36652">
        <ele>883</ele>
        <time>2023-03-29T14:32:03Z</time>
      </trkpt>
      <trkpt lat="45.31065" lon="4.36627">
        <ele>884.2</ele>
        <time>2023-03-29T14:32:10Z</time>
      </trkpt>
      <trkpt lat="45.31067" lon="4.36623">
        <ele>884.4</ele>
        <time>2023-03-29T14:32:11Z</time>
      </trkpt>
      <trkpt lat="45.31075" lon="4.36607">
        <ele>885.4</ele>
        <time>2023-03-29T14:32:15Z</time>
      </trkpt>
      <trkpt lat="45.31084" lon="4.36586">
        <ele>886.2</ele>
        <time>2023-03-29T14:32:20Z</time>
      </trkpt>
      <trkpt lat="45.31088" lon="4.36578">
        <ele>886.6</ele>
        <time>2023-03-29T14:32:22Z</time>
      </trkpt>
      <trkpt lat="45.31103" lon="4.3655">
        <ele>887.2</ele>
        <time>2023-03-29T14:32:29Z</time>
      </trkpt>
      <trkpt lat="45.31111" lon="4.36541">
        <ele>888</ele>
        <time>2023-03-29T14:32:32Z</time>
      </trkpt>
      <trkpt lat="45.31128" lon="4.36528">
        <ele>888.8</ele>
        <time>2023-03-29T14:32:38Z</time>
      </trkpt>
      <trkpt lat="45.31131" lon="4.36526">
        <ele>889</ele>
        <time>2023-03-29T14:32:39Z</time>
      </trkpt>
      <trkpt lat="45.31143" lon="4.36514">
        <ele>890</ele>
        <time>2023-03-29T14:32:44Z</time>
      </trkpt>
      <trkpt lat="45.31145" lon="4.36512">
        <ele>890.2</ele>
        <time>2023-03-29T14:32:45Z</time>
      </trkpt>
      <trkpt lat="45.31154" lon="4.365">
        <ele>891.2</ele>
        <time>2023-03-29T14:32:49Z</time>
      </trkpt>
      <trkpt lat="45.31162" lon="4.36487">
        <ele>892.4</ele>
        <time>2023-03-29T14:32:53Z</time>
      </trkpt>
      <trkpt lat="45.31166" lon="4.3648">
        <ele>892.8</ele>
        <time>2023-03-29T14:32:55Z</time>
      </trkpt>
      <trkpt lat="45.31175" lon="4.36462">
        <ele>893.6</ele>
        <time>2023-03-29T14:33:00Z</time>
      </trkpt>
      <trkpt lat="45.31178" lon="4.36455">
        <ele>893.8</ele>
        <time>2023-03-29T14:33:02Z</time>
      </trkpt>
      <trkpt lat="45.31191" lon="4.36429">
        <ele>894.6</ele>
        <time>2023-03-29T14:33:09Z</time>
      </trkpt>
      <trkpt lat="45.31193" lon="4.36426">
        <ele>894.8</ele>
        <time>2023-03-29T14:33:10Z</time>
      </trkpt>
      <trkpt lat="45.31201" lon="4.36414">
        <ele>895.8</ele>
        <time>2023-03-29T14:33:14Z</time>
      </trkpt>
      <trkpt lat="45.31208" lon="4.36404">
        <ele>896.4</ele>
        <time>2023-03-29T14:33:17Z</time>
      </trkpt>
      <trkpt lat="45.31216" lon="4.36392">
        <ele>896.8</ele>
        <time>2023-03-29T14:33:21Z</time>
      </trkpt>
      <trkpt lat="45.31226" lon="4.3638">
        <ele>897.4</ele>
        <time>2023-03-29T14:33:25Z</time>
      </trkpt>
      <trkpt lat="45.31234" lon="4.36371">
        <ele>898</ele>
        <time>2023-03-29T14:33:28Z</time>
      </trkpt>
      <trkpt lat="45.3125" lon="4.36351">
        <ele>898.8</ele>
        <time>2023-03-29T14:33:33Z</time>
      </trkpt>
      <trkpt lat="45.3125" lon="4.36351">
        <ele>899</ele>
        <time>2023-03-29T14:33:34Z</time>
      </trkpt>
      <trkpt lat="45.31281" lon="4.36308">
        <ele>900</ele>
        <time>2023-03-29T14:33:44Z</time>
      </trkpt>
      <trkpt lat="45.31285" lon="4.36303">
        <ele>900</ele>
        <time>2023-03-29T14:33:45Z</time>
      </trkpt>
      <trkpt lat="45.31291" lon="4.36295">
        <ele>900.2</ele>
        <time>2023-03-29T14:33:47Z</time>
      </trkpt>
      <trkpt lat="45.31303" lon="4.36275">
        <ele>900.6</ele>
        <time>2023-03-29T14:33:51Z</time>
      </trkpt>
      <trkpt lat="45.31312" lon="4.3626">
        <ele>900.6</ele>
        <time>2023-03-29T14:33:54Z</time>
      </trkpt>
      <trkpt lat="45.31334" lon="4.36232">
        <ele>900.8</ele>
        <time>2023-03-29T14:34:00Z</time>
      </trkpt>
      <trkpt lat="45.3136" lon="4.36195">
        <ele>900.4</ele>
        <time>2023-03-29T14:34:06Z</time>
      </trkpt>
      <trkpt lat="45.31366" lon="4.36189">
        <ele>900.4</ele>
        <time>2023-03-29T14:34:07Z</time>
      </trkpt>
      <trkpt lat="45.31391" lon="4.36155">
        <ele>900</ele>
        <time>2023-03-29T14:34:12Z</time>
      </trkpt>
      <trkpt lat="45.31395" lon="4.36148">
        <ele>900.2</ele>
        <time>2023-03-29T14:34:13Z</time>
      </trkpt>
      <trkpt lat="45.31407" lon="4.36129">
        <ele>900</ele>
        <time>2023-03-29T14:34:16Z</time>
      </trkpt>
      <trkpt lat="45.31421" lon="4.36107">
        <ele>900.4</ele>
        <time>2023-03-29T14:34:20Z</time>
      </trkpt>
      <trkpt lat="45.31424" lon="4.36102">
        <ele>900.4</ele>
        <time>2023-03-29T14:34:21Z</time>
      </trkpt>
      <trkpt lat="45.31442" lon="4.36073">
        <ele>901</ele>
        <time>2023-03-29T14:34:27Z</time>
      </trkpt>
      <trkpt lat="45.31444" lon="4.36068">
        <ele>901</ele>
        <time>2023-03-29T14:34:30Z</time>
      </trkpt>
      <trkpt lat="45.31444" lon="4.36068">
        <ele>901.2</ele>
        <time>2023-03-29T14:34:32Z</time>
      </trkpt>
      <trkpt lat="45.31444" lon="4.36068">
        <ele>901.6</ele>
        <time>2023-03-29T14:34:38Z</time>
      </trkpt>
      <trkpt lat="45.31444" lon="4.36068">
        <ele>901</ele>
        <time>2023-03-29T14:35:21Z</time>
      </trkpt>
      <trkpt lat="45.31444" lon="4.36068">
        <ele>901.2</ele>
        <time>2023-03-29T14:35:48Z</time>
      </trkpt>
      <trkpt lat="45.31445" lon="4.36066">
        <ele>901.4</ele>
        <time>2023-03-29T14:36:01Z</time>
      </trkpt>
      <trkpt lat="45.31445" lon="4.36051">
        <ele>901.2</ele>
        <time>2023-03-29T14:36:07Z</time>
      </trkpt>
      <trkpt lat="45.31439" lon="4.36031">
        <ele>900.8</ele>
        <time>2023-03-29T14:36:12Z</time>
      </trkpt>
      <trkpt lat="45.31436" lon="4.3602">
        <ele>900.4</ele>
        <time>2023-03-29T14:36:14Z</time>
      </trkpt>
      <trkpt lat="45.3143" lon="4.36">
        <ele>900</ele>
        <time>2023-03-29T14:36:17Z</time>
      </trkpt>
      <trkpt lat="45.31425" lon="4.35986">
        <ele>899.8</ele>
        <time>2023-03-29T14:36:19Z</time>
      </trkpt>
      <trkpt lat="45.31418" lon="4.3596">
        <ele>899.4</ele>
        <time>2023-03-29T14:36:22Z</time>
      </trkpt>
      <trkpt lat="45.31417" lon="4.3595">
        <ele>899.2</ele>
        <time>2023-03-29T14:36:23Z</time>
      </trkpt>
      <trkpt lat="45.31417" lon="4.3594">
        <ele>899</ele>
        <time>2023-03-29T14:36:24Z</time>
      </trkpt>
      <trkpt lat="45.3142" lon="4.35919">
        <ele>898.6</ele>
        <time>2023-03-29T14:36:26Z</time>
      </trkpt>
      <trkpt lat="45.31423" lon="4.35909">
        <ele>898.2</ele>
        <time>2023-03-29T14:36:27Z</time>
      </trkpt>
      <trkpt lat="45.31428" lon="4.35899">
        <ele>898</ele>
        <time>2023-03-29T14:36:28Z</time>
      </trkpt>
      <trkpt lat="45.3144" lon="4.35883">
        <ele>897</ele>
        <time>2023-03-29T14:36:30Z</time>
      </trkpt>
      <trkpt lat="45.31456" lon="4.35875">
        <ele>896</ele>
        <time>2023-03-29T14:36:32Z</time>
      </trkpt>
      <trkpt lat="45.31465" lon="4.35873">
        <ele>895.6</ele>
        <time>2023-03-29T14:36:33Z</time>
      </trkpt>
      <trkpt lat="45.31493" lon="4.35868">
        <ele>894.6</ele>
        <time>2023-03-29T14:36:36Z</time>
      </trkpt>
      <trkpt lat="45.31512" lon="4.35862">
        <ele>894.2</ele>
        <time>2023-03-29T14:36:38Z</time>
      </trkpt>
      <trkpt lat="45.31532" lon="4.35857">
        <ele>893.6</ele>
        <time>2023-03-29T14:36:40Z</time>
      </trkpt>
      <trkpt lat="45.31553" lon="4.35852">
        <ele>892.6</ele>
        <time>2023-03-29T14:36:42Z</time>
      </trkpt>
      <trkpt lat="45.31573" lon="4.35845">
        <ele>891.4</ele>
        <time>2023-03-29T14:36:44Z</time>
      </trkpt>
      <trkpt lat="45.31593" lon="4.35835">
        <ele>890.6</ele>
        <time>2023-03-29T14:36:46Z</time>
      </trkpt>
      <trkpt lat="45.31603" lon="4.35828">
        <ele>890</ele>
        <time>2023-03-29T14:36:47Z</time>
      </trkpt>
      <trkpt lat="45.31613" lon="4.35819">
        <ele>889.8</ele>
        <time>2023-03-29T14:36:48Z</time>
      </trkpt>
      <trkpt lat="45.31622" lon="4.3581">
        <ele>889</ele>
        <time>2023-03-29T14:36:49Z</time>
      </trkpt>
      <trkpt lat="45.31649" lon="4.35778">
        <ele>887.4</ele>
        <time>2023-03-29T14:36:52Z</time>
      </trkpt>
      <trkpt lat="45.31667" lon="4.35756">
        <ele>886.2</ele>
        <time>2023-03-29T14:36:54Z</time>
      </trkpt>
      <trkpt lat="45.31684" lon="4.35736">
        <ele>885</ele>
        <time>2023-03-29T14:36:56Z</time>
      </trkpt>
      <trkpt lat="45.31693" lon="4.35727">
        <ele>884.8</ele>
        <time>2023-03-29T14:36:57Z</time>
      </trkpt>
      <trkpt lat="45.31703" lon="4.35721">
        <ele>883.8</ele>
        <time>2023-03-29T14:36:58Z</time>
      </trkpt>
      <trkpt lat="45.31713" lon="4.35716">
        <ele>883</ele>
        <time>2023-03-29T14:36:59Z</time>
      </trkpt>
      <trkpt lat="45.31735" lon="4.35713">
        <ele>882.2</ele>
        <time>2023-03-29T14:37:01Z</time>
      </trkpt>
      <trkpt lat="45.31745" lon="4.35712">
        <ele>881.8</ele>
        <time>2023-03-29T14:37:02Z</time>
      </trkpt>
      <trkpt lat="45.31766" lon="4.35705">
        <ele>881.2</ele>
        <time>2023-03-29T14:37:04Z</time>
      </trkpt>
      <trkpt lat="45.31776" lon="4.35698">
        <ele>880.8</ele>
        <time>2023-03-29T14:37:05Z</time>
      </trkpt>
      <trkpt lat="45.31804" lon="4.35674">
        <ele>879.8</ele>
        <time>2023-03-29T14:37:08Z</time>
      </trkpt>
      <trkpt lat="45.31826" lon="4.3565">
        <ele>879</ele>
        <time>2023-03-29T14:37:11Z</time>
      </trkpt>
      <trkpt lat="45.31833" lon="4.3564">
        <ele>878.8</ele>
        <time>2023-03-29T14:37:12Z</time>
      </trkpt>
      <trkpt lat="45.31838" lon="4.35629">
        <ele>878.8</ele>
        <time>2023-03-29T14:37:13Z</time>
      </trkpt>
      <trkpt lat="45.31845" lon="4.35606">
        <ele>878.8</ele>
        <time>2023-03-29T14:37:15Z</time>
      </trkpt>
      <trkpt lat="45.31859" lon="4.3555">
        <ele>879.2</ele>
        <time>2023-03-29T14:37:20Z</time>
      </trkpt>
      <trkpt lat="45.31863" lon="4.3554">
        <ele>879.8</ele>
        <time>2023-03-29T14:37:21Z</time>
      </trkpt>
      <trkpt lat="45.31872" lon="4.35521">
        <ele>880.2</ele>
        <time>2023-03-29T14:37:23Z</time>
      </trkpt>
      <trkpt lat="45.31882" lon="4.35504">
        <ele>880.4</ele>
        <time>2023-03-29T14:37:25Z</time>
      </trkpt>
      <trkpt lat="45.31919" lon="4.35447">
        <ele>880.6</ele>
        <time>2023-03-29T14:37:32Z</time>
      </trkpt>
      <trkpt lat="45.31923" lon="4.35439">
        <ele>880.6</ele>
        <time>2023-03-29T14:37:33Z</time>
      </trkpt>
      <trkpt lat="45.3194" lon="4.35405">
        <ele>880.6</ele>
        <time>2023-03-29T14:37:37Z</time>
      </trkpt>
      <trkpt lat="45.31942" lon="4.35395">
        <ele>880.6</ele>
        <time>2023-03-29T14:37:38Z</time>
      </trkpt>
      <trkpt lat="45.31944" lon="4.35385">
        <ele>880.4</ele>
        <time>2023-03-29T14:37:39Z</time>
      </trkpt>
      <trkpt lat="45.31942" lon="4.35363">
        <ele>880.4</ele>
        <time>2023-03-29T14:37:41Z</time>
      </trkpt>
      <trkpt lat="45.31934" lon="4.35344">
        <ele>880.4</ele>
        <time>2023-03-29T14:37:43Z</time>
      </trkpt>
      <trkpt lat="45.31928" lon="4.35337">
        <ele>880.4</ele>
        <time>2023-03-29T14:37:44Z</time>
      </trkpt>
      <trkpt lat="45.31921" lon="4.35332">
        <ele>880.4</ele>
        <time>2023-03-29T14:37:45Z</time>
      </trkpt>
      <trkpt lat="45.31907" lon="4.35327">
        <ele>880.4</ele>
        <time>2023-03-29T14:37:47Z</time>
      </trkpt>
      <trkpt lat="45.3189" lon="4.35327">
        <ele>880.6</ele>
        <time>2023-03-29T14:37:50Z</time>
      </trkpt>
      <trkpt lat="45.31886" lon="4.35328">
        <ele>880.8</ele>
        <time>2023-03-29T14:37:51Z</time>
      </trkpt>
      <trkpt lat="45.31877" lon="4.35331">
        <ele>881.2</ele>
        <time>2023-03-29T14:37:53Z</time>
      </trkpt>
      <trkpt lat="45.31859" lon="4.35336">
        <ele>882.2</ele>
        <time>2023-03-29T14:37:57Z</time>
      </trkpt>
      <trkpt lat="45.31854" lon="4.35337">
        <ele>882.6</ele>
        <time>2023-03-29T14:37:58Z</time>
      </trkpt>
      <trkpt lat="45.31846" lon="4.35337">
        <ele>883.4</ele>
        <time>2023-03-29T14:38:00Z</time>
      </trkpt>
      <trkpt lat="45.31837" lon="4.35337">
        <ele>884</ele>
        <time>2023-03-29T14:38:02Z</time>
      </trkpt>
      <trkpt lat="45.31829" lon="4.35336">
        <ele>884.4</ele>
        <time>2023-03-29T14:38:04Z</time>
      </trkpt>
      <trkpt lat="45.31819" lon="4.35334">
        <ele>885.2</ele>
        <time>2023-03-29T14:38:06Z</time>
      </trkpt>
      <trkpt lat="45.31797" lon="4.35326">
        <ele>886.6</ele>
        <time>2023-03-29T14:38:11Z</time>
      </trkpt>
      <trkpt lat="45.31794" lon="4.35324">
        <ele>886.8</ele>
        <time>2023-03-29T14:38:12Z</time>
      </trkpt>
      <trkpt lat="45.31779" lon="4.35315">
        <ele>887.8</ele>
        <time>2023-03-29T14:38:16Z</time>
      </trkpt>
      <trkpt lat="45.31772" lon="4.3531">
        <ele>888.2</ele>
        <time>2023-03-29T14:38:18Z</time>
      </trkpt>
      <trkpt lat="45.31763" lon="4.35303">
        <ele>889</ele>
        <time>2023-03-29T14:38:21Z</time>
      </trkpt>
      <trkpt lat="45.31756" lon="4.35297">
        <ele>889.4</ele>
        <time>2023-03-29T14:38:23Z</time>
      </trkpt>
      <trkpt lat="45.31754" lon="4.35294">
        <ele>890</ele>
        <time>2023-03-29T14:38:24Z</time>
      </trkpt>
      <trkpt lat="45.3174" lon="4.35279">
        <ele>891</ele>
        <time>2023-03-29T14:38:29Z</time>
      </trkpt>
      <trkpt lat="45.31731" lon="4.35267">
        <ele>891.6</ele>
        <time>2023-03-29T14:38:32Z</time>
      </trkpt>
      <trkpt lat="45.31727" lon="4.35258">
        <ele>892.4</ele>
        <time>2023-03-29T14:38:34Z</time>
      </trkpt>
      <trkpt lat="45.3172" lon="4.35236">
        <ele>893.2</ele>
        <time>2023-03-29T14:38:39Z</time>
      </trkpt>
      <trkpt lat="45.31719" lon="4.35231">
        <ele>893.4</ele>
        <time>2023-03-29T14:38:40Z</time>
      </trkpt>
      <trkpt lat="45.31714" lon="4.35206">
        <ele>894.6</ele>
        <time>2023-03-29T14:38:45Z</time>
      </trkpt>
      <trkpt lat="45.31713" lon="4.352">
        <ele>894.6</ele>
        <time>2023-03-29T14:38:46Z</time>
      </trkpt>
      <trkpt lat="45.31713" lon="4.35193">
        <ele>894.8</ele>
        <time>2023-03-29T14:38:47Z</time>
      </trkpt>
      <trkpt lat="45.31712" lon="4.35187">
        <ele>894.8</ele>
        <time>2023-03-29T14:38:48Z</time>
      </trkpt>
      <trkpt lat="45.31714" lon="4.35173">
        <ele>895</ele>
        <time>2023-03-29T14:38:50Z</time>
      </trkpt>
      <trkpt lat="45.31715" lon="4.35166">
        <ele>895</ele>
        <time>2023-03-29T14:38:51Z</time>
      </trkpt>
      <trkpt lat="45.31717" lon="4.35159">
        <ele>895.2</ele>
        <time>2023-03-29T14:38:52Z</time>
      </trkpt>
      <trkpt lat="45.31726" lon="4.35134">
        <ele>895.2</ele>
        <time>2023-03-29T14:38:56Z</time>
      </trkpt>
      <trkpt lat="45.31739" lon="4.35107">
        <ele>895.2</ele>
        <time>2023-03-29T14:39:01Z</time>
      </trkpt>
      <trkpt lat="45.31741" lon="4.35102">
        <ele>895.2</ele>
        <time>2023-03-29T14:39:02Z</time>
      </trkpt>
      <trkpt lat="45.31751" lon="4.35079">
        <ele>895.6</ele>
        <time>2023-03-29T14:39:06Z</time>
      </trkpt>
      <trkpt lat="45.31756" lon="4.35068">
        <ele>896.2</ele>
        <time>2023-03-29T14:39:08Z</time>
      </trkpt>
      <trkpt lat="45.31763" lon="4.35052">
        <ele>896.6</ele>
        <time>2023-03-29T14:39:11Z</time>
      </trkpt>
      <trkpt lat="45.31771" lon="4.35024">
        <ele>897.8</ele>
        <time>2023-03-29T14:39:16Z</time>
      </trkpt>
      <trkpt lat="45.31773" lon="4.35018">
        <ele>898</ele>
        <time>2023-03-29T14:39:17Z</time>
      </trkpt>
      <trkpt lat="45.31777" lon="4.34996">
        <ele>898.4</ele>
        <time>2023-03-29T14:39:21Z</time>
      </trkpt>
      <trkpt lat="45.31779" lon="4.34986">
        <ele>899.2</ele>
        <time>2023-03-29T14:39:23Z</time>
      </trkpt>
      <trkpt lat="45.3178" lon="4.34974">
        <ele>899.6</ele>
        <time>2023-03-29T14:39:25Z</time>
      </trkpt>
      <trkpt lat="45.31783" lon="4.34956">
        <ele>900.6</ele>
        <time>2023-03-29T14:39:28Z</time>
      </trkpt>
      <trkpt lat="45.31785" lon="4.34944">
        <ele>900.8</ele>
        <time>2023-03-29T14:39:30Z</time>
      </trkpt>
      <trkpt lat="45.3179" lon="4.34914">
        <ele>901.8</ele>
        <time>2023-03-29T14:39:35Z</time>
      </trkpt>
      <trkpt lat="45.31793" lon="4.3489">
        <ele>902.8</ele>
        <time>2023-03-29T14:39:39Z</time>
      </trkpt>
      <trkpt lat="45.31795" lon="4.34879">
        <ele>903.2</ele>
        <time>2023-03-29T14:39:41Z</time>
      </trkpt>
      <trkpt lat="45.31798" lon="4.34862">
        <ele>903.8</ele>
        <time>2023-03-29T14:39:44Z</time>
      </trkpt>
      <trkpt lat="45.31801" lon="4.34852">
        <ele>904.2</ele>
        <time>2023-03-29T14:39:46Z</time>
      </trkpt>
      <trkpt lat="45.31802" lon="4.34846">
        <ele>904.2</ele>
        <time>2023-03-29T14:39:47Z</time>
      </trkpt>
      <trkpt lat="45.3181" lon="4.34825">
        <ele>904.8</ele>
        <time>2023-03-29T14:39:51Z</time>
      </trkpt>
      <trkpt lat="45.31813" lon="4.34813">
        <ele>905.2</ele>
        <time>2023-03-29T14:39:53Z</time>
      </trkpt>
      <trkpt lat="45.31824" lon="4.34778">
        <ele>906.4</ele>
        <time>2023-03-29T14:39:59Z</time>
      </trkpt>
      <trkpt lat="45.3183" lon="4.34732">
        <ele>907.4</ele>
        <time>2023-03-29T14:40:06Z</time>
      </trkpt>
      <trkpt lat="45.31831" lon="4.34724">
        <ele>907.6</ele>
        <time>2023-03-29T14:40:07Z</time>
      </trkpt>
      <trkpt lat="45.31832" lon="4.34659">
        <ele>908.4</ele>
        <time>2023-03-29T14:40:16Z</time>
      </trkpt>
      <trkpt lat="45.31835" lon="4.34623">
        <ele>908.6</ele>
        <time>2023-03-29T14:40:21Z</time>
      </trkpt>
      <trkpt lat="45.3184" lon="4.34594">
        <ele>908.8</ele>
        <time>2023-03-29T14:40:25Z</time>
      </trkpt>
      <trkpt lat="45.31851" lon="4.34537">
        <ele>909.2</ele>
        <time>2023-03-29T14:40:33Z</time>
      </trkpt>
      <trkpt lat="45.31857" lon="4.34511">
        <ele>909.8</ele>
        <time>2023-03-29T14:40:37Z</time>
      </trkpt>
      <trkpt lat="45.31862" lon="4.34486">
        <ele>910.4</ele>
        <time>2023-03-29T14:40:41Z</time>
      </trkpt>
      <trkpt lat="45.31866" lon="4.34468">
        <ele>910.8</ele>
        <time>2023-03-29T14:40:44Z</time>
      </trkpt>
      <trkpt lat="45.31873" lon="4.34438">
        <ele>912</ele>
        <time>2023-03-29T14:40:49Z</time>
      </trkpt>
      <trkpt lat="45.31875" lon="4.34426">
        <ele>912.4</ele>
        <time>2023-03-29T14:40:51Z</time>
      </trkpt>
      <trkpt lat="45.31879" lon="4.34411">
        <ele>912.8</ele>
        <time>2023-03-29T14:40:54Z</time>
      </trkpt>
      <trkpt lat="45.31882" lon="4.34401">
        <ele>913.2</ele>
        <time>2023-03-29T14:40:56Z</time>
      </trkpt>
      <trkpt lat="45.31882" lon="4.34396">
        <ele>913.4</ele>
        <time>2023-03-29T14:40:57Z</time>
      </trkpt>
      <trkpt lat="45.31884" lon="4.34383">
        <ele>914.2</ele>
        <time>2023-03-29T14:41:00Z</time>
      </trkpt>
      <trkpt lat="45.31888" lon="4.34364">
        <ele>915</ele>
        <time>2023-03-29T14:41:04Z</time>
      </trkpt>
      <trkpt lat="45.31889" lon="4.3436">
        <ele>915.2</ele>
        <time>2023-03-29T14:41:05Z</time>
      </trkpt>
      <trkpt lat="45.31895" lon="4.34333">
        <ele>916.6</ele>
        <time>2023-03-29T14:41:11Z</time>
      </trkpt>
      <trkpt lat="45.31896" lon="4.34328">
        <ele>917</ele>
        <time>2023-03-29T14:41:12Z</time>
      </trkpt>
      <trkpt lat="45.31901" lon="4.34311">
        <ele>918</ele>
        <time>2023-03-29T14:41:16Z</time>
      </trkpt>
      <trkpt lat="45.31903" lon="4.34302">
        <ele>918.2</ele>
        <time>2023-03-29T14:41:18Z</time>
      </trkpt>
      <trkpt lat="45.31907" lon="4.34285">
        <ele>919</ele>
        <time>2023-03-29T14:41:22Z</time>
      </trkpt>
      <trkpt lat="45.31908" lon="4.34281">
        <ele>919.2</ele>
        <time>2023-03-29T14:41:23Z</time>
      </trkpt>
      <trkpt lat="45.31914" lon="4.34263">
        <ele>920</ele>
        <time>2023-03-29T14:41:27Z</time>
      </trkpt>
      <trkpt lat="45.31925" lon="4.34239">
        <ele>921</ele>
        <time>2023-03-29T14:41:32Z</time>
      </trkpt>
      <trkpt lat="45.31934" lon="4.34225">
        <ele>921</ele>
        <time>2023-03-29T14:41:35Z</time>
      </trkpt>
      <trkpt lat="45.31947" lon="4.34204">
        <ele>921.2</ele>
        <time>2023-03-29T14:41:39Z</time>
      </trkpt>
      <trkpt lat="45.31971" lon="4.34151">
        <ele>921.2</ele>
        <time>2023-03-29T14:41:47Z</time>
      </trkpt>
      <trkpt lat="45.31986" lon="4.34111">
        <ele>921.2</ele>
        <time>2023-03-29T14:41:52Z</time>
      </trkpt>
      <trkpt lat="45.32006" lon="4.34073">
        <ele>921.2</ele>
        <time>2023-03-29T14:41:57Z</time>
      </trkpt>
      <trkpt lat="45.3205" lon="4.34014">
        <ele>921.2</ele>
        <time>2023-03-29T14:42:06Z</time>
      </trkpt>
      <trkpt lat="45.32081" lon="4.33961">
        <ele>921.2</ele>
        <time>2023-03-29T14:42:13Z</time>
      </trkpt>
      <trkpt lat="45.32105" lon="4.33908">
        <ele>921.4</ele>
        <time>2023-03-29T14:42:19Z</time>
      </trkpt>
      <trkpt lat="45.32123" lon="4.33839">
        <ele>921.6</ele>
        <time>2023-03-29T14:42:26Z</time>
      </trkpt>
      <trkpt lat="45.32137" lon="4.33776">
        <ele>921.6</ele>
        <time>2023-03-29T14:42:33Z</time>
      </trkpt>
      <trkpt lat="45.32137" lon="4.33758">
        <ele>921.6</ele>
        <time>2023-03-29T14:42:35Z</time>
      </trkpt>
      <trkpt lat="45.32133" lon="4.3375">
        <ele>921.6</ele>
        <time>2023-03-29T14:42:36Z</time>
      </trkpt>
      <trkpt lat="45.32114" lon="4.33722">
        <ele>921.4</ele>
        <time>2023-03-29T14:42:40Z</time>
      </trkpt>
      <trkpt lat="45.32104" lon="4.33706">
        <ele>921</ele>
        <time>2023-03-29T14:42:42Z</time>
      </trkpt>
      <trkpt lat="45.32095" lon="4.33691">
        <ele>920.2</ele>
        <time>2023-03-29T14:42:44Z</time>
      </trkpt>
      <trkpt lat="45.32089" lon="4.33684">
        <ele>920</ele>
        <time>2023-03-29T14:42:45Z</time>
      </trkpt>
      <trkpt lat="45.32084" lon="4.33675">
        <ele>919.4</ele>
        <time>2023-03-29T14:42:46Z</time>
      </trkpt>
      <trkpt lat="45.32073" lon="4.33659">
        <ele>918.6</ele>
        <time>2023-03-29T14:42:48Z</time>
      </trkpt>
      <trkpt lat="45.32068" lon="4.3365">
        <ele>918.2</ele>
        <time>2023-03-29T14:42:49Z</time>
      </trkpt>
      <trkpt lat="45.32057" lon="4.3363">
        <ele>917.6</ele>
        <time>2023-03-29T14:42:51Z</time>
      </trkpt>
      <trkpt lat="45.32051" lon="4.33619">
        <ele>917.4</ele>
        <time>2023-03-29T14:42:52Z</time>
      </trkpt>
      <trkpt lat="45.32041" lon="4.33597">
        <ele>916.6</ele>
        <time>2023-03-29T14:42:54Z</time>
      </trkpt>
      <trkpt lat="45.32021" lon="4.3355">
        <ele>915.4</ele>
        <time>2023-03-29T14:42:58Z</time>
      </trkpt>
      <trkpt lat="45.32012" lon="4.33515">
        <ele>914.8</ele>
        <time>2023-03-29T14:43:01Z</time>
      </trkpt>
      <trkpt lat="45.32008" lon="4.33491">
        <ele>914.6</ele>
        <time>2023-03-29T14:43:03Z</time>
      </trkpt>
      <trkpt lat="45.32005" lon="4.33477">
        <ele>914.4</ele>
        <time>2023-03-29T14:43:04Z</time>
      </trkpt>
      <trkpt lat="45.31998" lon="4.33455">
        <ele>914.4</ele>
        <time>2023-03-29T14:43:06Z</time>
      </trkpt>
      <trkpt lat="45.31994" lon="4.33445">
        <ele>914.4</ele>
        <time>2023-03-29T14:43:07Z</time>
      </trkpt>
      <trkpt lat="45.31964" lon="4.33404">
        <ele>915</ele>
        <time>2023-03-29T14:43:12Z</time>
      </trkpt>
      <trkpt lat="45.31958" lon="4.33396">
        <ele>915</ele>
        <time>2023-03-29T14:43:13Z</time>
      </trkpt>
      <trkpt lat="45.31929" lon="4.33362">
        <ele>915</ele>
        <time>2023-03-29T14:43:17Z</time>
      </trkpt>
      <trkpt lat="45.31909" lon="4.33335">
        <ele>914.2</ele>
        <time>2023-03-29T14:43:20Z</time>
      </trkpt>
      <trkpt lat="45.31896" lon="4.33318">
        <ele>913.4</ele>
        <time>2023-03-29T14:43:22Z</time>
      </trkpt>
      <trkpt lat="45.3189" lon="4.33308">
        <ele>913.2</ele>
        <time>2023-03-29T14:43:23Z</time>
      </trkpt>
      <trkpt lat="45.31884" lon="4.33299">
        <ele>912.6</ele>
        <time>2023-03-29T14:43:24Z</time>
      </trkpt>
      <trkpt lat="45.31878" lon="4.33289">
        <ele>912.2</ele>
        <time>2023-03-29T14:43:25Z</time>
      </trkpt>
      <trkpt lat="45.31869" lon="4.33266">
        <ele>911.4</ele>
        <time>2023-03-29T14:43:27Z</time>
      </trkpt>
      <trkpt lat="45.31865" lon="4.33254">
        <ele>911.2</ele>
        <time>2023-03-29T14:43:28Z</time>
      </trkpt>
      <trkpt lat="45.3186" lon="4.33232">
        <ele>910.8</ele>
        <time>2023-03-29T14:43:30Z</time>
      </trkpt>
      <trkpt lat="45.31858" lon="4.3322">
        <ele>910.6</ele>
        <time>2023-03-29T14:43:31Z</time>
      </trkpt>
      <trkpt lat="45.3185" lon="4.33173">
        <ele>910.6</ele>
        <time>2023-03-29T14:43:35Z</time>
      </trkpt>
      <trkpt lat="45.31845" lon="4.33127">
        <ele>911.2</ele>
        <time>2023-03-29T14:43:40Z</time>
      </trkpt>
      <trkpt lat="45.31844" lon="4.33105">
        <ele>911.8</ele>
        <time>2023-03-29T14:43:43Z</time>
      </trkpt>
      <trkpt lat="45.31844" lon="4.33084">
        <ele>912.4</ele>
        <time>2023-03-29T14:43:45Z</time>
      </trkpt>
      <trkpt lat="45.31847" lon="4.33065">
        <ele>912.6</ele>
        <time>2023-03-29T14:43:47Z</time>
      </trkpt>
      <trkpt lat="45.31843" lon="4.33036">
        <ele>913.2</ele>
        <time>2023-03-29T14:43:51Z</time>
      </trkpt>
      <trkpt lat="45.31843" lon="4.33031">
        <ele>913.4</ele>
        <time>2023-03-29T14:43:52Z</time>
      </trkpt>
      <trkpt lat="45.31842" lon="4.33025">
        <ele>913.4</ele>
        <time>2023-03-29T14:43:53Z</time>
      </trkpt>
      <trkpt lat="45.31838" lon="4.33005">
        <ele>913.6</ele>
        <time>2023-03-29T14:43:55Z</time>
      </trkpt>
      <trkpt lat="45.31829" lon="4.32972">
        <ele>913.8</ele>
        <time>2023-03-29T14:43:58Z</time>
      </trkpt>
      <trkpt lat="45.31827" lon="4.3295">
        <ele>913.8</ele>
        <time>2023-03-29T14:44:00Z</time>
      </trkpt>
      <trkpt lat="45.31833" lon="4.32935">
        <ele>914</ele>
        <time>2023-03-29T14:44:02Z</time>
      </trkpt>
      <trkpt lat="45.31833" lon="4.32929">
        <ele>914</ele>
        <time>2023-03-29T14:44:03Z</time>
      </trkpt>
      <trkpt lat="45.31837" lon="4.3292">
        <ele>914.6</ele>
        <time>2023-03-29T14:44:05Z</time>
      </trkpt>
      <trkpt lat="45.31837" lon="4.32892">
        <ele>915.8</ele>
        <time>2023-03-29T14:44:09Z</time>
      </trkpt>
      <trkpt lat="45.31832" lon="4.32879">
        <ele>916.2</ele>
        <time>2023-03-29T14:44:10Z</time>
      </trkpt>
      <trkpt lat="45.31831" lon="4.32863">
        <ele>916.8</ele>
        <time>2023-03-29T14:44:12Z</time>
      </trkpt>
      <trkpt lat="45.31833" lon="4.3286">
        <ele>917</ele>
        <time>2023-03-29T14:44:13Z</time>
      </trkpt>
      <trkpt lat="45.31834" lon="4.32856">
        <ele>917.4</ele>
        <time>2023-03-29T14:44:14Z</time>
      </trkpt>
      <trkpt lat="45.31828" lon="4.3284">
        <ele>918</ele>
        <time>2023-03-29T14:44:16Z</time>
      </trkpt>
      <trkpt lat="45.31813" lon="4.32812">
        <ele>919</ele>
        <time>2023-03-29T14:44:19Z</time>
      </trkpt>
      <trkpt lat="45.31814" lon="4.32807">
        <ele>919.2</ele>
        <time>2023-03-29T14:44:20Z</time>
      </trkpt>
      <trkpt lat="45.3181" lon="4.32793">
        <ele>920</ele>
        <time>2023-03-29T14:44:23Z</time>
      </trkpt>
      <trkpt lat="45.31811" lon="4.3279">
        <ele>920.2</ele>
        <time>2023-03-29T14:44:24Z</time>
      </trkpt>
      <trkpt lat="45.31805" lon="4.32773">
        <ele>921.4</ele>
        <time>2023-03-29T14:44:28Z</time>
      </trkpt>
      <trkpt lat="45.31797" lon="4.32762">
        <ele>921.8</ele>
        <time>2023-03-29T14:44:30Z</time>
      </trkpt>
      <trkpt lat="45.31791" lon="4.32754">
        <ele>922.2</ele>
        <time>2023-03-29T14:44:33Z</time>
      </trkpt>
      <trkpt lat="45.31786" lon="4.32748">
        <ele>923.2</ele>
        <time>2023-03-29T14:44:35Z</time>
      </trkpt>
      <trkpt lat="45.31779" lon="4.32742">
        <ele>923.4</ele>
        <time>2023-03-29T14:44:37Z</time>
      </trkpt>
      <trkpt lat="45.31761" lon="4.32729">
        <ele>924.2</ele>
        <time>2023-03-29T14:44:42Z</time>
      </trkpt>
      <trkpt lat="45.31758" lon="4.32726">
        <ele>924.4</ele>
        <time>2023-03-29T14:44:43Z</time>
      </trkpt>
      <trkpt lat="45.31742" lon="4.32717">
        <ele>925</ele>
        <time>2023-03-29T14:44:47Z</time>
      </trkpt>
      <trkpt lat="45.31738" lon="4.32715">
        <ele>925.4</ele>
        <time>2023-03-29T14:44:48Z</time>
      </trkpt>
      <trkpt lat="45.3173" lon="4.32711">
        <ele>925.4</ele>
        <time>2023-03-29T14:44:50Z</time>
      </trkpt>
      <trkpt lat="45.31715" lon="4.32703">
        <ele>925.8</ele>
        <time>2023-03-29T14:44:54Z</time>
      </trkpt>
      <trkpt lat="45.31683" lon="4.32687">
        <ele>926.4</ele>
        <time>2023-03-29T14:45:01Z</time>
      </trkpt>
      <trkpt lat="45.31668" lon="4.32681">
        <ele>926.6</ele>
        <time>2023-03-29T14:45:04Z</time>
      </trkpt>
      <trkpt lat="45.31653" lon="4.32672">
        <ele>926.8</ele>
        <time>2023-03-29T14:45:07Z</time>
      </trkpt>
      <trkpt lat="45.31631" lon="4.3266">
        <ele>927</ele>
        <time>2023-03-29T14:45:11Z</time>
      </trkpt>
      <trkpt lat="45.31627" lon="4.32657">
        <ele>927</ele>
        <time>2023-03-29T14:45:12Z</time>
      </trkpt>
      <trkpt lat="45.31621" lon="4.32652">
        <ele>927</ele>
        <time>2023-03-29T14:45:13Z</time>
      </trkpt>
      <trkpt lat="45.31599" lon="4.32624">
        <ele>927.4</ele>
        <time>2023-03-29T14:45:18Z</time>
      </trkpt>
      <trkpt lat="45.31597" lon="4.32617">
        <ele>927.6</ele>
        <time>2023-03-29T14:45:19Z</time>
      </trkpt>
      <trkpt lat="45.31592" lon="4.32603">
        <ele>927.8</ele>
        <time>2023-03-29T14:45:21Z</time>
      </trkpt>
      <trkpt lat="45.3159" lon="4.32596">
        <ele>928</ele>
        <time>2023-03-29T14:45:22Z</time>
      </trkpt>
      <trkpt lat="45.31588" lon="4.3257">
        <ele>928.8</ele>
        <time>2023-03-29T14:45:26Z</time>
      </trkpt>
      <trkpt lat="45.31579" lon="4.32537">
        <ele>929.6</ele>
        <time>2023-03-29T14:45:31Z</time>
      </trkpt>
      <trkpt lat="45.31577" lon="4.32531">
        <ele>930</ele>
        <time>2023-03-29T14:45:32Z</time>
      </trkpt>
      <trkpt lat="45.31577" lon="4.32526">
        <ele>930.2</ele>
        <time>2023-03-29T14:45:33Z</time>
      </trkpt>
      <trkpt lat="45.31577" lon="4.32518">
        <ele>930.8</ele>
        <time>2023-03-29T14:45:35Z</time>
      </trkpt>
      <trkpt lat="45.31576" lon="4.32505">
        <ele>931.4</ele>
        <time>2023-03-29T14:45:37Z</time>
      </trkpt>
      <trkpt lat="45.3157" lon="4.32479">
        <ele>931.6</ele>
        <time>2023-03-29T14:45:40Z</time>
      </trkpt>
      <trkpt lat="45.31563" lon="4.32453">
        <ele>932.4</ele>
        <time>2023-03-29T14:45:43Z</time>
      </trkpt>
      <trkpt lat="45.3156" lon="4.32436">
        <ele>932.8</ele>
        <time>2023-03-29T14:45:45Z</time>
      </trkpt>
      <trkpt lat="45.3155" lon="4.32407">
        <ele>933.4</ele>
        <time>2023-03-29T14:45:50Z</time>
      </trkpt>
      <trkpt lat="45.31549" lon="4.32402">
        <ele>933.6</ele>
        <time>2023-03-29T14:45:51Z</time>
      </trkpt>
      <trkpt lat="45.31545" lon="4.32378">
        <ele>933.8</ele>
        <time>2023-03-29T14:45:55Z</time>
      </trkpt>
      <trkpt lat="45.31545" lon="4.32371">
        <ele>933.8</ele>
        <time>2023-03-29T14:45:56Z</time>
      </trkpt>
      <trkpt lat="45.31535" lon="4.32327">
        <ele>934.4</ele>
        <time>2023-03-29T14:46:01Z</time>
      </trkpt>
      <trkpt lat="45.31532" lon="4.32311">
        <ele>934.6</ele>
        <time>2023-03-29T14:46:03Z</time>
      </trkpt>
      <trkpt lat="45.31523" lon="4.32287">
        <ele>935</ele>
        <time>2023-03-29T14:46:06Z</time>
      </trkpt>
      <trkpt lat="45.31507" lon="4.32243">
        <ele>935</ele>
        <time>2023-03-29T14:46:11Z</time>
      </trkpt>
      <trkpt lat="45.31502" lon="4.32234">
        <ele>935</ele>
        <time>2023-03-29T14:46:12Z</time>
      </trkpt>
      <trkpt lat="45.31473" lon="4.32192">
        <ele>934.4</ele>
        <time>2023-03-29T14:46:19Z</time>
      </trkpt>
      <trkpt lat="45.31441" lon="4.32148">
        <ele>933.8</ele>
        <time>2023-03-29T14:46:25Z</time>
      </trkpt>
      <trkpt lat="45.31429" lon="4.32132">
        <ele>933.2</ele>
        <time>2023-03-29T14:46:27Z</time>
      </trkpt>
      <trkpt lat="45.31412" lon="4.32107">
        <ele>932</ele>
        <time>2023-03-29T14:46:30Z</time>
      </trkpt>
      <trkpt lat="45.31406" lon="4.32098">
        <ele>931</ele>
        <time>2023-03-29T14:46:31Z</time>
      </trkpt>
      <trkpt lat="45.314" lon="4.32089">
        <ele>930.8</ele>
        <time>2023-03-29T14:46:32Z</time>
      </trkpt>
      <trkpt lat="45.31389" lon="4.32069">
        <ele>929.4</ele>
        <time>2023-03-29T14:46:34Z</time>
      </trkpt>
      <trkpt lat="45.31379" lon="4.32044">
        <ele>928.2</ele>
        <time>2023-03-29T14:46:36Z</time>
      </trkpt>
      <trkpt lat="45.31371" lon="4.32018">
        <ele>926.8</ele>
        <time>2023-03-29T14:46:38Z</time>
      </trkpt>
      <trkpt lat="45.31366" lon="4.31993">
        <ele>925.8</ele>
        <time>2023-03-29T14:46:40Z</time>
      </trkpt>
      <trkpt lat="45.31359" lon="4.31965">
        <ele>924.2</ele>
        <time>2023-03-29T14:46:42Z</time>
      </trkpt>
      <trkpt lat="45.31353" lon="4.31936">
        <ele>923</ele>
        <time>2023-03-29T14:46:44Z</time>
      </trkpt>
      <trkpt lat="45.31349" lon="4.31922">
        <ele>922.6</ele>
        <time>2023-03-29T14:46:45Z</time>
      </trkpt>
      <trkpt lat="45.31346" lon="4.31909">
        <ele>921.6</ele>
        <time>2023-03-29T14:46:46Z</time>
      </trkpt>
      <trkpt lat="45.3134" lon="4.31881">
        <ele>920.6</ele>
        <time>2023-03-29T14:46:48Z</time>
      </trkpt>
      <trkpt lat="45.31334" lon="4.31857">
        <ele>919.6</ele>
        <time>2023-03-29T14:46:50Z</time>
      </trkpt>
      <trkpt lat="45.31332" lon="4.31846">
        <ele>918.8</ele>
        <time>2023-03-29T14:46:51Z</time>
      </trkpt>
      <trkpt lat="45.3133" lon="4.31836">
        <ele>918.4</ele>
        <time>2023-03-29T14:46:52Z</time>
      </trkpt>
      <trkpt lat="45.31327" lon="4.31812">
        <ele>917.2</ele>
        <time>2023-03-29T14:46:55Z</time>
      </trkpt>
      <trkpt lat="45.31326" lon="4.31787">
        <ele>916.2</ele>
        <time>2023-03-29T14:46:59Z</time>
      </trkpt>
      <trkpt lat="45.31324" lon="4.31781">
        <ele>916</ele>
        <time>2023-03-29T14:47:00Z</time>
      </trkpt>
      <trkpt lat="45.31314" lon="4.31732">
        <ele>915.6</ele>
        <time>2023-03-29T14:47:06Z</time>
      </trkpt>
      <trkpt lat="45.31308" lon="4.31703">
        <ele>915</ele>
        <time>2023-03-29T14:47:09Z</time>
      </trkpt>
      <trkpt lat="45.31301" lon="4.31661">
        <ele>913.6</ele>
        <time>2023-03-29T14:47:13Z</time>
      </trkpt>
      <trkpt lat="45.31294" lon="4.31617">
        <ele>912.4</ele>
        <time>2023-03-29T14:47:17Z</time>
      </trkpt>
      <trkpt lat="45.31286" lon="4.31573">
        <ele>912</ele>
        <time>2023-03-29T14:47:21Z</time>
      </trkpt>
      <trkpt lat="45.3128" lon="4.31541">
        <ele>911.4</ele>
        <time>2023-03-29T14:47:24Z</time>
      </trkpt>
      <trkpt lat="45.31268" lon="4.31466">
        <ele>910.8</ele>
        <time>2023-03-29T14:47:31Z</time>
      </trkpt>
      <trkpt lat="45.31255" lon="4.31384">
        <ele>910.6</ele>
        <time>2023-03-29T14:47:39Z</time>
      </trkpt>
      <trkpt lat="45.31245" lon="4.31332">
        <ele>910.8</ele>
        <time>2023-03-29T14:47:44Z</time>
      </trkpt>
      <trkpt lat="45.31234" lon="4.31267">
        <ele>910.8</ele>
        <time>2023-03-29T14:47:50Z</time>
      </trkpt>
      <trkpt lat="45.31219" lon="4.31187">
        <ele>911</ele>
        <time>2023-03-29T14:47:58Z</time>
      </trkpt>
      <trkpt lat="45.31213" lon="4.31153">
        <ele>911.4</ele>
        <time>2023-03-29T14:48:02Z</time>
      </trkpt>
      <trkpt lat="45.31213" lon="4.31146">
        <ele>911.6</ele>
        <time>2023-03-29T14:48:03Z</time>
      </trkpt>
      <trkpt lat="45.31212" lon="4.31132">
        <ele>912</ele>
        <time>2023-03-29T14:48:05Z</time>
      </trkpt>
      <trkpt lat="45.31209" lon="4.31108">
        <ele>912.4</ele>
        <time>2023-03-29T14:48:08Z</time>
      </trkpt>
      <trkpt lat="45.31208" lon="4.311">
        <ele>912.8</ele>
        <time>2023-03-29T14:48:09Z</time>
      </trkpt>
      <trkpt lat="45.31196" lon="4.3105">
        <ele>913.4</ele>
        <time>2023-03-29T14:48:15Z</time>
      </trkpt>
      <trkpt lat="45.31194" lon="4.31043">
        <ele>913.6</ele>
        <time>2023-03-29T14:48:16Z</time>
      </trkpt>
      <trkpt lat="45.31189" lon="4.31019">
        <ele>913.8</ele>
        <time>2023-03-29T14:48:19Z</time>
      </trkpt>
      <trkpt lat="45.31187" lon="4.31">
        <ele>913.8</ele>
        <time>2023-03-29T14:48:21Z</time>
      </trkpt>
      <trkpt lat="45.31183" lon="4.30971">
        <ele>914</ele>
        <time>2023-03-29T14:48:24Z</time>
      </trkpt>
      <trkpt lat="45.31179" lon="4.30952">
        <ele>914</ele>
        <time>2023-03-29T14:48:26Z</time>
      </trkpt>
      <trkpt lat="45.31168" lon="4.30878">
        <ele>914.6</ele>
        <time>2023-03-29T14:48:34Z</time>
      </trkpt>
      <trkpt lat="45.31167" lon="4.30858">
        <ele>914.6</ele>
        <time>2023-03-29T14:48:36Z</time>
      </trkpt>
      <trkpt lat="45.31169" lon="4.30831">
        <ele>914.6</ele>
        <time>2023-03-29T14:48:39Z</time>
      </trkpt>
      <trkpt lat="45.31175" lon="4.30808">
        <ele>914.8</ele>
        <time>2023-03-29T14:48:42Z</time>
      </trkpt>
      <trkpt lat="45.31179" lon="4.30795">
        <ele>915</ele>
        <time>2023-03-29T14:48:44Z</time>
      </trkpt>
      <trkpt lat="45.31185" lon="4.30776">
        <ele>915.6</ele>
        <time>2023-03-29T14:48:47Z</time>
      </trkpt>
      <trkpt lat="45.31193" lon="4.30763">
        <ele>916.2</ele>
        <time>2023-03-29T14:48:49Z</time>
      </trkpt>
      <trkpt lat="45.31203" lon="4.30742">
        <ele>916.6</ele>
        <time>2023-03-29T14:48:52Z</time>
      </trkpt>
      <trkpt lat="45.31206" lon="4.30735">
        <ele>916.8</ele>
        <time>2023-03-29T14:48:53Z</time>
      </trkpt>
      <trkpt lat="45.31213" lon="4.30721">
        <ele>917.2</ele>
        <time>2023-03-29T14:48:55Z</time>
      </trkpt>
      <trkpt lat="45.31235" lon="4.30675">
        <ele>917.6</ele>
        <time>2023-03-29T14:49:01Z</time>
      </trkpt>
      <trkpt lat="45.31239" lon="4.30668">
        <ele>917.6</ele>
        <time>2023-03-29T14:49:02Z</time>
      </trkpt>
      <trkpt lat="45.31271" lon="4.30611">
        <ele>918.2</ele>
        <time>2023-03-29T14:49:10Z</time>
      </trkpt>
      <trkpt lat="45.31274" lon="4.30605">
        <ele>918.4</ele>
        <time>2023-03-29T14:49:11Z</time>
      </trkpt>
      <trkpt lat="45.31281" lon="4.30592">
        <ele>918.6</ele>
        <time>2023-03-29T14:49:13Z</time>
      </trkpt>
      <trkpt lat="45.31284" lon="4.30585">
        <ele>918.6</ele>
        <time>2023-03-29T14:49:14Z</time>
      </trkpt>
      <trkpt lat="45.31287" lon="4.30577">
        <ele>918.8</ele>
        <time>2023-03-29T14:49:15Z</time>
      </trkpt>
      <trkpt lat="45.31303" lon="4.30543">
        <ele>919.6</ele>
        <time>2023-03-29T14:49:20Z</time>
      </trkpt>
      <trkpt lat="45.31307" lon="4.30537">
        <ele>919.8</ele>
        <time>2023-03-29T14:49:21Z</time>
      </trkpt>
      <trkpt lat="45.3131" lon="4.3053">
        <ele>920</ele>
        <time>2023-03-29T14:49:22Z</time>
      </trkpt>
      <trkpt lat="45.31315" lon="4.305">
        <ele>920.4</ele>
        <time>2023-03-29T14:49:26Z</time>
      </trkpt>
      <trkpt lat="45.31317" lon="4.30484">
        <ele>920.4</ele>
        <time>2023-03-29T14:49:28Z</time>
      </trkpt>
      <trkpt lat="45.31319" lon="4.3046">
        <ele>920.4</ele>
        <time>2023-03-29T14:49:31Z</time>
      </trkpt>
      <trkpt lat="45.31317" lon="4.30444">
        <ele>920.4</ele>
        <time>2023-03-29T14:49:33Z</time>
      </trkpt>
      <trkpt lat="45.31316" lon="4.30435">
        <ele>920.2</ele>
        <time>2023-03-29T14:49:34Z</time>
      </trkpt>
      <trkpt lat="45.31309" lon="4.30409">
        <ele>920</ele>
        <time>2023-03-29T14:49:37Z</time>
      </trkpt>
      <trkpt lat="45.313" lon="4.30382">
        <ele>919</ele>
        <time>2023-03-29T14:49:40Z</time>
      </trkpt>
      <trkpt lat="45.31295" lon="4.30373">
        <ele>918.8</ele>
        <time>2023-03-29T14:49:41Z</time>
      </trkpt>
      <trkpt lat="45.31284" lon="4.30351">
        <ele>917.6</ele>
        <time>2023-03-29T14:49:43Z</time>
      </trkpt>
      <trkpt lat="45.31267" lon="4.30319">
        <ele>916.6</ele>
        <time>2023-03-29T14:49:46Z</time>
      </trkpt>
      <trkpt lat="45.31256" lon="4.30296">
        <ele>915.2</ele>
        <time>2023-03-29T14:49:48Z</time>
      </trkpt>
      <trkpt lat="45.31238" lon="4.30261">
        <ele>914</ele>
        <time>2023-03-29T14:49:51Z</time>
      </trkpt>
      <trkpt lat="45.31226" lon="4.30237">
        <ele>913</ele>
        <time>2023-03-29T14:49:53Z</time>
      </trkpt>
      <trkpt lat="45.31221" lon="4.30225">
        <ele>912.2</ele>
        <time>2023-03-29T14:49:54Z</time>
      </trkpt>
      <trkpt lat="45.31209" lon="4.30201">
        <ele>911.2</ele>
        <time>2023-03-29T14:49:56Z</time>
      </trkpt>
      <trkpt lat="45.31196" lon="4.30177">
        <ele>910</ele>
        <time>2023-03-29T14:49:58Z</time>
      </trkpt>
      <trkpt lat="45.31179" lon="4.30141">
        <ele>908.6</ele>
        <time>2023-03-29T14:50:01Z</time>
      </trkpt>
      <trkpt lat="45.31153" lon="4.3009">
        <ele>906.2</ele>
        <time>2023-03-29T14:50:05Z</time>
      </trkpt>
      <trkpt lat="45.31141" lon="4.30065">
        <ele>905.2</ele>
        <time>2023-03-29T14:50:07Z</time>
      </trkpt>
      <trkpt lat="45.31129" lon="4.3004">
        <ele>904.6</ele>
        <time>2023-03-29T14:50:09Z</time>
      </trkpt>
      <trkpt lat="45.3112" lon="4.30012">
        <ele>904</ele>
        <time>2023-03-29T14:50:11Z</time>
      </trkpt>
      <trkpt lat="45.31117" lon="4.29983">
        <ele>903.4</ele>
        <time>2023-03-29T14:50:13Z</time>
      </trkpt>
      <trkpt lat="45.31119" lon="4.29968">
        <ele>903</ele>
        <time>2023-03-29T14:50:14Z</time>
      </trkpt>
      <trkpt lat="45.31121" lon="4.29953">
        <ele>902.8</ele>
        <time>2023-03-29T14:50:15Z</time>
      </trkpt>
      <trkpt lat="45.31131" lon="4.29926">
        <ele>902.4</ele>
        <time>2023-03-29T14:50:17Z</time>
      </trkpt>
      <trkpt lat="45.31146" lon="4.29904">
        <ele>901.6</ele>
        <time>2023-03-29T14:50:19Z</time>
      </trkpt>
      <trkpt lat="45.31154" lon="4.29896">
        <ele>901.2</ele>
        <time>2023-03-29T14:50:20Z</time>
      </trkpt>
      <trkpt lat="45.31164" lon="4.29888">
        <ele>900.6</ele>
        <time>2023-03-29T14:50:21Z</time>
      </trkpt>
      <trkpt lat="45.31209" lon="4.2985">
        <ele>899.6</ele>
        <time>2023-03-29T14:50:26Z</time>
      </trkpt>
      <trkpt lat="45.31219" lon="4.29843">
        <ele>899.4</ele>
        <time>2023-03-29T14:50:27Z</time>
      </trkpt>
      <trkpt lat="45.31236" lon="4.29827">
        <ele>898.8</ele>
        <time>2023-03-29T14:50:29Z</time>
      </trkpt>
      <trkpt lat="45.31244" lon="4.29817">
        <ele>898.4</ele>
        <time>2023-03-29T14:50:30Z</time>
      </trkpt>
      <trkpt lat="45.31251" lon="4.29806">
        <ele>898.2</ele>
        <time>2023-03-29T14:50:31Z</time>
      </trkpt>
      <trkpt lat="45.31259" lon="4.29779">
        <ele>897.8</ele>
        <time>2023-03-29T14:50:33Z</time>
      </trkpt>
      <trkpt lat="45.31261" lon="4.29764">
        <ele>897.6</ele>
        <time>2023-03-29T14:50:34Z</time>
      </trkpt>
      <trkpt lat="45.31261" lon="4.29749">
        <ele>897.4</ele>
        <time>2023-03-29T14:50:35Z</time>
      </trkpt>
      <trkpt lat="45.31258" lon="4.29704">
        <ele>896.6</ele>
        <time>2023-03-29T14:50:38Z</time>
      </trkpt>
      <trkpt lat="45.31259" lon="4.29673">
        <ele>896.2</ele>
        <time>2023-03-29T14:50:40Z</time>
      </trkpt>
      <trkpt lat="45.31263" lon="4.29642">
        <ele>895.4</ele>
        <time>2023-03-29T14:50:42Z</time>
      </trkpt>
      <trkpt lat="45.31267" lon="4.29628">
        <ele>894.8</ele>
        <time>2023-03-29T14:50:43Z</time>
      </trkpt>
      <trkpt lat="45.31274" lon="4.29615">
        <ele>893.8</ele>
        <time>2023-03-29T14:50:44Z</time>
      </trkpt>
      <trkpt lat="45.31281" lon="4.29604">
        <ele>893.4</ele>
        <time>2023-03-29T14:50:45Z</time>
      </trkpt>
      <trkpt lat="45.3129" lon="4.29594">
        <ele>892.6</ele>
        <time>2023-03-29T14:50:46Z</time>
      </trkpt>
      <trkpt lat="45.31299" lon="4.29585">
        <ele>892.2</ele>
        <time>2023-03-29T14:50:47Z</time>
      </trkpt>
      <trkpt lat="45.31309" lon="4.29578">
        <ele>891.4</ele>
        <time>2023-03-29T14:50:48Z</time>
      </trkpt>
      <trkpt lat="45.31319" lon="4.29571">
        <ele>891.2</ele>
        <time>2023-03-29T14:50:49Z</time>
      </trkpt>
      <trkpt lat="45.31349" lon="4.29553">
        <ele>890</ele>
        <time>2023-03-29T14:50:52Z</time>
      </trkpt>
      <trkpt lat="45.31359" lon="4.29548">
        <ele>889.6</ele>
        <time>2023-03-29T14:50:53Z</time>
      </trkpt>
      <trkpt lat="45.31407" lon="4.29522">
        <ele>889</ele>
        <time>2023-03-29T14:50:58Z</time>
      </trkpt>
      <trkpt lat="45.31435" lon="4.29507">
        <ele>888.8</ele>
        <time>2023-03-29T14:51:01Z</time>
      </trkpt>
      <trkpt lat="45.31452" lon="4.29496">
        <ele>888.6</ele>
        <time>2023-03-29T14:51:03Z</time>
      </trkpt>
      <trkpt lat="45.31467" lon="4.2948">
        <ele>888.4</ele>
        <time>2023-03-29T14:51:05Z</time>
      </trkpt>
      <trkpt lat="45.31478" lon="4.29459">
        <ele>888.4</ele>
        <time>2023-03-29T14:51:07Z</time>
      </trkpt>
      <trkpt lat="45.31482" lon="4.29448">
        <ele>888.4</ele>
        <time>2023-03-29T14:51:08Z</time>
      </trkpt>
      <trkpt lat="45.31485" lon="4.29435">
        <ele>888.4</ele>
        <time>2023-03-29T14:51:09Z</time>
      </trkpt>
      <trkpt lat="45.31491" lon="4.29394">
        <ele>888.2</ele>
        <time>2023-03-29T14:51:12Z</time>
      </trkpt>
      <trkpt lat="45.31493" lon="4.2938">
        <ele>888</ele>
        <time>2023-03-29T14:51:13Z</time>
      </trkpt>
      <trkpt lat="45.31501" lon="4.29322">
        <ele>887.6</ele>
        <time>2023-03-29T14:51:17Z</time>
      </trkpt>
      <trkpt lat="45.31505" lon="4.29291">
        <ele>886.6</ele>
        <time>2023-03-29T14:51:19Z</time>
      </trkpt>
      <trkpt lat="45.31509" lon="4.29259">
        <ele>885.2</ele>
        <time>2023-03-29T14:51:21Z</time>
      </trkpt>
      <trkpt lat="45.31515" lon="4.2921">
        <ele>883.4</ele>
        <time>2023-03-29T14:51:24Z</time>
      </trkpt>
      <trkpt lat="45.31519" lon="4.29178">
        <ele>882.2</ele>
        <time>2023-03-29T14:51:26Z</time>
      </trkpt>
      <trkpt lat="45.31523" lon="4.29145">
        <ele>880.4</ele>
        <time>2023-03-29T14:51:28Z</time>
      </trkpt>
      <trkpt lat="45.31525" lon="4.2913">
        <ele>878.8</ele>
        <time>2023-03-29T14:51:29Z</time>
      </trkpt>
      <trkpt lat="45.31529" lon="4.29099">
        <ele>877.6</ele>
        <time>2023-03-29T14:51:31Z</time>
      </trkpt>
      <trkpt lat="45.31531" lon="4.29084">
        <ele>877.4</ele>
        <time>2023-03-29T14:51:32Z</time>
      </trkpt>
      <trkpt lat="45.31535" lon="4.29039">
        <ele>876.4</ele>
        <time>2023-03-29T14:51:35Z</time>
      </trkpt>
      <trkpt lat="45.31536" lon="4.29011">
        <ele>875.8</ele>
        <time>2023-03-29T14:51:37Z</time>
      </trkpt>
      <trkpt lat="45.31536" lon="4.28999">
        <ele>875.8</ele>
        <time>2023-03-29T14:51:38Z</time>
      </trkpt>
      <trkpt lat="45.31538" lon="4.28989">
        <ele>875.2</ele>
        <time>2023-03-29T14:51:39Z</time>
      </trkpt>
      <trkpt lat="45.31541" lon="4.2898">
        <ele>874.8</ele>
        <time>2023-03-29T14:51:40Z</time>
      </trkpt>
      <trkpt lat="45.31544" lon="4.28974">
        <ele>874.6</ele>
        <time>2023-03-29T14:51:41Z</time>
      </trkpt>
      <trkpt lat="45.31548" lon="4.28966">
        <ele>874.2</ele>
        <time>2023-03-29T14:51:43Z</time>
      </trkpt>
      <trkpt lat="45.31549" lon="4.28964">
        <ele>873.6</ele>
        <time>2023-03-29T14:51:46Z</time>
      </trkpt>
      <trkpt lat="45.31549" lon="4.28964">
        <ele>873.2</ele>
        <time>2023-03-29T14:51:49Z</time>
      </trkpt>
      <trkpt lat="45.31549" lon="4.28964">
        <ele>873</ele>
        <time>2023-03-29T14:52:00Z</time>
      </trkpt>
      <trkpt lat="45.31549" lon="4.28964">
        <ele>873.6</ele>
        <time>2023-03-29T14:52:50Z</time>
      </trkpt>
      <trkpt lat="45.31551" lon="4.28965">
        <ele>873.4</ele>
        <time>2023-03-29T14:52:52Z</time>
      </trkpt>
      <trkpt lat="45.31553" lon="4.28967">
        <ele>873.4</ele>
        <time>2023-03-29T14:52:54Z</time>
      </trkpt>
      <trkpt lat="45.31554" lon="4.2897">
        <ele>873.2</ele>
        <time>2023-03-29T14:52:55Z</time>
      </trkpt>
      <trkpt lat="45.31556" lon="4.28977">
        <ele>873.2</ele>
        <time>2023-03-29T14:52:57Z</time>
      </trkpt>
      <trkpt lat="45.31559" lon="4.28992">
        <ele>873.2</ele>
        <time>2023-03-29T14:53:00Z</time>
      </trkpt>
      <trkpt lat="45.31562" lon="4.2901">
        <ele>872.8</ele>
        <time>2023-03-29T14:53:03Z</time>
      </trkpt>
      <trkpt lat="45.31567" lon="4.29028">
        <ele>872.8</ele>
        <time>2023-03-29T14:53:06Z</time>
      </trkpt>
      <trkpt lat="45.31568" lon="4.29034">
        <ele>872.6</ele>
        <time>2023-03-29T14:53:07Z</time>
      </trkpt>
      <trkpt lat="45.31569" lon="4.29041">
        <ele>872.6</ele>
        <time>2023-03-29T14:53:10Z</time>
      </trkpt>
      <trkpt lat="45.31569" lon="4.29041">
        <ele>872.4</ele>
        <time>2023-03-29T14:53:11Z</time>
      </trkpt>
      <trkpt lat="45.31569" lon="4.29041">
        <ele>871.4</ele>
        <time>2023-03-29T14:53:19Z</time>
      </trkpt>
      <trkpt lat="45.31572" lon="4.29047">
        <ele>871.4</ele>
        <time>2023-03-29T14:53:35Z</time>
      </trkpt>
      <trkpt lat="45.31575" lon="4.29068">
        <ele>871.2</ele>
        <time>2023-03-29T14:53:40Z</time>
      </trkpt>
      <trkpt lat="45.31583" lon="4.29101">
        <ele>871.2</ele>
        <time>2023-03-29T14:53:45Z</time>
      </trkpt>
      <trkpt lat="45.31592" lon="4.29143">
        <ele>870.4</ele>
        <time>2023-03-29T14:53:50Z</time>
      </trkpt>
      <trkpt lat="45.31595" lon="4.29153">
        <ele>870.2</ele>
        <time>2023-03-29T14:53:51Z</time>
      </trkpt>
      <trkpt lat="45.31608" lon="4.29213">
        <ele>869.4</ele>
        <time>2023-03-29T14:53:57Z</time>
      </trkpt>
      <trkpt lat="45.31611" lon="4.29224">
        <ele>869.2</ele>
        <time>2023-03-29T14:53:58Z</time>
      </trkpt>
      <trkpt lat="45.31619" lon="4.29268">
        <ele>868.4</ele>
        <time>2023-03-29T14:54:02Z</time>
      </trkpt>
      <trkpt lat="45.31623" lon="4.29304">
        <ele>867.4</ele>
        <time>2023-03-29T14:54:05Z</time>
      </trkpt>
      <trkpt lat="45.31624" lon="4.29316">
        <ele>867</ele>
        <time>2023-03-29T14:54:06Z</time>
      </trkpt>
      <trkpt lat="45.31631" lon="4.2938">
        <ele>866</ele>
        <time>2023-03-29T14:54:11Z</time>
      </trkpt>
      <trkpt lat="45.31634" lon="4.29405">
        <ele>865.4</ele>
        <time>2023-03-29T14:54:13Z</time>
      </trkpt>
      <trkpt lat="45.31637" lon="4.29431">
        <ele>864.8</ele>
        <time>2023-03-29T14:54:15Z</time>
      </trkpt>
      <trkpt lat="45.31644" lon="4.29481">
        <ele>863.8</ele>
        <time>2023-03-29T14:54:19Z</time>
      </trkpt>
      <trkpt lat="45.31648" lon="4.29506">
        <ele>863.2</ele>
        <time>2023-03-29T14:54:21Z</time>
      </trkpt>
      <trkpt lat="45.31659" lon="4.29543">
        <ele>862.4</ele>
        <time>2023-03-29T14:54:24Z</time>
      </trkpt>
      <trkpt lat="45.31668" lon="4.29566">
        <ele>862</ele>
        <time>2023-03-29T14:54:26Z</time>
      </trkpt>
      <trkpt lat="45.31698" lon="4.29616">
        <ele>861</ele>
        <time>2023-03-29T14:54:31Z</time>
      </trkpt>
      <trkpt lat="45.31728" lon="4.29647">
        <ele>860.2</ele>
        <time>2023-03-29T14:54:35Z</time>
      </trkpt>
      <trkpt lat="45.31736" lon="4.29654">
        <ele>860.2</ele>
        <time>2023-03-29T14:54:36Z</time>
      </trkpt>
      <trkpt lat="45.31744" lon="4.29659">
        <ele>860</ele>
        <time>2023-03-29T14:54:37Z</time>
      </trkpt>
      <trkpt lat="45.31789" lon="4.29682">
        <ele>859.4</ele>
        <time>2023-03-29T14:54:42Z</time>
      </trkpt>
      <trkpt lat="45.31817" lon="4.29696">
        <ele>858.8</ele>
        <time>2023-03-29T14:54:45Z</time>
      </trkpt>
      <trkpt lat="45.31854" lon="4.29718">
        <ele>858</ele>
        <time>2023-03-29T14:54:49Z</time>
      </trkpt>
      <trkpt lat="45.31862" lon="4.29726">
        <ele>857.8</ele>
        <time>2023-03-29T14:54:50Z</time>
      </trkpt>
      <trkpt lat="45.31886" lon="4.29752">
        <ele>857</ele>
        <time>2023-03-29T14:54:53Z</time>
      </trkpt>
      <trkpt lat="45.31899" lon="4.29773">
        <ele>856.6</ele>
        <time>2023-03-29T14:54:55Z</time>
      </trkpt>
      <trkpt lat="45.31911" lon="4.29795">
        <ele>855.8</ele>
        <time>2023-03-29T14:54:57Z</time>
      </trkpt>
      <trkpt lat="45.31921" lon="4.2982">
        <ele>855.2</ele>
        <time>2023-03-29T14:54:59Z</time>
      </trkpt>
      <trkpt lat="45.31933" lon="4.29858">
        <ele>854.8</ele>
        <time>2023-03-29T14:55:02Z</time>
      </trkpt>
      <trkpt lat="45.31946" lon="4.29896">
        <ele>854.2</ele>
        <time>2023-03-29T14:55:05Z</time>
      </trkpt>
      <trkpt lat="45.31968" lon="4.29957">
        <ele>853.2</ele>
        <time>2023-03-29T14:55:10Z</time>
      </trkpt>
      <trkpt lat="45.31973" lon="4.29969">
        <ele>853</ele>
        <time>2023-03-29T14:55:11Z</time>
      </trkpt>
      <trkpt lat="45.31991" lon="4.3">
        <ele>852.8</ele>
        <time>2023-03-29T14:55:14Z</time>
      </trkpt>
      <trkpt lat="45.32024" lon="4.30032">
        <ele>852.2</ele>
        <time>2023-03-29T14:55:18Z</time>
      </trkpt>
      <trkpt lat="45.32033" lon="4.30038">
        <ele>852</ele>
        <time>2023-03-29T14:55:19Z</time>
      </trkpt>
      <trkpt lat="45.32062" lon="4.30051">
        <ele>851.2</ele>
        <time>2023-03-29T14:55:22Z</time>
      </trkpt>
      <trkpt lat="45.32083" lon="4.30053">
        <ele>850.8</ele>
        <time>2023-03-29T14:55:24Z</time>
      </trkpt>
      <trkpt lat="45.32104" lon="4.30051">
        <ele>850.2</ele>
        <time>2023-03-29T14:55:26Z</time>
      </trkpt>
      <trkpt lat="45.32137" lon="4.30042">
        <ele>849.4</ele>
        <time>2023-03-29T14:55:29Z</time>
      </trkpt>
      <trkpt lat="45.32169" lon="4.30031">
        <ele>848.8</ele>
        <time>2023-03-29T14:55:32Z</time>
      </trkpt>
      <trkpt lat="45.32191" lon="4.30025">
        <ele>848</ele>
        <time>2023-03-29T14:55:34Z</time>
      </trkpt>
      <trkpt lat="45.32235" lon="4.30016">
        <ele>846.6</ele>
        <time>2023-03-29T14:55:38Z</time>
      </trkpt>
      <trkpt lat="45.32246" lon="4.30018">
        <ele>846.2</ele>
        <time>2023-03-29T14:55:39Z</time>
      </trkpt>
      <trkpt lat="45.32257" lon="4.3002">
        <ele>845.4</ele>
        <time>2023-03-29T14:55:40Z</time>
      </trkpt>
      <trkpt lat="45.32268" lon="4.30024">
        <ele>845.2</ele>
        <time>2023-03-29T14:55:41Z</time>
      </trkpt>
      <trkpt lat="45.32289" lon="4.30033">
        <ele>844.2</ele>
        <time>2023-03-29T14:55:43Z</time>
      </trkpt>
      <trkpt lat="45.32309" lon="4.30045">
        <ele>843.4</ele>
        <time>2023-03-29T14:55:45Z</time>
      </trkpt>
      <trkpt lat="45.32318" lon="4.30053">
        <ele>843.2</ele>
        <time>2023-03-29T14:55:46Z</time>
      </trkpt>
      <trkpt lat="45.32327" lon="4.30062">
        <ele>842.8</ele>
        <time>2023-03-29T14:55:47Z</time>
      </trkpt>
      <trkpt lat="45.32336" lon="4.30072">
        <ele>842.6</ele>
        <time>2023-03-29T14:55:48Z</time>
      </trkpt>
      <trkpt lat="45.32344" lon="4.30083">
        <ele>842.2</ele>
        <time>2023-03-29T14:55:49Z</time>
      </trkpt>
      <trkpt lat="45.32358" lon="4.30106">
        <ele>841.6</ele>
        <time>2023-03-29T14:55:51Z</time>
      </trkpt>
      <trkpt lat="45.32371" lon="4.30132">
        <ele>841</ele>
        <time>2023-03-29T14:55:53Z</time>
      </trkpt>
      <trkpt lat="45.32376" lon="4.30147">
        <ele>840.4</ele>
        <time>2023-03-29T14:55:54Z</time>
      </trkpt>
      <trkpt lat="45.32389" lon="4.30193">
        <ele>839.6</ele>
        <time>2023-03-29T14:55:57Z</time>
      </trkpt>
      <trkpt lat="45.32393" lon="4.30208">
        <ele>839.2</ele>
        <time>2023-03-29T14:55:58Z</time>
      </trkpt>
      <trkpt lat="45.32399" lon="4.3024">
        <ele>838.2</ele>
        <time>2023-03-29T14:56:00Z</time>
      </trkpt>
      <trkpt lat="45.3241" lon="4.30286">
        <ele>836.8</ele>
        <time>2023-03-29T14:56:03Z</time>
      </trkpt>
      <trkpt lat="45.32414" lon="4.30302">
        <ele>836.6</ele>
        <time>2023-03-29T14:56:04Z</time>
      </trkpt>
      <trkpt lat="45.32422" lon="4.30333">
        <ele>835.8</ele>
        <time>2023-03-29T14:56:06Z</time>
      </trkpt>
      <trkpt lat="45.32431" lon="4.30363">
        <ele>834.6</ele>
        <time>2023-03-29T14:56:08Z</time>
      </trkpt>
      <trkpt lat="45.32442" lon="4.30392">
        <ele>833.4</ele>
        <time>2023-03-29T14:56:10Z</time>
      </trkpt>
      <trkpt lat="45.32448" lon="4.30407">
        <ele>833</ele>
        <time>2023-03-29T14:56:11Z</time>
      </trkpt>
      <trkpt lat="45.32461" lon="4.30434">
        <ele>832.4</ele>
        <time>2023-03-29T14:56:13Z</time>
      </trkpt>
      <trkpt lat="45.32481" lon="4.30473">
        <ele>831.2</ele>
        <time>2023-03-29T14:56:16Z</time>
      </trkpt>
      <trkpt lat="45.32495" lon="4.30496">
        <ele>830.2</ele>
        <time>2023-03-29T14:56:18Z</time>
      </trkpt>
      <trkpt lat="45.32511" lon="4.30518">
        <ele>829</ele>
        <time>2023-03-29T14:56:20Z</time>
      </trkpt>
      <trkpt lat="45.32548" lon="4.30565">
        <ele>828.4</ele>
        <time>2023-03-29T14:56:25Z</time>
      </trkpt>
      <trkpt lat="45.32581" lon="4.30598">
        <ele>828.4</ele>
        <time>2023-03-29T14:56:30Z</time>
      </trkpt>
      <trkpt lat="45.32609" lon="4.30621">
        <ele>830</ele>
        <time>2023-03-29T14:56:35Z</time>
      </trkpt>
      <trkpt lat="45.32614" lon="4.30625">
        <ele>830.4</ele>
        <time>2023-03-29T14:56:36Z</time>
      </trkpt>
      <trkpt lat="45.32629" lon="4.30635">
        <ele>831.6</ele>
        <time>2023-03-29T14:56:39Z</time>
      </trkpt>
      <trkpt lat="45.32638" lon="4.30641">
        <ele>832.6</ele>
        <time>2023-03-29T14:56:41Z</time>
      </trkpt>
      <trkpt lat="45.32648" lon="4.30647">
        <ele>833.2</ele>
        <time>2023-03-29T14:56:43Z</time>
      </trkpt>
      <trkpt lat="45.32661" lon="4.30656">
        <ele>834.2</ele>
        <time>2023-03-29T14:56:46Z</time>
      </trkpt>
      <trkpt lat="45.3267" lon="4.30661">
        <ele>834.8</ele>
        <time>2023-03-29T14:56:48Z</time>
      </trkpt>
      <trkpt lat="45.32688" lon="4.30672">
        <ele>835.4</ele>
        <time>2023-03-29T14:56:52Z</time>
      </trkpt>
      <trkpt lat="45.32704" lon="4.30682">
        <ele>836.4</ele>
        <time>2023-03-29T14:56:56Z</time>
      </trkpt>
      <trkpt lat="45.32708" lon="4.30685">
        <ele>836.6</ele>
        <time>2023-03-29T14:56:57Z</time>
      </trkpt>
      <trkpt lat="45.32733" lon="4.307">
        <ele>837.6</ele>
        <time>2023-03-29T14:57:03Z</time>
      </trkpt>
      <trkpt lat="45.3274" lon="4.30706">
        <ele>837.8</ele>
        <time>2023-03-29T14:57:05Z</time>
      </trkpt>
      <trkpt lat="45.32754" lon="4.30719">
        <ele>838.4</ele>
        <time>2023-03-29T14:57:09Z</time>
      </trkpt>
      <trkpt lat="45.32758" lon="4.30723">
        <ele>838.8</ele>
        <time>2023-03-29T14:57:10Z</time>
      </trkpt>
      <trkpt lat="45.32764" lon="4.30731">
        <ele>839.2</ele>
        <time>2023-03-29T14:57:12Z</time>
      </trkpt>
      <trkpt lat="45.32766" lon="4.30734">
        <ele>839.2</ele>
        <time>2023-03-29T14:57:13Z</time>
      </trkpt>
      <trkpt lat="45.32771" lon="4.30742">
        <ele>839.8</ele>
        <time>2023-03-29T14:57:15Z</time>
      </trkpt>
      <trkpt lat="45.32785" lon="4.30769">
        <ele>840.8</ele>
        <time>2023-03-29T14:57:21Z</time>
      </trkpt>
      <trkpt lat="45.32787" lon="4.30774">
        <ele>841</ele>
        <time>2023-03-29T14:57:22Z</time>
      </trkpt>
      <trkpt lat="45.32797" lon="4.30803">
        <ele>841.8</ele>
        <time>2023-03-29T14:57:28Z</time>
      </trkpt>
      <trkpt lat="45.32799" lon="4.30814">
        <ele>842.2</ele>
        <time>2023-03-29T14:57:30Z</time>
      </trkpt>
      <trkpt lat="45.32804" lon="4.30852">
        <ele>843.2</ele>
        <time>2023-03-29T14:57:37Z</time>
      </trkpt>
      <trkpt lat="45.32805" lon="4.30864">
        <ele>843.4</ele>
        <time>2023-03-29T14:57:39Z</time>
      </trkpt>
      <trkpt lat="45.32804" lon="4.30899">
        <ele>844</ele>
        <time>2023-03-29T14:57:45Z</time>
      </trkpt>
      <trkpt lat="45.32803" lon="4.30929">
        <ele>844.6</ele>
        <time>2023-03-29T14:57:50Z</time>
      </trkpt>
      <trkpt lat="45.32801" lon="4.30977">
        <ele>845.2</ele>
        <time>2023-03-29T14:57:58Z</time>
      </trkpt>
      <trkpt lat="45.328" lon="4.31027">
        <ele>845.6</ele>
        <time>2023-03-29T14:58:06Z</time>
      </trkpt>
      <trkpt lat="45.32799" lon="4.31051">
        <ele>845.8</ele>
        <time>2023-03-29T14:58:10Z</time>
      </trkpt>
      <trkpt lat="45.32799" lon="4.31089">
        <ele>846.6</ele>
        <time>2023-03-29T14:58:16Z</time>
      </trkpt>
      <trkpt lat="45.328" lon="4.31109">
        <ele>847</ele>
        <time>2023-03-29T14:58:19Z</time>
      </trkpt>
      <trkpt lat="45.3281" lon="4.3116">
        <ele>847.6</ele>
        <time>2023-03-29T14:58:27Z</time>
      </trkpt>
      <trkpt lat="45.32817" lon="4.31178">
        <ele>847.6</ele>
        <time>2023-03-29T14:58:30Z</time>
      </trkpt>
      <trkpt lat="45.32831" lon="4.31207">
        <ele>848.4</ele>
        <time>2023-03-29T14:58:35Z</time>
      </trkpt>
      <trkpt lat="45.3284" lon="4.31223">
        <ele>848.8</ele>
        <time>2023-03-29T14:58:38Z</time>
      </trkpt>
      <trkpt lat="45.32865" lon="4.31266">
        <ele>849.6</ele>
        <time>2023-03-29T14:58:46Z</time>
      </trkpt>
      <trkpt lat="45.32884" lon="4.31298">
        <ele>849.8</ele>
        <time>2023-03-29T14:58:52Z</time>
      </trkpt>
      <trkpt lat="45.32893" lon="4.31314">
        <ele>850.2</ele>
        <time>2023-03-29T14:58:55Z</time>
      </trkpt>
      <trkpt lat="45.32909" lon="4.3134">
        <ele>851</ele>
        <time>2023-03-29T14:59:00Z</time>
      </trkpt>
      <trkpt lat="45.32921" lon="4.3136">
        <ele>851.2</ele>
        <time>2023-03-29T14:59:04Z</time>
      </trkpt>
      <trkpt lat="45.3294" lon="4.31392">
        <ele>851.2</ele>
        <time>2023-03-29T14:59:10Z</time>
      </trkpt>
      <trkpt lat="45.32947" lon="4.31403">
        <ele>851.2</ele>
        <time>2023-03-29T14:59:12Z</time>
      </trkpt>
      <trkpt lat="45.32952" lon="4.31416">
        <ele>851.2</ele>
        <time>2023-03-29T14:59:14Z</time>
      </trkpt>
      <trkpt lat="45.32953" lon="4.31431">
        <ele>851.4</ele>
        <time>2023-03-29T14:59:16Z</time>
      </trkpt>
      <trkpt lat="45.3295" lon="4.31455">
        <ele>851.4</ele>
        <time>2023-03-29T14:59:19Z</time>
      </trkpt>
      <trkpt lat="45.3295" lon="4.3147">
        <ele>851.4</ele>
        <time>2023-03-29T14:59:21Z</time>
      </trkpt>
      <trkpt lat="45.32956" lon="4.31483">
        <ele>851.6</ele>
        <time>2023-03-29T14:59:23Z</time>
      </trkpt>
      <trkpt lat="45.32961" lon="4.31489">
        <ele>851.6</ele>
        <time>2023-03-29T14:59:24Z</time>
      </trkpt>
      <trkpt lat="45.32966" lon="4.31493">
        <ele>851.8</ele>
        <time>2023-03-29T14:59:25Z</time>
      </trkpt>
      <trkpt lat="45.32978" lon="4.31493">
        <ele>851.8</ele>
        <time>2023-03-29T14:59:27Z</time>
      </trkpt>
      <trkpt lat="45.32989" lon="4.31485">
        <ele>851.4</ele>
        <time>2023-03-29T14:59:29Z</time>
      </trkpt>
      <trkpt lat="45.32994" lon="4.31479">
        <ele>851.4</ele>
        <time>2023-03-29T14:59:30Z</time>
      </trkpt>
      <trkpt lat="45.33004" lon="4.31468">
        <ele>851.4</ele>
        <time>2023-03-29T14:59:32Z</time>
      </trkpt>
      <trkpt lat="45.33016" lon="4.31463">
        <ele>851.2</ele>
        <time>2023-03-29T14:59:34Z</time>
      </trkpt>
      <trkpt lat="45.33028" lon="4.31463">
        <ele>851.2</ele>
        <time>2023-03-29T14:59:36Z</time>
      </trkpt>
      <trkpt lat="45.33041" lon="4.31468">
        <ele>851.2</ele>
        <time>2023-03-29T14:59:38Z</time>
      </trkpt>
      <trkpt lat="45.3305" lon="4.31481">
        <ele>851</ele>
        <time>2023-03-29T14:59:40Z</time>
      </trkpt>
      <trkpt lat="45.33054" lon="4.31489">
        <ele>850.8</ele>
        <time>2023-03-29T14:59:41Z</time>
      </trkpt>
      <trkpt lat="45.33072" lon="4.31523">
        <ele>850.2</ele>
        <time>2023-03-29T14:59:45Z</time>
      </trkpt>
      <trkpt lat="45.33078" lon="4.31531">
        <ele>850</ele>
        <time>2023-03-29T14:59:46Z</time>
      </trkpt>
      <trkpt lat="45.33085" lon="4.31538">
        <ele>849.6</ele>
        <time>2023-03-29T14:59:47Z</time>
      </trkpt>
      <trkpt lat="45.33101" lon="4.31551">
        <ele>849.2</ele>
        <time>2023-03-29T14:59:49Z</time>
      </trkpt>
      <trkpt lat="45.3311" lon="4.31555">
        <ele>848.8</ele>
        <time>2023-03-29T14:59:50Z</time>
      </trkpt>
      <trkpt lat="45.3312" lon="4.31557">
        <ele>848.4</ele>
        <time>2023-03-29T14:59:51Z</time>
      </trkpt>
      <trkpt lat="45.3313" lon="4.31558">
        <ele>848</ele>
        <time>2023-03-29T14:59:52Z</time>
      </trkpt>
      <trkpt lat="45.3314" lon="4.31556">
        <ele>847.6</ele>
        <time>2023-03-29T14:59:53Z</time>
      </trkpt>
      <trkpt lat="45.3316" lon="4.31546">
        <ele>846.4</ele>
        <time>2023-03-29T14:59:55Z</time>
      </trkpt>
      <trkpt lat="45.33179" lon="4.31531">
        <ele>845.2</ele>
        <time>2023-03-29T14:59:57Z</time>
      </trkpt>
      <trkpt lat="45.332" lon="4.31518">
        <ele>843.8</ele>
        <time>2023-03-29T14:59:59Z</time>
      </trkpt>
      <trkpt lat="45.33222" lon="4.31507">
        <ele>843</ele>
        <time>2023-03-29T15:00:01Z</time>
      </trkpt>
      <trkpt lat="45.33233" lon="4.31503">
        <ele>842.8</ele>
        <time>2023-03-29T15:00:02Z</time>
      </trkpt>
      <trkpt lat="45.33245" lon="4.315">
        <ele>841.6</ele>
        <time>2023-03-29T15:00:03Z</time>
      </trkpt>
      <trkpt lat="45.33269" lon="4.31492">
        <ele>840.4</ele>
        <time>2023-03-29T15:00:05Z</time>
      </trkpt>
      <trkpt lat="45.33291" lon="4.31476">
        <ele>839.6</ele>
        <time>2023-03-29T15:00:07Z</time>
      </trkpt>
      <trkpt lat="45.33301" lon="4.31464">
        <ele>838.4</ele>
        <time>2023-03-29T15:00:08Z</time>
      </trkpt>
      <trkpt lat="45.33309" lon="4.31451">
        <ele>838</ele>
        <time>2023-03-29T15:00:09Z</time>
      </trkpt>
      <trkpt lat="45.33317" lon="4.31436">
        <ele>837.4</ele>
        <time>2023-03-29T15:00:10Z</time>
      </trkpt>
      <trkpt lat="45.33325" lon="4.3142">
        <ele>837.2</ele>
        <time>2023-03-29T15:00:11Z</time>
      </trkpt>
      <trkpt lat="45.33343" lon="4.31392">
        <ele>836.2</ele>
        <time>2023-03-29T15:00:13Z</time>
      </trkpt>
      <trkpt lat="45.33354" lon="4.31381">
        <ele>835.4</ele>
        <time>2023-03-29T15:00:14Z</time>
      </trkpt>
      <trkpt lat="45.33365" lon="4.31371">
        <ele>834.2</ele>
        <time>2023-03-29T15:00:15Z</time>
      </trkpt>
      <trkpt lat="45.33389" lon="4.31354">
        <ele>832.4</ele>
        <time>2023-03-29T15:00:17Z</time>
      </trkpt>
      <trkpt lat="45.33413" lon="4.31336">
        <ele>830.8</ele>
        <time>2023-03-29T15:00:19Z</time>
      </trkpt>
      <trkpt lat="45.33436" lon="4.31319">
        <ele>829.2</ele>
        <time>2023-03-29T15:00:21Z</time>
      </trkpt>
      <trkpt lat="45.33448" lon="4.31312">
        <ele>828.8</ele>
        <time>2023-03-29T15:00:22Z</time>
      </trkpt>
      <trkpt lat="45.33459" lon="4.31308">
        <ele>828</ele>
        <time>2023-03-29T15:00:23Z</time>
      </trkpt>
      <trkpt lat="45.33471" lon="4.31307">
        <ele>826.8</ele>
        <time>2023-03-29T15:00:24Z</time>
      </trkpt>
      <trkpt lat="45.33492" lon="4.31318">
        <ele>825.2</ele>
        <time>2023-03-29T15:00:26Z</time>
      </trkpt>
      <trkpt lat="45.3351" lon="4.31339">
        <ele>823.4</ele>
        <time>2023-03-29T15:00:28Z</time>
      </trkpt>
      <trkpt lat="45.33528" lon="4.31359">
        <ele>822.2</ele>
        <time>2023-03-29T15:00:30Z</time>
      </trkpt>
      <trkpt lat="45.33546" lon="4.3138">
        <ele>821.2</ele>
        <time>2023-03-29T15:00:32Z</time>
      </trkpt>
      <trkpt lat="45.33554" lon="4.31389">
        <ele>821</ele>
        <time>2023-03-29T15:00:33Z</time>
      </trkpt>
      <trkpt lat="45.33579" lon="4.31412">
        <ele>820.6</ele>
        <time>2023-03-29T15:00:36Z</time>
      </trkpt>
      <trkpt lat="45.33587" lon="4.31417">
        <ele>820.6</ele>
        <time>2023-03-29T15:00:37Z</time>
      </trkpt>
      <trkpt lat="45.3362" lon="4.31433">
        <ele>820.8</ele>
        <time>2023-03-29T15:00:42Z</time>
      </trkpt>
      <trkpt lat="45.33632" lon="4.31436">
        <ele>821.8</ele>
        <time>2023-03-29T15:00:44Z</time>
      </trkpt>
      <trkpt lat="45.33638" lon="4.31437">
        <ele>822.2</ele>
        <time>2023-03-29T15:00:45Z</time>
      </trkpt>
      <trkpt lat="45.33648" lon="4.31438">
        <ele>823.2</ele>
        <time>2023-03-29T15:00:47Z</time>
      </trkpt>
      <trkpt lat="45.33653" lon="4.31439">
        <ele>823.6</ele>
        <time>2023-03-29T15:00:48Z</time>
      </trkpt>
      <trkpt lat="45.33672" lon="4.31441">
        <ele>824.8</ele>
        <time>2023-03-29T15:00:52Z</time>
      </trkpt>
      <trkpt lat="45.33677" lon="4.31442">
        <ele>825.4</ele>
        <time>2023-03-29T15:00:53Z</time>
      </trkpt>
      <trkpt lat="45.33682" lon="4.31443">
        <ele>825.6</ele>
        <time>2023-03-29T15:00:54Z</time>
      </trkpt>
      <trkpt lat="45.33686" lon="4.31444">
        <ele>826</ele>
        <time>2023-03-29T15:00:55Z</time>
      </trkpt>
      <trkpt lat="45.33704" lon="4.31445">
        <ele>827.4</ele>
        <time>2023-03-29T15:00:59Z</time>
      </trkpt>
      <trkpt lat="45.33713" lon="4.31446">
        <ele>828.6</ele>
        <time>2023-03-29T15:01:02Z</time>
      </trkpt>
      <trkpt lat="45.33718" lon="4.31446">
        <ele>829</ele>
        <time>2023-03-29T15:01:04Z</time>
      </trkpt>
      <trkpt lat="45.3372" lon="4.31445">
        <ele>829.2</ele>
        <time>2023-03-29T15:01:05Z</time>
      </trkpt>
      <trkpt lat="45.33724" lon="4.31445">
        <ele>829.6</ele>
        <time>2023-03-29T15:01:07Z</time>
      </trkpt>
      <trkpt lat="45.33729" lon="4.31445">
        <ele>830.2</ele>
        <time>2023-03-29T15:01:09Z</time>
      </trkpt>
      <trkpt lat="45.33738" lon="4.31445">
        <ele>830.8</ele>
        <time>2023-03-29T15:01:12Z</time>
      </trkpt>
      <trkpt lat="45.33754" lon="4.31439">
        <ele>831.8</ele>
        <time>2023-03-29T15:01:17Z</time>
      </trkpt>
      <trkpt lat="45.33761" lon="4.31436">
        <ele>832.2</ele>
        <time>2023-03-29T15:01:19Z</time>
      </trkpt>
      <trkpt lat="45.33776" lon="4.31425">
        <ele>833</ele>
        <time>2023-03-29T15:01:24Z</time>
      </trkpt>
      <trkpt lat="45.33781" lon="4.3142">
        <ele>833.4</ele>
        <time>2023-03-29T15:01:26Z</time>
      </trkpt>
      <trkpt lat="45.33786" lon="4.31414">
        <ele>833.8</ele>
        <time>2023-03-29T15:01:28Z</time>
      </trkpt>
      <trkpt lat="45.33799" lon="4.31402">
        <ele>834.6</ele>
        <time>2023-03-29T15:01:33Z</time>
      </trkpt>
      <trkpt lat="45.33804" lon="4.31397">
        <ele>834.8</ele>
        <time>2023-03-29T15:01:35Z</time>
      </trkpt>
      <trkpt lat="45.33816" lon="4.31383">
        <ele>835.6</ele>
        <time>2023-03-29T15:01:40Z</time>
      </trkpt>
      <trkpt lat="45.33826" lon="4.31371">
        <ele>836.2</ele>
        <time>2023-03-29T15:01:44Z</time>
      </trkpt>
      <trkpt lat="45.33831" lon="4.31367">
        <ele>836.8</ele>
        <time>2023-03-29T15:01:46Z</time>
      </trkpt>
      <trkpt lat="45.3384" lon="4.31355">
        <ele>837.4</ele>
        <time>2023-03-29T15:01:50Z</time>
      </trkpt>
      <trkpt lat="45.33845" lon="4.3135">
        <ele>837.8</ele>
        <time>2023-03-29T15:01:52Z</time>
      </trkpt>
      <trkpt lat="45.33852" lon="4.31341">
        <ele>838.2</ele>
        <time>2023-03-29T15:01:55Z</time>
      </trkpt>
      <trkpt lat="45.33863" lon="4.31331">
        <ele>838.8</ele>
        <time>2023-03-29T15:01:59Z</time>
      </trkpt>
      <trkpt lat="45.33874" lon="4.31317">
        <ele>839.4</ele>
        <time>2023-03-29T15:02:03Z</time>
      </trkpt>
      <trkpt lat="45.33884" lon="4.31303">
        <ele>839.8</ele>
        <time>2023-03-29T15:02:07Z</time>
      </trkpt>
      <trkpt lat="45.33893" lon="4.31293">
        <ele>840.2</ele>
        <time>2023-03-29T15:02:10Z</time>
      </trkpt>
      <trkpt lat="45.33905" lon="4.31281">
        <ele>841</ele>
        <time>2023-03-29T15:02:14Z</time>
      </trkpt>
      <trkpt lat="45.33912" lon="4.31271">
        <ele>841.4</ele>
        <time>2023-03-29T15:02:17Z</time>
      </trkpt>
      <trkpt lat="45.33923" lon="4.31257">
        <ele>842.2</ele>
        <time>2023-03-29T15:02:21Z</time>
      </trkpt>
      <trkpt lat="45.33938" lon="4.3124">
        <ele>842.6</ele>
        <time>2023-03-29T15:02:26Z</time>
      </trkpt>
      <trkpt lat="45.33955" lon="4.31217">
        <ele>843.4</ele>
        <time>2023-03-29T15:02:32Z</time>
      </trkpt>
      <trkpt lat="45.33958" lon="4.31213">
        <ele>843.4</ele>
        <time>2023-03-29T15:02:33Z</time>
      </trkpt>
      <trkpt lat="45.33974" lon="4.312">
        <ele>844.2</ele>
        <time>2023-03-29T15:02:38Z</time>
      </trkpt>
      <trkpt lat="45.33978" lon="4.31197">
        <ele>844.4</ele>
        <time>2023-03-29T15:02:39Z</time>
      </trkpt>
      <trkpt lat="45.33999" lon="4.31178">
        <ele>845.4</ele>
        <time>2023-03-29T15:02:45Z</time>
      </trkpt>
      <trkpt lat="45.34006" lon="4.31173">
        <ele>845.6</ele>
        <time>2023-03-29T15:02:47Z</time>
      </trkpt>
      <trkpt lat="45.34022" lon="4.31165">
        <ele>846.2</ele>
        <time>2023-03-29T15:02:51Z</time>
      </trkpt>
      <trkpt lat="45.34035" lon="4.31162">
        <ele>846.8</ele>
        <time>2023-03-29T15:02:54Z</time>
      </trkpt>
      <trkpt lat="45.34039" lon="4.31163">
        <ele>847</ele>
        <time>2023-03-29T15:02:55Z</time>
      </trkpt>
      <trkpt lat="45.34052" lon="4.31166">
        <ele>847.4</ele>
        <time>2023-03-29T15:02:58Z</time>
      </trkpt>
      <trkpt lat="45.34056" lon="4.31168">
        <ele>847.6</ele>
        <time>2023-03-29T15:02:59Z</time>
      </trkpt>
      <trkpt lat="45.34064" lon="4.3117">
        <ele>847.8</ele>
        <time>2023-03-29T15:03:01Z</time>
      </trkpt>
      <trkpt lat="45.34068" lon="4.31172">
        <ele>848</ele>
        <time>2023-03-29T15:03:02Z</time>
      </trkpt>
      <trkpt lat="45.34077" lon="4.31175">
        <ele>848.2</ele>
        <time>2023-03-29T15:03:04Z</time>
      </trkpt>
      <trkpt lat="45.34085" lon="4.31178">
        <ele>848.4</ele>
        <time>2023-03-29T15:03:06Z</time>
      </trkpt>
      <trkpt lat="45.34104" lon="4.31183">
        <ele>848.8</ele>
        <time>2023-03-29T15:03:10Z</time>
      </trkpt>
      <trkpt lat="45.34108" lon="4.31183">
        <ele>848.8</ele>
        <time>2023-03-29T15:03:11Z</time>
      </trkpt>
      <trkpt lat="45.34112" lon="4.31183">
        <ele>849</ele>
        <time>2023-03-29T15:03:12Z</time>
      </trkpt>
      <trkpt lat="45.34121" lon="4.31185">
        <ele>849.2</ele>
        <time>2023-03-29T15:03:14Z</time>
      </trkpt>
      <trkpt lat="45.34134" lon="4.3119">
        <ele>849.4</ele>
        <time>2023-03-29T15:03:17Z</time>
      </trkpt>
      <trkpt lat="45.34144" lon="4.31191">
        <ele>849.4</ele>
        <time>2023-03-29T15:03:19Z</time>
      </trkpt>
      <trkpt lat="45.34154" lon="4.31193">
        <ele>849.4</ele>
        <time>2023-03-29T15:03:21Z</time>
      </trkpt>
      <trkpt lat="45.34163" lon="4.31196">
        <ele>849.4</ele>
        <time>2023-03-29T15:03:23Z</time>
      </trkpt>
      <trkpt lat="45.34168" lon="4.31198">
        <ele>849.2</ele>
        <time>2023-03-29T15:03:24Z</time>
      </trkpt>
      <trkpt lat="45.34202" lon="4.31206">
        <ele>848.8</ele>
        <time>2023-03-29T15:03:31Z</time>
      </trkpt>
      <trkpt lat="45.34206" lon="4.31205">
        <ele>848.6</ele>
        <time>2023-03-29T15:03:32Z</time>
      </trkpt>
      <trkpt lat="45.34212" lon="4.31202">
        <ele>848.6</ele>
        <time>2023-03-29T15:03:33Z</time>
      </trkpt>
      <trkpt lat="45.34229" lon="4.31192">
        <ele>848.4</ele>
        <time>2023-03-29T15:03:36Z</time>
      </trkpt>
      <trkpt lat="45.34234" lon="4.3119">
        <ele>847.8</ele>
        <time>2023-03-29T15:03:37Z</time>
      </trkpt>
      <trkpt lat="45.3424" lon="4.31187">
        <ele>847.8</ele>
        <time>2023-03-29T15:03:38Z</time>
      </trkpt>
      <trkpt lat="45.34255" lon="4.31181">
        <ele>847.6</ele>
        <time>2023-03-29T15:03:41Z</time>
      </trkpt>
      <trkpt lat="45.34286" lon="4.31173">
        <ele>846.8</ele>
        <time>2023-03-29T15:03:46Z</time>
      </trkpt>
      <trkpt lat="45.34292" lon="4.31171">
        <ele>846.8</ele>
        <time>2023-03-29T15:03:47Z</time>
      </trkpt>
      <trkpt lat="45.34298" lon="4.31169">
        <ele>846.6</ele>
        <time>2023-03-29T15:03:48Z</time>
      </trkpt>
      <trkpt lat="45.34334" lon="4.31162">
        <ele>846.8</ele>
        <time>2023-03-29T15:03:54Z</time>
      </trkpt>
      <trkpt lat="45.34346" lon="4.31161">
        <ele>846.8</ele>
        <time>2023-03-29T15:03:56Z</time>
      </trkpt>
      <trkpt lat="45.34361" lon="4.31159">
        <ele>847.2</ele>
        <time>2023-03-29T15:03:59Z</time>
      </trkpt>
      <trkpt lat="45.34387" lon="4.31155">
        <ele>848</ele>
        <time>2023-03-29T15:04:04Z</time>
      </trkpt>
      <trkpt lat="45.34397" lon="4.31154">
        <ele>848.6</ele>
        <time>2023-03-29T15:04:06Z</time>
      </trkpt>
      <trkpt lat="45.34417" lon="4.3115">
        <ele>849</ele>
        <time>2023-03-29T15:04:10Z</time>
      </trkpt>
      <trkpt lat="45.34442" lon="4.31143">
        <ele>849.6</ele>
        <time>2023-03-29T15:04:15Z</time>
      </trkpt>
      <trkpt lat="45.34459" lon="4.3114">
        <ele>850</ele>
        <time>2023-03-29T15:04:18Z</time>
      </trkpt>
      <trkpt lat="45.34464" lon="4.31139">
        <ele>850</ele>
        <time>2023-03-29T15:04:19Z</time>
      </trkpt>
      <trkpt lat="45.34481" lon="4.31138">
        <ele>850.4</ele>
        <time>2023-03-29T15:04:22Z</time>
      </trkpt>
      <trkpt lat="45.34519" lon="4.31131">
        <ele>850.4</ele>
        <time>2023-03-29T15:04:28Z</time>
      </trkpt>
      <trkpt lat="45.34571" lon="4.31109">
        <ele>850</ele>
        <time>2023-03-29T15:04:36Z</time>
      </trkpt>
      <trkpt lat="45.34623" lon="4.31079">
        <ele>850.2</ele>
        <time>2023-03-29T15:04:44Z</time>
      </trkpt>
      <trkpt lat="45.34675" lon="4.31051">
        <ele>850.4</ele>
        <time>2023-03-29T15:04:52Z</time>
      </trkpt>
      <trkpt lat="45.34717" lon="4.31027">
        <ele>850.2</ele>
        <time>2023-03-29T15:04:58Z</time>
      </trkpt>
      <trkpt lat="45.34727" lon="4.3101">
        <ele>850.2</ele>
        <time>2023-03-29T15:05:00Z</time>
      </trkpt>
      <trkpt lat="45.3473" lon="4.31001">
        <ele>850.2</ele>
        <time>2023-03-29T15:05:01Z</time>
      </trkpt>
      <trkpt lat="45.34744" lon="4.3094">
        <ele>849.2</ele>
        <time>2023-03-29T15:05:07Z</time>
      </trkpt>
      <trkpt lat="45.34746" lon="4.3093">
        <ele>849.2</ele>
        <time>2023-03-29T15:05:08Z</time>
      </trkpt>
      <trkpt lat="45.34759" lon="4.30858">
        <ele>849.6</ele>
        <time>2023-03-29T15:05:15Z</time>
      </trkpt>
      <trkpt lat="45.34774" lon="4.30775">
        <ele>849.6</ele>
        <time>2023-03-29T15:05:22Z</time>
      </trkpt>
      <trkpt lat="45.34796" lon="4.30702">
        <ele>849.8</ele>
        <time>2023-03-29T15:05:29Z</time>
      </trkpt>
      <trkpt lat="45.34809" lon="4.30663">
        <ele>850.4</ele>
        <time>2023-03-29T15:05:34Z</time>
      </trkpt>
      <trkpt lat="45.34811" lon="4.30657">
        <ele>850.4</ele>
        <time>2023-03-29T15:05:35Z</time>
      </trkpt>
      <trkpt lat="45.34815" lon="4.30646">
        <ele>851</ele>
        <time>2023-03-29T15:05:37Z</time>
      </trkpt>
      <trkpt lat="45.34817" lon="4.30636">
        <ele>851.8</ele>
        <time>2023-03-29T15:05:39Z</time>
      </trkpt>
      <trkpt lat="45.34822" lon="4.30617">
        <ele>853.2</ele>
        <time>2023-03-29T15:05:43Z</time>
      </trkpt>
      <trkpt lat="45.34828" lon="4.30598">
        <ele>854</ele>
        <time>2023-03-29T15:05:47Z</time>
      </trkpt>
      <trkpt lat="45.3483" lon="4.30589">
        <ele>854.2</ele>
        <time>2023-03-29T15:05:49Z</time>
      </trkpt>
      <trkpt lat="45.34834" lon="4.30569">
        <ele>855.4</ele>
        <time>2023-03-29T15:05:54Z</time>
      </trkpt>
      <trkpt lat="45.34835" lon="4.30565">
        <ele>855.6</ele>
        <time>2023-03-29T15:05:55Z</time>
      </trkpt>
      <trkpt lat="45.34839" lon="4.30548">
        <ele>856.6</ele>
        <time>2023-03-29T15:06:00Z</time>
      </trkpt>
      <trkpt lat="45.3484" lon="4.30544">
        <ele>856.8</ele>
        <time>2023-03-29T15:06:01Z</time>
      </trkpt>
      <trkpt lat="45.34841" lon="4.30532">
        <ele>858</ele>
        <time>2023-03-29T15:06:04Z</time>
      </trkpt>
      <trkpt lat="45.34842" lon="4.30521">
        <ele>858.8</ele>
        <time>2023-03-29T15:06:07Z</time>
      </trkpt>
      <trkpt lat="45.34842" lon="4.30517">
        <ele>859.4</ele>
        <time>2023-03-29T15:06:08Z</time>
      </trkpt>
      <trkpt lat="45.34844" lon="4.30501">
        <ele>860.4</ele>
        <time>2023-03-29T15:06:13Z</time>
      </trkpt>
      <trkpt lat="45.34845" lon="4.30498">
        <ele>860.4</ele>
        <time>2023-03-29T15:06:14Z</time>
      </trkpt>
      <trkpt lat="45.34854" lon="4.30485">
        <ele>861.4</ele>
        <time>2023-03-29T15:06:19Z</time>
      </trkpt>
      <trkpt lat="45.34856" lon="4.30484">
        <ele>861.8</ele>
        <time>2023-03-29T15:06:20Z</time>
      </trkpt>
      <trkpt lat="45.34861" lon="4.30481">
        <ele>862.4</ele>
        <time>2023-03-29T15:06:22Z</time>
      </trkpt>
      <trkpt lat="45.34874" lon="4.30475">
        <ele>863.6</ele>
        <time>2023-03-29T15:06:27Z</time>
      </trkpt>
      <trkpt lat="45.34889" lon="4.30463">
        <ele>864.6</ele>
        <time>2023-03-29T15:06:33Z</time>
      </trkpt>
      <trkpt lat="45.34891" lon="4.30461">
        <ele>864.8</ele>
        <time>2023-03-29T15:06:34Z</time>
      </trkpt>
      <trkpt lat="45.34909" lon="4.30439">
        <ele>865.8</ele>
        <time>2023-03-29T15:06:41Z</time>
      </trkpt>
      <trkpt lat="45.34912" lon="4.30435">
        <ele>866</ele>
        <time>2023-03-29T15:06:42Z</time>
      </trkpt>
      <trkpt lat="45.34925" lon="4.3041">
        <ele>867</ele>
        <time>2023-03-29T15:06:48Z</time>
      </trkpt>
      <trkpt lat="45.34927" lon="4.30405">
        <ele>867.2</ele>
        <time>2023-03-29T15:06:49Z</time>
      </trkpt>
      <trkpt lat="45.3494" lon="4.30371">
        <ele>867.4</ele>
        <time>2023-03-29T15:06:55Z</time>
      </trkpt>
      <trkpt lat="45.34958" lon="4.30334">
        <ele>867</ele>
        <time>2023-03-29T15:07:00Z</time>
      </trkpt>
      <trkpt lat="45.34982" lon="4.30304">
        <ele>866.2</ele>
        <time>2023-03-29T15:07:04Z</time>
      </trkpt>
      <trkpt lat="45.34988" lon="4.30295">
        <ele>865.4</ele>
        <time>2023-03-29T15:07:05Z</time>
      </trkpt>
      <trkpt lat="45.35019" lon="4.30254">
        <ele>864</ele>
        <time>2023-03-29T15:07:09Z</time>
      </trkpt>
      <trkpt lat="45.35036" lon="4.30231">
        <ele>863</ele>
        <time>2023-03-29T15:07:11Z</time>
      </trkpt>
      <trkpt lat="45.35054" lon="4.30206">
        <ele>861.2</ele>
        <time>2023-03-29T15:07:13Z</time>
      </trkpt>
      <trkpt lat="45.35064" lon="4.30194">
        <ele>860</ele>
        <time>2023-03-29T15:07:14Z</time>
      </trkpt>
      <trkpt lat="45.35083" lon="4.3017">
        <ele>858</ele>
        <time>2023-03-29T15:07:16Z</time>
      </trkpt>
      <trkpt lat="45.35102" lon="4.30145">
        <ele>855.6</ele>
        <time>2023-03-29T15:07:18Z</time>
      </trkpt>
      <trkpt lat="45.3512" lon="4.30121">
        <ele>854</ele>
        <time>2023-03-29T15:07:20Z</time>
      </trkpt>
      <trkpt lat="45.35138" lon="4.30097">
        <ele>851.8</ele>
        <time>2023-03-29T15:07:22Z</time>
      </trkpt>
      <trkpt lat="45.35147" lon="4.30085">
        <ele>850.8</ele>
        <time>2023-03-29T15:07:23Z</time>
      </trkpt>
      <trkpt lat="45.35175" lon="4.3005">
        <ele>849.6</ele>
        <time>2023-03-29T15:07:26Z</time>
      </trkpt>
      <trkpt lat="45.35203" lon="4.30015">
        <ele>848.2</ele>
        <time>2023-03-29T15:07:29Z</time>
      </trkpt>
      <trkpt lat="45.35233" lon="4.29978">
        <ele>846.6</ele>
        <time>2023-03-29T15:07:32Z</time>
      </trkpt>
      <trkpt lat="45.35254" lon="4.29953">
        <ele>845.4</ele>
        <time>2023-03-29T15:07:34Z</time>
      </trkpt>
      <trkpt lat="45.35274" lon="4.29928">
        <ele>844</ele>
        <time>2023-03-29T15:07:36Z</time>
      </trkpt>
      <trkpt lat="45.35295" lon="4.29903">
        <ele>842.2</ele>
        <time>2023-03-29T15:07:38Z</time>
      </trkpt>
      <trkpt lat="45.35315" lon="4.29879">
        <ele>840.4</ele>
        <time>2023-03-29T15:07:40Z</time>
      </trkpt>
      <trkpt lat="45.35333" lon="4.29857">
        <ele>838.6</ele>
        <time>2023-03-29T15:07:42Z</time>
      </trkpt>
      <trkpt lat="45.35343" lon="4.29846">
        <ele>837.6</ele>
        <time>2023-03-29T15:07:43Z</time>
      </trkpt>
      <trkpt lat="45.35351" lon="4.29836">
        <ele>837.2</ele>
        <time>2023-03-29T15:07:44Z</time>
      </trkpt>
      <trkpt lat="45.35368" lon="4.29818">
        <ele>836</ele>
        <time>2023-03-29T15:07:46Z</time>
      </trkpt>
      <trkpt lat="45.35375" lon="4.2981">
        <ele>834.6</ele>
        <time>2023-03-29T15:07:47Z</time>
      </trkpt>
      <trkpt lat="45.35387" lon="4.29798">
        <ele>833</ele>
        <time>2023-03-29T15:07:49Z</time>
      </trkpt>
      <trkpt lat="45.35391" lon="4.29793">
        <ele>831.6</ele>
        <time>2023-03-29T15:07:50Z</time>
      </trkpt>
      <trkpt lat="45.35397" lon="4.29787">
        <ele>830.2</ele>
        <time>2023-03-29T15:07:52Z</time>
      </trkpt>
      <trkpt lat="45.354" lon="4.29786">
        <ele>829.8</ele>
        <time>2023-03-29T15:07:53Z</time>
      </trkpt>
      <trkpt lat="45.35402" lon="4.29787">
        <ele>829</ele>
        <time>2023-03-29T15:07:54Z</time>
      </trkpt>
      <trkpt lat="45.35405" lon="4.29793">
        <ele>827.6</ele>
        <time>2023-03-29T15:07:56Z</time>
      </trkpt>
      <trkpt lat="45.35405" lon="4.29797">
        <ele>827</ele>
        <time>2023-03-29T15:07:57Z</time>
      </trkpt>
      <trkpt lat="45.35406" lon="4.2981">
        <ele>826.2</ele>
        <time>2023-03-29T15:07:59Z</time>
      </trkpt>
      <trkpt lat="45.35401" lon="4.2982">
        <ele>825.6</ele>
        <time>2023-03-29T15:08:01Z</time>
      </trkpt>
      <trkpt lat="45.35399" lon="4.29823">
        <ele>824.4</ele>
        <time>2023-03-29T15:08:03Z</time>
      </trkpt>
      <trkpt lat="45.35399" lon="4.29823">
        <ele>824.2</ele>
        <time>2023-03-29T15:08:04Z</time>
      </trkpt>
      <trkpt lat="45.35399" lon="4.29823">
        <ele>823.8</ele>
        <time>2023-03-29T15:08:08Z</time>
      </trkpt>
    </trkseg>
  </trk>
</gpx>